
Distance (Route):
Temperature : 24.2°C
Humidity : 38.1%
Pressure : 0hPa| Receiver | Frames | First received | Last received |
|---|---|---|---|
| 9A1FER-10 | 448 | 2026-09-04 11:14:19 | 2026-09-04 13:11:25 |
| 9A1FER-15 | 435 | 2026-09-04 11:14:20 | 2026-09-04 13:08:50 |
| 9A1FER-3 | 418 | 2026-09-04 11:14:18 | 2026-09-04 13:10:26 |
| PETON7-10 | 152 | 2026-09-04 11:54:53 | 2026-09-04 12:52:44 |
| OE5DRO-10 | 103 | 2026-09-04 12:01:12 | 2026-09-04 12:51:57 |
| OE3JTB-15 | 74 | 2026-09-04 11:47:45 | 2026-09-04 12:55:48 |
| PG1ADW-2 | 66 | 2026-09-04 12:22:12 | 2026-09-04 12:47:46 |
| OE8JPQ-2 | 51 | 2026-09-04 12:14:43 | 2026-09-04 12:48:44 |
| OM5KV | 45 | 2026-09-04 11:31:45 | 2026-09-04 11:35:31 |
| OE5DXL-15 | 11 | 2026-09-04 12:09:12 | 2026-09-04 12:49:19 |
| DO3MHA-11 | 6 | 2026-09-04 12:48:07 | 2026-09-04 12:49:13 |
| DO3MHA-12 | 2 | 2026-09-04 12:48:18 | 2026-09-04 12:48:28 |
| Receiver | Date | Latitude | Longitude | Direction | Speed | Altitude | Climb | Temperature | Humidity | Pressure | Voltage | Killtimer | Uptime | BKT | XDATA |
|---|---|---|---|---|---|---|---|---|---|---|---|---|---|---|---|
| 9A1FER-10 | 2026-09-04 13:11:25 | 45.39044 | 16.51397 | 24° | 11km/h | 848m | -12.6m/s | 24.2°C | 38.1% | 0hPa | 2.7V | 00:00:00 | 02:10:36 | 00:00:00 | |
| 9A1FER-10 | 2026-09-04 13:11:23 | 45.39040 | 16.51394 | 37° | 11km/h | 873m | -13.5m/s | 24.0°C | 38.5% | 0hPa | 2.7V | 00:00:00 | 02:10:34 | 00:00:00 | |
| 9A1FER-10 | 2026-09-04 13:11:17 | 45.39027 | 16.51381 | 40° | 13km/h | 949m | -12.6m/s | 23.3°C | 39.9% | 0hPa | 2.7V | 00:00:00 | 02:10:28 | 00:00:00 | |
| 9A1FER-10 | 2026-09-04 13:10:28 | 45.38925 | 16.51262 | 52° | 20km/h | 1492m | -11.2m/s | 18.1°C | 52.1% | 0hPa | 2.7V | 00:00:00 | 02:09:39 | 00:00:00 | |
| 9A1FER-3 | 2026-09-04 13:10:26 | 45.38922 | 16.51254 | 61° | 16km/h | 1513m | -9.7m/s | 17.8°C | 52.8% | 0hPa | 2.7V | 00:00:00 | 02:09:37 | 00:00:00 | |
| 9A1FER-10 | 2026-09-04 13:10:19 | 45.38907 | 16.51209 | 68° | 22km/h | 1589m | -11.3m/s | 17.1°C | 54.8% | 0hPa | 2.7V | 00:00:00 | 02:09:30 | 00:00:00 | |
| 9A1FER-10 | 2026-09-04 13:10:14 | 45.38897 | 16.51173 | 60° | 18km/h | 1636m | -9.5m/s | 16.7°C | 56.3% | 0hPa | 2.7V | 08:03:00 | 02:09:25 | 00:00:00 | |
| 9A1FER-10 | 2026-09-04 13:10:09 | 45.38888 | 16.51144 | 73° | 16km/h | 1684m | -8.7m/s | 16.3°C | 57.5% | 0hPa | 2.7V | 00:00:00 | 02:09:20 | 00:00:00 | |
| 9A1FER-10 | 2026-09-04 13:10:04 | 45.38879 | 16.51118 | 65° | 16km/h | 1726m | -8.1m/s | 15.9°C | 58.8% | 0hPa | 2.7V | 00:00:00 | 02:09:15 | 00:00:00 | |
| 9A1FER-10 | 2026-09-04 13:09:59 | 45.38870 | 16.51089 | 70° | 20km/h | 1772m | -10.3m/s | 15.4°C | 60.0% | 0hPa | 2.7V | 00:00:00 | 02:09:10 | 00:00:00 | |
| 9A1FER-10 | 2026-09-04 13:09:54 | 45.38861 | 16.51055 | 66° | 18km/h | 1827m | -10.6m/s | 14.9°C | 62.0% | 0hPa | 2.7V | 00:00:00 | 02:09:05 | 00:00:00 | |
| 9A1FER-10 | 2026-09-04 13:09:49 | 45.38852 | 16.51025 | 70° | 18km/h | 1879m | -9.0m/s | 14.3°C | 63.7% | 0hPa | 2.7V | 00:00:00 | 02:09:00 | 00:00:00 | |
| 9A1FER-10 | 2026-09-04 13:09:44 | 45.38844 | 16.50996 | 73° | 16km/h | 1931m | -12.0m/s | 13.8°C | 65.3% | 0hPa | 2.7V | 00:00:00 | 02:08:55 | 00:00:00 | |
| 9A1FER-10 | 2026-09-04 13:09:39 | 45.38840 | 16.50968 | 81° | 18km/h | 1990m | -11.6m/s | 13.4°C | 65.9% | 0hPa | 2.7V | 00:00:00 | 02:08:50 | 00:00:00 | |
| 9A1FER-3 | 2026-09-04 13:09:35 | 45.38840 | 16.50943 | 88° | 31km/h | 2037m | -11.6m/s | 13.1°C | 64.5% | 0hPa | 2.7V | 00:00:00 | 02:08:46 | 00:00:00 | |
| 9A1FER-10 | 2026-09-04 13:09:32 | 45.38840 | 16.50919 | 93° | 27km/h | 2071m | -12.2m/s | 12.6°C | 67.8% | 0hPa | 2.6V | 00:00:00 | 02:08:43 | 00:00:00 | |
| 9A1FER-10 | 2026-09-04 13:09:22 | 45.38848 | 16.50821 | 101° | 27km/h | 2184m | -10.9m/s | 12.5°C | 56.7% | 0hPa | 2.6V | 08:04:00 | 02:08:33 | 00:00:00 | |
| 9A1FER-10 | 2026-09-04 13:09:12 | 45.38869 | 16.50727 | 109° | 29km/h | 2293m | -10.9m/s | 12.1°C | 54.2% | 0hPa | 2.6V | 00:00:00 | 02:08:23 | 00:00:00 | |
| 9A1FER-10 | 2026-09-04 13:09:02 | 45.38892 | 16.50627 | 106° | 33km/h | 2409m | -12.0m/s | 11.4°C | 53.0% | 0hPa | 2.6V | 00:00:00 | 02:08:13 | 00:00:00 | |
| 9A1FER-10 | 2026-09-04 13:08:52 | 45.38920 | 16.50518 | 113° | 38km/h | 2526m | -12.5m/s | 10.9°C | 48.8% | 0hPa | 2.6V | 00:00:00 | 02:08:03 | 00:00:00 | |
| 9A1FER-15 | 2026-09-04 13:08:50 | 45.38927 | 16.50495 | 112° | 38km/h | 2551m | -13.2m/s | 10.8°C | 48.5% | 0hPa | 2.7V | 00:00:00 | 02:08:01 | 00:00:00 | |
| 9A1FER-3 | 2026-09-04 13:08:44 | 45.38955 | 16.50418 | 119° | 42km/h | 2628m | -11.8m/s | 10.2°C | 50.3% | 0hPa | 2.7V | 00:00:00 | 02:07:55 | 00:00:00 | |
| 9A1FER-10 | 2026-09-04 13:08:42 | 45.38966 | 16.50391 | 122° | 37km/h | 2651m | -11.3m/s | 10.1°C | 50.8% | 0hPa | 2.7V | 00:00:00 | 02:07:53 | 00:00:00 | |
| 9A1FER-15 | 2026-09-04 13:08:32 | 45.39026 | 16.50280 | 133° | 33km/h | 2776m | -13.2m/s | 9.8°C | 45.8% | 0hPa | 2.7V | 00:00:00 | 02:07:43 | 00:00:00 | |
| 9A1FER-10 | 2026-09-04 13:08:28 | 45.39052 | 16.50248 | 143° | 33km/h | 2830m | -13.8m/s | 9.3°C | 47.8% | 0hPa | 2.7V | 00:00:00 | 02:07:39 | 00:00:00 | |
| 9A1FER-15 | 2026-09-04 13:08:22 | 45.39093 | 16.50209 | 150° | 31km/h | 2909m | -11.6m/s | 8.6°C | 49.7% | 0hPa | 2.7V | 08:05:00 | 02:07:33 | 00:00:00 | |
| 9A1FER-10 | 2026-09-04 13:08:18 | 45.39120 | 16.50185 | 154° | 33km/h | 2959m | -13.0m/s | 8.1°C | 48.8% | 0hPa | 2.6V | 00:00:00 | 02:07:29 | 00:00:00 | |
| 9A1FER-3 | 2026-09-04 13:08:10 | 45.39183 | 16.50144 | 152° | 35km/h | 3062m | -13.0m/s | 7.8°C | 42.0% | 0hPa | 2.7V | 00:00:00 | 02:07:21 | 00:00:00 | |
| 9A1FER-3 | 2026-09-04 13:07:39 | 45.39428 | 16.49972 | 156° | 37km/h | 3463m | -13.6m/s | 6.6°C | 37.7% | 0hPa | 2.7V | 08:06:00 | 02:06:50 | 00:00:00 | |
| 9A1FER-15 | 2026-09-04 13:07:32 | 45.39486 | 16.49933 | 157° | 37km/h | 3555m | -13.8m/s | 5.8°C | 46.5% | 0hPa | 2.7V | 00:00:00 | 02:06:43 | 00:00:00 | |
| 9A1FER-3 | 2026-09-04 13:07:24 | 45.39555 | 16.49888 | 153° | 38km/h | 3659m | -12.0m/s | 5.0°C | 48.9% | 0hPa | 2.7V | 00:00:00 | 02:06:35 | 00:00:00 | |
| 9A1FER-10 | 2026-09-04 13:07:21 | 45.39581 | 16.49872 | 158° | 38km/h | 3696m | -12.0m/s | 4.8°C | 43.7% | 0hPa | 2.7V | 00:00:00 | 02:06:32 | 00:00:00 | |
| 9A1FER-15 | 2026-09-04 13:07:16 | 45.39625 | 16.49844 | 154° | 38km/h | 3762m | -13.4m/s | 4.8°C | 31.5% | 0hPa | 2.7V | 00:00:00 | 02:06:27 | 00:00:00 | |
| 9A1FER-3 | 2026-09-04 13:07:09 | 45.39690 | 16.49807 | 159° | 40km/h | 3855m | -14.5m/s | 4.2°C | 46.0% | 0hPa | 2.7V | 00:00:00 | 02:06:20 | 00:00:00 | |
| 9A1FER-10 | 2026-09-04 13:07:06 | 45.39719 | 16.49793 | 164° | 38km/h | 3897m | -13.6m/s | 3.9°C | 47.9% | 0hPa | 2.7V | 08:06:00 | 02:06:17 | 00:00:00 | |
| 9A1FER-3 | 2026-09-04 13:06:54 | 45.39834 | 16.49749 | 165° | 40km/h | 4055m | -12.3m/s | 2.7°C | 56.6% | 0hPa | 2.6V | 00:00:00 | 02:06:05 | 00:00:00 | |
| 9A1FER-10 | 2026-09-04 13:06:51 | 45.39863 | 16.49740 | 169° | 38km/h | 4095m | -12.8m/s | 2.3°C | 58.3% | 0hPa | 2.6V | 00:00:00 | 02:06:02 | 00:00:00 | |
| 9A1FER-15 | 2026-09-04 13:06:36 | 45.40010 | 16.49708 | 175° | 42km/h | 4292m | -13.8m/s | 0.7°C | 63.2% | 0hPa | 2.6V | 00:00:00 | 02:05:47 | 00:00:00 | |
| 9A1FER-3 | 2026-09-04 13:06:33 | 45.40041 | 16.49704 | 178° | 42km/h | 4332m | -13.9m/s | 0.3°C | 64.3% | 0hPa | 2.6V | 00:00:00 | 02:05:44 | 00:00:00 | |
| 9A1FER-15 | 2026-09-04 13:06:21 | 45.40167 | 16.49690 | 175° | 42km/h | 4486m | -13.2m/s | -1.0°C | 67.5% | 0hPa | 2.6V | 00:00:00 | 02:05:32 | 00:00:00 | |
| 9A1FER-3 | 2026-09-04 13:06:18 | 45.40197 | 16.49685 | 172° | 42km/h | 4521m | -13.0m/s | -1.2°C | 67.5% | 0hPa | 2.6V | 00:00:00 | 02:05:29 | 00:00:00 | |
| 9A1FER-15 | 2026-09-04 13:06:05 | 45.40333 | 16.49659 | 174° | 42km/h | 4695m | -13.1m/s | -2.0°C | 55.8% | 0hPa | 2.6V | 00:00:00 | 02:05:16 | 00:00:00 | |
| 9A1FER-3 | 2026-09-04 13:06:03 | 45.40354 | 16.49656 | 173° | 42km/h | 4722m | -13.1m/s | -2.2°C | 56.2% | 0hPa | 2.7V | 00:00:00 | 02:05:14 | 00:00:00 | |
| 9A1FER-10 | 2026-09-04 13:05:59 | 45.40398 | 16.49649 | 176° | 44km/h | 4773m | -12.6m/s | -2.6°C | 55.9% | 0hPa | 2.7V | 00:00:00 | 02:05:10 | 00:00:00 | |
| 9A1FER-15 | 2026-09-04 13:05:49 | 45.40505 | 16.49624 | 167° | 44km/h | 4900m | -12.7m/s | -3.7°C | 58.4% | 0hPa | 2.7V | 00:00:00 | 02:05:00 | 00:00:00 | |
| 9A1FER-3 | 2026-09-04 13:05:48 | 45.40515 | 16.49620 | 164° | 44km/h | 4913m | -12.9m/s | -3.8°C | 58.9% | 0hPa | 2.7V | 00:00:00 | 02:04:59 | 00:00:00 | |
| 9A1FER-10 | 2026-09-04 13:05:44 | 45.40558 | 16.49603 | 165° | 44km/h | 4962m | -11.9m/s | -4.2°C | 61.6% | 0hPa | 2.7V | 00:00:00 | 02:04:55 | 00:00:00 | |
| 9A1FER-15 | 2026-09-04 13:05:34 | 45.40660 | 16.49547 | 159° | 42km/h | 5093m | -14.6m/s | -5.3°C | 63.9% | 0hPa | 2.7V | 00:00:00 | 02:04:45 | 00:00:00 | |
| 9A1FER-3 | 2026-09-04 13:05:33 | 45.40670 | 16.49541 | 154° | 42km/h | 5108m | -14.2m/s | -5.4°C | 64.5% | 0hPa | 2.7V | 00:00:00 | 02:04:44 | 00:00:00 | |
| 9A1FER-10 | 2026-09-04 13:05:29 | 45.40709 | 16.49516 | 157° | 40km/h | 5162m | -13.4m/s | -5.9°C | 67.6% | 0hPa | 2.7V | 00:00:00 | 02:04:40 | 00:00:00 | |
| 9A1FER-15 | 2026-09-04 13:05:19 | 45.40800 | 16.49445 | 151° | 38km/h | 5300m | -13.6m/s | -7.0°C | 60.9% | 0hPa | 2.6V | 08:08:00 | 02:04:30 | 00:00:00 | |
| 9A1FER-3 | 2026-09-04 13:05:18 | 45.40809 | 16.49438 | 149° | 46km/h | 5314m | -12.9m/s | -7.1°C | 60.7% | 0hPa | 2.6V | 08:08:00 | 02:04:29 | 00:00:00 | |
| 9A1FER-10 | 2026-09-04 13:05:14 | 45.40843 | 16.49410 | 149° | 40km/h | 5366m | -13.2m/s | -7.6°C | 60.3% | 0hPa | 2.6V | 00:00:00 | 02:04:25 | 00:00:00 | |
| 9A1FER-15 | 2026-09-04 13:05:04 | 45.40926 | 16.49345 | 150° | 44km/h | 5498m | -12.8m/s | -8.7°C | 54.8% | 0hPa | 2.6V | 00:00:00 | 02:04:15 | 00:00:00 | |
| 9A1FER-10 | 2026-09-04 13:04:55 | 45.41007 | 16.49280 | 150° | 49km/h | 5610m | -13.0m/s | -9.3°C | 36.1% | 0hPa | 2.6V | 00:00:00 | 02:04:06 | 00:00:00 | |
| 9A1FER-15 | 2026-09-04 13:04:49 | 45.41069 | 16.49226 | 150° | 51km/h | 5686m | -13.0m/s | -9.3°C | 25.6% | 0hPa | 2.6V | 00:00:00 | 02:04:00 | 00:00:00 | |
| 9A1FER-3 | 2026-09-04 13:04:47 | 45.41091 | 16.49208 | 152° | 53km/h | 5711m | -12.1m/s | -9.1°C | 20.7% | 0hPa | 2.6V | 00:00:00 | 02:03:58 | 00:00:00 | |
| 9A1FER-10 | 2026-09-04 13:04:40 | 45.41174 | 16.49146 | 154° | 55km/h | 5800m | -12.8m/s | -9.4°C | 16.9% | 0hPa | 2.6V | 08:09:00 | 02:03:51 | 00:00:00 | |
| 9A1FER-3 | 2026-09-04 13:04:32 | 45.41270 | 16.49083 | 156° | 55km/h | 5897m | -13.4m/s | -9.3°C | 11.4% | 0hPa | 2.6V | 00:00:00 | 02:03:43 | 00:00:00 | |
| 9A1FER-10 | 2026-09-04 13:04:25 | 45.41362 | 16.49029 | 159° | 55km/h | 5986m | -13.3m/s | -9.7°C | 8.6% | 0hPa | 2.6V | 00:00:00 | 02:03:36 | 00:00:00 | |
| 9A1FER-15 | 2026-09-04 13:04:24 | 45.41376 | 16.49022 | 159° | 53km/h | 5999m | -12.7m/s | -9.7°C | 8.2% | 0hPa | 2.6V | 00:00:00 | 02:03:35 | 00:00:00 | |
| 9A1FER-3 | 2026-09-04 13:04:17 | 45.41465 | 16.48966 | 155° | 53km/h | 6087m | -12.0m/s | -10.1°C | 8.1% | 0hPa | 2.6V | 00:00:00 | 02:03:28 | 00:00:00 | |
| 9A1FER-10 | 2026-09-04 13:04:10 | 45.41549 | 16.48908 | 152° | 55km/h | 6175m | -12.5m/s | -10.4°C | 7.8% | 0hPa | 2.6V | 00:00:00 | 02:03:21 | 00:00:00 | |
| 9A1FER-15 | 2026-09-04 13:04:09 | 45.41560 | 16.48899 | 152° | 55km/h | 6187m | -12.0m/s | -10.4°C | 7.9% | 0hPa | 2.6V | 00:00:00 | 02:03:20 | 00:00:00 | |
| 9A1FER-3 | 2026-09-04 13:04:02 | 45.41644 | 16.48831 | 151° | 53km/h | 6273m | -12.3m/s | -10.5°C | 6.8% | 0hPa | 2.6V | 00:00:00 | 02:03:13 | 00:00:00 | |
| 9A1FER-10 | 2026-09-04 13:03:55 | 45.41726 | 16.48760 | 147° | 51km/h | 6347m | -10.0m/s | -10.7°C | 6.4% | 0hPa | 2.6V | 00:00:00 | 02:03:06 | 00:00:00 | |
| 9A1FER-15 | 2026-09-04 13:03:54 | 45.41737 | 16.48749 | 147° | 49km/h | 6358m | -10.5m/s | -10.7°C | 6.4% | 0hPa | 2.6V | 00:00:00 | 02:03:05 | 00:00:00 | |
| 9A1FER-10 | 2026-09-04 13:03:41 | 45.41887 | 16.48624 | 149° | 47km/h | 6530m | -13.7m/s | -11.7°C | 6.4% | 0hPa | 2.6V | 00:00:00 | 02:02:51 | 00:00:00 | |
| 9A1FER-15 | 2026-09-04 13:03:39 | 45.41897 | 16.48616 | 152° | 47km/h | 6543m | -12.0m/s | -11.8°C | 6.3% | 0hPa | 2.6V | 00:00:00 | 02:02:50 | 00:00:00 | |
| 9A1FER-15 | 2026-09-04 13:03:24 | 45.42051 | 16.48478 | 147° | 55km/h | 6720m | -12.6m/s | -12.6°C | 5.4% | 0hPa | 2.6V | 00:00:00 | 02:02:35 | 00:00:00 | |
| 9A1FER-3 | 2026-09-04 13:03:19 | 45.42106 | 16.48422 | 147° | 55km/h | 6780m | -12.8m/s | -13.0°C | 7.1% | 0hPa | 2.6V | 00:00:00 | 02:02:30 | 00:00:00 | |
| 9A1FER-10 | 2026-09-04 13:03:10 | 45.42209 | 16.48312 | 142° | 55km/h | 6888m | -11.1m/s | -13.6°C | 6.2% | 0hPa | 2.6V | 00:00:00 | 02:02:21 | 00:00:00 | |
| 9A1FER-15 | 2026-09-04 13:03:09 | 45.42219 | 16.48301 | 142° | 55km/h | 6899m | -11.8m/s | -13.7°C | 6.0% | 0hPa | 2.6V | 00:00:00 | 02:02:20 | 00:00:00 | |
| 9A1FER-3 | 2026-09-04 13:03:03 | 45.42284 | 16.48228 | 142° | 55km/h | 6967m | -11.7m/s | -14.2°C | 5.7% | 0hPa | 2.6V | 00:00:00 | 02:02:14 | 00:00:00 | |
| 9A1FER-10 | 2026-09-04 13:02:55 | 45.42369 | 16.48130 | 143° | 55km/h | 7055m | -12.6m/s | -14.9°C | 8.0% | 0hPa | 2.6V | 00:00:00 | 02:02:06 | 00:00:00 | |
| 9A1FER-15 | 2026-09-04 13:02:54 | 45.42380 | 16.48119 | 145° | 55km/h | 7067m | -11.8m/s | -15.0°C | 7.8% | 0hPa | 2.6V | 08:10:00 | 02:02:05 | 00:00:00 | |
| 9A1FER-3 | 2026-09-04 13:02:48 | 45.42445 | 16.48046 | 145° | 57km/h | 7134m | -11.1m/s | -15.6°C | 7.8% | 0hPa | 2.6V | 00:00:00 | 02:01:59 | 00:00:00 | |
| 9A1FER-10 | 2026-09-04 13:02:40 | 45.42535 | 16.47948 | 144° | 55km/h | 7233m | -12.2m/s | -16.4°C | 10.6% | 0hPa | 2.6V | 00:00:00 | 02:01:51 | 00:00:00 | |
| 9A1FER-15 | 2026-09-04 13:02:39 | 45.42546 | 16.47936 | 143° | 53km/h | 7245m | -13.4m/s | -16.5°C | 10.7% | 0hPa | 2.6V | 00:00:00 | 02:01:50 | 00:00:00 | |
| 9A1FER-3 | 2026-09-04 13:02:33 | 45.42613 | 16.47860 | 141° | 53km/h | 7322m | -12.2m/s | -17.1°C | 11.5% | 0hPa | 2.6V | 00:00:00 | 02:01:44 | 00:00:00 | |
| 9A1FER-10 | 2026-09-04 13:02:25 | 45.42699 | 16.47764 | 143° | 53km/h | 7411m | -12.9m/s | -17.9°C | 11.9% | 0hPa | 2.6V | 08:11:00 | 02:01:36 | 00:00:00 | |
| 9A1FER-3 | 2026-09-04 13:02:18 | 45.42772 | 16.47682 | 143° | 53km/h | 7494m | -10.5m/s | -18.6°C | 12.6% | 0hPa | 2.5V | 08:11:00 | 02:01:29 | 00:00:00 | |
| 9A1FER-15 | 2026-09-04 13:02:15 | 45.42802 | 16.47647 | 142° | 55km/h | 7524m | -10.2m/s | -18.9°C | 13.1% | 0hPa | 2.6V | 00:00:00 | 02:01:26 | 00:00:00 | |
| 9A1FER-10 | 2026-09-04 13:02:10 | 45.42854 | 16.47587 | 142° | 57km/h | 7579m | -11.7m/s | -19.3°C | 14.7% | 0hPa | 2.6V | 00:00:00 | 02:01:21 | 00:00:00 | |
| 9A1FER-3 | 2026-09-04 13:02:03 | 45.42927 | 16.47497 | 140° | 58km/h | 7669m | -12.3m/s | -20.0°C | 16.5% | 0hPa | 2.6V | 00:00:00 | 02:01:14 | 00:00:00 | |
| 9A1FER-15 | 2026-09-04 13:02:00 | 45.42960 | 16.47458 | 140° | 58km/h | 7705m | -12.3m/s | -20.3°C | 15.7% | 0hPa | 2.6V | 00:00:00 | 02:01:11 | 00:00:00 | |
| 9A1FER-10 | 2026-09-04 13:01:55 | 45.43016 | 16.47387 | 138° | 58km/h | 7759m | -9.4m/s | -20.7°C | 15.2% | 0hPa | 2.6V | 00:00:00 | 02:01:06 | 00:00:00 | |
| 9A1FER-3 | 2026-09-04 13:01:48 | 45.43095 | 16.47289 | 141° | 58km/h | 7834m | -11.9m/s | -21.1°C | 12.6% | 0hPa | 2.6V | 00:00:00 | 02:00:59 | 00:00:00 | |
| 9A1FER-15 | 2026-09-04 13:01:45 | 45.43129 | 16.47247 | 140° | 58km/h | 7871m | -11.2m/s | -21.4°C | 12.9% | 0hPa | 2.6V | 00:00:00 | 02:00:56 | 00:00:00 | |
| 9A1FER-10 | 2026-09-04 13:01:40 | 45.43185 | 16.47176 | 138° | 55km/h | 7928m | -10.6m/s | -21.7°C | 15.4% | 0hPa | 2.6V | 00:00:00 | 02:00:51 | 00:00:00 | |
| 9A1FER-3 | 2026-09-04 13:01:33 | 45.43258 | 16.47075 | 135° | 53km/h | 7999m | -10.9m/s | -22.2°C | 18.0% | 0hPa | 2.6V | 00:00:00 | 02:00:44 | 00:00:00 | |
| 9A1FER-15 | 2026-09-04 13:01:30 | 45.43287 | 16.47032 | 136° | 53km/h | 8033m | -11.5m/s | -22.5°C | 20.4% | 0hPa | 2.6V | 00:00:00 | 02:00:41 | 00:00:00 | |
| 9A1FER-10 | 2026-09-04 13:01:25 | 45.43334 | 16.46965 | 135° | 51km/h | 8087m | -11.1m/s | -22.9°C | 21.0% | 0hPa | 2.6V | 00:00:00 | 02:00:36 | 00:00:00 | |
| 9A1FER-3 | 2026-09-04 13:01:18 | 45.43395 | 16.46868 | 133° | 51km/h | 8165m | -11.6m/s | -23.5°C | 21.0% | 0hPa | 2.6V | 00:00:00 | 02:00:29 | 00:00:00 | |
| 9A1FER-15 | 2026-09-04 13:01:15 | 45.43422 | 16.46829 | 134° | 51km/h | 8198m | -9.5m/s | -23.8°C | 20.6% | 0hPa | 2.6V | 00:00:00 | 02:00:26 | 00:00:00 | |
| 9A1FER-10 | 2026-09-04 13:01:10 | 45.43466 | 16.46764 | 133° | 51km/h | 8251m | -9.9m/s | -24.2°C | 21.4% | 0hPa | 2.5V | 00:00:00 | 02:00:21 | 00:00:00 | |
| 9A1FER-3 | 2026-09-04 13:01:03 | 45.43527 | 16.46671 | 136° | 51km/h | 8321m | -12.0m/s | -24.8°C | 20.6% | 0hPa | 2.5V | 00:00:00 | 02:00:14 | 00:00:00 | |
| 9A1FER-10 | 2026-09-04 13:00:55 | 45.43600 | 16.46567 | 137° | 51km/h | 8410m | -10.3m/s | -25.5°C | 19.2% | 0hPa | 2.5V | 00:00:00 | 02:00:06 | 00:00:00 | |
| 9A1FER-3 | 2026-09-04 13:00:48 | 45.43664 | 16.46478 | 138° | 53km/h | 8483m | -11.8m/s | -26.0°C | 23.9% | 0hPa | 2.6V | 00:00:00 | 01:59:59 | 00:00:00 | |
| 9A1FER-10 | 2026-09-04 13:00:40 | 45.43741 | 16.46379 | 140° | 55km/h | 8567m | -12.0m/s | -26.6°C | 18.9% | 0hPa | 2.5V | 00:00:00 | 01:59:51 | 00:00:00 | |
| 9A1FER-15 | 2026-09-04 13:00:35 | 45.43793 | 16.46318 | 144° | 55km/h | 8621m | -10.9m/s | -26.7°C | 16.0% | 0hPa | 2.5V | 00:00:00 | 01:59:46 | 00:00:00 | |
| 9A1FER-3 | 2026-09-04 13:00:33 | 45.43815 | 16.46294 | 141° | 55km/h | 8644m | -10.7m/s | -26.9°C | 17.3% | 0hPa | 2.5V | 00:00:00 | 01:59:44 | 00:00:00 | |
| 9A1FER-10 | 2026-09-04 13:00:25 | 45.43903 | 16.46195 | 142° | 53km/h | 8732m | -11.2m/s | -27.7°C | 20.7% | 0hPa | 2.5V | 00:00:00 | 01:59:36 | 00:00:00 | |
| 9A1FER-15 | 2026-09-04 13:00:20 | 45.43958 | 16.46137 | 146° | 51km/h | 8787m | -11.8m/s | -28.1°C | 18.5% | 0hPa | 2.5V | 00:00:00 | 01:59:31 | 00:00:00 | |
| 9A1FER-3 | 2026-09-04 13:00:18 | 45.43979 | 16.46115 | 146° | 51km/h | 8810m | -10.6m/s | -28.3°C | 16.3% | 0hPa | 2.5V | 00:00:00 | 01:59:29 | 00:00:00 | |
| 9A1FER-10 | 2026-09-04 13:00:10 | 45.44066 | 16.46033 | 149° | 51km/h | 8900m | -12.5m/s | -29.0°C | 15.9% | 0hPa | 2.5V | 08:13:00 | 01:59:21 | 00:00:00 | |
| 9A1FER-15 | 2026-09-04 13:00:05 | 45.44119 | 16.45986 | 148° | 53km/h | 8956m | -10.7m/s | -29.5°C | 16.1% | 0hPa | 2.6V | 08:13:00 | 01:59:16 | 00:00:00 | |
| 9A1FER-10 | 2026-09-04 12:59:55 | 45.44232 | 16.45887 | 147° | 55km/h | 9060m | -10.2m/s | -30.3°C | 16.9% | 0hPa | 2.6V | 00:00:00 | 01:59:06 | 00:00:00 | |
| 9A1FER-15 | 2026-09-04 12:59:50 | 45.44289 | 16.45832 | 145° | 55km/h | 9110m | -9.9m/s | -30.7°C | 20.4% | 0hPa | 2.6V | 00:00:00 | 01:59:01 | 00:00:00 | |
| 9A1FER-3 | 2026-09-04 12:59:48 | 45.44312 | 16.45808 | 143° | 55km/h | 9134m | -11.7m/s | -30.9°C | 22.5% | 0hPa | 2.6V | 00:00:00 | 01:58:59 | 00:00:00 | |
| 9A1FER-10 | 2026-09-04 12:59:40 | 45.44399 | 16.45708 | 140° | 57km/h | 9222m | -10.9m/s | -31.7°C | 25.1% | 0hPa | 2.6V | 00:00:00 | 01:58:51 | 00:00:00 | |
| 9A1FER-15 | 2026-09-04 12:59:35 | 45.44452 | 16.45643 | 140° | 58km/h | 9273m | -10.3m/s | -32.2°C | 26.0% | 0hPa | 2.6V | 00:00:00 | 01:58:46 | 00:00:00 | |
| 9A1FER-3 | 2026-09-04 12:59:33 | 45.44474 | 16.45617 | 141° | 58km/h | 9292m | -9.6m/s | -32.3°C | 26.2% | 0hPa | 2.6V | 00:00:00 | 01:58:44 | 00:00:00 | |
| 9A1FER-10 | 2026-09-04 12:59:25 | 45.44562 | 16.45505 | 138° | 60km/h | 9381m | -11.0m/s | -33.1°C | 24.3% | 0hPa | 2.6V | 00:00:00 | 01:58:36 | 00:00:00 | |
| 9A1FER-15 | 2026-09-04 12:59:20 | 45.44617 | 16.45431 | 137° | 62km/h | 9431m | -10.5m/s | -33.6°C | 24.2% | 0hPa | 2.6V | 00:00:00 | 01:58:31 | 00:00:00 | |
| 9A1FER-3 | 2026-09-04 12:59:18 | 45.44639 | 16.45402 | 138° | 62km/h | 9453m | -11.4m/s | -33.7°C | 24.1% | 0hPa | 2.6V | 00:00:00 | 01:58:29 | 00:00:00 | |
| 9A1FER-10 | 2026-09-04 12:59:10 | 45.44733 | 16.45283 | 141° | 64km/h | 9547m | -13.0m/s | -34.4°C | 22.0% | 0hPa | 2.6V | 00:00:00 | 01:58:21 | 00:00:00 | |
| 9A1FER-15 | 2026-09-04 12:59:05 | 45.44795 | 16.45209 | 142° | 64km/h | 9602m | -8.6m/s | -34.9°C | 22.3% | 0hPa | 2.6V | 00:00:00 | 01:58:16 | 00:00:00 | |
| 9A1FER-3 | 2026-09-04 12:59:03 | 45.44820 | 16.45181 | 142° | 64km/h | 9620m | -8.4m/s | -35.0°C | 22.3% | 0hPa | 2.6V | 00:00:00 | 01:58:14 | 00:00:00 | |
| 9A1FER-10 | 2026-09-04 12:58:55 | 45.44918 | 16.45064 | 140° | 68km/h | 9712m | -11.9m/s | -35.8°C | 21.2% | 0hPa | 2.6V | 00:00:00 | 01:58:06 | 00:00:00 | |
| 9A1FER-15 | 2026-09-04 12:58:50 | 45.44982 | 16.44987 | 140° | 68km/h | 9776m | -11.9m/s | -36.4°C | 18.2% | 0hPa | 2.6V | 00:00:00 | 01:58:01 | 00:00:00 | |
| 9A1FER-3 | 2026-09-04 12:58:48 | 45.45008 | 16.44956 | 140° | 68km/h | 9800m | -9.9m/s | -36.6°C | 18.2% | 0hPa | 2.6V | 00:00:00 | 01:57:59 | 00:00:00 | |
| 9A1FER-10 | 2026-09-04 12:58:40 | 45.45111 | 16.44829 | 139° | 66km/h | 9888m | -11.6m/s | -37.4°C | 18.9% | 0hPa | 2.6V | 00:00:00 | 01:57:51 | 00:00:00 | |
| 9A1FER-15 | 2026-09-04 12:58:35 | 45.45175 | 16.44752 | 141° | 66km/h | 9942m | -12.9m/s | -37.9°C | 23.8% | 0hPa | 2.6V | 00:00:00 | 01:57:46 | 00:00:00 | |
| 9A1FER-3 | 2026-09-04 12:58:33 | 45.45201 | 16.44722 | 141° | 64km/h | 9967m | -10.8m/s | -38.1°C | 28.3% | 0hPa | 2.5V | 00:00:00 | 01:57:44 | 00:00:00 | |
| 9A1FER-10 | 2026-09-04 12:58:25 | 45.45303 | 16.44605 | 142° | 64km/h | 10061m | -10.4m/s | -39.0°C | 34.9% | 0hPa | 2.5V | 00:00:00 | 01:57:36 | 00:00:00 | |
| 9A1FER-15 | 2026-09-04 12:58:20 | 45.45367 | 16.44531 | 141° | 64km/h | 10121m | -11.3m/s | -39.5°C | 37.8% | 0hPa | 2.5V | 00:00:00 | 01:57:31 | 00:00:00 | |
| 9A1FER-3 | 2026-09-04 12:58:18 | 45.45392 | 16.44501 | 139° | 64km/h | 10147m | -13.9m/s | -39.7°C | 38.8% | 0hPa | 2.5V | 00:00:00 | 01:57:29 | 00:00:00 | |
| 9A1FER-10 | 2026-09-04 12:58:10 | 45.45488 | 16.44377 | 138° | 66km/h | 10236m | -10.2m/s | -40.5°C | 42.9% | 0hPa | 2.5V | 00:00:00 | 01:57:21 | 00:00:00 | |
| 9A1FER-15 | 2026-09-04 12:58:05 | 45.45550 | 16.44302 | 140° | 66km/h | 10293m | -13.3m/s | -41.0°C | 33.4% | 0hPa | 2.5V | 00:00:00 | 01:57:16 | 00:00:00 | |
| 9A1FER-3 | 2026-09-04 12:58:03 | 45.45576 | 16.44273 | 142° | 66km/h | 10319m | -12.0m/s | -41.2°C | 33.7% | 0hPa | 2.5V | 00:00:00 | 01:57:14 | 00:00:00 | |
| 9A1FER-10 | 2026-09-04 12:57:55 | 45.45680 | 16.44153 | 140° | 64km/h | 10420m | -14.6m/s | -42.1°C | 33.1% | 0hPa | 2.5V | 08:15:00 | 01:57:06 | 00:00:00 | |
| 9A1FER-15 | 2026-09-04 12:57:50 | 45.45744 | 16.44078 | 140° | 64km/h | 10484m | -12.2m/s | -42.7°C | 37.4% | 0hPa | 2.6V | 08:16:00 | 01:57:01 | 00:00:00 | |
| 9A1FER-3 | 2026-09-04 12:57:48 | 45.45769 | 16.44048 | 138° | 64km/h | 10505m | -13.1m/s | -42.9°C | 36.9% | 0hPa | 2.6V | 08:16:00 | 01:56:59 | 00:00:00 | |
| 9A1FER-10 | 2026-09-04 12:57:40 | 45.45867 | 16.43930 | 141° | 66km/h | 10609m | -14.7m/s | -43.8°C | 33.7% | 0hPa | 2.6V | 00:00:00 | 01:56:51 | 00:00:00 | |
| 9A1FER-15 | 2026-09-04 12:57:35 | 45.45931 | 16.43856 | 143° | 66km/h | 10684m | -14.7m/s | -44.5°C | 38.1% | 0hPa | 2.6V | 00:00:00 | 01:56:46 | 00:00:00 | |
| 9A1FER-3 | 2026-09-04 12:57:33 | 45.45956 | 16.43827 | 142° | 66km/h | 10715m | -16.4m/s | -44.7°C | 40.3% | 0hPa | 2.6V | 00:00:00 | 01:56:44 | 00:00:00 | |
| 9A1FER-10 | 2026-09-04 12:57:25 | 45.46064 | 16.43717 | 145° | 68km/h | 10822m | -12.9m/s | -45.8°C | 46.3% | 0hPa | 2.6V | 00:00:00 | 01:56:36 | 00:00:00 | |
| 9A1FER-15 | 2026-09-04 12:57:20 | 45.46134 | 16.43651 | 150° | 68km/h | 10889m | -15.5m/s | -46.4°C | 46.0% | 0hPa | 2.6V | 00:00:00 | 01:56:31 | 00:00:00 | |
| 9A1FER-3 | 2026-09-04 12:57:18 | 45.46163 | 16.43626 | 150° | 68km/h | 10919m | -15.2m/s | -46.6°C | 46.7% | 0hPa | 2.6V | 00:00:00 | 01:56:29 | 00:00:00 | |
| 9A1FER-10 | 2026-09-04 12:57:10 | 45.46281 | 16.43523 | 146° | 66km/h | 11026m | -14.9m/s | -47.6°C | 38.6% | 0hPa | 2.6V | 00:00:00 | 01:56:21 | 00:00:00 | |
| 9A1FER-15 | 2026-09-04 12:57:06 | 45.46349 | 16.43456 | 143° | 62km/h | 11103m | -16.5m/s | -48.2°C | 33.8% | 0hPa | 2.6V | 00:00:00 | 01:56:16 | 00:00:00 | |
| 9A1FER-3 | 2026-09-04 12:57:03 | 45.46375 | 16.43427 | 144° | 62km/h | 11134m | -14.5m/s | -48.5°C | 33.0% | 0hPa | 2.7V | 00:00:00 | 01:56:14 | 00:00:00 | |
| 9A1FER-10 | 2026-09-04 12:56:55 | 45.46480 | 16.43319 | 147° | 58km/h | 11266m | -17.3m/s | -49.5°C | 36.1% | 0hPa | 2.6V | 00:00:00 | 01:56:06 | 00:00:00 | |
| 9A1FER-15 | 2026-09-04 12:56:50 | 45.46540 | 16.43256 | 146° | 58km/h | 11345m | -17.2m/s | -50.1°C | 40.4% | 0hPa | 2.6V | 00:00:00 | 01:56:01 | 00:00:00 | |
| 9A1FER-3 | 2026-09-04 12:56:49 | 45.46564 | 16.43231 | 143° | 58km/h | 11378m | -16.4m/s | -50.4°C | 43.0% | 0hPa | 2.6V | 00:00:00 | 01:55:59 | 00:00:00 | |
| 9A1FER-10 | 2026-09-04 12:56:40 | 45.46660 | 16.43132 | 145° | 60km/h | 11492m | -12.3m/s | -51.3°C | 49.3% | 0hPa | 2.6V | 00:00:00 | 01:55:51 | 00:00:00 | |
| 9A1FER-15 | 2026-09-04 12:56:35 | 45.46721 | 16.43072 | 147° | 62km/h | 11565m | -14.4m/s | -51.9°C | 46.2% | 0hPa | 2.6V | 00:00:00 | 01:55:46 | 00:00:00 | |
| 9A1FER-3 | 2026-09-04 12:56:33 | 45.46746 | 16.43048 | 147° | 62km/h | 11593m | -13.7m/s | -52.2°C | 46.0% | 0hPa | 2.6V | 00:00:00 | 01:55:44 | 00:00:00 | |
| 9A1FER-10 | 2026-09-04 12:56:25 | 45.46849 | 16.42954 | 150° | 60km/h | 11720m | -16.6m/s | -53.2°C | 44.5% | 0hPa | 2.6V | 00:00:00 | 01:55:36 | 00:00:00 | |
| 9A1FER-15 | 2026-09-04 12:56:20 | 45.46918 | 16.42896 | 153° | 60km/h | 11806m | -17.4m/s | -54.0°C | 46.1% | 0hPa | 2.6V | 00:00:00 | 01:55:31 | 00:00:00 | |
| 9A1FER-3 | 2026-09-04 12:56:18 | 45.46945 | 16.42875 | 152° | 60km/h | 11842m | -17.2m/s | -54.3°C | 46.9% | 0hPa | 2.6V | 00:00:00 | 01:55:29 | 00:00:00 | |
| 9A1FER-10 | 2026-09-04 12:56:10 | 45.47053 | 16.42795 | 152° | 58km/h | 11969m | -15.7m/s | -55.4°C | 49.7% | 0hPa | 2.6V | 00:00:00 | 01:55:21 | 00:00:00 | |
| 9A1FER-15 | 2026-09-04 12:56:05 | 45.47120 | 16.42747 | 154° | 60km/h | 12042m | -11.8m/s | -56.0°C | 50.2% | 0hPa | 2.6V | 00:00:00 | 01:55:16 | 00:00:00 | |
| 9A1FER-3 | 2026-09-04 12:56:03 | 45.47147 | 16.42728 | 153° | 60km/h | 12069m | -15.8m/s | -56.2°C | 49.3% | 0hPa | 2.6V | 00:00:00 | 01:55:14 | 00:00:00 | |
| 9A1FER-10 | 2026-09-04 12:55:55 | 45.47256 | 16.42655 | 158° | 64km/h | 12188m | -15.8m/s | -57.0°C | 45.5% | 0hPa | 2.6V | 00:00:00 | 01:55:06 | 00:00:00 | |
| 9A1FER-15 | 2026-09-04 12:55:50 | 45.47329 | 16.42613 | 157° | 64km/h | 12267m | -17.3m/s | -57.6°C | 43.2% | 0hPa | 2.6V | 00:00:00 | 01:55:01 | 00:00:00 | |
| OE3JTB-15 | 2026-09-04 12:55:48 | 45.47405 | 16.42569 | 157° | 62km/h | 12351m | -17.4m/s | -58.4°C | 43.8% | 0hPa | 2.6V | 00:00:00 | 00:00:00 | 00:00:00 | |
| 9A1FER-10 | 2026-09-04 12:55:40 | 45.47479 | 16.42527 | 161° | 62km/h | 12444m | -18.1m/s | -59.1°C | 45.4% | 0hPa | 2.6V | 08:18:00 | 01:54:51 | 00:00:00 | |
| 9A1FER-15 | 2026-09-04 12:55:35 | 45.47553 | 16.42492 | 163° | 64km/h | 12528m | -17.5m/s | -59.9°C | 48.2% | 0hPa | 2.7V | 08:18:00 | 01:54:46 | 00:00:00 | |
| 9A1FER-3 | 2026-09-04 12:55:33 | 45.47583 | 16.42481 | 166° | 64km/h | 12561m | -15.3m/s | -60.2°C | 49.7% | 0hPa | 2.6V | 08:18:00 | 01:54:44 | 00:00:00 | |
| 9A1FER-10 | 2026-09-04 12:55:25 | 45.47706 | 16.42437 | 166° | 66km/h | 12699m | -19.3m/s | -61.3°C | 49.2% | 0hPa | 2.7V | 00:00:00 | 01:54:36 | 00:00:00 | |
| 9A1FER-15 | 2026-09-04 12:55:20 | 45.47788 | 16.42411 | 167° | 62km/h | 12794m | -19.4m/s | -62.0°C | 48.4% | 0hPa | 2.7V | 00:00:00 | 01:54:31 | 00:00:00 | |
| 9A1FER-3 | 2026-09-04 12:55:18 | 45.47821 | 16.42402 | 170° | 62km/h | 12832m | -18.7m/s | -62.3°C | 48.2% | 0hPa | 2.7V | 00:00:00 | 01:54:29 | 00:00:00 | |
| OE3JTB-15 | 2026-09-04 12:55:15 | 45.47918 | 16.42384 | 175° | 58km/h | 12944m | -19.5m/s | -63.2°C | 48.9% | 0hPa | 2.7V | 00:00:00 | 01:54:23 | 00:00:00 | |
| 9A1FER-10 | 2026-09-04 12:55:10 | 45.47949 | 16.42380 | 175° | 60km/h | 12983m | -19.2m/s | -63.5°C | 49.0% | 0hPa | 2.7V | 00:00:00 | 01:54:21 | 00:00:00 | |
| 9A1FER-15 | 2026-09-04 12:55:05 | 45.48021 | 16.42373 | 177° | 58km/h | 13076m | -18.4m/s | -64.2°C | 49.5% | 0hPa | 2.7V | 00:00:00 | 01:54:16 | 00:00:00 | |
| 9A1FER-3 | 2026-09-04 12:55:03 | 45.48051 | 16.42371 | 178° | 57km/h | 13112m | -18.7m/s | -64.5°C | 50.2% | 0hPa | 2.7V | 00:00:00 | 01:54:14 | 00:00:00 | |
| 9A1FER-10 | 2026-09-04 12:54:55 | 45.48174 | 16.42374 | 185° | 51km/h | 13259m | -18.1m/s | -64.9°C | 46.8% | 0hPa | 2.7V | 00:00:00 | 01:54:06 | 00:00:00 | |
| 9A1FER-15 | 2026-09-04 12:54:50 | 45.48242 | 16.42384 | 186° | 49km/h | 13348m | -17.6m/s | -64.6°C | 42.8% | 0hPa | 2.7V | 00:00:00 | 01:54:01 | 00:00:00 | |
| 9A1FER-3 | 2026-09-04 12:54:48 | 45.48267 | 16.42385 | 181° | 51km/h | 13383m | -17.8m/s | -64.7°C | 41.7% | 0hPa | 2.6V | 00:00:00 | 01:53:59 | 00:00:00 | |
| OE3JTB-15 | 2026-09-04 12:54:44 | 45.48352 | 16.42366 | 162° | 66km/h | 13509m | -18.0m/s | -65.3°C | 38.1% | 0hPa | 2.6V | 00:00:00 | 00:00:00 | 00:00:00 | |
| 9A1FER-10 | 2026-09-04 12:54:40 | 45.48364 | 16.42360 | 162° | 60km/h | 13527m | -18.3m/s | -65.4°C | 37.8% | 0hPa | 2.6V | 00:00:00 | 01:53:51 | 00:00:00 | |
| 9A1FER-15 | 2026-09-04 12:54:35 | 45.48426 | 16.42324 | 154° | 69km/h | 13615m | -18.4m/s | -66.0°C | 35.5% | 0hPa | 2.6V | 00:00:00 | 01:53:46 | 00:00:00 | |
| 9A1FER-3 | 2026-09-04 12:54:33 | 45.48453 | 16.42305 | 154° | 73km/h | 13652m | -18.2m/s | -66.2°C | 34.4% | 0hPa | 2.6V | 00:00:00 | 01:53:44 | 00:00:00 | |
| 9A1FER-10 | 2026-09-04 12:54:25 | 45.48572 | 16.42210 | 152° | 80km/h | 13800m | -18.4m/s | -67.0°C | 29.7% | 0hPa | 2.6V | 00:00:00 | 01:53:36 | 00:00:00 | |
| 9A1FER-15 | 2026-09-04 12:54:20 | 45.48662 | 16.42140 | 153° | 77km/h | 13889m | -18.0m/s | -66.8°C | 26.2% | 0hPa | 2.6V | 00:00:00 | 01:53:31 | 00:00:00 | |
| 9A1FER-3 | 2026-09-04 12:54:18 | 45.48700 | 16.42114 | 155° | 75km/h | 13923m | -15.9m/s | -67.1°C | 26.2% | 0hPa | 2.6V | 00:00:00 | 01:53:29 | 00:00:00 | |
| OE3JTB-15 | 2026-09-04 12:54:15 | 45.48812 | 16.42044 | 158° | 64km/h | 14016m | -13.2m/s | -67.4°C | 22.6% | 0hPa | 2.6V | 00:00:00 | 00:00:00 | 00:00:00 | |
| 9A1FER-10 | 2026-09-04 12:54:10 | 45.48847 | 16.42023 | 158° | 66km/h | 14045m | -16.5m/s | -67.2°C | 19.8% | 0hPa | 2.6V | 00:00:00 | 01:53:21 | 00:00:00 | |
| 9A1FER-15 | 2026-09-04 12:54:05 | 45.48927 | 16.41972 | 154° | 64km/h | 14144m | -19.8m/s | -66.6°C | 15.7% | 0hPa | 2.6V | 00:00:00 | 01:53:16 | 00:00:00 | |
| 9A1FER-3 | 2026-09-04 12:54:04 | 45.48957 | 16.41949 | 151° | 62km/h | 14183m | -19.7m/s | -65.8°C | 14.4% | 0hPa | 2.6V | 00:00:00 | 01:53:14 | 00:00:00 | |
| 9A1FER-10 | 2026-09-04 12:53:55 | 45.49063 | 16.41855 | 146° | 64km/h | 14327m | -19.3m/s | -61.8°C | 8.9% | 0hPa | 2.7V | 00:00:00 | 01:53:06 | 00:00:00 | |
| 9A1FER-15 | 2026-09-04 12:53:50 | 45.49129 | 16.41792 | 149° | 64km/h | 14419m | -16.0m/s | -62.1°C | 9.3% | 0hPa | 2.7V | 00:00:00 | 01:53:01 | 00:00:00 | |
| 9A1FER-3 | 2026-09-04 12:53:48 | 45.49157 | 16.41768 | 150° | 62km/h | 14448m | -12.9m/s | -62.0°C | 9.3% | 0hPa | 2.7V | 00:00:00 | 01:52:59 | 00:00:00 | |
| 9A1FER-10 | 2026-09-04 12:53:40 | 45.49267 | 16.41673 | 148° | 60km/h | 14563m | -14.8m/s | -62.0°C | 9.3% | 0hPa | 2.7V | 00:00:00 | 01:52:51 | 00:00:00 | |
| OE3JTB-15 | 2026-09-04 12:53:38 | 45.49334 | 16.41617 | 153° | 58km/h | 14628m | -16.3m/s | -62.4°C | 9.2% | 0hPa | 2.7V | 00:00:00 | 01:52:46 | 00:00:00 | |
| 9A1FER-15 | 2026-09-04 12:53:35 | 45.49334 | 16.41617 | 153° | 62km/h | 14628m | -16.3m/s | -62.4°C | 9.2% | 0hPa | 2.7V | 00:00:00 | 01:52:46 | 00:00:00 | |
| 9A1FER-3 | 2026-09-04 12:53:33 | 45.49361 | 16.41598 | 155° | 60km/h | 14662m | -16.5m/s | -62.5°C | 9.3% | 0hPa | 2.7V | 00:00:00 | 01:52:44 | 00:00:00 | |
| 9A1FER-10 | 2026-09-04 12:53:25 | 45.49472 | 16.41520 | 156° | 55km/h | 14813m | -16.7m/s | -62.1°C | 8.7% | 0hPa | 2.7V | 08:20:00 | 01:52:36 | 00:00:00 | |
| 9A1FER-15 | 2026-09-04 12:53:20 | 45.49545 | 16.41477 | 162° | 46km/h | 14886m | -17.0m/s | -61.5°C | 8.0% | 0hPa | 2.6V | 08:20:00 | 01:52:31 | 00:00:00 | |
| 9A1FER-3 | 2026-09-04 12:53:18 | 45.49571 | 16.41464 | 161° | 44km/h | 14917m | -14.6m/s | -61.1°C | 7.7% | 0hPa | 2.7V | 08:20:00 | 01:52:29 | 00:00:00 | |
| 9A1FER-10 | 2026-09-04 12:53:10 | 45.49665 | 16.41422 | 160° | 40km/h | 15051m | -16.5m/s | -60.3°C | 7.2% | 0hPa | 2.6V | 00:00:00 | 01:52:21 | 00:00:00 | |
| OE3JTB-15 | 2026-09-04 12:53:09 | 45.49700 | 16.41402 | 153° | 47km/h | 15128m | -23.0m/s | -60.3°C | 6.9% | 0hPa | 2.6V | 00:00:00 | 00:00:00 | 00:00:00 | |
| 9A1FER-15 | 2026-09-04 12:53:05 | 45.49708 | 16.41396 | 156° | 46km/h | 15152m | -22.8m/s | -60.2°C | 6.9% | 0hPa | 2.6V | 00:00:00 | 01:52:16 | 00:00:00 | |
| 9A1FER-3 | 2026-09-04 12:53:03 | 45.49725 | 16.41383 | 151° | 47km/h | 15195m | -21.2m/s | -60.5°C | 7.0% | 0hPa | 2.6V | 00:00:00 | 01:52:14 | 00:00:00 | |
| 9A1FER-10 | 2026-09-04 12:52:55 | 45.49795 | 16.41305 | 140° | 53km/h | 15365m | -20.2m/s | -60.1°C | 6.7% | 0hPa | 2.6V | 00:00:00 | 01:52:06 | 00:00:00 | |
| 9A1FER-15 | 2026-09-04 12:52:50 | 45.49846 | 16.41245 | 140° | 51km/h | 15462m | -19.4m/s | -59.8°C | 6.6% | 0hPa | 2.6V | 00:00:00 | 01:52:01 | 00:00:00 | |
| PETON7-10 | 2026-09-04 12:52:44 | 45.49912 | 16.41177 | 146° | 35km/h | 15589m | -21.5m/s | -59.6°C | 6.4% | 0hPa | 2.6V | 00:00:00 | 00:00:00 | 00:00:00 | |
| 9A1FER-10 | 2026-09-04 12:52:40 | 45.49953 | 16.41139 | 147° | 40km/h | 15669m | -17.2m/s | -59.4°C | 6.3% | 0hPa | 2.6V | 00:00:00 | 01:51:51 | 00:00:00 | |
| 9A1FER-15 | 2026-09-04 12:52:35 | 45.50003 | 16.41096 | 153° | 38km/h | 15772m | -20.9m/s | -59.4°C | 6.3% | 0hPa | 2.7V | 00:00:00 | 01:51:46 | 00:00:00 | |
| 9A1FER-3 | 2026-09-04 12:52:33 | 45.50023 | 16.41081 | 155° | 38km/h | 15815m | -22.6m/s | -59.5°C | 6.4% | 0hPa | 2.6V | 00:00:00 | 01:51:44 | 00:00:00 | |
| 9A1FER-15 | 2026-09-04 12:52:20 | 45.50118 | 16.40968 | 129° | 38km/h | 16105m | -22.1m/s | -59.9°C | 6.4% | 0hPa | 2.6V | 00:00:00 | 01:51:31 | 00:00:00 | |
| 9A1FER-10 | 2026-09-04 12:52:19 | 45.50125 | 16.40956 | 129° | 38km/h | 16128m | -23.3m/s | -59.8°C | 6.3% | 0hPa | 2.6V | 00:00:00 | 01:51:30 | 00:00:00 | |
| 9A1FER-3 | 2026-09-04 12:52:18 | 45.50132 | 16.40944 | 133° | 37km/h | 16150m | -21.3m/s | -59.7°C | 6.3% | 0hPa | 2.6V | 00:00:00 | 01:51:29 | 00:00:00 | |
| 9A1FER-15 | 2026-09-04 12:52:05 | 45.50207 | 16.40804 | 110° | 29km/h | 16439m | -25.8m/s | -59.5°C | 6.1% | 0hPa | 2.6V | 00:00:00 | 01:51:16 | 00:00:00 | |
| 9A1FER-10 | 2026-09-04 12:52:04 | 45.50210 | 16.40793 | 108° | 29km/h | 16464m | -24.5m/s | -59.7°C | 6.2% | 0hPa | 2.6V | 00:00:00 | 01:51:15 | 00:00:00 | |
| 9A1FER-3 | 2026-09-04 12:52:03 | 45.50212 | 16.40782 | 108° | 29km/h | 16488m | -23.3m/s | -59.7°C | 6.2% | 0hPa | 2.6V | 00:00:00 | 01:51:14 | 00:00:00 | |
| OE5DRO-10 | 2026-09-04 12:51:57 | 45.50227 | 16.40704 | 115° | 22km/h | 16653m | -24.4m/s | -60.2°C | 6.3% | 0hPa | 2.6V | 00:00:00 | 00:00:00 | 00:00:00 | |
| 9A1FER-15 | 2026-09-04 12:51:50 | 45.50243 | 16.40653 | 110° | 27km/h | 16800m | -24.9m/s | -59.3°C | 5.8% | 0hPa | 2.6V | 00:00:00 | 01:51:01 | 00:00:00 | |
| 9A1FER-10 | 2026-09-04 12:51:49 | 45.50245 | 16.40644 | 107° | 27km/h | 16825m | -24.9m/s | -59.3°C | 5.8% | 0hPa | 2.6V | 00:00:00 | 01:51:00 | 00:00:00 | |
| 9A1FER-3 | 2026-09-04 12:51:48 | 45.50247 | 16.40635 | 112° | 26km/h | 16849m | -24.8m/s | -59.4°C | 5.8% | 0hPa | 2.6V | 00:00:00 | 01:50:59 | 00:00:00 | |
| PETON7-10 | 2026-09-04 12:51:41 | 45.50268 | 16.40573 | 131° | 22km/h | 17021m | -26.0m/s | -59.1°C | 5.6% | 0hPa | 2.7V | 00:00:00 | 01:50:52 | 00:00:00 | |
| 9A1FER-15 | 2026-09-04 12:51:35 | 45.50296 | 16.40534 | 131° | 29km/h | 17170m | -23.5m/s | -59.4°C | 5.9% | 0hPa | 2.7V | 00:00:00 | 01:50:46 | 00:00:00 | |
| 9A1FER-10 | 2026-09-04 12:51:34 | 45.50300 | 16.40528 | 129° | 27km/h | 17193m | -21.7m/s | -59.4°C | 5.8% | 0hPa | 2.7V | 00:00:00 | 01:50:45 | 00:00:00 | |
| 9A1FER-3 | 2026-09-04 12:51:33 | 45.50303 | 16.40521 | 116° | 27km/h | 17214m | -21.6m/s | -59.5°C | 5.9% | 0hPa | 2.7V | 00:00:00 | 01:50:44 | 00:00:00 | |
| 9A1FER-15 | 2026-09-04 12:51:20 | 45.50333 | 16.40391 | 118° | 20km/h | 17528m | -25.0m/s | -59.0°C | 5.5% | 0hPa | 2.7V | 00:00:00 | 01:50:31 | 00:00:00 | |
| 9A1FER-10 | 2026-09-04 12:51:19 | 45.50335 | 16.40385 | 116° | 20km/h | 17553m | -25.3m/s | -59.1°C | 5.6% | 0hPa | 2.7V | 00:00:00 | 01:50:30 | 00:00:00 | |
| 9A1FER-3 | 2026-09-04 12:51:18 | 45.50336 | 16.40379 | 113° | 20km/h | 17579m | -25.9m/s | -59.1°C | 5.6% | 0hPa | 2.7V | 00:00:00 | 01:50:29 | 00:00:00 | |
| 9A1FER-15 | 2026-09-04 12:51:05 | 45.50346 | 16.40283 | 93° | 18km/h | 17920m | -26.8m/s | -59.1°C | 5.7% | 0hPa | 2.7V | 08:22:00 | 01:50:16 | 00:00:00 | |
| PETON7-10 | 2026-09-04 12:51:04 | 45.50346 | 16.40275 | 94° | 18km/h | 17946m | -25.9m/s | -59.1°C | 5.7% | 0hPa | 2.7V | 00:00:00 | 00:00:00 | 00:00:00 | |
| 9A1FER-3 | 2026-09-04 12:51:03 | 45.50347 | 16.40268 | 101° | 16km/h | 17971m | -23.3m/s | -59.1°C | 5.8% | 0hPa | 2.6V | 08:22:00 | 01:50:14 | 00:00:00 | |
| OE5DRO-10 | 2026-09-04 12:50:55 | 45.50356 | 16.40222 | 108° | 18km/h | 18177m | -27.7m/s | -58.5°C | 5.4% | 0hPa | 2.7V | 00:00:00 | 00:00:00 | 00:00:00 | |
| 9A1FER-15 | 2026-09-04 12:50:50 | 45.50364 | 16.40195 | 116° | 13km/h | 18317m | -28.3m/s | -58.0°C | 5.0% | 0hPa | 2.7V | 00:00:00 | 01:50:01 | 00:00:00 | |
| PETON7-10 | 2026-09-04 12:50:49 | 45.50366 | 16.40190 | 112° | 13km/h | 18345m | -27.6m/s | -58.2°C | 5.1% | 0hPa | 2.7V | 00:00:00 | 00:00:00 | 00:00:00 | |
| 9A1FER-3 | 2026-09-04 12:50:48 | 45.50367 | 16.40186 | 111° | 15km/h | 18373m | -28.4m/s | -58.2°C | 5.2% | 0hPa | 2.7V | 00:00:00 | 01:49:59 | 00:00:00 | |
| OE3JTB-15 | 2026-09-04 12:50:37 | 45.50376 | 16.40127 | 93° | 26km/h | 18701m | -24.6m/s | -58.7°C | 5.6% | 0hPa | 2.7V | 00:00:00 | 01:49:46 | 00:00:00 | |
| 9A1FER-15 | 2026-09-04 12:50:35 | 45.50376 | 16.40127 | 93° | 31km/h | 18701m | -24.6m/s | -58.7°C | 5.6% | 0hPa | 2.7V | 00:00:00 | 01:49:46 | 00:00:00 | |
| 9A1FER-10 | 2026-09-04 12:50:34 | 45.50377 | 16.40120 | 96° | 31km/h | 18725m | -22.6m/s | -58.8°C | 5.8% | 0hPa | 2.7V | 00:00:00 | 01:49:45 | 00:00:00 | |
| 9A1FER-3 | 2026-09-04 12:50:33 | 45.50377 | 16.40111 | 94° | 33km/h | 18748m | -23.6m/s | -59.0°C | 5.9% | 0hPa | 2.7V | 00:00:00 | 01:49:44 | 00:00:00 | |
| 9A1FER-15 | 2026-09-04 12:50:20 | 45.50428 | 16.39985 | 152° | 18km/h | 19051m | -26.6m/s | -57.6°C | 5.5% | 0hPa | 2.7V | 00:00:00 | 01:49:31 | 00:00:00 | |
| PETON7-10 | 2026-09-04 12:50:19 | 45.50434 | 16.39980 | 149° | 16km/h | 19077m | -25.2m/s | -57.3°C | 5.4% | 0hPa | 2.6V | 00:00:00 | 00:00:00 | 00:00:00 | |
| 9A1FER-3 | 2026-09-04 12:50:18 | 45.50440 | 16.39975 | 153° | 15km/h | 19102m | -24.1m/s | -57.2°C | 5.4% | 0hPa | 2.6V | 00:00:00 | 01:49:29 | 00:00:00 | |
| OE3JTB-15 | 2026-09-04 12:50:08 | 45.50481 | 16.39940 | 137° | 7km/h | 19358m | -27.9m/s | -54.4°C | 4.1% | 0hPa | 2.7V | 00:00:00 | 00:00:00 | 00:00:00 | |
| OE5DRO-10 | 2026-09-04 12:50:07 | 45.50481 | 16.39940 | 137° | 7km/h | 19358m | -27.9m/s | -54.4°C | 4.1% | 0hPa | 2.6V | 00:00:00 | 00:00:00 | 00:00:00 | |
| 9A1FER-15 | 2026-09-04 12:50:05 | 45.50484 | 16.39937 | 161° | 7km/h | 19409m | -22.3m/s | -54.5°C | 4.1% | 0hPa | 2.6V | 00:00:00 | 01:49:16 | 00:00:00 | |
| PETON7-10 | 2026-09-04 12:50:04 | 45.50486 | 16.39936 | 177° | 7km/h | 19433m | -25.4m/s | -54.4°C | 4.0% | 0hPa | 2.6V | 00:00:00 | 00:00:00 | 00:00:00 | |
| 9A1FER-15 | 2026-09-04 12:49:50 | 45.50510 | 16.39939 | 167° | 7km/h | 19762m | -16.2m/s | -56.1°C | 5.0% | 0hPa | 2.6V | 00:00:00 | 01:49:01 | 00:00:00 | |
| PETON7-10 | 2026-09-04 12:49:49 | 45.50510 | 16.39938 | 148° | 7km/h | 19778m | -15.7m/s | -56.1°C | 5.0% | 0hPa | 2.6V | 00:00:00 | 01:49:00 | 00:00:00 | |
| 9A1FER-3 | 2026-09-04 12:49:48 | 45.50511 | 16.39937 | 119° | 7km/h | 19794m | -16.0m/s | -56.2°C | 5.0% | 0hPa | 2.6V | 00:00:00 | 01:48:59 | 00:00:00 | |
| OE3JTB-15 | 2026-09-04 12:49:39 | 45.50516 | 16.39914 | 98° | 13km/h | 20015m | -27.7m/s | -55.4°C | 4.5% | 0hPa | 2.6V | 00:00:00 | 00:00:00 | 00:00:00 | |
| 9A1FER-15 | 2026-09-04 12:49:35 | 45.50515 | 16.39903 | 56° | 11km/h | 20112m | -19.7m/s | -55.2°C | 4.6% | 0hPa | 2.6V | 00:00:00 | 01:48:46 | 00:00:00 | |
| PETON7-10 | 2026-09-04 12:49:34 | 45.50514 | 16.39900 | 66° | 13km/h | 20132m | -22.0m/s | -55.2°C | 4.5% | 0hPa | 2.6V | 08:24:00 | 00:00:00 | 00:00:00 | |
| 9A1FER-3 | 2026-09-04 12:49:33 | 45.50513 | 16.39897 | 77° | 13km/h | 20156m | -24.1m/s | -55.2°C | 4.5% | 0hPa | 2.6V | 00:00:00 | 01:48:44 | 00:00:00 | |
| OE5DRO-10 | 2026-09-04 12:49:30 | 45.50512 | 16.39886 | 92° | 16km/h | 20246m | -21.9m/s | -55.0°C | 4.4% | 0hPa | 2.6V | 08:24:00 | 00:00:00 | 00:00:00 | |
| 9A1FER-15 | 2026-09-04 12:49:20 | 45.50512 | 16.39840 | 111° | 16km/h | 20486m | -21.6m/s | -55.6°C | 4.8% | 0hPa | 2.6V | 00:00:00 | 01:48:31 | 00:00:00 | |
| OE5DXL-15 | 2026-09-04 12:49:19 | 45.50515 | 16.39829 | 117° | 15km/h | 20533m | -23.9m/s | -55.6°C | 4.8% | 0hPa | 2.6V | 00:00:00 | 00:00:00 | 00:00:00 | |
| 9A1FER-3 | 2026-09-04 12:49:18 | 45.50515 | 16.39829 | 117° | 16km/h | 20533m | -23.9m/s | -55.6°C | 4.8% | 0hPa | 2.6V | 00:00:00 | 01:48:29 | 00:00:00 | |
| DO3MHA-11 | 2026-09-04 12:49:13 | 45.50532 | 16.39803 | 149° | 16km/h | 20647m | -21.0m/s | 0°C | 0% | 0hPa | 2.6V | 00:00:00 | 01:48:24 | 00:00:00 | |
| OE5DRO-10 | 2026-09-04 12:49:10 | 45.50545 | 16.39795 | 164° | 13km/h | 20719m | -23.4m/s | -55.2°C | 4.8% | 0hPa | 2.6V | 00:00:00 | 00:00:00 | 00:00:00 | |
| 9A1FER-15 | 2026-09-04 12:49:05 | 45.50556 | 16.39789 | 147° | 15km/h | 20835m | -22.1m/s | -55.4°C | 5.0% | 0hPa | 2.6V | 00:00:00 | 01:48:16 | 00:00:00 | |
| PETON7-10 | 2026-09-04 12:49:04 | 45.50559 | 16.39786 | 132° | 16km/h | 20856m | -21.2m/s | -55.3°C | 5.0% | 0hPa | 2.6V | 00:00:00 | 01:48:15 | 00:00:00 | |
| 9A1FER-3 | 2026-09-04 12:49:03 | 45.50562 | 16.39782 | 136° | 15km/h | 20878m | -23.5m/s | -55.1°C | 4.9% | 0hPa | 2.6V | 00:00:00 | 01:48:14 | 00:00:00 | |
| DO3MHA-11 | 2026-09-04 12:48:51 | 45.50593 | 16.39768 | 281° | 13km/h | 21145m | -25.4m/s | 0°C | 0% | 0hPa | 2.6V | 00:00:00 | 01:48:02 | 00:00:00 | |
| 9A1FER-15 | 2026-09-04 12:48:50 | 45.50593 | 16.39773 | 279° | 15km/h | 21170m | -25.6m/s | -52.7°C | 3.9% | 0hPa | 2.6V | 08:25:00 | 01:48:01 | 00:00:00 | |
| 9A1FER-10 | 2026-09-04 12:48:49 | 45.50592 | 16.39778 | 280° | 15km/h | 21195m | -23.1m/s | -52.8°C | 3.9% | 0hPa | 2.7V | 08:25:00 | 01:48:00 | 00:00:00 | |
| 9A1FER-3 | 2026-09-04 12:48:48 | 45.50591 | 16.39784 | 291° | 15km/h | 21216m | -20.2m/s | -52.8°C | 4.0% | 0hPa | 2.7V | 08:25:00 | 01:47:59 | 00:00:00 | |
| OE8JPQ-2 | 2026-09-04 12:48:44 | 45.50582 | 16.39809 | 312° | 11km/h | 21324m | -30.8m/s | -53.3°C | 4.0% | 0hPa | 2.7V | 00:00:00 | 01:47:55 | 00:00:00 | |
| DO3MHA-11 | 2026-09-04 12:48:37 | 45.50576 | 16.39831 | 261° | 11km/h | 21540m | -31.0m/s | 0°C | 0% | 0hPa | 2.7V | 00:00:00 | 01:47:48 | 00:00:00 | |
| 9A1FER-15 | 2026-09-04 12:48:35 | 45.50577 | 16.39841 | 283° | 11km/h | 21598m | -26.0m/s | -53.9°C | 4.2% | 0hPa | 2.7V | 00:00:00 | 01:47:46 | 00:00:00 | |
| 9A1FER-10 | 2026-09-04 12:48:34 | 45.50576 | 16.39844 | 306° | 11km/h | 21624m | -26.9m/s | -54.1°C | 4.2% | 0hPa | 2.7V | 00:00:00 | 01:47:45 | 00:00:00 | |
| 9A1FER-3 | 2026-09-04 12:48:33 | 45.50575 | 16.39845 | 229° | 11km/h | 21651m | -26.7m/s | -54.1°C | 4.3% | 0hPa | 2.7V | 00:00:00 | 01:47:44 | 00:00:00 | |
| OE5DRO-10 | 2026-09-04 12:48:32 | 45.50576 | 16.39846 | 188° | 15km/h | 21676m | -25.2m/s | -53.9°C | 4.2% | 0hPa | 2.7V | 00:00:00 | 00:00:00 | 00:00:00 | |
| DO3MHA-12 | 2026-09-04 12:48:28 | 45.50585 | 16.39852 | 248° | 13km/h | 21779m | -24.8m/s | 0°C | 0% | 0hPa | 2.6V | 00:00:00 | 01:47:39 | 00:00:00 | |
| DO3MHA-11 | 2026-09-04 12:48:27 | 45.50586 | 16.39857 | 272° | 13km/h | 21803m | -24.6m/s | 0°C | 0% | 0hPa | 2.6V | 00:00:00 | 01:47:38 | 00:00:00 | |
| OE8JPQ-2 | 2026-09-04 12:48:24 | 45.50582 | 16.39869 | 321° | 18km/h | 21878m | -24.8m/s | -54.1°C | 4.3% | 0hPa | 2.6V | 08:25:00 | 00:00:00 | 00:00:00 | |
| 9A1FER-15 | 2026-09-04 12:48:20 | 45.50571 | 16.39877 | 340° | 20km/h | 21975m | -25.3m/s | -54.5°C | 4.6% | 0hPa | 2.7V | 00:00:00 | 01:47:31 | 00:00:00 | |
| PETON7-10 | 2026-09-04 12:48:19 | 45.50568 | 16.39878 | 351° | 20km/h | 22000m | -23.3m/s | -54.6°C | 4.6% | 0hPa | 2.7V | 00:00:00 | 01:47:30 | 00:00:00 | |
| DO3MHA-12 | 2026-09-04 12:48:18 | 45.50563 | 16.39879 | 354° | 22km/h | 22022m | -21.3m/s | 0°C | 0% | 0hPa | 2.7V | 00:00:00 | 01:47:29 | 00:00:00 | |
| DO3MHA-11 | 2026-09-04 12:48:17 | 45.50558 | 16.39879 | 359° | 22km/h | 22044m | -23.4m/s | 0°C | 0% | 0hPa | 2.7V | 00:00:00 | 01:47:28 | 00:00:00 | |
| OE5DRO-10 | 2026-09-04 12:48:13 | 45.50533 | 16.39879 | 5° | 18km/h | 22140m | -22.8m/s | -54.3°C | 4.5% | 0hPa | 2.7V | 00:00:00 | 00:00:00 | 00:00:00 | |
| DO3MHA-11 | 2026-09-04 12:48:07 | 45.50506 | 16.39869 | 26° | 18km/h | 22292m | -27.2m/s | 0°C | 0% | 0hPa | 2.7V | 00:00:00 | 01:47:18 | 00:00:00 | |
| 9A1FER-15 | 2026-09-04 12:48:05 | 45.50500 | 16.39863 | 34° | 18km/h | 22344m | -24.9m/s | -54.0°C | 4.5% | 0hPa | 2.7V | 00:00:00 | 01:47:16 | 00:00:00 | |
| OE8JPQ-2 | 2026-09-04 12:48:04 | 45.50497 | 16.39860 | 45° | 16km/h | 22369m | -25.0m/s | -53.7°C | 4.4% | 0hPa | 2.7V | 00:00:00 | 00:00:00 | 00:00:00 | |
| 9A1FER-3 | 2026-09-04 12:48:03 | 45.50494 | 16.39855 | 49° | 18km/h | 22395m | -26.7m/s | -53.3°C | 4.3% | 0hPa | 2.7V | 00:00:00 | 01:47:14 | 00:00:00 | |
| OE3JTB-15 | 2026-09-04 12:47:59 | 45.50483 | 16.39830 | 66° | 20km/h | 22499m | -23.9m/s | -52.7°C | 4.0% | 0hPa | 2.7V | 00:00:00 | 00:00:00 | 00:00:00 | |
| OE5DRO-10 | 2026-09-04 12:47:54 | 45.50476 | 16.39798 | 76° | 22km/h | 22617m | -23.6m/s | -52.8°C | 3.9% | 0hPa | 2.7V | 00:00:00 | 00:00:00 | 00:00:00 | |
| 9A1FER-15 | 2026-09-04 12:47:50 | 45.50473 | 16.39775 | 115° | 24km/h | 22708m | -21.7m/s | -52.8°C | 4.0% | 0hPa | 2.7V | 00:00:00 | 01:47:01 | 00:00:00 | |
| PETON7-10 | 2026-09-04 12:47:49 | 45.50475 | 16.39770 | 118° | 9km/h | 22730m | -20.4m/s | -52.8°C | 4.1% | 0hPa | 2.7V | 00:00:00 | 00:00:00 | 00:00:00 | |
| 9A1FER-3 | 2026-09-04 12:47:48 | 45.50477 | 16.39764 | 118° | 24km/h | 22748m | -16.5m/s | -52.9°C | 4.1% | 0hPa | 2.7V | 00:00:00 | 01:46:59 | 00:00:00 | |
| PG1ADW-2 | 2026-09-04 12:47:46 | 45.50482 | 16.39749 | 114° | 20km/h | 22780m | -17.7m/s | -52.8°C | 4.1% | 0hPa | 2.7V | 00:00:00 | 01:46:57 | 00:00:00 | |
| 9A1FER-10 | 2026-09-04 12:47:35 | 45.50529 | 16.39669 | 147° | 7km/h | 23079m | -28.0m/s | -53.4°C | 4.4% | 0hPa | 2.7V | 00:00:00 | 01:46:45 | 00:00:00 | |
| 9A1FER-3 | 2026-09-04 12:47:33 | 45.50534 | 16.39665 | 158° | 5km/h | 23105m | -26.0m/s | -53.5°C | 4.4% | 0hPa | 2.7V | 00:00:00 | 01:46:44 | 00:00:00 | |
| OE3JTB-15 | 2026-09-04 12:47:30 | 45.50545 | 16.39659 | 174° | 4km/h | 23188m | -28.3m/s | -53.4°C | 4.5% | 0hPa | 2.7V | 00:00:00 | 01:46:41 | 00:00:00 | |
| PG1ADW-2 | 2026-09-04 12:47:26 | 45.50546 | 16.39659 | 7° | 4km/h | 23293m | -29.1m/s | -52.9°C | 4.3% | 0hPa | 2.7V | 00:00:00 | 00:00:00 | 00:00:00 | |
| 9A1FER-15 | 2026-09-04 12:47:20 | 45.50545 | 16.39658 | 122° | 4km/h | 23465m | -29.1m/s | -51.8°C | 3.8% | 0hPa | 2.7V | 00:00:00 | 01:46:31 | 00:00:00 | |
| 9A1FER-10 | 2026-09-04 12:47:19 | 45.50545 | 16.39657 | 147° | 4km/h | 23495m | -30.4m/s | -51.6°C | 3.8% | 0hPa | 2.7V | 00:00:00 | 01:46:30 | 00:00:00 | |
| 9A1FER-3 | 2026-09-04 12:47:18 | 45.50545 | 16.39657 | 193° | 4km/h | 23524m | -29.1m/s | -51.6°C | 3.8% | 0hPa | 2.6V | 00:00:00 | 01:46:29 | 00:00:00 | |
| OE5DRO-10 | 2026-09-04 12:47:16 | 45.50548 | 16.39659 | 210° | 4km/h | 23579m | -25.1m/s | -51.6°C | 3.8% | 0hPa | 2.6V | 00:00:00 | 00:00:00 | 00:00:00 | |
| PETON7-10 | 2026-09-04 12:47:07 | 45.50553 | 16.39665 | 359° | 4km/h | 23793m | -14.4m/s | -51.7°C | 4.0% | 0hPa | 2.6V | 00:00:00 | 01:46:18 | 00:00:00 | |
| PG1ADW-2 | 2026-09-04 12:47:06 | 45.50552 | 16.39664 | 2° | 7km/h | 23811m | -21.8m/s | -51.7°C | 3.9% | 0hPa | 2.6V | 08:26:00 | 00:00:00 | 00:00:00 | |
| 9A1FER-15 | 2026-09-04 12:47:05 | 45.50551 | 16.39664 | 13° | 5km/h | 23834m | -23.7m/s | -51.5°C | 3.9% | 0hPa | 2.7V | 00:00:00 | 01:46:16 | 00:00:00 | |
| 9A1FER-10 | 2026-09-04 12:47:04 | 45.50549 | 16.39664 | 21° | 5km/h | 23858m | -23.7m/s | -51.4°C | 3.8% | 0hPa | 2.7V | 00:00:00 | 01:46:15 | 00:00:00 | |
| 9A1FER-3 | 2026-09-04 12:47:03 | 45.50548 | 16.39662 | 51° | 7km/h | 23880m | -20.7m/s | -51.3°C | 3.8% | 0hPa | 2.7V | 00:00:00 | 01:46:14 | 00:00:00 | |
| OE3JTB-15 | 2026-09-04 12:47:01 | 45.50547 | 16.39660 | 59° | 7km/h | 23921m | -21.5m/s | -51.2°C | 3.8% | 0hPa | 2.7V | 08:26:00 | 00:00:00 | 00:00:00 | |
| OE5DRO-10 | 2026-09-04 12:46:57 | 45.50545 | 16.39654 | 16° | 13km/h | 24008m | -23.0m/s | -51.0°C | 3.7% | 0hPa | 2.6V | 00:00:00 | 00:00:00 | 00:00:00 | |
| PETON7-10 | 2026-09-04 12:46:52 | 45.50539 | 16.39653 | 343° | 13km/h | 24124m | -23.3m/s | -50.8°C | 3.6% | 0hPa | 2.6V | 08:26:00 | 00:00:00 | 00:00:00 | |
| 9A1FER-15 | 2026-09-04 12:46:50 | 45.50533 | 16.39654 | 349° | 15km/h | 24167m | -21.8m/s | -51.0°C | 3.6% | 0hPa | 2.7V | 00:00:00 | 01:46:01 | 00:00:00 | |
| 9A1FER-10 | 2026-09-04 12:46:49 | 45.50529 | 16.39656 | 346° | 13km/h | 24190m | -25.5m/s | -51.0°C | 3.7% | 0hPa | 2.7V | 00:00:00 | 01:46:00 | 00:00:00 | |
| 9A1FER-3 | 2026-09-04 12:46:48 | 45.50525 | 16.39657 | 348° | 13km/h | 24215m | -23.8m/s | -51.1°C | 3.7% | 0hPa | 2.7V | 00:00:00 | 01:45:59 | 00:00:00 | |
| PG1ADW-2 | 2026-09-04 12:46:46 | 45.50514 | 16.39660 | 349° | 9km/h | 24262m | -24.1m/s | -51.3°C | 3.8% | 0hPa | 2.7V | 00:00:00 | 00:00:00 | 00:00:00 | |
| OE8JPQ-2 | 2026-09-04 12:46:44 | 45.50505 | 16.39662 | 349° | 7km/h | 24309m | -21.7m/s | -51.2°C | 3.7% | 0hPa | 2.7V | 00:00:00 | 01:45:55 | 00:00:00 | |
| OE5DRO-10 | 2026-09-04 12:46:38 | 45.50484 | 16.39665 | 354° | 4km/h | 24433m | -19.1m/s | -51.3°C | 3.8% | 0hPa | 2.7V | 08:27:00 | 00:00:00 | 00:00:00 | |
| 9A1FER-15 | 2026-09-04 12:46:35 | 45.50481 | 16.39666 | 25° | 4km/h | 24493m | -21.8m/s | -51.4°C | 3.8% | 0hPa | 2.6V | 08:27:00 | 01:45:46 | 00:00:00 | |
| 9A1FER-10 | 2026-09-04 12:46:34 | 45.50480 | 16.39665 | 28° | 4km/h | 24515m | -21.7m/s | -51.4°C | 3.9% | 0hPa | 2.7V | 08:27:00 | 01:45:45 | 00:00:00 | |
| OE3JTB-15 | 2026-09-04 12:46:33 | 45.50480 | 16.39665 | 349° | 5km/h | 24560m | -23.7m/s | -51.4°C | 3.9% | 0hPa | 2.7V | 00:00:00 | 00:00:00 | 00:00:00 | |
| PG1ADW-2 | 2026-09-04 12:46:26 | 45.50476 | 16.39661 | 85° | 9km/h | 24683m | -20.0m/s | -51.3°C | 3.9% | 0hPa | 2.7V | 00:00:00 | 01:45:37 | 00:00:00 | |
| OE8JPQ-2 | 2026-09-04 12:46:24 | 45.50476 | 16.39656 | 87° | 11km/h | 24724m | -20.0m/s | -51.4°C | 4.0% | 0hPa | 2.7V | 00:00:00 | 00:00:00 | 00:00:00 | |
| 9A1FER-15 | 2026-09-04 12:46:20 | 45.50478 | 16.39647 | 123° | 11km/h | 24806m | -15.5m/s | -51.3°C | 4.0% | 0hPa | 2.7V | 00:00:00 | 01:45:31 | 00:00:00 | |
| PETON7-10 | 2026-09-04 12:46:19 | 45.50479 | 16.39644 | 126° | 11km/h | 24821m | -14.8m/s | -51.2°C | 3.9% | 0hPa | 2.7V | 00:00:00 | 01:45:30 | 00:00:00 | |
| 9A1FER-3 | 2026-09-04 12:46:18 | 45.50481 | 16.39641 | 139° | 13km/h | 24839m | -20.5m/s | -51.1°C | 3.9% | 0hPa | 2.7V | 00:00:00 | 01:45:29 | 00:00:00 | |
| PG1ADW-2 | 2026-09-04 12:46:06 | 45.50489 | 16.39599 | 65° | 13km/h | 25077m | -18.2m/s | -50.0°C | 3.6% | 0hPa | 2.7V | 00:00:00 | 00:00:00 | 00:00:00 | |
| 9A1FER-15 | 2026-09-04 12:46:05 | 45.50487 | 16.39595 | 63° | 13km/h | 25097m | -20.9m/s | -50.0°C | 3.6% | 0hPa | 2.6V | 00:00:00 | 01:45:16 | 00:00:00 | |
| 9A1FER-10 | 2026-09-04 12:46:04 | 45.50485 | 16.39590 | 57° | 13km/h | 25119m | -22.3m/s | -50.0°C | 3.5% | 0hPa | 2.6V | 00:00:00 | 01:45:15 | 00:00:00 | |
| 9A1FER-3 | 2026-09-04 12:46:03 | 45.50483 | 16.39586 | 59° | 13km/h | 25142m | -24.2m/s | -50.1°C | 3.6% | 0hPa | 2.6V | 00:00:00 | 01:45:14 | 00:00:00 | |
| OE5DRO-10 | 2026-09-04 12:46:00 | 45.50479 | 16.39572 | 71° | 11km/h | 25214m | -22.0m/s | -50.0°C | 3.6% | 0hPa | 2.6V | 00:00:00 | 00:00:00 | 00:00:00 | |
| 9A1FER-15 | 2026-09-04 12:45:50 | 45.50480 | 16.39526 | 95° | 9km/h | 25413m | -19.2m/s | -49.4°C | 3.5% | 0hPa | 2.6V | 00:00:00 | 01:45:01 | 00:00:00 | |
| 9A1FER-10 | 2026-09-04 12:45:49 | 45.50480 | 16.39521 | 100° | 9km/h | 25433m | -20.9m/s | -49.4°C | 3.4% | 0hPa | 2.6V | 00:00:00 | 01:45:00 | 00:00:00 | |
| 9A1FER-3 | 2026-09-04 12:45:48 | 45.50480 | 16.39517 | 87° | 7km/h | 25455m | -21.9m/s | -49.5°C | 3.5% | 0hPa | 2.7V | 00:00:00 | 01:44:59 | 00:00:00 | |
| PG1ADW-2 | 2026-09-04 12:45:46 | 45.50480 | 16.39510 | 95° | 7km/h | 25498m | -20.3m/s | -49.6°C | 3.5% | 0hPa | 2.7V | 00:00:00 | 00:00:00 | 00:00:00 | |
| OE8JPQ-2 | 2026-09-04 12:45:44 | 45.50481 | 16.39502 | 98° | 5km/h | 25545m | -25.0m/s | -49.8°C | 3.5% | 0hPa | 2.7V | 00:00:00 | 01:44:55 | 00:00:00 | |
| OE5DRO-10 | 2026-09-04 12:45:41 | 45.50481 | 16.39494 | 83° | 7km/h | 25615m | -24.7m/s | -49.8°C | 3.6% | 0hPa | 2.7V | 00:00:00 | 00:00:00 | 00:00:00 | |
| 9A1FER-15 | 2026-09-04 12:45:35 | 45.50490 | 16.39485 | 105° | 7km/h | 25764m | -25.8m/s | -50.0°C | 3.7% | 0hPa | 2.7V | 00:00:00 | 01:44:46 | 00:00:00 | |
| 9A1FER-10 | 2026-09-04 12:45:34 | 45.50490 | 16.39484 | 251° | 7km/h | 25789m | -24.1m/s | -50.0°C | 3.8% | 0hPa | 2.7V | 00:00:00 | 01:44:45 | 00:00:00 | |
| 9A1FER-3 | 2026-09-04 12:45:33 | 45.50490 | 16.39485 | 247° | 9km/h | 25813m | -23.7m/s | -50.1°C | 3.8% | 0hPa | 2.7V | 00:00:00 | 01:44:44 | 00:00:00 | |
| PETON7-10 | 2026-09-04 12:45:32 | 45.50490 | 16.39486 | 275° | 9km/h | 25838m | -26.4m/s | -50.0°C | 3.8% | 0hPa | 2.7V | 00:00:00 | 01:44:43 | 00:00:00 | |
| PG1ADW-2 | 2026-09-04 12:45:26 | 45.50485 | 16.39477 | 69° | 9km/h | 25999m | -23.8m/s | -50.0°C | 3.8% | 0hPa | 2.7V | 00:00:00 | 00:00:00 | 00:00:00 | |
| OE8JPQ-2 | 2026-09-04 12:45:24 | 45.50486 | 16.39472 | 111° | 11km/h | 26049m | -25.7m/s | -49.6°C | 3.7% | 0hPa | 2.7V | 00:00:00 | 00:00:00 | 00:00:00 | |
| OE5DRO-10 | 2026-09-04 12:45:22 | 45.50487 | 16.39464 | 102° | 9km/h | 26102m | -26.3m/s | -49.1°C | 3.5% | 0hPa | 2.6V | 00:00:00 | 00:00:00 | 00:00:00 | |
| 9A1FER-10 | 2026-09-04 12:45:19 | 45.50491 | 16.39451 | 151° | 9km/h | 26181m | -26.2m/s | -48.5°C | 3.3% | 0hPa | 2.6V | 00:00:00 | 01:44:30 | 00:00:00 | |
| OE5DXL-15 | 2026-09-04 12:45:18 | 45.50494 | 16.39449 | 149° | 9km/h | 26207m | -26.6m/s | -48.5°C | 3.4% | 0hPa | 2.6V | 00:00:00 | 00:00:00 | 00:00:00 | |
| PETON7-10 | 2026-09-04 12:45:17 | 45.50496 | 16.39447 | 175° | 9km/h | 26233m | -25.1m/s | -48.5°C | 3.3% | 0hPa | 2.6V | 00:00:00 | 00:00:00 | 00:00:00 | |
| PG1ADW-2 | 2026-09-04 12:45:06 | 45.50504 | 16.39462 | 54° | 9km/h | 26517m | -26.7m/s | -48.5°C | 3.3% | 0hPa | 2.6V | 00:00:00 | 01:44:17 | 00:00:00 | |
| 9A1FER-15 | 2026-09-04 12:45:05 | 45.50503 | 16.39459 | 74° | 11km/h | 26543m | -26.1m/s | -48.5°C | 3.3% | 0hPa | 2.7V | 00:00:00 | 01:44:16 | 00:00:00 | |
| OE8JPQ-2 | 2026-09-04 12:45:04 | 45.50502 | 16.39456 | 60° | 9km/h | 26570m | -27.6m/s | -48.5°C | 3.3% | 0hPa | 2.6V | 00:00:00 | 00:00:00 | 00:00:00 | |
| PETON7-10 | 2026-09-04 12:45:01 | 45.50497 | 16.39448 | 44° | 9km/h | 26655m | -27.6m/s | -48.8°C | 3.4% | 0hPa | 2.6V | 00:00:00 | 00:00:00 | 00:00:00 | |
| 9A1FER-15 | 2026-09-04 12:44:50 | 45.50496 | 16.39409 | 103° | 5km/h | 26959m | -27.4m/s | -48.9°C | 3.6% | 0hPa | 2.6V | 00:00:00 | 01:44:01 | 00:00:00 | |
| 9A1FER-10 | 2026-09-04 12:44:49 | 45.50496 | 16.39406 | 107° | 5km/h | 26989m | -31.8m/s | -48.9°C | 3.6% | 0hPa | 2.6V | 00:00:00 | 01:44:00 | 00:00:00 | |
| 9A1FER-3 | 2026-09-04 12:44:48 | 45.50496 | 16.39406 | 63° | 5km/h | 27020m | -29.1m/s | -48.9°C | 3.7% | 0hPa | 2.6V | 00:00:00 | 01:43:59 | 00:00:00 | |
| PG1ADW-2 | 2026-09-04 12:44:46 | 45.50495 | 16.39404 | 26° | 7km/h | 27076m | -26.4m/s | -48.9°C | 3.7% | 0hPa | 2.6V | 00:00:00 | 00:00:00 | 00:00:00 | |
| PETON7-10 | 2026-09-04 12:44:45 | 45.50493 | 16.39403 | 21° | 4km/h | 27104m | -30.0m/s | -48.8°C | 3.7% | 0hPa | 2.6V | 00:00:00 | 01:43:56 | 00:00:00 | |
| OE8JPQ-2 | 2026-09-04 12:44:44 | 45.50492 | 16.39403 | 12° | 7km/h | 27137m | -35.1m/s | -48.8°C | 3.7% | 0hPa | 2.6V | 00:00:00 | 01:43:55 | 00:00:00 | |
| OE3JTB-15 | 2026-09-04 12:44:36 | 45.50481 | 16.39410 | 31° | 13km/h | 27404m | -34.1m/s | -48.0°C | 3.5% | 0hPa | 2.6V | 00:00:00 | 01:43:47 | 00:00:00 | |
| 9A1FER-15 | 2026-09-04 12:44:35 | 45.50480 | 16.39409 | 47° | 11km/h | 27438m | -33.0m/s | -47.7°C | 3.4% | 0hPa | 2.6V | 00:00:00 | 01:43:46 | 00:00:00 | |
| 9A1FER-10 | 2026-09-04 12:44:34 | 45.50480 | 16.39409 | 248° | 13km/h | 27470m | -29.8m/s | -47.5°C | 3.3% | 0hPa | 2.6V | 00:00:00 | 01:43:45 | 00:00:00 | |
| 9A1FER-3 | 2026-09-04 12:44:33 | 45.50480 | 16.39409 | 286° | 13km/h | 27500m | -29.4m/s | -47.3°C | 3.3% | 0hPa | 2.6V | 00:00:00 | 01:43:44 | 00:00:00 | |
| PETON7-10 | 2026-09-04 12:44:30 | 45.50477 | 16.39410 | 342° | 16km/h | 27594m | -31.7m/s | -46.9°C | 3.1% | 0hPa | 2.6V | 00:00:00 | 00:00:00 | 08:30:00 | |
| PG1ADW-2 | 2026-09-04 12:44:26 | 45.50466 | 16.39418 | 331° | 16km/h | 27718m | -32.4m/s | -46.7°C | 3.2% | 0hPa | 2.6V | 00:00:00 | 00:00:00 | 00:00:00 | |
| 9A1FER-15 | 2026-09-04 12:44:20 | 45.50439 | 16.39415 | 22° | 15km/h | 27886m | -28.2m/s | -46.6°C | 3.1% | 0hPa | 2.6V | 00:00:00 | 01:43:31 | 08:30:00 | |
| 9A1FER-10 | 2026-09-04 12:44:19 | 45.50434 | 16.39412 | 28° | 15km/h | 27915m | -30.4m/s | -46.6°C | 3.2% | 0hPa | 2.6V | 00:00:00 | 01:43:30 | 08:30:00 | |
| 9A1FER-3 | 2026-09-04 12:44:18 | 45.50430 | 16.39408 | 36° | 15km/h | 27945m | -29.6m/s | -46.7°C | 3.2% | 0hPa | 2.7V | 00:00:00 | 01:43:29 | 08:30:00 | |
| PETON7-10 | 2026-09-04 12:44:15 | 45.50421 | 16.39395 | 47° | 15km/h | 28035m | -31.4m/s | -46.9°C | 3.3% | 0hPa | 2.6V | 00:00:00 | 00:00:00 | 00:00:00 | |
| OE5DRO-10 | 2026-09-04 12:44:13 | 45.50416 | 16.39389 | 35° | 15km/h | 28097m | -30.1m/s | -46.7°C | 3.3% | 0hPa | 2.6V | 00:00:00 | 00:00:00 | 00:00:00 | |
| OE3JTB-15 | 2026-09-04 12:44:07 | 45.50398 | 16.39378 | 41° | 16km/h | 28293m | -33.7m/s | -46.7°C | 3.4% | 0hPa | 2.6V | 00:00:00 | 00:00:00 | 00:00:00 | |
| PG1ADW-2 | 2026-09-04 12:44:06 | 45.50396 | 16.39374 | 46° | 15km/h | 28327m | -34.1m/s | -46.7°C | 3.4% | 0hPa | 2.7V | 00:00:00 | 00:00:00 | 08:30:00 | |
| 9A1FER-15 | 2026-09-04 12:44:05 | 45.50392 | 16.39370 | 47° | 16km/h | 28360m | -33.8m/s | -46.6°C | 3.3% | 0hPa | 2.7V | 00:00:00 | 01:43:16 | 00:00:00 | |
| 9A1FER-10 | 2026-09-04 12:44:04 | 45.50390 | 16.39364 | 53° | 16km/h | 28394m | -34.2m/s | -46.5°C | 3.3% | 0hPa | 2.7V | 00:00:00 | 01:43:15 | 00:00:00 | |
| 9A1FER-3 | 2026-09-04 12:44:03 | 45.50387 | 16.39359 | 58° | 16km/h | 28428m | -33.7m/s | -46.4°C | 3.3% | 0hPa | 2.7V | 00:00:00 | 01:43:14 | 00:00:00 | |
| PETON7-10 | 2026-09-04 12:44:00 | 45.50382 | 16.39341 | 80° | 15km/h | 28536m | -35.9m/s | -46.3°C | 3.3% | 0hPa | 2.7V | 00:00:00 | 01:43:11 | 00:00:00 | |
| OE5DRO-10 | 2026-09-04 12:43:52 | 45.50385 | 16.39299 | 92° | 15km/h | 28785m | -34.9m/s | -45.0°C | 3.0% | 0hPa | 2.7V | 00:00:00 | 00:00:00 | 00:00:00 | |
| 9A1FER-15 | 2026-09-04 12:43:50 | 45.50385 | 16.39287 | 88° | 16km/h | 28853m | -31.9m/s | -44.4°C | 2.8% | 0hPa | 2.7V | 00:00:00 | 01:43:01 | 00:00:00 | |
| 9A1FER-10 | 2026-09-04 12:43:49 | 45.50385 | 16.39282 | 89° | 16km/h | 28885m | -31.9m/s | -44.2°C | 2.8% | 0hPa | 2.7V | 00:00:00 | 01:43:00 | 00:00:00 | |
| 9A1FER-3 | 2026-09-04 12:43:48 | 45.50385 | 16.39278 | 89° | 16km/h | 28915m | -28.6m/s | -44.2°C | 2.8% | 0hPa | 2.7V | 00:00:00 | 01:42:59 | 00:00:00 | |
| PG1ADW-2 | 2026-09-04 12:43:46 | 45.50385 | 16.39272 | 101° | 18km/h | 28972m | -26.3m/s | -44.3°C | 2.9% | 0hPa | 2.7V | 00:00:00 | 01:42:57 | 00:00:00 | |
| PETON7-10 | 2026-09-04 12:43:45 | 45.50385 | 16.39269 | 104° | 18km/h | 28997m | -24.4m/s | -44.3°C | 3.0% | 0hPa | 2.7V | 00:00:00 | 00:00:00 | 00:00:00 | |
| OE8JPQ-2 | 2026-09-04 12:43:44 | 45.50386 | 16.39266 | 117° | 18km/h | 29022m | -24.4m/s | -44.3°C | 2.9% | 0hPa | 2.6V | 00:00:00 | 01:42:55 | 00:00:00 | |
| OE3JTB-15 | 2026-09-04 12:43:38 | 45.50397 | 16.39223 | 96° | 15km/h | 29164m | -24.4m/s | -44.1°C | 2.9% | 0hPa | 2.6V | 00:00:00 | 00:00:00 | 00:00:00 | |
| 9A1FER-15 | 2026-09-04 12:43:35 | 45.50396 | 16.39206 | 75° | 16km/h | 29235m | -25.1m/s | -44.1°C | 3.0% | 0hPa | 2.6V | 00:00:00 | 01:42:46 | 00:00:00 | |
| 9A1FER-10 | 2026-09-04 12:43:34 | 45.50395 | 16.39202 | 77° | 16km/h | 29260m | -24.5m/s | -44.1°C | 3.0% | 0hPa | 2.6V | 00:00:00 | 01:42:45 | 00:00:00 | |
| 9A1FER-3 | 2026-09-04 12:43:33 | 45.50395 | 16.39197 | 87° | 16km/h | 29285m | -24.4m/s | -44.0°C | 2.9% | 0hPa | 2.7V | 00:00:00 | 01:42:44 | 00:00:00 | |
| PETON7-10 | 2026-09-04 12:43:30 | 45.50399 | 16.39178 | 112° | 18km/h | 29362m | -25.3m/s | -43.2°C | 2.7% | 0hPa | 2.6V | 00:00:00 | 00:00:00 | 00:00:00 | |
| PG1ADW-2 | 2026-09-04 12:43:26 | 45.50406 | 16.39146 | 19° | 13km/h | 29471m | -41.3m/s | -42.5°C | 2.5% | 0hPa | 2.6V | 00:00:00 | 00:00:00 | 00:00:00 | |
| OE8JPQ-2 | 2026-09-04 12:43:24 | 45.50402 | 16.39144 | 14° | 13km/h | 29537m | -24.7m/s | -42.9°C | 2.6% | 0hPa | 2.6V | 00:00:00 | 00:00:00 | 00:00:00 | |
| 9A1FER-15 | 2026-09-04 12:43:20 | 45.50392 | 16.39143 | 5° | 13km/h | 29563m | 13.4m/s | -42.9°C | 2.7% | 0hPa | 2.7V | 00:00:00 | 01:42:31 | 00:00:00 | |
| 9A1FER-10 | 2026-09-04 12:43:19 | 45.50390 | 16.39142 | 16° | 13km/h | 29554m | 4.4m/s | -42.8°C | 2.6% | 0hPa | 2.7V | 00:00:00 | 01:42:30 | 00:00:00 | |
| 9A1FER-3 | 2026-09-04 12:43:18 | 45.50386 | 16.39140 | 25° | 13km/h | 29548m | 7.8m/s | -42.8°C | 2.6% | 0hPa | 2.7V | 00:00:00 | 01:42:29 | 00:00:00 | |
| PETON7-10 | 2026-09-04 12:43:15 | 45.50375 | 16.39129 | 49° | 13km/h | 29529m | 6.1m/s | -42.9°C | 2.6% | 0hPa | 2.7V | 00:00:00 | 01:42:26 | 00:00:00 | |
| OE3JTB-15 | 2026-09-04 12:43:09 | 45.50373 | 16.39109 | 129° | 16km/h | 29485m | 4.9m/s | -42.8°C | 2.6% | 0hPa | 2.7V | 00:00:00 | 01:42:19 | 00:00:00 | |
| PG1ADW-2 | 2026-09-04 12:43:06 | 45.50378 | 16.39100 | 120° | 13km/h | 29473m | 6.8m/s | -42.7°C | 2.6% | 0hPa | 2.7V | 00:00:00 | 00:00:00 | 00:00:00 | |
| 9A1FER-15 | 2026-09-04 12:43:05 | 45.50379 | 16.39097 | 106° | 13km/h | 29466m | 6.2m/s | -42.6°C | 2.5% | 0hPa | 2.7V | 00:00:00 | 01:42:16 | 00:00:00 | |
| 9A1FER-10 | 2026-09-04 12:43:04 | 45.50379 | 16.39093 | 90° | 13km/h | 29460m | 5.8m/s | -42.6°C | 2.5% | 0hPa | 2.7V | 00:00:00 | 01:42:15 | 00:00:00 | |
| 9A1FER-3 | 2026-09-04 12:43:03 | 45.50379 | 16.39089 | 85° | 13km/h | 29453m | 7.3m/s | -42.6°C | 2.5% | 0hPa | 2.7V | 00:00:00 | 01:42:14 | 00:00:00 | |
| PETON7-10 | 2026-09-04 12:43:00 | 45.50377 | 16.39075 | 72° | 15km/h | 29434m | 7.8m/s | -42.6°C | 2.5% | 0hPa | 2.7V | 00:00:00 | 00:00:00 | 00:00:00 | |
| OE5DRO-10 | 2026-09-04 12:42:53 | 45.50379 | 16.39046 | 120° | 20km/h | 29388m | 6.1m/s | -43.5°C | 2.7% | 0hPa | 2.7V | 00:00:00 | 00:00:00 | 00:00:00 | |
| 9A1FER-15 | 2026-09-04 12:42:50 | 45.50383 | 16.39034 | 111° | 22km/h | 29368m | 6.3m/s | -43.6°C | 2.7% | 0hPa | 2.7V | 00:00:00 | 01:42:01 | 00:00:00 | |
| 9A1FER-10 | 2026-09-04 12:42:49 | 45.50384 | 16.39028 | 102° | 22km/h | 29362m | 5.6m/s | -43.6°C | 2.7% | 0hPa | 2.7V | 00:00:00 | 01:42:00 | 00:00:00 | |
| 9A1FER-3 | 2026-09-04 12:42:48 | 45.50385 | 16.39021 | 97° | 20km/h | 29356m | 6.3m/s | -43.7°C | 2.6% | 0hPa | 2.6V | 00:00:00 | 01:41:59 | 00:00:00 | |
| PG1ADW-2 | 2026-09-04 12:42:46 | 45.50386 | 16.39009 | 87° | 22km/h | 29343m | 5.9m/s | -43.9°C | 2.7% | 0hPa | 2.7V | 00:00:00 | 00:00:00 | 00:00:00 | |
| PETON7-10 | 2026-09-04 12:42:45 | 45.50385 | 16.39003 | 88° | 22km/h | 29338m | 5.3m/s | -43.9°C | 2.7% | 0hPa | 2.7V | 00:00:00 | 00:00:00 | 00:00:00 | |
| OE8JPQ-2 | 2026-09-04 12:42:43 | 45.50386 | 16.38987 | 93° | 22km/h | 29324m | 6.8m/s | -44.1°C | 2.8% | 0hPa | 2.7V | 00:00:00 | 01:41:54 | 00:00:00 | |
| OE3JTB-15 | 2026-09-04 12:42:40 | 45.50386 | 16.38944 | 91° | 20km/h | 29291m | 7.6m/s | -44.2°C | 2.8% | 0hPa | 2.7V | 00:00:00 | 00:00:00 | 08:30:00 | |
| 9A1FER-15 | 2026-09-04 12:42:35 | 45.50385 | 16.38920 | 83° | 20km/h | 29272m | 7.5m/s | -44.1°C | 2.8% | 0hPa | 2.7V | 00:00:00 | 01:41:46 | 00:00:00 | |
| 9A1FER-10 | 2026-09-04 12:42:34 | 45.50385 | 16.38914 | 84° | 20km/h | 29265m | 5.9m/s | -44.2°C | 2.8% | 0hPa | 2.7V | 00:00:00 | 01:41:45 | 00:00:00 | |
| 9A1FER-3 | 2026-09-04 12:42:33 | 45.50384 | 16.38909 | 86° | 20km/h | 29260m | 5.1m/s | -44.2°C | 2.8% | 0hPa | 2.7V | 00:00:00 | 01:41:44 | 00:00:00 | |
| OE5DRO-10 | 2026-09-04 12:42:32 | 45.50384 | 16.38903 | 89° | 22km/h | 29253m | 7.4m/s | -44.1°C | 2.8% | 0hPa | 2.7V | 00:00:00 | 00:00:00 | 00:00:00 | |
| PETON7-10 | 2026-09-04 12:42:30 | 45.50385 | 16.38887 | 97° | 22km/h | 29240m | 5.3m/s | -44.0°C | 2.8% | 0hPa | 2.7V | 00:00:00 | 01:41:41 | 00:00:00 | |
| PG1ADW-2 | 2026-09-04 12:42:26 | 45.50389 | 16.38855 | 107° | 18km/h | 29214m | 7.4m/s | -44.0°C | 2.7% | 0hPa | 2.7V | 00:00:00 | 01:41:37 | 00:00:00 | |
| OE8JPQ-2 | 2026-09-04 12:42:23 | 45.50396 | 16.38833 | 128° | 16km/h | 29195m | 7.6m/s | -44.2°C | 2.8% | 0hPa | 2.7V | 00:00:00 | 00:00:00 | 00:00:00 | |
| 9A1FER-15 | 2026-09-04 12:42:20 | 45.50406 | 16.38821 | 136° | 16km/h | 29176m | 7.2m/s | -43.9°C | 2.8% | 0hPa | 2.6V | 00:00:00 | 01:41:31 | 00:00:00 | |
| 9A1FER-10 | 2026-09-04 12:42:19 | 45.50409 | 16.38815 | 123° | 16km/h | 29169m | 6.6m/s | -43.9°C | 2.7% | 0hPa | 2.6V | 00:00:00 | 01:41:30 | 00:00:00 | |
| 9A1FER-3 | 2026-09-04 12:42:18 | 45.50412 | 16.38808 | 118° | 15km/h | 29163m | 5.0m/s | -44.0°C | 2.7% | 0hPa | 2.6V | 00:00:00 | 01:41:29 | 00:00:00 | |
| PETON7-10 | 2026-09-04 12:42:15 | 45.50419 | 16.38786 | 116° | 13km/h | 29144m | 5.7m/s | -44.0°C | 2.8% | 0hPa | 2.6V | 00:00:00 | 00:00:00 | 08:30:00 | |
| OE5DRO-10 | 2026-09-04 12:42:12 | 45.50424 | 16.38767 | 97° | 11km/h | 29125m | 6.5m/s | -44.1°C | 2.8% | 0hPa | 2.7V | 00:00:00 | 00:00:00 | 00:00:00 | |
| OE3JTB-15 | 2026-09-04 12:42:08 | 45.50425 | 16.38748 | 148° | 15km/h | 29099m | 6.8m/s | -44.3°C | 2.8% | 0hPa | 2.7V | 00:00:00 | 00:00:00 | 00:00:00 | |
| PG1ADW-2 | 2026-09-04 12:42:06 | 45.50428 | 16.38747 | 160° | 13km/h | 29085m | 7.0m/s | -44.5°C | 2.8% | 0hPa | 2.7V | 00:00:00 | 00:00:00 | 00:00:00 | |
| 9A1FER-15 | 2026-09-04 12:42:05 | 45.50430 | 16.38746 | 163° | 13km/h | 29079m | 5.8m/s | -44.4°C | 2.8% | 0hPa | 2.7V | 00:00:00 | 01:41:16 | 08:30:00 | |
| 9A1FER-10 | 2026-09-04 12:42:04 | 45.50432 | 16.38745 | 174° | 13km/h | 29072m | 7.2m/s | -44.4°C | 2.8% | 0hPa | 2.6V | 00:00:00 | 01:41:15 | 08:30:00 | |
| OE8JPQ-2 | 2026-09-04 12:42:03 | 45.50435 | 16.38745 | 178° | 15km/h | 29065m | 6.7m/s | -44.4°C | 2.8% | 0hPa | 2.7V | 00:00:00 | 00:00:00 | 00:00:00 | |
| PETON7-10 | 2026-09-04 12:42:00 | 45.50442 | 16.38739 | 110° | 15km/h | 29046m | 6.8m/s | -44.4°C | 2.9% | 0hPa | 2.7V | 00:00:00 | 00:00:00 | 00:00:00 | |
| OE5DRO-10 | 2026-09-04 12:41:53 | 45.50437 | 16.38708 | 84° | 18km/h | 29002m | 7.8m/s | -44.2°C | 2.8% | 0hPa | 2.7V | 00:00:00 | 00:00:00 | 00:00:00 | |
| 9A1FER-15 | 2026-09-04 12:41:50 | 45.50437 | 16.38692 | 91° | 20km/h | 28982m | 8.0m/s | -44.2°C | 2.8% | 0hPa | 2.7V | 00:00:00 | 01:41:01 | 00:00:00 | |
| 9A1FER-10 | 2026-09-04 12:41:49 | 45.50437 | 16.38686 | 86° | 18km/h | 28975m | 5.7m/s | -44.2°C | 2.8% | 0hPa | 2.7V | 00:00:00 | 01:41:00 | 00:00:00 | |
| 9A1FER-3 | 2026-09-04 12:41:48 | 45.50437 | 16.38681 | 83° | 18km/h | 28969m | 4.8m/s | -44.2°C | 2.7% | 0hPa | 2.7V | 00:00:00 | 01:40:59 | 00:00:00 | |
| PG1ADW-2 | 2026-09-04 12:41:46 | 45.50436 | 16.38667 | 92° | 18km/h | 28957m | 7.0m/s | -44.2°C | 2.8% | 0hPa | 2.7V | 00:00:00 | 00:00:00 | 00:00:00 | |
| PETON7-10 | 2026-09-04 12:41:45 | 45.50437 | 16.38659 | 97° | 18km/h | 28950m | 6.2m/s | -44.2°C | 2.8% | 0hPa | 2.7V | 00:00:00 | 01:40:56 | 00:00:00 | |
| OE8JPQ-2 | 2026-09-04 12:41:43 | 45.50438 | 16.38642 | 89° | 16km/h | 28938m | 6.0m/s | -44.3°C | 2.8% | 0hPa | 2.7V | 00:00:00 | 01:40:54 | 00:00:00 | |
| OE3JTB-15 | 2026-09-04 12:41:39 | 45.50429 | 16.38615 | 61° | 16km/h | 28911m | 7.3m/s | -44.3°C | 2.7% | 0hPa | 2.7V | 00:00:00 | 01:40:50 | 00:00:00 | |
| 9A1FER-15 | 2026-09-04 12:41:35 | 45.50423 | 16.38593 | 101° | 13km/h | 28884m | 5.7m/s | -44.6°C | 2.8% | 0hPa | 2.7V | 00:00:00 | 01:40:46 | 00:00:00 | |
| 9A1FER-10 | 2026-09-04 12:41:34 | 45.50425 | 16.38590 | 123° | 13km/h | 28878m | 6.4m/s | -44.6°C | 2.7% | 0hPa | 2.7V | 00:00:00 | 01:40:45 | 00:00:00 | |
| 9A1FER-3 | 2026-09-04 12:41:33 | 45.50426 | 16.38586 | 129° | 13km/h | 28871m | 7.6m/s | -44.8°C | 2.8% | 0hPa | 2.7V | 00:00:00 | 01:40:44 | 00:00:00 | |
| PG1ADW-2 | 2026-09-04 12:41:26 | 45.50435 | 16.38550 | 91° | 15km/h | 28824m | 5.5m/s | -45.3°C | 2.9% | 0hPa | 2.7V | 00:00:00 | 00:00:00 | 00:00:00 | |
| OE8JPQ-2 | 2026-09-04 12:41:23 | 45.50435 | 16.38538 | 94° | 15km/h | 28804m | 6.8m/s | -45.3°C | 2.9% | 0hPa | 2.7V | 00:00:00 | 00:00:00 | 08:30:00 | |
| 9A1FER-15 | 2026-09-04 12:41:20 | 45.50439 | 16.38532 | 130° | 18km/h | 28785m | 7.2m/s | -45.3°C | 2.9% | 0hPa | 2.7V | 00:00:00 | 01:40:31 | 00:00:00 | |
| 9A1FER-10 | 2026-09-04 12:41:19 | 45.50441 | 16.38528 | 118° | 18km/h | 28778m | 5.8m/s | -45.3°C | 2.9% | 0hPa | 2.7V | 00:00:00 | 01:40:30 | 00:00:00 | |
| 9A1FER-3 | 2026-09-04 12:41:18 | 45.50442 | 16.38523 | 110° | 18km/h | 28771m | 7.9m/s | -45.4°C | 2.9% | 0hPa | 2.6V | 00:00:00 | 01:40:29 | 00:00:00 | |
| OE5DRO-10 | 2026-09-04 12:41:15 | 45.50444 | 16.38505 | 97° | 18km/h | 28751m | 7.6m/s | -45.4°C | 2.9% | 0hPa | 2.7V | 00:00:00 | 00:00:00 | 00:00:00 | |
| PETON7-10 | 2026-09-04 12:41:14 | 45.50445 | 16.38497 | 99° | 18km/h | 28744m | 6.3m/s | -45.3°C | 2.9% | 0hPa | 2.7V | 00:00:00 | 00:00:00 | 00:00:00 | |
| OE3JTB-15 | 2026-09-04 12:41:10 | 45.50444 | 16.38463 | 86° | 20km/h | 28710m | 7.3m/s | -45.3°C | 2.9% | 0hPa | 2.7V | 00:00:00 | 00:00:00 | 00:00:00 | |
| PG1ADW-2 | 2026-09-04 12:41:06 | 45.50444 | 16.38446 | 86° | 20km/h | 28689m | 8.2m/s | -45.4°C | 2.9% | 0hPa | 2.6V | 00:00:00 | 01:40:17 | 08:30:00 | |
| 9A1FER-15 | 2026-09-04 12:41:05 | 45.50444 | 16.38440 | 83° | 20km/h | 28682m | 6.0m/s | -45.5°C | 2.9% | 0hPa | 2.6V | 00:00:00 | 01:40:16 | 00:00:00 | |
| 9A1FER-10 | 2026-09-04 12:41:04 | 45.50444 | 16.38435 | 90° | 20km/h | 28676m | 6.1m/s | -45.5°C | 2.9% | 0hPa | 2.6V | 00:00:00 | 01:40:15 | 00:00:00 | |
| 9A1FER-3 | 2026-09-04 12:41:03 | 45.50444 | 16.38430 | 102° | 20km/h | 28669m | 7.9m/s | -45.6°C | 2.9% | 0hPa | 2.6V | 00:00:00 | 01:40:14 | 00:00:00 | |
| OE5DRO-10 | 2026-09-04 12:40:56 | 45.50447 | 16.38384 | 83° | 24km/h | 28621m | 7.7m/s | -46.1°C | 3.0% | 0hPa | 2.6V | 00:00:00 | 00:00:00 | 00:00:00 | |
| 9A1FER-15 | 2026-09-04 12:40:50 | 45.50436 | 16.38340 | 76° | 24km/h | 28579m | 6.6m/s | -46.4°C | 3.1% | 0hPa | 2.6V | 00:00:00 | 01:40:01 | 00:00:00 | |
| 9A1FER-10 | 2026-09-04 12:40:49 | 45.50434 | 16.38332 | 75° | 24km/h | 28572m | 6.8m/s | -46.4°C | 3.1% | 0hPa | 2.6V | 00:00:00 | 01:40:00 | 00:00:00 | |
| 9A1FER-3 | 2026-09-04 12:40:48 | 45.50432 | 16.38326 | 67° | 24km/h | 28565m | 7.4m/s | -46.5°C | 3.1% | 0hPa | 2.6V | 00:00:00 | 01:39:59 | 00:00:00 | |
| PG1ADW-2 | 2026-09-04 12:40:46 | 45.50428 | 16.38311 | 68° | 22km/h | 28551m | 6.7m/s | -46.5°C | 3.1% | 0hPa | 2.6V | 00:00:00 | 00:00:00 | 00:00:00 | |
| PETON7-10 | 2026-09-04 12:40:44 | 45.50424 | 16.38292 | 77° | 24km/h | 28537m | 5.4m/s | -46.7°C | 3.1% | 0hPa | 2.6V | 00:00:00 | 00:00:00 | 00:00:00 | |
| OE8JPQ-2 | 2026-09-04 12:40:43 | 45.50422 | 16.38282 | 74° | 20km/h | 28531m | 6.9m/s | -46.6°C | 3.1% | 0hPa | 2.6V | 00:00:00 | 01:39:54 | 00:00:00 | |
| OE3JTB-15 | 2026-09-04 12:40:41 | 45.50417 | 16.38263 | 64° | 18km/h | 28516m | 6.2m/s | -46.7°C | 3.1% | 0hPa | 2.6V | 00:00:00 | 00:00:00 | 00:00:00 | |
| OE5DRO-10 | 2026-09-04 12:40:37 | 45.50406 | 16.38231 | 56° | 18km/h | 28488m | 8.5m/s | -46.6°C | 3.1% | 0hPa | 2.6V | 00:00:00 | 00:00:00 | 00:00:00 | |
| 9A1FER-15 | 2026-09-04 12:40:35 | 45.50399 | 16.38221 | 40° | 18km/h | 28474m | 5.7m/s | -46.5°C | 3.1% | 0hPa | 2.6V | 00:00:00 | 01:39:46 | 00:00:00 | |
| 9A1FER-10 | 2026-09-04 12:40:34 | 45.50396 | 16.38217 | 46° | 18km/h | 28467m | 8.0m/s | -46.6°C | 3.1% | 0hPa | 2.6V | 00:00:00 | 01:39:45 | 00:00:00 | |
| 9A1FER-3 | 2026-09-04 12:40:33 | 45.50393 | 16.38212 | 54° | 18km/h | 28460m | 6.2m/s | -46.5°C | 3.1% | 0hPa | 2.7V | 00:00:00 | 01:39:44 | 00:00:00 | |
| PETON7-10 | 2026-09-04 12:40:29 | 45.50380 | 16.38191 | 35° | 18km/h | 28432m | 5.6m/s | -46.5°C | 3.1% | 0hPa | 2.6V | 00:00:00 | 00:00:00 | 00:00:00 | |
| PG1ADW-2 | 2026-09-04 12:40:26 | 45.50370 | 16.38178 | 54° | 16km/h | 28413m | 5.9m/s | -46.5°C | 3.1% | 0hPa | 2.6V | 00:00:00 | 00:00:00 | 00:00:00 | |
| OE8JPQ-2 | 2026-09-04 12:40:23 | 45.50362 | 16.38168 | 31° | 16km/h | 28392m | 5.3m/s | -46.6°C | 3.1% | 0hPa | 2.6V | 00:00:00 | 00:00:00 | 00:00:00 | |
| 9A1FER-15 | 2026-09-04 12:40:20 | 45.50352 | 16.38156 | 37° | 16km/h | 28372m | 5.1m/s | -46.7°C | 3.0% | 0hPa | 2.7V | 00:00:00 | 01:39:31 | 00:00:00 | |
| 9A1FER-10 | 2026-09-04 12:40:19 | 45.50347 | 16.38152 | 29° | 16km/h | 28367m | 6.5m/s | -46.7°C | 3.1% | 0hPa | 2.7V | 00:00:00 | 01:39:30 | 00:00:00 | |
| 9A1FER-3 | 2026-09-04 12:40:18 | 45.50342 | 16.38149 | 19° | 16km/h | 28359m | 7.9m/s | -46.7°C | 3.1% | 0hPa | 2.7V | 00:00:00 | 01:39:29 | 00:00:00 | |
| PETON7-10 | 2026-09-04 12:40:14 | 45.50324 | 16.38146 | 15° | 15km/h | 28332m | 7.1m/s | -46.7°C | 3.2% | 0hPa | 2.7V | 00:00:00 | 01:39:25 | 00:00:00 | |
| OE3JTB-15 | 2026-09-04 12:40:12 | 45.50320 | 16.38143 | 33° | 15km/h | 28319m | 6.3m/s | -46.8°C | 3.2% | 0hPa | 2.7V | 00:00:00 | 01:39:23 | 00:00:00 | |
| PG1ADW-2 | 2026-09-04 12:40:06 | 45.50300 | 16.38124 | 38° | 15km/h | 28278m | 7.1m/s | -46.7°C | 3.1% | 0hPa | 2.7V | 00:00:00 | 00:00:00 | 00:00:00 | |
| 9A1FER-15 | 2026-09-04 12:40:05 | 45.50295 | 16.38119 | 30° | 13km/h | 28271m | 7.1m/s | -46.7°C | 3.1% | 0hPa | 2.7V | 00:00:00 | 01:39:16 | 00:00:00 | |
| 9A1FER-10 | 2026-09-04 12:40:04 | 45.50290 | 16.38115 | 25° | 13km/h | 28265m | 5.1m/s | -46.7°C | 3.1% | 0hPa | 2.7V | 00:00:00 | 01:39:15 | 00:00:00 | |
| OE8JPQ-2 | 2026-09-04 12:40:03 | 45.50285 | 16.38112 | 29° | 13km/h | 28259m | 5.8m/s | -46.7°C | 3.1% | 0hPa | 2.7V | 00:00:00 | 00:00:00 | 00:00:00 | |
| PETON7-10 | 2026-09-04 12:39:59 | 45.50280 | 16.38102 | 134° | 13km/h | 28233m | 6.8m/s | -46.7°C | 3.1% | 0hPa | 2.7V | 00:00:00 | 00:00:00 | 08:30:00 | |
| 9A1FER-15 | 2026-09-04 12:39:50 | 45.50261 | 16.38079 | 39° | 15km/h | 28174m | 6.8m/s | -46.6°C | 3.1% | 0hPa | 2.6V | 00:00:00 | 01:39:01 | 08:30:00 | |
| 9A1FER-10 | 2026-09-04 12:39:49 | 45.50257 | 16.38074 | 43° | 15km/h | 28167m | 5.9m/s | -46.6°C | 3.1% | 0hPa | 2.7V | 00:00:00 | 01:39:00 | 08:30:00 | |
| 9A1FER-3 | 2026-09-04 12:39:48 | 45.50253 | 16.38069 | 52° | 16km/h | 28160m | 8.0m/s | -46.6°C | 3.1% | 0hPa | 2.7V | 00:00:00 | 01:38:59 | 08:30:00 | |
| PG1ADW-2 | 2026-09-04 12:39:46 | 45.50250 | 16.38060 | 75° | 16km/h | 28148m | 5.4m/s | -46.6°C | 3.1% | 0hPa | 2.7V | 00:00:00 | 01:38:57 | 00:00:00 | |
| PETON7-10 | 2026-09-04 12:39:44 | 45.50248 | 16.38053 | 51° | 16km/h | 28133m | 6.6m/s | -46.6°C | 3.1% | 0hPa | 2.7V | 00:00:00 | 00:00:00 | 00:00:00 | |
| OE8JPQ-2 | 2026-09-04 12:39:43 | 45.50247 | 16.38051 | 40° | 18km/h | 28127m | 5.8m/s | -46.6°C | 3.1% | 0hPa | 2.7V | 00:00:00 | 01:38:54 | 00:00:00 | |
| OE3JTB-15 | 2026-09-04 12:39:42 | 45.50245 | 16.38049 | 47° | 24km/h | 28121m | 6.7m/s | -46.7°C | 3.1% | 0hPa | 2.7V | 00:00:00 | 00:00:00 | 00:00:00 | |
| OE5DRO-10 | 2026-09-04 12:39:39 | 45.50242 | 16.38036 | 71° | 22km/h | 28101m | 6.1m/s | -46.7°C | 3.2% | 0hPa | 2.6V | 00:00:00 | 00:00:00 | 00:00:00 | |
| 9A1FER-15 | 2026-09-04 12:39:35 | 45.50231 | 16.38012 | 61° | 22km/h | 28072m | 7.8m/s | -46.7°C | 3.2% | 0hPa | 2.6V | 00:00:00 | 01:38:46 | 00:00:00 | |
| 9A1FER-10 | 2026-09-04 12:39:34 | 45.50228 | 16.38004 | 63° | 22km/h | 28065m | 6.5m/s | -46.8°C | 3.2% | 0hPa | 2.6V | 00:00:00 | 01:38:45 | 00:00:00 | |
| 9A1FER-3 | 2026-09-04 12:39:33 | 45.50225 | 16.37995 | 59° | 24km/h | 28059m | 5.4m/s | -46.9°C | 3.2% | 0hPa | 2.6V | 00:00:00 | 01:38:44 | 00:00:00 | |
| PETON7-10 | 2026-09-04 12:39:29 | 45.50209 | 16.37970 | 51° | 24km/h | 28031m | 7.8m/s | -46.9°C | 3.2% | 0hPa | 2.6V | 00:00:00 | 01:38:40 | 00:00:00 | |
| PG1ADW-2 | 2026-09-04 12:39:26 | 45.50201 | 16.37960 | 23° | 24km/h | 28010m | 6.7m/s | 0°C | 0% | 0hPa | 2.6V | 00:00:00 | 00:00:00 | 00:00:00 | |
| OE8JPQ-2 | 2026-09-04 12:39:23 | 45.50189 | 16.37950 | 40° | 26km/h | 27990m | 6.5m/s | -46.5°C | 3.2% | 0hPa | 2.6V | 00:00:00 | 00:00:00 | 00:00:00 | |
| 9A1FER-15 | 2026-09-04 12:39:20 | 45.50171 | 16.37932 | 31° | 24km/h | 27969m | 5.8m/s | -46.5°C | 3.1% | 0hPa | 2.7V | 00:00:00 | 01:38:31 | 00:00:00 | |
| 9A1FER-3 | 2026-09-04 12:39:19 | 45.50155 | 16.37918 | 35° | 24km/h | 27957m | 7.1m/s | -46.4°C | 3.1% | 0hPa | 2.7V | 00:00:00 | 01:38:29 | 00:00:00 | |
| PETON7-10 | 2026-09-04 12:39:14 | 45.50129 | 16.37895 | 12° | 20km/h | 27931m | 7.3m/s | -46.4°C | 3.1% | 0hPa | 2.7V | 00:00:00 | 00:00:00 | 00:00:00 | |
| OE3JTB-15 | 2026-09-04 12:39:13 | 45.50125 | 16.37895 | 352° | 18km/h | 27924m | 7.0m/s | -46.4°C | 3.1% | 0hPa | 2.6V | 00:00:00 | 00:00:00 | 00:00:00 | |
| PG1ADW-2 | 2026-09-04 12:39:06 | 45.50097 | 16.37888 | 34° | 20km/h | 27877m | 8.1m/s | -46.4°C | 3.2% | 0hPa | 2.6V | 00:00:00 | 00:00:00 | 00:00:00 | |
| 9A1FER-15 | 2026-09-04 12:39:05 | 45.50092 | 16.37882 | 40° | 18km/h | 27870m | 6.6m/s | -46.2°C | 3.1% | 0hPa | 2.7V | 00:00:00 | 01:38:16 | 00:00:00 | |
| 9A1FER-10 | 2026-09-04 12:39:04 | 45.50085 | 16.37875 | 39° | 18km/h | 27863m | 6.3m/s | -46.2°C | 3.0% | 0hPa | 2.7V | 00:00:00 | 01:38:15 | 00:00:00 | |
| 9A1FER-3 | 2026-09-04 12:39:03 | 45.50079 | 16.37868 | 32° | 18km/h | 27857m | 6.9m/s | -46.2°C | 3.0% | 0hPa | 2.6V | 00:00:00 | 01:38:14 | 00:00:00 | |
| PETON7-10 | 2026-09-04 12:38:59 | 45.50064 | 16.37860 | 327° | 18km/h | 27830m | 5.8m/s | -46.4°C | 3.1% | 0hPa | 2.6V | 00:00:00 | 00:00:00 | 00:00:00 | |
| 9A1FER-15 | 2026-09-04 12:38:50 | 45.50031 | 16.37875 | 4° | 18km/h | 27771m | 5.8m/s | -46.2°C | 3.1% | 0hPa | 2.6V | 00:00:00 | 01:38:01 | 00:00:00 | |
| 9A1FER-10 | 2026-09-04 12:38:49 | 45.50025 | 16.37873 | 11° | 16km/h | 27764m | 7.5m/s | -46.2°C | 3.0% | 0hPa | 2.6V | 00:00:00 | 01:38:00 | 00:00:00 | |
| PG1ADW-2 | 2026-09-04 12:38:45 | 45.50001 | 16.37870 | 349° | 13km/h | 27736m | 6.3m/s | -46.4°C | 3.1% | 0hPa | 2.6V | 00:00:00 | 00:00:00 | 00:00:00 | |
| PETON7-10 | 2026-09-04 12:38:44 | 45.49995 | 16.37872 | 342° | 13km/h | 27729m | 7.3m/s | -46.4°C | 3.1% | 0hPa | 2.6V | 00:00:00 | 01:37:55 | 00:00:00 | |
| OE8JPQ-2 | 2026-09-04 12:38:43 | 45.49991 | 16.37874 | 336° | 13km/h | 27722m | 7.0m/s | -46.2°C | 3.1% | 0hPa | 2.6V | 00:00:00 | 01:37:54 | 00:00:00 | |
| OE5DRO-10 | 2026-09-04 12:38:39 | 45.49979 | 16.37887 | 318° | 13km/h | 27696m | 5.5m/s | -46.3°C | 3.1% | 0hPa | 2.6V | 00:00:00 | 00:00:00 | 00:00:00 | |
| 9A1FER-15 | 2026-09-04 12:38:35 | 45.49971 | 16.37889 | 25° | 11km/h | 27667m | 7.7m/s | -46.6°C | 3.1% | 0hPa | 2.6V | 00:00:00 | 01:37:46 | 00:00:00 | |
| 9A1FER-10 | 2026-09-04 12:38:34 | 45.49968 | 16.37887 | 22° | 9km/h | 27660m | 6.7m/s | -46.5°C | 3.1% | 0hPa | 2.6V | 00:00:00 | 01:37:45 | 00:00:00 | |
| 9A1FER-3 | 2026-09-04 12:38:33 | 45.49964 | 16.37885 | 24° | 9km/h | 27654m | 6.0m/s | -46.5°C | 3.1% | 0hPa | 2.6V | 00:00:00 | 01:37:44 | 00:00:00 | |
| PETON7-10 | 2026-09-04 12:38:28 | 45.49951 | 16.37884 | 311° | 7km/h | 27620m | 5.8m/s | -46.3°C | 3.0% | 0hPa | 2.6V | 00:00:00 | 00:00:00 | 00:00:00 | |
| PG1ADW-2 | 2026-09-04 12:38:25 | 45.49949 | 16.37896 | 261° | 9km/h | 27600m | 5.8m/s | -46.5°C | 3.1% | 0hPa | 2.6V | 00:00:00 | 01:37:36 | 00:00:00 | |
| OE8JPQ-2 | 2026-09-04 12:38:23 | 45.49949 | 16.37902 | 282° | 7km/h | 27586m | 6.2m/s | -46.4°C | 3.1% | 0hPa | 2.6V | 00:00:00 | 00:00:00 | 08:30:00 | |
| 9A1FER-15 | 2026-09-04 12:38:20 | 45.49949 | 16.37903 | 130° | 9km/h | 27567m | 7.1m/s | -46.4°C | 3.0% | 0hPa | 2.7V | 00:00:00 | 01:37:31 | 00:00:00 | |
| 9A1FER-10 | 2026-09-04 12:38:19 | 45.49950 | 16.37901 | 124° | 9km/h | 27560m | 5.2m/s | -46.5°C | 3.0% | 0hPa | 2.7V | 00:00:00 | 01:37:30 | 00:00:00 | |
| 9A1FER-3 | 2026-09-04 12:38:18 | 45.49951 | 16.37899 | 109° | 9km/h | 27555m | 5.9m/s | -46.7°C | 3.0% | 0hPa | 2.6V | 00:00:00 | 01:37:29 | 00:00:00 | |
| OE3JTB-15 | 2026-09-04 12:38:15 | 45.49950 | 16.37896 | 301° | 11km/h | 27535m | 6.0m/s | -46.8°C | 3.0% | 0hPa | 2.7V | 00:00:00 | 00:00:00 | 08:30:00 | |
| PETON7-10 | 2026-09-04 12:38:13 | 45.49950 | 16.37901 | 262° | 11km/h | 27522m | 6.2m/s | -46.7°C | 3.0% | 0hPa | 2.7V | 00:00:00 | 00:00:00 | 00:00:00 | |
| 9A1FER-15 | 2026-09-04 12:38:05 | 45.49950 | 16.37930 | 79° | 11km/h | 27470m | 6.4m/s | -47.0°C | 3.1% | 0hPa | 2.7V | 00:00:00 | 01:37:16 | 00:00:00 | |
| 9A1FER-10 | 2026-09-04 12:38:04 | 45.49949 | 16.37929 | 46° | 11km/h | 27463m | 7.5m/s | -46.9°C | 3.1% | 0hPa | 2.7V | 00:00:00 | 01:37:15 | 00:00:00 | |
| OE8JPQ-2 | 2026-09-04 12:38:03 | 45.49947 | 16.37926 | 30° | 11km/h | 27457m | 6.1m/s | -47.0°C | 3.1% | 0hPa | 2.7V | 00:00:00 | 00:00:00 | 00:00:00 | |
| PETON7-10 | 2026-09-04 12:37:58 | 45.49934 | 16.37923 | 320° | 9km/h | 27426m | 6.4m/s | -47.5°C | 3.2% | 0hPa | 2.7V | 00:00:00 | 01:37:09 | 00:00:00 | |
| 9A1FER-15 | 2026-09-04 12:37:50 | 45.49926 | 16.37949 | 46° | 7km/h | 27374m | 5.3m/s | -47.9°C | 3.3% | 0hPa | 2.7V | 00:00:00 | 01:37:01 | 00:00:00 | |
| 9A1FER-10 | 2026-09-04 12:37:49 | 45.49925 | 16.37948 | 75° | 7km/h | 27367m | 7.7m/s | -47.9°C | 3.3% | 0hPa | 2.7V | 00:00:00 | 01:37:00 | 00:00:00 | |
| 9A1FER-3 | 2026-09-04 12:37:48 | 45.49925 | 16.37945 | 93° | 7km/h | 27360m | 6.5m/s | -47.8°C | 3.3% | 0hPa | 2.7V | 00:00:00 | 01:36:59 | 00:00:00 | |
| OE3JTB-15 | 2026-09-04 12:37:46 | 45.49925 | 16.37939 | 71° | 9km/h | 27349m | 4.8m/s | -47.8°C | 3.3% | 0hPa | 2.7V | 00:00:00 | 00:00:00 | 00:00:00 | |
| PG1ADW-2 | 2026-09-04 12:37:45 | 45.49924 | 16.37936 | 45° | 9km/h | 27343m | 7.3m/s | -47.8°C | 3.3% | 0hPa | 2.7V | 00:00:00 | 00:00:00 | 00:00:00 | |
| OE8JPQ-2 | 2026-09-04 12:37:43 | 45.49919 | 16.37932 | 25° | 11km/h | 27330m | 6.7m/s | -48.0°C | 3.3% | 0hPa | 2.7V | 00:00:00 | 01:36:54 | 00:00:00 | |
| OE5DRO-10 | 2026-09-04 12:37:36 | 45.49919 | 16.37937 | 165° | 7km/h | 27284m | 5.7m/s | -48.4°C | 3.3% | 0hPa | 2.7V | 00:00:00 | 00:00:00 | 00:00:00 | |
| 9A1FER-15 | 2026-09-04 12:37:35 | 45.49921 | 16.37936 | 161° | 11km/h | 27278m | 7.3m/s | -48.5°C | 3.4% | 0hPa | 2.7V | 00:00:00 | 01:36:46 | 08:30:00 | |
| 9A1FER-10 | 2026-09-04 12:37:34 | 45.49923 | 16.37935 | 151° | 11km/h | 27271m | 5.9m/s | -48.5°C | 3.4% | 0hPa | 2.7V | 00:00:00 | 01:36:45 | 08:30:00 | |
| 9A1FER-3 | 2026-09-04 12:37:33 | 45.49924 | 16.37934 | 132° | 11km/h | 27266m | 5.3m/s | -48.5°C | 3.4% | 0hPa | 2.6V | 00:00:00 | 01:36:44 | 08:30:00 | |
| PETON7-10 | 2026-09-04 12:37:28 | 45.49925 | 16.37927 | 316° | 11km/h | 27236m | 7.5m/s | -48.7°C | 3.4% | 0hPa | 2.6V | 00:00:00 | 00:00:00 | 00:00:00 | |
| PG1ADW-2 | 2026-09-04 12:37:25 | 45.49917 | 16.37940 | 320° | 11km/h | 27216m | 7.3m/s | -48.6°C | 3.4% | 0hPa | 2.6V | 00:00:00 | 00:00:00 | 00:00:00 | |
| OE8JPQ-2 | 2026-09-04 12:37:21 | 45.49910 | 16.37956 | 261° | 9km/h | 27191m | 5.7m/s | -48.6°C | 3.3% | 0hPa | 2.6V | 00:00:00 | 00:00:00 | 00:00:00 | |
| 9A1FER-15 | 2026-09-04 12:37:20 | 45.49910 | 16.37958 | 214° | 11km/h | 27184m | 8.0m/s | -48.7°C | 3.4% | 0hPa | 2.6V | 00:00:00 | 01:36:31 | 00:00:00 | |
| 9A1FER-10 | 2026-09-04 12:37:19 | 45.49912 | 16.37958 | 162° | 11km/h | 27177m | 5.7m/s | -48.7°C | 3.4% | 0hPa | 2.6V | 00:00:00 | 01:36:30 | 00:00:00 | |
| 9A1FER-3 | 2026-09-04 12:37:18 | 45.49914 | 16.37957 | 157° | 11km/h | 27172m | 4.9m/s | -48.8°C | 3.5% | 0hPa | 2.6V | 00:00:00 | 01:36:29 | 00:00:00 | |
| OE5DRO-10 | 2026-09-04 12:37:17 | 45.49915 | 16.37956 | 178° | 11km/h | 27166m | 6.9m/s | -48.7°C | 3.5% | 0hPa | 2.6V | 00:00:00 | 00:00:00 | 08:30:00 | |
| PETON7-10 | 2026-09-04 12:37:13 | 45.49912 | 16.37967 | 321° | 11km/h | 27142m | 6.6m/s | -48.7°C | 3.4% | 0hPa | 2.7V | 00:00:00 | 01:36:24 | 00:00:00 | |
| PG1ADW-2 | 2026-09-04 12:37:05 | 45.49903 | 16.37992 | 159° | 9km/h | 27091m | 7.6m/s | -48.8°C | 3.5% | 0hPa | 2.7V | 00:00:00 | 01:36:16 | 00:00:00 | |
| 9A1FER-10 | 2026-09-04 12:37:04 | 45.49906 | 16.37991 | 168° | 9km/h | 27084m | 6.0m/s | -48.7°C | 3.5% | 0hPa | 2.6V | 00:00:00 | 01:36:15 | 00:00:00 | |
| 9A1FER-3 | 2026-09-04 12:37:03 | 45.49909 | 16.37990 | 169° | 9km/h | 27078m | 5.2m/s | -48.8°C | 3.5% | 0hPa | 2.6V | 00:00:00 | 01:36:14 | 00:00:00 | |
| OE8JPQ-2 | 2026-09-04 12:37:01 | 45.49913 | 16.37988 | 127° | 9km/h | 27066m | 6.7m/s | -48.8°C | 3.4% | 0hPa | 2.6V | 00:00:00 | 00:00:00 | 00:00:00 | |
| PETON7-10 | 2026-09-04 12:36:58 | 45.49911 | 16.37988 | 317° | 9km/h | 27046m | 7.0m/s | -48.8°C | 3.4% | 0hPa | 2.6V | 00:00:00 | 00:00:00 | 00:00:00 | |
| 9A1FER-15 | 2026-09-04 12:36:50 | 45.49916 | 16.37988 | 150° | 9km/h | 26995m | 6.3m/s | -48.8°C | 3.5% | 0hPa | 2.7V | 00:00:00 | 01:36:01 | 00:00:00 | |
| 9A1FER-10 | 2026-09-04 12:36:49 | 45.49919 | 16.37985 | 153° | 9km/h | 26989m | 5.2m/s | -48.8°C | 3.5% | 0hPa | 2.7V | 00:00:00 | 01:36:00 | 00:00:00 | |
| 9A1FER-3 | 2026-09-04 12:36:48 | 45.49923 | 16.37983 | 161° | 9km/h | 26982m | 7.5m/s | -48.7°C | 3.5% | 0hPa | 2.6V | 00:00:00 | 01:35:59 | 00:00:00 | |
| PG1ADW-2 | 2026-09-04 12:36:45 | 45.49931 | 16.37980 | 138° | 9km/h | 26964m | 7.2m/s | -48.8°C | 3.4% | 0hPa | 2.6V | 00:00:00 | 00:00:00 | 00:00:00 | |
| PETON7-10 | 2026-09-04 12:36:43 | 45.49931 | 16.37977 | 35° | 9km/h | 26951m | 5.8m/s | -48.8°C | 3.4% | 0hPa | 2.6V | 00:00:00 | 00:00:00 | 00:00:00 | |
| OE5DRO-10 | 2026-09-04 12:36:39 | 45.49932 | 16.37980 | 177° | 9km/h | 26928m | 6.5m/s | -49.0°C | 3.5% | 0hPa | 2.6V | 00:00:00 | 00:00:00 | 00:00:00 | |
| 9A1FER-15 | 2026-09-04 12:36:35 | 45.49944 | 16.37973 | 165° | 9km/h | 26902m | 5.4m/s | -49.0°C | 3.5% | 0hPa | 2.6V | 00:00:00 | 01:35:46 | 00:00:00 | |
| 9A1FER-3 | 2026-09-04 12:36:33 | 45.49951 | 16.37969 | 145° | 7km/h | 26890m | 6.8m/s | -49.1°C | 3.5% | 0hPa | 2.6V | 00:00:00 | 01:35:44 | 00:00:00 | |
| OE8JPQ-2 | 2026-09-04 12:36:32 | 45.49954 | 16.37965 | 126° | 9km/h | 26883m | 5.9m/s | -49.0°C | 3.5% | 0hPa | 2.6V | 00:00:00 | 01:35:43 | 00:00:00 | |
| PETON7-10 | 2026-09-04 12:36:28 | 45.49958 | 16.37956 | 122° | 9km/h | 26859m | 5.6m/s | -49.0°C | 3.5% | 0hPa | 2.6V | 00:00:00 | 01:35:39 | 00:00:00 | |
| PG1ADW-2 | 2026-09-04 12:36:25 | 45.49959 | 16.37948 | 103° | 11km/h | 26841m | 5.0m/s | -49.0°C | 3.5% | 0hPa | 2.6V | 00:00:00 | 00:00:00 | 00:00:00 | |
| 9A1FER-15 | 2026-09-04 12:36:20 | 45.49960 | 16.37938 | 76° | 13km/h | 26809m | 5.9m/s | -49.1°C | 3.5% | 0hPa | 2.6V | 00:00:00 | 01:35:31 | 00:00:00 | |
| 9A1FER-10 | 2026-09-04 12:36:19 | 45.49959 | 16.37934 | 83° | 11km/h | 26803m | 6.3m/s | -49.1°C | 3.5% | 0hPa | 2.6V | 00:00:00 | 01:35:30 | 00:00:00 | |
| 9A1FER-3 | 2026-09-04 12:36:18 | 45.49959 | 16.37931 | 93° | 11km/h | 26796m | 6.8m/s | -49.0°C | 3.5% | 0hPa | 2.6V | 00:00:00 | 01:35:29 | 00:00:00 | |
| PETON7-10 | 2026-09-04 12:36:13 | 45.49959 | 16.37906 | 81° | 11km/h | 26766m | 5.0m/s | -49.2°C | 3.5% | 0hPa | 2.6V | 00:00:00 | 00:00:00 | 00:00:00 | |
| OE8JPQ-2 | 2026-09-04 12:36:11 | 45.49958 | 16.37895 | 85° | 9km/h | 26754m | 6.4m/s | -49.1°C | 3.5% | 0hPa | 2.7V | 00:00:00 | 00:00:00 | 00:00:00 | |
| 9A1FER-15 | 2026-09-04 12:36:05 | 45.49952 | 16.37877 | 53° | 7km/h | 26716m | 7.5m/s | -49.0°C | 3.5% | 0hPa | 2.7V | 00:00:00 | 01:35:16 | 00:00:00 | |
| 9A1FER-10 | 2026-09-04 12:36:04 | 45.49951 | 16.37875 | 54° | 5km/h | 26709m | 5.2m/s | -49.1°C | 3.6% | 0hPa | 2.7V | 00:00:00 | 01:35:15 | 00:00:00 | |
| 9A1FER-3 | 2026-09-04 12:36:03 | 45.49950 | 16.37873 | 54° | 5km/h | 26704m | 5.3m/s | -49.1°C | 3.5% | 0hPa | 2.6V | 00:00:00 | 01:35:14 | 00:00:00 | |
| OE5DRO-10 | 2026-09-04 12:36:01 | 45.49947 | 16.37869 | 56° | 5km/h | 26692m | 6.2m/s | -49.0°C | 3.6% | 0hPa | 2.7V | 00:00:00 | 00:00:00 | 00:00:00 | |
| PETON7-10 | 2026-09-04 12:35:58 | 45.49943 | 16.37858 | 71° | 4km/h | 26673m | 6.9m/s | -48.9°C | 3.5% | 0hPa | 2.7V | 00:00:00 | 00:00:00 | 00:00:00 | |
| 9A1FER-15 | 2026-09-04 12:35:50 | 45.49940 | 16.37852 | 340° | 7km/h | 26623m | 7.0m/s | -48.9°C | 3.5% | 0hPa | 2.7V | 00:00:00 | 01:35:01 | 00:00:00 | |
| 9A1FER-10 | 2026-09-04 12:35:49 | 45.49939 | 16.37852 | 17° | 7km/h | 26617m | 5.4m/s | -48.8°C | 3.4% | 0hPa | 2.7V | 00:00:00 | 01:35:00 | 00:00:00 | |
| 9A1FER-3 | 2026-09-04 12:35:48 | 45.49938 | 16.37851 | 21° | 7km/h | 26611m | 5.3m/s | -48.7°C | 3.4% | 0hPa | 2.7V | 00:00:00 | 01:34:59 | 00:00:00 | |
| PG1ADW-2 | 2026-09-04 12:35:45 | 45.49936 | 16.37850 | 47° | 9km/h | 26591m | 6.9m/s | -48.8°C | 3.3% | 0hPa | 2.7V | 00:00:00 | 01:34:56 | 00:00:00 | |
| PETON7-10 | 2026-09-04 12:35:43 | 45.49934 | 16.37849 | 14° | 9km/h | 26579m | 4.8m/s | -48.7°C | 3.4% | 0hPa | 2.7V | 00:00:00 | 01:34:54 | 00:00:00 | |
| OE5DRO-10 | 2026-09-04 12:35:42 | 45.49933 | 16.37849 | 316° | 9km/h | 26573m | 7.1m/s | -48.7°C | 3.4% | 0hPa | 2.7V | 00:00:00 | 00:00:00 | 00:00:00 | |
| 9A1FER-15 | 2026-09-04 12:35:35 | 45.49926 | 16.37872 | 293° | 11km/h | 26529m | 7.6m/s | -49.0°C | 3.4% | 0hPa | 2.7V | 00:00:00 | 01:34:46 | 00:00:00 | |
| 9A1FER-10 | 2026-09-04 12:35:34 | 45.49925 | 16.37877 | 282° | 11km/h | 26522m | 6.4m/s | -49.1°C | 3.5% | 0hPa | 2.7V | 00:00:00 | 01:34:45 | 00:00:00 | |
| 9A1FER-3 | 2026-09-04 12:35:33 | 45.49924 | 16.37880 | 282° | 11km/h | 26515m | 6.4m/s | -49.1°C | 3.5% | 0hPa | 2.7V | 00:00:00 | 01:34:44 | 00:00:00 | |
| PETON7-10 | 2026-09-04 12:35:28 | 45.49925 | 16.37895 | 246° | 11km/h | 26485m | 5.5m/s | -49.0°C | 3.5% | 0hPa | 2.7V | 00:00:00 | 00:00:00 | 08:30:00 | |
| PG1ADW-2 | 2026-09-04 12:35:25 | 45.49927 | 16.37904 | 256° | 15km/h | 26465m | 5.9m/s | -49.1°C | 3.5% | 0hPa | 2.6V | 00:00:00 | 00:00:00 | 00:00:00 | |
| OE5DRO-10 | 2026-09-04 12:35:23 | 45.49930 | 16.37912 | 240° | 15km/h | 26452m | 4.9m/s | -49.2°C | 3.5% | 0hPa | 2.6V | 00:00:00 | 00:00:00 | 00:00:00 | |
| 9A1FER-15 | 2026-09-04 12:35:20 | 45.49934 | 16.37924 | 251° | 15km/h | 26434m | 5.5m/s | -49.1°C | 3.5% | 0hPa | 2.6V | 00:00:00 | 01:34:31 | 08:30:00 | |
| 9A1FER-10 | 2026-09-04 12:35:19 | 45.49935 | 16.37928 | 246° | 16km/h | 26428m | 6.9m/s | -49.0°C | 3.6% | 0hPa | 2.6V | 00:00:00 | 01:34:30 | 08:30:00 | |
| 9A1FER-3 | 2026-09-04 12:35:18 | 45.49936 | 16.37932 | 238° | 16km/h | 26421m | 6.3m/s | -49.0°C | 3.5% | 0hPa | 2.6V | 00:00:00 | 01:34:29 | 08:30:00 | |
| OE3JTB-15 | 2026-09-04 12:35:15 | 45.49942 | 16.37943 | 223° | 18km/h | 26403m | 6.4m/s | -49.1°C | 3.6% | 0hPa | 2.6V | 00:00:00 | 01:34:26 | 00:00:00 | |
| PETON7-10 | 2026-09-04 12:35:13 | 45.49947 | 16.37947 | 197° | 18km/h | 26391m | 5.9m/s | -49.0°C | 3.6% | 0hPa | 2.6V | 00:00:00 | 00:00:00 | 00:00:00 | |
| PG1ADW-2 | 2026-09-04 12:35:05 | 45.49975 | 16.37982 | 211° | 18km/h | 26341m | 5.1m/s | -48.8°C | 3.4% | 0hPa | 2.6V | 00:00:00 | 00:00:00 | 08:30:00 | |
| 9A1FER-10 | 2026-09-04 12:35:04 | 45.49980 | 16.37985 | 197° | 18km/h | 26336m | 4.9m/s | -48.9°C | 3.4% | 0hPa | 2.7V | 00:00:00 | 01:34:15 | 00:00:00 | |
| 9A1FER-3 | 2026-09-04 12:35:03 | 45.49984 | 16.37986 | 182° | 18km/h | 26329m | 7.6m/s | -48.9°C | 3.5% | 0hPa | 2.7V | 00:00:00 | 01:34:14 | 00:00:00 | |
| OE8JPQ-2 | 2026-09-04 12:35:00 | 45.49996 | 16.37977 | 143° | 15km/h | 26309m | 6.7m/s | -48.7°C | 3.4% | 0hPa | 2.7V | 00:00:00 | 00:00:00 | 08:30:00 | |
| PETON7-10 | 2026-09-04 12:34:58 | 45.50005 | 16.37969 | 153° | 15km/h | 26296m | 5.3m/s | -48.6°C | 3.4% | 0hPa | 2.6V | 00:00:00 | 01:34:09 | 00:00:00 | |
| 9A1FER-15 | 2026-09-04 12:34:50 | 45.50037 | 16.37977 | 182° | 13km/h | 26245m | 5.6m/s | -48.7°C | 3.4% | 0hPa | 2.6V | 00:00:00 | 01:34:01 | 00:00:00 | |
| 9A1FER-10 | 2026-09-04 12:34:49 | 45.50040 | 16.37975 | 157° | 15km/h | 26239m | 5.8m/s | -48.7°C | 3.4% | 0hPa | 2.6V | 00:00:00 | 01:34:00 | 00:00:00 | |
| 9A1FER-3 | 2026-09-04 12:34:48 | 45.50043 | 16.37973 | 146° | 15km/h | 26233m | 6.6m/s | -48.7°C | 3.3% | 0hPa | 2.6V | 00:00:00 | 01:33:59 | 00:00:00 | |
| OE3JTB-15 | 2026-09-04 12:34:46 | 45.50050 | 16.37963 | 124° | 11km/h | 26221m | 5.0m/s | -48.7°C | 3.3% | 0hPa | 2.6V | 00:00:00 | 00:00:00 | 00:00:00 | |
| OE5DRO-10 | 2026-09-04 12:34:45 | 45.50053 | 16.37956 | 114° | 16km/h | 26215m | 7.8m/s | -48.6°C | 3.3% | 0hPa | 2.7V | 00:00:00 | 00:00:00 | 00:00:00 | |
| PETON7-10 | 2026-09-04 12:34:40 | 45.50058 | 16.37933 | 126° | 18km/h | 26182m | 6.5m/s | -48.8°C | 3.4% | 0hPa | 2.7V | 00:00:00 | 00:00:00 | 00:00:00 | |
| 9A1FER-15 | 2026-09-04 12:34:35 | 45.50064 | 16.37918 | 116° | 20km/h | 26149m | 4.7m/s | -49.4°C | 3.4% | 0hPa | 2.7V | 00:00:00 | 01:33:46 | 00:00:00 | |
| 9A1FER-10 | 2026-09-04 12:34:34 | 45.50065 | 16.37912 | 106° | 20km/h | 26144m | 6.8m/s | -49.6°C | 3.5% | 0hPa | 2.7V | 00:00:00 | 01:33:45 | 00:00:00 | |
| OE5DRO-10 | 2026-09-04 12:34:26 | 45.50058 | 16.37850 | 65° | 13km/h | 26091m | 5.5m/s | -49.7°C | 3.6% | 0hPa | 2.6V | 00:00:00 | 00:00:00 | 08:30:00 | |
| PG1ADW-2 | 2026-09-04 12:34:25 | 45.50056 | 16.37844 | 67° | 13km/h | 26085m | 5.9m/s | -49.8°C | 3.6% | 0hPa | 2.7V | 00:00:00 | 01:33:36 | 00:00:00 | |
| 9A1FER-15 | 2026-09-04 12:34:20 | 45.50047 | 16.37818 | 48° | 11km/h | 26054m | 5.2m/s | -50.4°C | 3.8% | 0hPa | 2.7V | 00:00:00 | 01:33:31 | 00:00:00 | |
| 9A1FER-10 | 2026-09-04 12:34:19 | 45.50044 | 16.37813 | 46° | 11km/h | 26048m | 5.5m/s | -50.4°C | 3.7% | 0hPa | 2.7V | 00:00:00 | 01:33:30 | 00:00:00 | |
| 9A1FER-3 | 2026-09-04 12:34:18 | 45.50042 | 16.37809 | 51° | 9km/h | 26042m | 6.7m/s | -50.2°C | 3.7% | 0hPa | 2.7V | 00:00:00 | 01:33:29 | 00:00:00 | |
| OE8JPQ-2 | 2026-09-04 12:34:13 | 45.50035 | 16.37787 | 71° | 7km/h | 26010m | 5.5m/s | -50.1°C | 3.7% | 0hPa | 2.7V | 00:00:00 | 01:33:24 | 00:00:00 | |
| PETON7-10 | 2026-09-04 12:34:08 | 45.50032 | 16.37773 | 32° | 11km/h | 25978m | 5.1m/s | -49.9°C | 3.6% | 0hPa | 2.7V | 00:00:00 | 01:33:19 | 00:00:00 | |
| OE5DRO-10 | 2026-09-04 12:34:07 | 45.50031 | 16.37772 | 30° | 5km/h | 25972m | 6.1m/s | -49.8°C | 3.6% | 0hPa | 2.7V | 00:00:00 | 00:00:00 | 00:00:00 | |
| 9A1FER-15 | 2026-09-04 12:34:05 | 45.50030 | 16.37769 | 95° | 5km/h | 25960m | 5.6m/s | -49.9°C | 3.6% | 0hPa | 2.7V | 00:00:00 | 01:33:16 | 00:00:00 | |
| 9A1FER-10 | 2026-09-04 12:34:04 | 45.50030 | 16.37768 | 86° | 5km/h | 25954m | 6.6m/s | -49.9°C | 3.6% | 0hPa | 2.7V | 00:00:00 | 01:33:15 | 00:00:00 | |
| 9A1FER-3 | 2026-09-04 12:34:03 | 45.50030 | 16.37766 | 69° | 5km/h | 25947m | 7.0m/s | -50.0°C | 3.7% | 0hPa | 2.7V | 00:00:00 | 01:33:14 | 00:00:00 | |
| OE8JPQ-2 | 2026-09-04 12:33:53 | 45.50031 | 16.37755 | 224° | 7km/h | 25885m | 5.8m/s | -50.1°C | 3.6% | 0hPa | 2.7V | 00:00:00 | 00:00:00 | 00:00:00 | |
| OE3JTB-15 | 2026-09-04 12:33:52 | 45.50032 | 16.37756 | 233° | 9km/h | 25879m | 6.5m/s | -50.2°C | 3.6% | 0hPa | 2.6V | 00:00:00 | 00:00:00 | 00:00:00 | |
| 9A1FER-15 | 2026-09-04 12:33:50 | 45.50033 | 16.37758 | 223° | 9km/h | 25866m | 4.8m/s | -50.2°C | 3.7% | 0hPa | 2.6V | 00:00:00 | 01:33:01 | 00:00:00 | |
| 9A1FER-10 | 2026-09-04 12:33:49 | 45.50034 | 16.37759 | 206° | 9km/h | 25860m | 7.2m/s | -50.2°C | 3.7% | 0hPa | 2.6V | 00:00:00 | 01:33:00 | 00:00:00 | |
| 9A1FER-3 | 2026-09-04 12:33:48 | 45.50036 | 16.37760 | 204° | 9km/h | 25853m | 6.1m/s | -50.1°C | 3.7% | 0hPa | 2.7V | 00:00:00 | 01:32:59 | 00:00:00 | |
| PG1ADW-2 | 2026-09-04 12:33:45 | 45.50042 | 16.37766 | 218° | 7km/h | 25834m | 5.4m/s | -50.1°C | 3.7% | 0hPa | 2.6V | 00:00:00 | 00:00:00 | 00:00:00 | |
| 9A1FER-15 | 2026-09-04 12:33:35 | 45.50051 | 16.37749 | 125° | 9km/h | 25775m | 5.8m/s | -50.0°C | 3.6% | 0hPa | 2.6V | 00:00:00 | 01:32:46 | 00:00:00 | |
| 9A1FER-10 | 2026-09-04 12:33:34 | 45.50052 | 16.37748 | 118° | 9km/h | 25769m | 5.8m/s | -50.1°C | 3.7% | 0hPa | 2.6V | 00:00:00 | 01:32:45 | 00:00:00 | |
| 9A1FER-3 | 2026-09-04 12:33:33 | 45.50053 | 16.37747 | 75° | 9km/h | 25763m | 6.4m/s | -50.1°C | 3.7% | 0hPa | 2.6V | 00:00:00 | 01:32:44 | 00:00:00 | |
| OE8JPQ-2 | 2026-09-04 12:33:32 | 45.50052 | 16.37746 | 80° | 9km/h | 25757m | 4.8m/s | -50.0°C | 3.7% | 0hPa | 2.6V | 00:00:00 | 00:00:00 | 00:00:00 | |
| OE5DRO-10 | 2026-09-04 12:33:29 | 45.50055 | 16.37742 | 128° | 11km/h | 25738m | 5.6m/s | -50.0°C | 3.7% | 0hPa | 2.6V | 00:00:00 | 00:00:00 | 00:00:00 | |
| PG1ADW-2 | 2026-09-04 12:33:25 | 45.50060 | 16.37729 | 133° | 13km/h | 25714m | 6.3m/s | -50.0°C | 3.7% | 0hPa | 2.6V | 00:00:00 | 00:00:00 | 00:00:00 | |
| OE3JTB-15 | 2026-09-04 12:33:21 | 45.50072 | 16.37721 | 191° | 13km/h | 25689m | 6.0m/s | -49.9°C | 3.7% | 0hPa | 2.6V | 00:00:00 | 01:32:32 | 00:00:00 | |
| 9A1FER-15 | 2026-09-04 12:33:20 | 45.50074 | 16.37722 | 204° | 13km/h | 25683m | 6.2m/s | -49.9°C | 3.7% | 0hPa | 2.6V | 00:00:00 | 01:32:31 | 00:00:00 | |
| 9A1FER-10 | 2026-09-04 12:33:19 | 45.50076 | 16.37723 | 196° | 13km/h | 25676m | 7.0m/s | -49.8°C | 3.7% | 0hPa | 2.6V | 00:00:00 | 01:32:30 | 00:00:00 | |
| 9A1FER-3 | 2026-09-04 12:33:18 | 45.50078 | 16.37724 | 181° | 13km/h | 25670m | 5.5m/s | -49.8°C | 3.6% | 0hPa | 2.6V | 00:00:00 | 01:32:29 | 00:00:00 | |
| OE8JPQ-2 | 2026-09-04 12:33:12 | 45.50088 | 16.37709 | 125° | 15km/h | 25634m | 6.1m/s | -49.8°C | 3.6% | 0hPa | 2.6V | 00:00:00 | 01:32:23 | 00:00:00 | |
| OE5DRO-10 | 2026-09-04 12:33:10 | 45.50093 | 16.37698 | 112° | 15km/h | 25621m | 6.3m/s | -49.8°C | 3.7% | 0hPa | 2.6V | 00:00:00 | 00:00:00 | 00:00:00 | |
| PETON7-10 | 2026-09-04 12:33:07 | 45.50097 | 16.37682 | 113° | 13km/h | 25605m | 5.9m/s | -49.8°C | 3.8% | 0hPa | 2.6V | 00:00:00 | 00:00:00 | 00:00:00 | |
| 9A1FER-15 | 2026-09-04 12:33:05 | 45.50098 | 16.37672 | 86° | 13km/h | 25593m | 7.9m/s | -49.8°C | 3.7% | 0hPa | 2.7V | 00:00:00 | 01:32:16 | 08:30:00 | |
| 9A1FER-10 | 2026-09-04 12:33:04 | 45.50097 | 16.37667 | 76° | 15km/h | 25586m | 5.5m/s | -49.9°C | 3.8% | 0hPa | 2.7V | 00:00:00 | 01:32:15 | 08:30:00 | |
| 9A1FER-3 | 2026-09-04 12:33:03 | 45.50097 | 16.37662 | 80° | 15km/h | 25580m | 7.1m/s | -49.8°C | 3.8% | 0hPa | 2.6V | 00:00:00 | 01:32:14 | 08:30:00 | |
| PETON7-10 | 2026-09-04 12:32:52 | 45.50100 | 16.37613 | 101° | 18km/h | 25510m | 7.6m/s | -49.4°C | 3.6% | 0hPa | 2.6V | 00:00:00 | 00:00:00 | 00:00:00 | |
| OE8JPQ-2 | 2026-09-04 12:32:51 | 45.50101 | 16.37607 | 102° | 20km/h | 25504m | 4.9m/s | -49.3°C | 3.6% | 0hPa | 2.6V | 00:00:00 | 00:00:00 | 00:00:00 | |
| 9A1FER-15 | 2026-09-04 12:32:50 | 45.50101 | 16.37600 | 97° | 20km/h | 25499m | 3.9m/s | -49.4°C | 3.6% | 0hPa | 2.6V | 00:00:00 | 01:32:01 | 00:00:00 | |
| 9A1FER-10 | 2026-09-04 12:32:49 | 45.50101 | 16.37594 | 85° | 20km/h | 25494m | 6.6m/s | -49.3°C | 3.6% | 0hPa | 2.6V | 00:00:00 | 01:32:00 | 00:00:00 | |
| 9A1FER-3 | 2026-09-04 12:32:48 | 45.50100 | 16.37587 | 71° | 20km/h | 25487m | 6.7m/s | -49.3°C | 3.6% | 0hPa | 2.6V | 00:00:00 | 01:31:59 | 00:00:00 | |
| OE3JTB-15 | 2026-09-04 12:32:46 | 45.50096 | 16.37573 | 62° | 18km/h | 25475m | 6.1m/s | -49.3°C | 3.5% | 0hPa | 2.6V | 00:00:00 | 00:00:00 | 08:30:00 | |
| PG1ADW-2 | 2026-09-04 12:32:45 | 45.50093 | 16.37566 | 69° | 18km/h | 25469m | 6.2m/s | -49.3°C | 3.5% | 0hPa | 2.7V | 00:00:00 | 00:00:00 | 00:00:00 | |
| PETON7-10 | 2026-09-04 12:32:37 | 45.50096 | 16.37516 | 100° | 18km/h | 25421m | 7.1m/s | -49.3°C | 3.4% | 0hPa | 2.7V | 00:00:00 | 01:31:48 | 00:00:00 | |
| 9A1FER-15 | 2026-09-04 12:32:35 | 45.50097 | 16.37500 | 97° | 18km/h | 25409m | 7.5m/s | -49.3°C | 3.5% | 0hPa | 2.7V | 00:00:00 | 01:31:46 | 00:00:00 | |
| 9A1FER-10 | 2026-09-04 12:32:34 | 45.50098 | 16.37492 | 97° | 16km/h | 25402m | 6.0m/s | -49.4°C | 3.5% | 0hPa | 2.7V | 00:00:00 | 01:31:45 | 00:00:00 | |
| 9A1FER-3 | 2026-09-04 12:32:33 | 45.50098 | 16.37485 | 92° | 16km/h | 25395m | 7.2m/s | -49.5°C | 3.6% | 0hPa | 2.7V | 00:00:00 | 01:31:44 | 00:00:00 | |
| OE5DRO-10 | 2026-09-04 12:32:32 | 45.50098 | 16.37477 | 86° | 16km/h | 25388m | 6.3m/s | -49.4°C | 3.5% | 0hPa | 2.7V | 00:00:00 | 00:00:00 | 00:00:00 | |
| OE8JPQ-2 | 2026-09-04 12:32:31 | 45.50097 | 16.37470 | 83° | 16km/h | 25383m | 5.0m/s | -49.5°C | 3.5% | 0hPa | 2.6V | 00:00:00 | 00:00:00 | 00:00:00 | |
| PG1ADW-2 | 2026-09-04 12:32:25 | 45.50097 | 16.37435 | 105° | 15km/h | 25346m | 7.8m/s | -50.1°C | 3.8% | 0hPa | 2.6V | 00:00:00 | 00:00:00 | 00:00:00 | |
| PETON7-10 | 2026-09-04 12:32:22 | 45.50100 | 16.37418 | 101° | 15km/h | 25326m | 5.4m/s | -49.9°C | 3.7% | 0hPa | 2.6V | 00:00:00 | 00:00:00 | 08:30:00 | |
| 9A1FER-15 | 2026-09-04 12:32:20 | 45.50102 | 16.37407 | 108° | 15km/h | 25314m | 7.1m/s | -49.9°C | 3.7% | 0hPa | 2.7V | 00:00:00 | 01:31:31 | 00:00:00 | |
| 9A1FER-10 | 2026-09-04 12:32:19 | 45.50103 | 16.37403 | 110° | 15km/h | 25308m | 5.0m/s | -49.8°C | 3.7% | 0hPa | 2.6V | 00:00:00 | 01:31:30 | 00:00:00 | |
| 9A1FER-3 | 2026-09-04 12:32:18 | 45.50104 | 16.37398 | 102° | 16km/h | 25303m | 5.3m/s | -49.8°C | 3.6% | 0hPa | 2.6V | 00:00:00 | 01:31:29 | 00:00:00 | |
| OE5DRO-10 | 2026-09-04 12:32:13 | 45.50104 | 16.37369 | 101° | 18km/h | 25272m | 6.2m/s | -49.7°C | 3.6% | 0hPa | 2.7V | 00:00:00 | 00:00:00 | 00:00:00 | |
| OE3JTB-15 | 2026-09-04 12:32:12 | 45.50105 | 16.37363 | 101° | 18km/h | 25267m | 5.5m/s | -49.7°C | 3.6% | 0hPa | 2.7V | 00:00:00 | 00:00:00 | 00:00:00 | |
| OE8JPQ-2 | 2026-09-04 12:32:09 | 45.50106 | 16.37342 | 98° | 22km/h | 25243m | 6.3m/s | -49.6°C | 3.5% | 0hPa | 2.7V | 00:00:00 | 01:31:19 | 00:00:00 | |
| PETON7-10 | 2026-09-04 12:32:07 | 45.50106 | 16.37337 | 99° | 20km/h | 25237m | 4.7m/s | -49.6°C | 3.5% | 0hPa | 2.7V | 00:00:00 | 00:00:00 | 00:00:00 | |
| 9A1FER-15 | 2026-09-04 12:32:05 | 45.50106 | 16.37326 | 80° | 20km/h | 25226m | 7.1m/s | -49.7°C | 3.5% | 0hPa | 2.7V | 00:00:00 | 01:31:16 | 00:00:00 | |
| 9A1FER-10 | 2026-09-04 12:32:04 | 45.50105 | 16.37319 | 72° | 20km/h | 25220m | 6.1m/s | -49.7°C | 3.5% | 0hPa | 2.7V | 00:00:00 | 01:31:15 | 00:00:00 | |
| 9A1FER-3 | 2026-09-04 12:32:03 | 45.50103 | 16.37311 | 70° | 22km/h | 25213m | 6.7m/s | -49.8°C | 3.6% | 0hPa | 2.7V | 00:00:00 | 01:31:14 | 00:00:00 | |
| OE5DRO-10 | 2026-09-04 12:31:54 | 45.50081 | 16.37248 | 51° | 18km/h | 25158m | 5.5m/s | -50.0°C | 3.7% | 0hPa | 2.7V | 00:00:00 | 00:00:00 | 00:00:00 | |
| PETON7-10 | 2026-09-04 12:31:52 | 45.50076 | 16.37238 | 52° | 20km/h | 25145m | 6.1m/s | -50.0°C | 3.7% | 0hPa | 2.7V | 00:00:00 | 01:31:03 | 00:00:00 | |
| 9A1FER-15 | 2026-09-04 12:31:50 | 45.50070 | 16.37228 | 53° | 18km/h | 25134m | 7.2m/s | -50.0°C | 3.7% | 0hPa | 2.7V | 00:00:00 | 01:31:01 | 00:00:00 | |
| 9A1FER-10 | 2026-09-04 12:31:49 | 45.50066 | 16.37221 | 55° | 18km/h | 25127m | 5.7m/s | -50.0°C | 3.6% | 0hPa | 2.7V | 00:00:00 | 01:31:00 | 00:00:00 | |
| 9A1FER-3 | 2026-09-04 12:31:48 | 45.50062 | 16.37212 | 58° | 16km/h | 25122m | 5.4m/s | -50.0°C | 3.7% | 0hPa | 2.7V | 00:00:00 | 01:30:59 | 00:00:00 | |
| PG1ADW-2 | 2026-09-04 12:31:45 | 45.50053 | 16.37187 | 65° | 15km/h | 25103m | 5.7m/s | -49.8°C | 3.6% | 0hPa | 2.7V | 00:00:00 | 01:30:56 | 00:00:00 | |
| OE3JTB-15 | 2026-09-04 12:31:43 | 45.50047 | 16.37173 | 55° | 16km/h | 25091m | 5.6m/s | -49.9°C | 3.6% | 0hPa | 2.7V | 00:00:00 | 01:30:54 | 00:00:00 | |
| PETON7-10 | 2026-09-04 12:31:37 | 45.50039 | 16.37150 | 70° | 15km/h | 25053m | 4.9m/s | -49.7°C | 3.5% | 0hPa | 2.7V | 00:00:00 | 00:00:00 | 00:00:00 | |
| 9A1FER-15 | 2026-09-04 12:31:35 | 45.50038 | 16.37143 | 92° | 15km/h | 25042m | 7.0m/s | -49.6°C | 3.5% | 0hPa | 2.6V | 00:00:00 | 01:30:46 | 00:00:00 | |
| 9A1FER-10 | 2026-09-04 12:31:34 | 45.50038 | 16.37139 | 88° | 15km/h | 25036m | 5.4m/s | -49.6°C | 3.5% | 0hPa | 2.6V | 00:00:00 | 01:30:45 | 00:00:00 | |
| 9A1FER-3 | 2026-09-04 12:31:33 | 45.50038 | 16.37134 | 74° | 15km/h | 25029m | 7.5m/s | -49.7°C | 3.5% | 0hPa | 2.6V | 00:00:00 | 01:30:44 | 00:00:00 | |
| PG1ADW-2 | 2026-09-04 12:31:25 | 45.50032 | 16.37080 | 116° | 16km/h | 24968m | 5.3m/s | -50.1°C | 3.6% | 0hPa | 2.6V | 00:00:00 | 00:00:00 | 00:00:00 | |
| PETON7-10 | 2026-09-04 12:31:22 | 45.50034 | 16.37075 | 111° | 15km/h | 24962m | 6.4m/s | -50.1°C | 3.6% | 0hPa | 2.6V | 00:00:00 | 00:00:00 | 00:00:00 | |
| OE8JPQ-2 | 2026-09-04 12:31:21 | 45.50035 | 16.37070 | 99° | 16km/h | 24956m | 6.1m/s | -50.1°C | 3.5% | 0hPa | 2.6V | 00:00:00 | 00:00:00 | 00:00:00 | |
| 9A1FER-15 | 2026-09-04 12:31:20 | 45.50035 | 16.37066 | 96° | 16km/h | 24950m | 5.7m/s | -50.3°C | 3.6% | 0hPa | 2.6V | 00:00:00 | 01:30:31 | 00:00:00 | |
| 9A1FER-10 | 2026-09-04 12:31:19 | 45.50036 | 16.37062 | 101° | 16km/h | 24944m | 6.7m/s | -50.3°C | 3.6% | 0hPa | 2.6V | 00:00:00 | 01:30:30 | 00:00:00 | |
| 9A1FER-3 | 2026-09-04 12:31:18 | 45.50036 | 16.37058 | 109° | 16km/h | 24938m | 5.8m/s | -50.4°C | 3.6% | 0hPa | 2.6V | 00:00:00 | 01:30:29 | 00:00:00 | |
| OE3JTB-15 | 2026-09-04 12:31:12 | 45.50043 | 16.37031 | 132° | 15km/h | 24901m | 6.7m/s | -50.7°C | 3.7% | 0hPa | 2.6V | 00:00:00 | 00:00:00 | 00:00:00 | |
| PETON7-10 | 2026-09-04 12:31:07 | 45.50063 | 16.37011 | 149° | 18km/h | 24870m | 6.7m/s | -50.8°C | 3.7% | 0hPa | 2.6V | 00:00:00 | 01:30:18 | 00:00:00 | |
| PG1ADW-2 | 2026-09-04 12:31:05 | 45.50073 | 16.37001 | 144° | 15km/h | 24858m | 7.3m/s | -50.9°C | 3.8% | 0hPa | 2.6V | 00:00:00 | 00:00:00 | 00:00:00 | |
| 9A1FER-10 | 2026-09-04 12:31:04 | 45.50076 | 16.36997 | 141° | 16km/h | 24851m | 6.4m/s | -50.9°C | 3.8% | 0hPa | 2.7V | 00:00:00 | 01:30:15 | 00:00:00 | |
| 9A1FER-3 | 2026-09-04 12:31:03 | 45.50080 | 16.36993 | 138° | 16km/h | 24845m | 5.5m/s | -50.9°C | 3.8% | 0hPa | 2.7V | 00:00:00 | 01:30:14 | 00:00:00 | |
| OE8JPQ-2 | 2026-09-04 12:31:00 | 45.50089 | 16.36978 | 123° | 13km/h | 24826m | 7.7m/s | -50.9°C | 3.8% | 0hPa | 2.7V | 00:00:00 | 01:30:11 | 00:00:00 | |
| PETON7-10 | 2026-09-04 12:30:52 | 45.50108 | 16.36936 | 117° | 11km/h | 24778m | 5.0m/s | -51.2°C | 3.8% | 0hPa | 2.7V | 00:00:00 | 00:00:00 | 00:00:00 | |
| 9A1FER-15 | 2026-09-04 12:30:50 | 45.50111 | 16.36929 | 125° | 11km/h | 24766m | 5.8m/s | -51.2°C | 3.8% | 0hPa | 2.6V | 00:00:00 | 01:30:01 | 08:30:00 | |
| 9A1FER-10 | 2026-09-04 12:30:49 | 45.50112 | 16.36925 | 123° | 9km/h | 24760m | 5.1m/s | -51.2°C | 3.8% | 0hPa | 2.6V | 00:00:00 | 01:30:00 | 08:30:00 | |
| 9A1FER-3 | 2026-09-04 12:30:48 | 45.50113 | 16.36923 | 115° | 9km/h | 24754m | 7.7m/s | -51.3°C | 3.9% | 0hPa | 2.7V | 00:00:00 | 01:29:59 | 08:30:00 | |
| PG1ADW-2 | 2026-09-04 12:30:45 | 45.50115 | 16.36907 | 81° | 9km/h | 24722m | 7.6m/s | -51.2°C | 4.0% | 0hPa | 2.6V | 00:00:00 | 00:00:00 | 00:00:00 | |
| OE5DRO-10 | 2026-09-04 12:30:39 | 45.50112 | 16.36889 | 84° | 9km/h | 24697m | 5.4m/s | -51.0°C | 3.8% | 0hPa | 2.6V | 00:00:00 | 00:00:00 | 08:30:00 | |
| PETON7-10 | 2026-09-04 12:30:37 | 45.50110 | 16.36882 | 44° | 9km/h | 24685m | 6.2m/s | -51.1°C | 3.8% | 0hPa | 2.7V | 00:00:00 | 00:00:00 | 00:00:00 | |
| OE8JPQ-2 | 2026-09-04 12:30:35 | 45.50107 | 16.36881 | 2° | 7km/h | 24673m | 6.8m/s | -51.0°C | 3.8% | 0hPa | 2.7V | 00:00:00 | 00:00:00 | 00:00:00 | |
| 9A1FER-10 | 2026-09-04 12:30:34 | 45.50106 | 16.36881 | 357° | 9km/h | 24667m | 5.8m/s | -50.9°C | 3.7% | 0hPa | 2.6V | 00:00:00 | 01:29:45 | 00:00:00 | |
| 9A1FER-3 | 2026-09-04 12:30:33 | 45.50106 | 16.36881 | 353° | 9km/h | 24661m | 5.2m/s | -50.8°C | 3.7% | 0hPa | 2.6V | 00:00:00 | 01:29:44 | 00:00:00 | |
| PG1ADW-2 | 2026-09-04 12:30:23 | 45.50093 | 16.36856 | 159° | 7km/h | 24599m | 6.2m/s | -51.1°C | 3.8% | 0hPa | 2.6V | 00:00:00 | 01:29:34 | 00:00:00 | |
| PETON7-10 | 2026-09-04 12:30:22 | 45.50094 | 16.36857 | 222° | 5km/h | 24592m | 6.1m/s | -51.1°C | 3.8% | 0hPa | 2.6V | 00:00:00 | 01:29:33 | 00:00:00 | |
| 9A1FER-15 | 2026-09-04 12:30:20 | 45.50096 | 16.36863 | 260° | 7km/h | 24580m | 4.6m/s | -51.3°C | 3.9% | 0hPa | 2.6V | 00:00:00 | 01:29:31 | 00:00:00 | |
| 9A1FER-10 | 2026-09-04 12:30:19 | 45.50096 | 16.36868 | 258° | 5km/h | 24575m | 5.3m/s | -51.4°C | 3.9% | 0hPa | 2.6V | 00:00:00 | 01:29:30 | 00:00:00 | |
| OE8JPQ-2 | 2026-09-04 12:30:15 | 45.50099 | 16.36872 | 73° | 9km/h | 24551m | 6.8m/s | !°C | 3.9% | 0hPa | 2.6V | 00:00:00 | 00:00:00 | 00:00:00 | |
| 9A1FER-15 | 2026-09-04 12:30:05 | 45.50095 | 16.36859 | 234° | 7km/h | 24492m | 6.9m/s | -51.2°C | 4.0% | 0hPa | 2.6V | 00:00:00 | 01:29:16 | 00:00:00 | |
| 9A1FER-10 | 2026-09-04 12:30:04 | 45.50096 | 16.36860 | 222° | 7km/h | 24486m | 5.8m/s | -51.1°C | 3.9% | 0hPa | 2.7V | 00:00:00 | 01:29:15 | 00:00:00 | |
| OE3JTB-15 | 2026-09-04 12:30:00 | 45.50094 | 16.36861 | 43° | 5km/h | 24461m | 7.1m/s | -51.0°C | 3.9% | 0hPa | 2.7V | 00:00:00 | 01:29:11 | 00:00:00 | |
| OE5DRO-10 | 2026-09-04 12:29:59 | 45.50093 | 16.36860 | 49° | 11km/h | 24454m | 5.4m/s | -51.0°C | 3.9% | 0hPa | 2.7V | 00:00:00 | 00:00:00 | 00:00:00 | |
| 9A1FER-15 | 2026-09-04 12:29:50 | 45.50076 | 16.36868 | 325° | 15km/h | 24397m | 7.4m/s | -51.1°C | 3.9% | 0hPa | 2.7V | 00:00:00 | 01:29:01 | 00:00:00 | |
| PETON7-10 | 2026-09-04 12:29:49 | 45.50074 | 16.36870 | 342° | 16km/h | 24391m | 5.1m/s | -51.1°C | 3.9% | 0hPa | 2.7V | 00:00:00 | 00:00:00 | 00:00:00 | |
| 9A1FER-3 | 2026-09-04 12:29:48 | 45.50071 | 16.36871 | 347° | 16km/h | 24384m | 7.8m/s | -51.2°C | 3.8% | 0hPa | 2.7V | 00:00:00 | 01:28:59 | 00:00:00 | |
| OE8JPQ-2 | 2026-09-04 12:29:45 | 45.50060 | 16.36870 | 20° | 18km/h | 24365m | 7.1m/s | 0°C | 0% | 0hPa | 2.7V | 00:00:00 | 01:28:56 | 00:00:00 | |
| OE5DRO-10 | 2026-09-04 12:29:40 | 45.50041 | 16.36865 | 347° | 20km/h | 24336m | 5.5m/s | -50.9°C | 3.8% | 0hPa | 2.7V | 00:00:00 | 00:00:00 | 00:00:00 | |
| 9A1FER-15 | 2026-09-04 12:29:35 | 45.50021 | 16.36880 | 332° | 20km/h | 24306m | 5.9m/s | -50.9°C | 3.8% | 0hPa | 2.6V | 00:00:00 | 01:28:46 | 00:00:00 | |
| 9A1FER-10 | 2026-09-04 12:29:34 | 45.50015 | 16.36884 | 337° | 20km/h | 24299m | 6.2m/s | -50.9°C | 3.8% | 0hPa | 2.6V | 00:00:00 | 01:28:45 | 00:00:00 | |
| 9A1FER-3 | 2026-09-04 12:29:33 | 45.50009 | 16.36886 | 344° | 20km/h | 24293m | 6.8m/s | -50.9°C | 3.8% | 0hPa | 2.6V | 00:00:00 | 01:28:44 | 00:00:00 | |
| OE8JPQ-2 | 2026-09-04 12:29:22 | 45.49957 | 16.36903 | 347° | 9km/h | 24223m | 6.6m/s | 0°C | 0% | 0hPa | 2.6V | 00:00:00 | 00:00:00 | 00:00:00 | |
| 9A1FER-15 | 2026-09-04 12:29:20 | 45.49948 | 16.36907 | 341° | 15km/h | 24210m | 5.4m/s | -51.1°C | 3.9% | 0hPa | 2.6V | 00:00:00 | 01:28:31 | 00:00:00 | |
| 9A1FER-10 | 2026-09-04 12:29:19 | 45.49944 | 16.36909 | 336° | 13km/h | 24205m | 4.3m/s | -51.2°C | 3.9% | 0hPa | 2.6V | 00:00:00 | 01:28:30 | 00:00:00 | |
| 9A1FER-3 | 2026-09-04 12:29:18 | 45.49940 | 16.36911 | 334° | 13km/h | 24199m | 7.3m/s | -51.1°C | 3.9% | 0hPa | 2.6V | 00:00:00 | 01:28:29 | 00:00:00 | |
| PG1ADW-2 | 2026-09-04 12:29:08 | 45.49910 | 16.36936 | 359° | 9km/h | 24138m | 6.0m/s | -50.9°C | 3.8% | 0hPa | 2.7V | 00:00:00 | 00:00:00 | 00:00:00 | |
| 9A1FER-15 | 2026-09-04 12:29:05 | 45.49904 | 16.36936 | 340° | 7km/h | 24121m | 4.6m/s | -50.9°C | 3.7% | 0hPa | 2.7V | 00:00:00 | 01:28:16 | 00:00:00 | |
| PETON7-10 | 2026-09-04 12:29:04 | 45.49903 | 16.36937 | 336° | 7km/h | 24115m | 7.3m/s | -50.8°C | 3.7% | 0hPa | 2.7V | 00:00:00 | 00:00:00 | 00:00:00 | |
| 9A1FER-3 | 2026-09-04 12:29:03 | 45.49901 | 16.36938 | 344° | 7km/h | 24109m | 5.4m/s | -50.8°C | 3.7% | 0hPa | 2.7V | 00:00:00 | 01:28:14 | 00:00:00 | |
| OE5DRO-10 | 2026-09-04 12:29:02 | 45.49900 | 16.36938 | 2° | 7km/h | 24103m | 6.2m/s | -50.9°C | 3.8% | 0hPa | 2.7V | 00:00:00 | 00:00:00 | 00:00:00 | |
| OE8JPQ-2 | 2026-09-04 12:28:54 | 45.49893 | 16.36921 | 73° | 5km/h | 24056m | 5.0m/s | 0°C | 0% | 0hPa | 2.7V | 00:00:00 | 00:00:00 | 00:00:00 | |
| 9A1FER-15 | 2026-09-04 12:28:50 | 45.49888 | 16.36906 | 66° | 5km/h | 24030m | 6.9m/s | -51.1°C | 3.8% | 0hPa | 2.7V | 00:00:00 | 01:28:01 | 00:00:00 | |
| 9A1FER-10 | 2026-09-04 12:28:49 | 45.49887 | 16.36905 | 65° | 5km/h | 24025m | 5.0m/s | -51.1°C | 3.8% | 0hPa | 2.7V | 00:00:00 | 01:28:00 | 00:00:00 | |
| 9A1FER-3 | 2026-09-04 12:28:48 | 45.49887 | 16.36905 | 307° | 5km/h | 24018m | 7.3m/s | -51.1°C | 3.8% | 0hPa | 2.7V | 00:00:00 | 01:27:59 | 00:00:00 | |
| PG1ADW-2 | 2026-09-04 12:28:46 | 45.49886 | 16.36909 | 261° | 7km/h | 24006m | 5.7m/s | -51.2°C | 3.8% | 0hPa | 2.7V | 00:00:00 | 00:00:00 | 00:00:00 | |
| 9A1FER-15 | 2026-09-04 12:28:35 | 45.49888 | 16.36903 | 38° | 7km/h | 23943m | 5.3m/s | -51.3°C | 3.9% | 0hPa | 2.7V | 00:00:00 | 01:27:46 | 08:30:00 | |
| 9A1FER-10 | 2026-09-04 12:28:34 | 45.49886 | 16.36900 | 49° | 7km/h | 23936m | 6.9m/s | -51.4°C | 3.9% | 0hPa | 2.6V | 00:00:00 | 01:27:45 | 08:30:00 | |
| 9A1FER-3 | 2026-09-04 12:28:33 | 45.49885 | 16.36897 | 58° | 7km/h | 23930m | 5.8m/s | -51.3°C | 3.9% | 0hPa | 2.6V | 00:00:00 | 01:27:44 | 08:30:00 | |
| PG1ADW-2 | 2026-09-04 12:28:26 | 45.49874 | 16.36885 | 339° | 5km/h | 23888m | 7.1m/s | -51.4°C | 3.8% | 0hPa | 2.7V | 00:00:00 | 01:27:37 | 08:30:00 | |
| 9A1FER-15 | 2026-09-04 12:28:20 | 45.49868 | 16.36886 | 7° | 5km/h | 23851m | 5.7m/s | -51.6°C | 3.9% | 0hPa | 2.7V | 00:00:00 | 01:27:31 | 00:00:00 | |
| 9A1FER-10 | 2026-09-04 12:28:19 | 45.49866 | 16.36886 | 20° | 5km/h | 23845m | 5.1m/s | -51.7°C | 3.9% | 0hPa | 2.7V | 00:00:00 | 01:27:30 | 00:00:00 | |
| 9A1FER-3 | 2026-09-04 12:28:18 | 45.49864 | 16.36884 | 40° | 5km/h | 23839m | 7.2m/s | -51.8°C | 4.0% | 0hPa | 2.7V | 00:00:00 | 01:27:29 | 00:00:00 | |
| PG1ADW-2 | 2026-09-04 12:28:06 | 45.49860 | 16.36884 | 89° | 7km/h | 23768m | 5.9m/s | -51.7°C | 3.9% | 0hPa | 2.7V | 00:00:00 | 00:00:00 | 00:00:00 | |
| 9A1FER-15 | 2026-09-04 12:28:05 | 45.49860 | 16.36882 | 72° | 7km/h | 23762m | 5.4m/s | -51.8°C | 4.0% | 0hPa | 2.7V | 00:00:00 | 01:27:16 | 00:00:00 | |
| 9A1FER-10 | 2026-09-04 12:28:04 | 45.49860 | 16.36880 | 51° | 7km/h | 23756m | 6.3m/s | -51.8°C | 3.9% | 0hPa | 2.7V | 00:00:00 | 01:27:15 | 00:00:00 | |
| PETON7-10 | 2026-09-04 12:28:03 | 45.49859 | 16.36879 | 45° | 7km/h | 23750m | 5.0m/s | -51.8°C | 3.9% | 0hPa | 2.7V | 00:00:00 | 01:27:14 | 00:00:00 | |
| 9A1FER-15 | 2026-09-04 12:27:50 | 45.49879 | 16.36891 | 186° | 9km/h | 23672m | 5.4m/s | -51.5°C | 3.8% | 0hPa | 2.7V | 00:00:00 | 01:27:01 | 00:00:00 | |
| 9A1FER-10 | 2026-09-04 12:27:49 | 45.49881 | 16.36892 | 203° | 9km/h | 23667m | 4.7m/s | -51.5°C | 3.9% | 0hPa | 2.7V | 00:00:00 | 01:27:00 | 00:00:00 | |
| 9A1FER-3 | 2026-09-04 12:27:48 | 45.49882 | 16.36893 | 228° | 9km/h | 23662m | 6.7m/s | -51.5°C | 3.9% | 0hPa | 2.7V | 00:00:00 | 01:26:59 | 00:00:00 | |
| PG1ADW-2 | 2026-09-04 12:27:46 | 45.49885 | 16.36899 | 233° | 7km/h | 23650m | 5.5m/s | -51.5°C | 3.8% | 0hPa | 2.7V | 00:00:00 | 00:00:00 | 00:00:00 | |
| 9A1FER-15 | 2026-09-04 12:27:35 | 45.49905 | 16.36917 | 297° | 7km/h | 23586m | 5.2m/s | -51.8°C | 4.0% | 0hPa | 2.7V | 00:00:00 | 01:26:46 | 00:00:00 | |
| 9A1FER-10 | 2026-09-04 12:27:34 | 45.49905 | 16.36918 | 326° | 7km/h | 23580m | 7.0m/s | -51.7°C | 4.1% | 0hPa | 2.7V | 00:00:00 | 01:26:45 | 00:00:00 | |
| 9A1FER-3 | 2026-09-04 12:27:33 | 45.49904 | 16.36918 | 340° | 7km/h | 23573m | 5.3m/s | -51.6°C | 4.0% | 0hPa | 2.7V | 00:00:00 | 01:26:44 | 00:00:00 | |
| PG1ADW-2 | 2026-09-04 12:27:26 | 45.49907 | 16.36928 | 211° | 7km/h | 23531m | 5.3m/s | -51.6°C | 3.9% | 0hPa | 2.7V | 00:00:00 | 00:00:00 | 00:00:00 | |
| 9A1FER-15 | 2026-09-04 12:27:20 | 45.49920 | 16.36938 | 333° | 5km/h | 23496m | 6.3m/s | -51.4°C | 3.8% | 0hPa | 2.7V | 00:00:00 | 01:26:31 | 00:00:00 | |
| 9A1FER-10 | 2026-09-04 12:27:19 | 45.49919 | 16.36938 | 15° | 5km/h | 23490m | 5.8m/s | -51.3°C | 3.9% | 0hPa | 2.7V | 00:00:00 | 01:26:30 | 00:00:00 | |
| PETON7-10 | 2026-09-04 12:27:18 | 45.49918 | 16.36937 | 20° | 5km/h | 23485m | 4.2m/s | -51.4°C | 3.9% | 0hPa | 2.7V | 00:00:00 | 01:26:29 | 00:00:00 | |
| OE5DRO-10 | 2026-09-04 12:27:14 | 45.49912 | 16.36938 | 339° | 4km/h | 23462m | 6.6m/s | -51.7°C | 3.9% | 0hPa | 2.7V | 00:00:00 | 00:00:00 | 00:00:00 | |
| PG1ADW-2 | 2026-09-04 12:27:06 | 45.49921 | 16.36945 | 250° | 7km/h | 23418m | 5.3m/s | -51.7°C | 3.9% | 0hPa | 2.6V | 00:00:00 | 01:26:17 | 00:00:00 | |
| 9A1FER-15 | 2026-09-04 12:27:05 | 45.49921 | 16.36947 | 283° | 5km/h | 23412m | 7.1m/s | -51.6°C | 3.9% | 0hPa | 2.6V | 00:00:00 | 01:26:16 | 00:00:00 | |
| 9A1FER-10 | 2026-09-04 12:27:04 | 45.49920 | 16.36951 | 306° | 5km/h | 23405m | 5.7m/s | -51.6°C | 3.8% | 0hPa | 2.6V | 00:00:00 | 01:26:15 | 00:00:00 | |
| 9A1FER-3 | 2026-09-04 12:27:03 | 45.49918 | 16.36953 | 322° | 5km/h | 23399m | 6.3m/s | -51.6°C | 3.8% | 0hPa | 2.7V | 00:00:00 | 01:26:14 | 00:00:00 | |
| OE8JPQ-2 | 2026-09-04 12:26:58 | 45.49910 | 16.36954 | 2° | 7km/h | 23370m | 5.1m/s | 0°C | 0% | 0hPa | 2.7V | 00:00:00 | 01:26:09 | 00:00:00 | |
| OE5DRO-10 | 2026-09-04 12:26:55 | 45.49911 | 16.36954 | 225° | 7km/h | 23352m | 6.1m/s | -52.0°C | 4.0% | 0hPa | 2.7V | 00:00:00 | 00:00:00 | 00:00:00 | |
| 9A1FER-15 | 2026-09-04 12:26:50 | 45.49903 | 16.36958 | 350° | 9km/h | 23325m | 4.7m/s | -52.4°C | 4.0% | 0hPa | 2.7V | 00:00:00 | 01:26:01 | 00:00:00 | |
| 9A1FER-10 | 2026-09-04 12:26:49 | 45.49901 | 16.36959 | 340° | 7km/h | 23319m | 6.2m/s | -52.4°C | 4.0% | 0hPa | 2.7V | 00:00:00 | 01:26:00 | 00:00:00 | |
| PETON7-10 | 2026-09-04 12:26:48 | 45.49897 | 16.36961 | 331° | 7km/h | 23313m | 6.1m/s | -52.5°C | 4.0% | 0hPa | 2.7V | 00:00:00 | 00:00:00 | 00:00:00 | |
| PG1ADW-2 | 2026-09-04 12:26:46 | 45.49891 | 16.36967 | 327° | 5km/h | 23301m | 6.8m/s | -52.7°C | 4.1% | 0hPa | 2.7V | 00:00:00 | 00:00:00 | 00:00:00 | |
| OE5DRO-10 | 2026-09-04 12:26:36 | 45.49876 | 16.36971 | 350° | 9km/h | 23243m | 6.7m/s | -52.6°C | 4.0% | 0hPa | 2.7V | 00:00:00 | 00:00:00 | 00:00:00 | |
| 9A1FER-15 | 2026-09-04 12:26:35 | 45.49875 | 16.36971 | 45° | 7km/h | 23237m | 5.6m/s | -52.6°C | 4.0% | 0hPa | 2.7V | 00:00:00 | 01:25:46 | 00:00:00 | |
| 9A1FER-10 | 2026-09-04 12:26:34 | 45.49875 | 16.36972 | 259° | 9km/h | 23231m | 5.4m/s | -52.6°C | 4.0% | 0hPa | 2.7V | 00:00:00 | 01:25:45 | 00:00:00 | |
| 9A1FER-3 | 2026-09-04 12:26:33 | 45.49876 | 16.36973 | 267° | 9km/h | 23225m | 6.7m/s | -52.7°C | 4.0% | 0hPa | 2.7V | 00:00:00 | 01:25:44 | 00:00:00 | |
| PG1ADW-2 | 2026-09-04 12:26:26 | 45.49883 | 16.36970 | 154° | 20km/h | 23184m | 4.6m/s | -53.2°C | 4.2% | 0hPa | 2.7V | 00:00:00 | 00:00:00 | 00:00:00 | |
| 9A1FER-15 | 2026-09-04 12:26:20 | 45.49902 | 16.36965 | 176° | 24km/h | 23150m | 6.2m/s | -53.3°C | 4.3% | 0hPa | 2.7V | 00:00:00 | 01:25:31 | 08:30:00 | |
| 9A1FER-10 | 2026-09-04 12:26:19 | 45.49906 | 16.36964 | 165° | 24km/h | 23143m | 6.7m/s | -53.3°C | 4.3% | 0hPa | 2.7V | 00:00:00 | 01:25:30 | 08:30:00 | |
| 9A1FER-3 | 2026-09-04 12:26:18 | 45.49910 | 16.36962 | 160° | 24km/h | 23137m | 5.7m/s | -53.3°C | 4.3% | 0hPa | 2.7V | 00:00:00 | 01:25:29 | 08:30:00 | |
| OE5DRO-10 | 2026-09-04 12:26:16 | 45.49919 | 16.36957 | 152° | 26km/h | 23125m | 4.5m/s | -53.3°C | 4.3% | 0hPa | 2.6V | 00:00:00 | 00:00:00 | 08:30:00 | |
| OE8JPQ-2 | 2026-09-04 12:26:11 | 45.49943 | 16.36933 | 154° | 27km/h | 23096m | 5.0m/s | 0°C | 0% | 0hPa | 2.6V | 00:00:00 | 00:00:00 | 00:00:00 | |
| OE3JTB-15 | 2026-09-04 12:26:10 | 45.49969 | 16.36916 | 162° | 29km/h | 23072m | 6.9m/s | -53.0°C | 4.2% | 0hPa | 2.6V | 00:00:00 | 00:00:00 | 00:00:00 | |
| PG1ADW-2 | 2026-09-04 12:26:06 | 45.49975 | 16.36914 | 165° | 27km/h | 23066m | 5.2m/s | -53.0°C | 4.2% | 0hPa | 2.6V | 00:00:00 | 00:00:00 | 00:00:00 | |
| 9A1FER-15 | 2026-09-04 12:26:05 | 45.49981 | 16.36911 | 163° | 26km/h | 23061m | 4.3m/s | -53.0°C | 4.2% | 0hPa | 2.6V | 00:00:00 | 01:25:16 | 00:00:00 | |
| 9A1FER-10 | 2026-09-04 12:26:04 | 45.49987 | 16.36908 | 156° | 27km/h | 23056m | 6.4m/s | -53.0°C | 4.2% | 0hPa | 2.6V | 00:00:00 | 01:25:15 | 00:00:00 | |
| 9A1FER-3 | 2026-09-04 12:26:03 | 45.49992 | 16.36904 | 145° | 27km/h | 23050m | 6.1m/s | -53.0°C | 4.2% | 0hPa | 2.6V | 00:00:00 | 01:25:14 | 00:00:00 | |
| PETON7-10 | 2026-09-04 12:26:02 | 45.49997 | 16.36898 | 138° | 27km/h | 23044m | 5.0m/s | -53.0°C | 4.2% | 0hPa | 2.6V | 00:00:00 | 00:00:00 | 00:00:00 | |
| OE5DRO-10 | 2026-09-04 12:25:57 | 45.50021 | 16.36867 | 131° | 29km/h | 23016m | 6.4m/s | -53.1°C | 4.1% | 0hPa | 2.6V | 00:00:00 | 00:00:00 | 00:00:00 | |
| 9A1FER-15 | 2026-09-04 12:25:50 | 45.50056 | 16.36817 | 135° | 27km/h | 22975m | 6.2m/s | -53.3°C | 4.3% | 0hPa | 2.6V | 00:00:00 | 01:25:01 | 00:00:00 | |
| 9A1FER-10 | 2026-09-04 12:25:49 | 45.50061 | 16.36810 | 138° | 27km/h | 22968m | 7.0m/s | -53.3°C | 4.3% | 0hPa | 2.6V | 00:00:00 | 01:25:00 | 00:00:00 | |
| 9A1FER-3 | 2026-09-04 12:25:48 | 45.50066 | 16.36803 | 137° | 27km/h | 22961m | 5.6m/s | -53.2°C | 4.3% | 0hPa | 2.6V | 00:00:00 | 01:24:59 | 00:00:00 | |
| PETON7-10 | 2026-09-04 12:25:47 | 45.50071 | 16.36796 | 130° | 26km/h | 22957m | 4.2m/s | -53.2°C | 4.3% | 0hPa | 2.6V | 00:00:00 | 01:24:58 | 00:00:00 | |
| PG1ADW-2 | 2026-09-04 12:25:46 | 45.50075 | 16.36788 | 122° | 24km/h | 22951m | 7.1m/s | -53.2°C | 4.4% | 0hPa | 2.6V | 00:00:00 | 01:24:57 | 00:00:00 | |
| OE3JTB-15 | 2026-09-04 12:25:41 | 45.50090 | 16.36716 | 102° | 22km/h | 22910m | 6.7m/s | -53.2°C | 4.3% | 0hPa | 2.6V | 00:00:00 | 01:24:50 | 00:00:00 | |
| OE5DRO-10 | 2026-09-04 12:25:38 | 45.50091 | 16.36707 | 111° | 22km/h | 22904m | 5.9m/s | -53.0°C | 4.2% | 0hPa | 2.6V | 00:00:00 | 00:00:00 | 00:00:00 | |
| 9A1FER-15 | 2026-09-04 12:25:35 | 45.50099 | 16.36686 | 121° | 22km/h | 22885m | 5.8m/s | -53.0°C | 4.2% | 0hPa | 2.6V | 00:00:00 | 01:24:46 | 00:00:00 | |
| 9A1FER-10 | 2026-09-04 12:25:34 | 45.50101 | 16.36680 | 129° | 22km/h | 22879m | 6.9m/s | -52.9°C | 4.2% | 0hPa | 2.6V | 00:00:00 | 01:24:45 | 00:00:00 | |
| 9A1FER-3 | 2026-09-04 12:25:33 | 45.50105 | 16.36674 | 134° | 22km/h | 22872m | 6.2m/s | -52.8°C | 4.1% | 0hPa | 2.7V | 00:00:00 | 01:24:44 | 00:00:00 | |
| PETON7-10 | 2026-09-04 12:25:32 | 45.50109 | 16.36668 | 130° | 22km/h | 22867m | 4.2m/s | -52.8°C | 4.1% | 0hPa | 2.7V | 00:00:00 | 00:00:00 | 08:30:00 | |
| OE8JPQ-2 | 2026-09-04 12:25:29 | 45.50118 | 16.36646 | 114° | 20km/h | 22849m | 6.8m/s | 0°C | 0% | 0hPa | 2.6V | 00:00:00 | 00:00:00 | 00:00:00 | |
| PG1ADW-2 | 2026-09-04 12:25:23 | 45.50127 | 16.36599 | 112° | 18km/h | 22813m | 5.1m/s | -52.8°C | 4.1% | 0hPa | 2.6V | 00:00:00 | 00:00:00 | 08:30:00 | |
| 9A1FER-15 | 2026-09-04 12:25:20 | 45.50134 | 16.36577 | 116° | 18km/h | 22796m | 4.6m/s | -53.1°C | 4.2% | 0hPa | 2.6V | 00:00:00 | 01:24:31 | 00:00:00 | |
| 9A1FER-10 | 2026-09-04 12:25:19 | 45.50136 | 16.36571 | 122° | 18km/h | 22791m | 5.9m/s | -53.2°C | 4.2% | 0hPa | 2.6V | 00:00:00 | 01:24:30 | 00:00:00 | |
| 9A1FER-3 | 2026-09-04 12:25:18 | 45.50139 | 16.36565 | 133° | 18km/h | 22785m | 6.3m/s | -53.2°C | 4.2% | 0hPa | 2.6V | 00:00:00 | 01:24:29 | 00:00:00 | |
| PETON7-10 | 2026-09-04 12:25:17 | 45.50142 | 16.36560 | 137° | 16km/h | 22780m | 4.6m/s | -53.1°C | 4.2% | 0hPa | 2.6V | 00:00:00 | 00:00:00 | 00:00:00 | |
| OE3JTB-15 | 2026-09-04 12:25:11 | 45.50154 | 16.36509 | 87° | 15km/h | 22735m | 5.5m/s | -52.9°C | 4.1% | 0hPa | 2.6V | 00:00:00 | 00:00:00 | 00:00:00 | |
| OE8JPQ-2 | 2026-09-04 12:25:09 | 45.50154 | 16.36509 | 87° | 15km/h | 22735m | 5.5m/s | 0°C | 0% | 0hPa | 2.7V | 00:00:00 | 00:00:00 | 00:00:00 | |
| 9A1FER-15 | 2026-09-04 12:25:05 | 45.50153 | 16.36488 | 105° | 15km/h | 22714m | 5.1m/s | -52.9°C | 4.1% | 0hPa | 2.7V | 00:00:00 | 01:24:16 | 00:00:00 | |
| 9A1FER-10 | 2026-09-04 12:25:04 | 45.50154 | 16.36484 | 109° | 15km/h | 22709m | 5.2m/s | -52.9°C | 4.1% | 0hPa | 2.7V | 00:00:00 | 01:24:15 | 00:00:00 | |
| 9A1FER-3 | 2026-09-04 12:25:03 | 45.50155 | 16.36479 | 101° | 15km/h | 22704m | 5.0m/s | -52.9°C | 4.1% | 0hPa | 2.7V | 00:00:00 | 01:24:14 | 00:00:00 | |
| PETON7-10 | 2026-09-04 12:25:02 | 45.50155 | 16.36473 | 94° | 15km/h | 22699m | 5.0m/s | -53.0°C | 4.1% | 0hPa | 2.7V | 00:00:00 | 01:24:13 | 00:00:00 | |
| OE5DRO-10 | 2026-09-04 12:24:59 | 45.50155 | 16.36458 | 89° | 18km/h | 22683m | 4.5m/s | -53.1°C | 4.2% | 0hPa | 2.7V | 00:00:00 | 00:00:00 | 00:00:00 | |
| 9A1FER-15 | 2026-09-04 12:24:50 | 45.50152 | 16.36411 | 77° | 20km/h | 22630m | 6.0m/s | -53.5°C | 4.3% | 0hPa | 2.7V | 00:00:00 | 01:24:01 | 00:00:00 | |
| 9A1FER-3 | 2026-09-04 12:24:48 | 45.50149 | 16.36398 | 65° | 20km/h | 22619m | 4.9m/s | -53.4°C | 4.3% | 0hPa | 2.7V | 00:00:00 | 01:23:59 | 00:00:00 | |
| PETON7-10 | 2026-09-04 12:24:47 | 45.50147 | 16.36391 | 66° | 20km/h | 22613m | 6.7m/s | -53.5°C | 4.3% | 0hPa | 2.6V | 00:00:00 | 00:00:00 | 00:00:00 | |
| PG1ADW-2 | 2026-09-04 12:24:42 | 45.50136 | 16.36354 | 72° | 18km/h | 22585m | 5.8m/s | 0°C | 0% | 0hPa | 2.7V | 00:00:00 | 00:00:00 | 00:00:00 | |
| OE5DRO-10 | 2026-09-04 12:24:39 | 45.50131 | 16.36333 | 71° | 15km/h | 22568m | 6.3m/s | -53.2°C | 4.1% | 0hPa | 2.7V | 00:00:00 | 00:00:00 | 00:00:00 | |
| 9A1FER-15 | 2026-09-04 12:24:35 | 45.50123 | 16.36309 | 58° | 16km/h | 22546m | 5.1m/s | -53.3°C | 4.2% | 0hPa | 2.7V | 00:00:00 | 01:23:46 | 00:00:00 | |
| 9A1FER-10 | 2026-09-04 12:24:34 | 45.50120 | 16.36303 | 54° | 15km/h | 22540m | 6.2m/s | -53.3°C | 4.1% | 0hPa | 2.7V | 00:00:00 | 01:23:45 | 00:00:00 | |
| 9A1FER-3 | 2026-09-04 12:24:33 | 45.50117 | 16.36298 | 49° | 15km/h | 22534m | 6.2m/s | -53.2°C | 4.1% | 0hPa | 2.7V | 00:00:00 | 01:23:44 | 00:00:00 | |
| PETON7-10 | 2026-09-04 12:24:32 | 45.50114 | 16.36293 | 50° | 15km/h | 22528m | 5.0m/s | -53.2°C | 4.1% | 0hPa | 2.7V | 00:00:00 | 00:00:00 | 00:00:00 | |
| OE8JPQ-2 | 2026-09-04 12:24:28 | 45.50104 | 16.36273 | 49° | 13km/h | 22505m | 5.4m/s | 0°C | 0% | 0hPa | 2.7V | 00:00:00 | 00:00:00 | 00:00:00 | |
| PG1ADW-2 | 2026-09-04 12:24:22 | 45.50092 | 16.36245 | 65° | 13km/h | 22471m | 5.2m/s | 0°C | 0% | 0hPa | 2.7V | 00:00:00 | 01:23:33 | 00:00:00 | |
| OE5DRO-10 | 2026-09-04 12:24:20 | 45.50090 | 16.36238 | 69° | 16km/h | 22459m | 5.4m/s | -53.8°C | 4.2% | 0hPa | 2.7V | 00:00:00 | 00:00:00 | 00:00:00 | |
| 9A1FER-10 | 2026-09-04 12:24:19 | 45.50089 | 16.36235 | 60° | 16km/h | 22454m | 4.2m/s | -53.9°C | 4.2% | 0hPa | 2.7V | 00:00:00 | 01:23:30 | 00:00:00 | |
| 9A1FER-3 | 2026-09-04 12:24:18 | 45.50088 | 16.36232 | 41° | 16km/h | 22449m | 6.1m/s | -53.9°C | 4.3% | 0hPa | 2.7V | 00:00:00 | 01:23:29 | 00:00:00 | |
| PETON7-10 | 2026-09-04 12:24:17 | 45.50085 | 16.36231 | 17° | 16km/h | 22443m | 5.4m/s | -53.9°C | 4.3% | 0hPa | 2.7V | 00:00:00 | 01:23:28 | 00:00:00 | |
| 9A1FER-15 | 2026-09-04 12:24:05 | 45.50039 | 16.36203 | 7° | 18km/h | 22377m | 4.8m/s | -54.6°C | 4.4% | 0hPa | 2.7V | 00:00:00 | 01:23:16 | 08:30:00 | |
| 9A1FER-10 | 2026-09-04 12:24:04 | 45.50035 | 16.36203 | 9° | 18km/h | 22372m | 5.9m/s | -54.7°C | 4.4% | 0hPa | 2.6V | 00:00:00 | 01:23:15 | 08:30:00 | |
| 9A1FER-3 | 2026-09-04 12:24:03 | 45.50031 | 16.36201 | 18° | 20km/h | 22366m | 5.7m/s | -54.7°C | 4.5% | 0hPa | 2.6V | 00:00:00 | 01:23:14 | 08:30:00 | |
| PETON7-10 | 2026-09-04 12:24:02 | 45.50027 | 16.36199 | 23° | 18km/h | 22360m | 5.1m/s | -54.9°C | 4.5% | 0hPa | 2.6V | 00:00:00 | 00:00:00 | 00:00:00 | |
| OE5DRO-10 | 2026-09-04 12:24:01 | 45.50023 | 16.36197 | 20° | 22km/h | 22355m | 5.6m/s | -54.9°C | 4.6% | 0hPa | 2.6V | 00:00:00 | 00:00:00 | 00:00:00 | |
| 9A1FER-15 | 2026-09-04 12:23:50 | 45.49971 | 16.36172 | 16° | 26km/h | 22294m | 5.5m/s | -55.0°C | 4.7% | 0hPa | 2.6V | 00:00:00 | 01:23:01 | 00:00:00 | |
| 9A1FER-10 | 2026-09-04 12:23:49 | 45.49966 | 16.36171 | 11° | 26km/h | 22289m | 6.3m/s | -54.9°C | 4.6% | 0hPa | 2.6V | 00:00:00 | 01:23:00 | 00:00:00 | |
| 9A1FER-3 | 2026-09-04 12:23:48 | 45.49963 | 16.36170 | 8° | 26km/h | 22283m | 5.1m/s | -54.8°C | 4.6% | 0hPa | 2.6V | 00:00:00 | 01:22:59 | 00:00:00 | |
| PETON7-10 | 2026-09-04 12:23:47 | 45.49959 | 16.36169 | 15° | 26km/h | 22277m | 6.5m/s | -54.8°C | 4.6% | 0hPa | 2.6V | 00:00:00 | 00:00:00 | 00:00:00 | |
| PG1ADW-2 | 2026-09-04 12:23:42 | 45.49933 | 16.36164 | 3° | 27km/h | 22248m | 6.6m/s | 0°C | 0% | 0hPa | 2.6V | 00:00:00 | 00:00:00 | 00:00:00 | |
| OE5DRO-10 | 2026-09-04 12:23:39 | 45.49908 | 16.36163 | 358° | 27km/h | 22229m | 6.9m/s | -54.7°C | 4.4% | 0hPa | 2.6V | 00:00:00 | 00:00:00 | 00:00:00 | |
| 9A1FER-15 | 2026-09-04 12:23:35 | 45.49877 | 16.36167 | 351° | 27km/h | 22207m | 6.0m/s | -54.5°C | 4.5% | 0hPa | 2.6V | 00:00:00 | 01:22:46 | 00:00:00 | |
| 9A1FER-10 | 2026-09-04 12:23:34 | 45.49871 | 16.36169 | 344° | 27km/h | 22200m | 6.0m/s | -54.5°C | 4.6% | 0hPa | 2.6V | 00:00:00 | 01:22:45 | 00:00:00 | |
| 9A1FER-3 | 2026-09-04 12:23:33 | 45.49866 | 16.36171 | 341° | 27km/h | 22195m | 4.9m/s | -54.4°C | 4.5% | 0hPa | 2.6V | 00:00:00 | 01:22:44 | 00:00:00 | |
| PETON7-10 | 2026-09-04 12:23:32 | 45.49861 | 16.36173 | 346° | 27km/h | 22189m | 6.9m/s | -54.4°C | 4.5% | 0hPa | 2.6V | 00:00:00 | 01:22:43 | 00:00:00 | |
| PG1ADW-2 | 2026-09-04 12:23:22 | 45.49792 | 16.36193 | 333° | 24km/h | 22132m | 5.1m/s | 0°C | 0% | 0hPa | 2.6V | 00:00:00 | 00:00:00 | 00:00:00 | |
| 9A1FER-15 | 2026-09-04 12:23:20 | 45.49779 | 16.36203 | 332° | 24km/h | 22121m | 5.6m/s | -54.8°C | 4.5% | 0hPa | 2.6V | 00:00:00 | 01:22:31 | 00:00:00 | |
| 9A1FER-10 | 2026-09-04 12:23:19 | 45.49773 | 16.36208 | 328° | 24km/h | 22115m | 4.9m/s | -54.8°C | 4.6% | 0hPa | 2.6V | 00:00:00 | 01:22:30 | 00:00:00 | |
| 9A1FER-3 | 2026-09-04 12:23:18 | 45.49769 | 16.36212 | 321° | 24km/h | 22110m | 6.5m/s | -54.8°C | 4.6% | 0hPa | 2.7V | 00:00:00 | 01:22:29 | 00:00:00 | |
| PETON7-10 | 2026-09-04 12:23:17 | 45.49766 | 16.36217 | 319° | 24km/h | 22104m | 4.5m/s | -54.9°C | 4.7% | 0hPa | 2.7V | 00:00:00 | 00:00:00 | 08:30:00 | |
| 9A1FER-15 | 2026-09-04 12:23:05 | 45.49699 | 16.36257 | 331° | 22km/h | 22036m | 7.4m/s | -54.6°C | 4.6% | 0hPa | 2.6V | 00:00:00 | 01:22:16 | 00:00:00 | |
| 9A1FER-10 | 2026-09-04 12:23:04 | 45.49694 | 16.36260 | 333° | 22km/h | 22030m | 5.4m/s | -54.6°C | 4.6% | 0hPa | 2.6V | 00:00:00 | 01:22:15 | 00:00:00 | |
| 9A1FER-3 | 2026-09-04 12:23:03 | 45.49690 | 16.36264 | 328° | 22km/h | 22024m | 6.5m/s | -54.6°C | 4.6% | 0hPa | 2.6V | 00:00:00 | 01:22:14 | 00:00:00 | |
| PETON7-10 | 2026-09-04 12:23:02 | 45.49686 | 16.36268 | 322° | 20km/h | 22018m | 5.8m/s | -54.6°C | 4.6% | 0hPa | 2.6V | 00:00:00 | 00:00:00 | 00:00:00 | |
| OE5DRO-10 | 2026-09-04 12:23:01 | 45.49683 | 16.36272 | 322° | 20km/h | 22012m | 4.5m/s | -54.5°C | 4.7% | 0hPa | 2.6V | 00:00:00 | 00:00:00 | 00:00:00 | |
| PG1ADW-2 | 2026-09-04 12:23:00 | 45.49679 | 16.36276 | 327° | 18km/h | 22007m | 7.0m/s | 0°C | 0% | 0hPa | 2.6V | 00:00:00 | 01:22:11 | 00:00:00 | |
| 9A1FER-15 | 2026-09-04 12:22:50 | 45.49633 | 16.36327 | 319° | 18km/h | 21944m | 5.9m/s | -54.1°C | 4.6% | 0hPa | 2.6V | 00:00:00 | 01:22:01 | 00:00:00 | |
| 9A1FER-10 | 2026-09-04 12:22:49 | 45.49630 | 16.36331 | 315° | 18km/h | 21937m | 7.6m/s | -54.0°C | 4.5% | 0hPa | 2.6V | 00:00:00 | 01:22:00 | 00:00:00 | |
| 9A1FER-3 | 2026-09-04 12:22:48 | 45.49628 | 16.36335 | 306° | 18km/h | 21929m | 6.8m/s | -54.0°C | 4.5% | 0hPa | 2.6V | 00:00:00 | 01:21:59 | 00:00:00 | |
| PETON7-10 | 2026-09-04 12:22:47 | 45.49625 | 16.36340 | 303° | 18km/h | 21924m | 4.8m/s | -54.0°C | 4.5% | 0hPa | 2.6V | 00:00:00 | 01:21:58 | 00:00:00 | |
| OE5DRO-10 | 2026-09-04 12:22:42 | 45.49613 | 16.36366 | 302° | 16km/h | 21893m | 4.8m/s | -53.7°C | 4.5% | 0hPa | 2.6V | 00:00:00 | 00:00:00 | 00:00:00 | |
| PG1ADW-2 | 2026-09-04 12:22:38 | 45.49601 | 16.36389 | 308° | 15km/h | 21869m | 6.6m/s | 0°C | 0% | 0hPa | 2.6V | 00:00:00 | 00:00:00 | 00:00:00 | |
| 9A1FER-15 | 2026-09-04 12:22:35 | 45.49594 | 16.36405 | 301° | 15km/h | 21852m | 6.7m/s | -53.4°C | 4.3% | 0hPa | 2.6V | 00:00:00 | 01:21:46 | 00:00:00 | |
| 9A1FER-10 | 2026-09-04 12:22:34 | 45.49592 | 16.36409 | 301° | 15km/h | 21846m | 5.3m/s | -53.4°C | 4.3% | 0hPa | 2.7V | 00:00:00 | 01:21:45 | 00:00:00 | |
| 9A1FER-3 | 2026-09-04 12:22:33 | 45.49591 | 16.36414 | 300° | 15km/h | 21840m | 6.8m/s | -53.4°C | 4.2% | 0hPa | 2.7V | 00:00:00 | 01:21:44 | 00:00:00 | |
| PETON7-10 | 2026-09-04 12:22:32 | 45.49589 | 16.36419 | 297° | 15km/h | 21833m | 5.9m/s | -53.3°C | 4.2% | 0hPa | 2.7V | 00:00:00 | 00:00:00 | 00:00:00 | |
| OE5DRO-10 | 2026-09-04 12:22:23 | 45.49582 | 16.36468 | 262° | 11km/h | 21780m | 5.3m/s | -53.3°C | 4.2% | 0hPa | 2.7V | 00:00:00 | 00:00:00 | 00:00:00 | |
| 9A1FER-15 | 2026-09-04 12:22:20 | 45.49584 | 16.36483 | 255° | 11km/h | 21763m | 7.0m/s | -53.3°C | 4.2% | 0hPa | 2.7V | 00:00:00 | 01:21:31 | 00:00:00 | |
| 9A1FER-10 | 2026-09-04 12:22:19 | 45.49585 | 16.36486 | 240° | 11km/h | 21757m | 5.3m/s | -53.3°C | 4.2% | 0hPa | 2.7V | 00:00:00 | 01:21:30 | 00:00:00 | |
| 9A1FER-3 | 2026-09-04 12:22:18 | 45.49586 | 16.36490 | 238° | 11km/h | 21752m | 4.9m/s | -53.3°C | 4.1% | 0hPa | 2.7V | 00:00:00 | 01:21:29 | 00:00:00 | |
| PETON7-10 | 2026-09-04 12:22:17 | 45.49588 | 16.36494 | 241° | 11km/h | 21746m | 6.9m/s | -53.4°C | 4.2% | 0hPa | 2.7V | 00:00:00 | 00:00:00 | 00:00:00 | |
| PG1ADW-2 | 2026-09-04 12:22:12 | 45.49595 | 16.36514 | 238° | 9km/h | 21717m | 6.3m/s | 0°C | 0% | 0hPa | 2.7V | 00:00:00 | 00:00:00 | 00:00:00 | |
| 9A1FER-15 | 2026-09-04 12:22:05 | 45.49608 | 16.36529 | 213° | 11km/h | 21677m | 6.1m/s | -53.8°C | 4.2% | 0hPa | 2.7V | 00:00:00 | 01:21:16 | 00:00:00 | |
| 9A1FER-10 | 2026-09-04 12:22:04 | 45.49610 | 16.36531 | 204° | 9km/h | 21671m | 5.7m/s | -53.9°C | 4.3% | 0hPa | 2.7V | 00:00:00 | 01:21:15 | 00:00:00 | |
| 9A1FER-3 | 2026-09-04 12:22:03 | 45.49613 | 16.36533 | 212° | 9km/h | 21666m | 4.7m/s | -53.8°C | 4.3% | 0hPa | 2.7V | 00:00:00 | 01:21:14 | 00:00:00 | |
| PETON7-10 | 2026-09-04 12:22:02 | 45.49616 | 16.36535 | 219° | 9km/h | 21661m | 6.2m/s | -53.9°C | 4.3% | 0hPa | 2.7V | 00:00:00 | 01:21:13 | 00:00:00 | |
| 9A1FER-15 | 2026-09-04 12:21:50 | 45.49641 | 16.36554 | 236° | 11km/h | 21593m | 6.4m/s | -54.1°C | 4.5% | 0hPa | 2.7V | 00:00:00 | 01:21:01 | 08:30:00 | |
| 9A1FER-10 | 2026-09-04 12:21:49 | 45.49641 | 16.36556 | 249° | 11km/h | 21587m | 4.2m/s | -54.2°C | 4.5% | 0hPa | 2.7V | 00:00:00 | 01:21:00 | 08:30:00 | |
| 9A1FER-3 | 2026-09-04 12:21:48 | 45.49642 | 16.36558 | 266° | 11km/h | 21582m | 6.3m/s | -54.1°C | 4.5% | 0hPa | 2.6V | 00:00:00 | 01:20:59 | 08:30:00 | |
| PETON7-10 | 2026-09-04 12:21:47 | 45.49642 | 16.36561 | 275° | 11km/h | 21576m | 5.7m/s | -54.1°C | 4.5% | 0hPa | 2.6V | 00:00:00 | 00:00:00 | 00:00:00 | |
| OE5DRO-10 | 2026-09-04 12:21:45 | 45.49642 | 16.36569 | 265° | 13km/h | 21566m | 5.9m/s | -54.0°C | 4.5% | 0hPa | 2.7V | 00:00:00 | 00:00:00 | 00:00:00 | |
| 9A1FER-15 | 2026-09-04 12:21:35 | 45.49638 | 16.36610 | 292° | 16km/h | 21509m | 6.6m/s | -53.8°C | 4.3% | 0hPa | 2.7V | 00:00:00 | 01:20:46 | 00:00:00 | |
| 9A1FER-10 | 2026-09-04 12:21:34 | 45.49637 | 16.36614 | 281° | 16km/h | 21503m | 5.4m/s | -53.7°C | 4.3% | 0hPa | 2.7V | 00:00:00 | 01:20:45 | 00:00:00 | |
| 9A1FER-3 | 2026-09-04 12:21:33 | 45.49636 | 16.36619 | 279° | 16km/h | 21498m | 5.0m/s | -53.7°C | 4.3% | 0hPa | 2.7V | 00:00:00 | 01:20:44 | 00:00:00 | |
| PETON7-10 | 2026-09-04 12:21:32 | 45.49635 | 16.36624 | 285° | 16km/h | 21492m | 6.4m/s | -53.7°C | 4.3% | 0hPa | 2.7V | 00:00:00 | 00:00:00 | 00:00:00 | |
| OE5DRO-10 | 2026-09-04 12:21:26 | 45.49629 | 16.36656 | 298° | 16km/h | 21459m | 5.3m/s | -53.7°C | 4.5% | 0hPa | 2.7V | 00:00:00 | 00:00:00 | 00:00:00 | |
| 9A1FER-15 | 2026-09-04 12:21:20 | 45.49617 | 16.36688 | 311° | 16km/h | 21426m | 5.9m/s | -53.7°C | 4.3% | 0hPa | 2.6V | 00:00:00 | 01:20:31 | 00:00:00 | |
| 9A1FER-10 | 2026-09-04 12:21:19 | 45.49615 | 16.36692 | 306° | 18km/h | 21420m | 6.1m/s | -53.7°C | 4.3% | 0hPa | 2.6V | 00:00:00 | 01:20:30 | 00:00:00 | |
| OE5DXL-15 | 2026-09-04 12:21:18 | 45.49613 | 16.36695 | 300° | 18km/h | 21415m | 4.1m/s | -53.6°C | 4.3% | 0hPa | 2.6V | 00:00:00 | 00:00:00 | 00:00:00 | |
| PETON7-10 | 2026-09-04 12:21:17 | 45.49611 | 16.36700 | 301° | 18km/h | 21409m | 6.0m/s | -53.6°C | 4.3% | 0hPa | 2.6V | 00:00:00 | 01:20:28 | 00:00:00 | |
| OE5DRO-10 | 2026-09-04 12:21:07 | 45.49594 | 16.36759 | 323° | 18km/h | 21354m | 6.1m/s | -53.5°C | 4.3% | 0hPa | 2.6V | 00:00:00 | 00:00:00 | 00:00:00 | |
| 9A1FER-15 | 2026-09-04 12:21:05 | 45.49586 | 16.36767 | 321° | 20km/h | 21344m | 4.4m/s | -53.4°C | 4.3% | 0hPa | 2.6V | 00:00:00 | 01:20:16 | 00:00:00 | |
| 9A1FER-10 | 2026-09-04 12:21:04 | 45.49583 | 16.36772 | 309° | 20km/h | 21339m | 6.0m/s | -53.5°C | 4.3% | 0hPa | 2.6V | 00:00:00 | 01:20:15 | 00:00:00 | |
| 9A1FER-3 | 2026-09-04 12:21:03 | 45.49581 | 16.36777 | 293° | 20km/h | 21333m | 4.5m/s | -53.5°C | 4.2% | 0hPa | 2.6V | 00:00:00 | 01:20:14 | 00:00:00 | |
| PETON7-10 | 2026-09-04 12:21:02 | 45.49579 | 16.36785 | 288° | 18km/h | 21328m | 5.3m/s | -53.6°C | 4.3% | 0hPa | 2.6V | 00:00:00 | 00:00:00 | 08:30:00 | |
| 9A1FER-15 | 2026-09-04 12:20:50 | 45.49562 | 16.36870 | 266° | 9km/h | 21266m | 4.0m/s | -53.5°C | 4.2% | 0hPa | 2.7V | 00:00:00 | 01:20:01 | 00:00:00 | |
| 9A1FER-10 | 2026-09-04 12:20:49 | 45.49562 | 16.36875 | 270° | 9km/h | 21261m | 6.6m/s | -53.5°C | 4.3% | 0hPa | 2.7V | 00:00:00 | 01:20:00 | 00:00:00 | |
| 9A1FER-3 | 2026-09-04 12:20:48 | 45.49562 | 16.36879 | 278° | 9km/h | 21255m | 4.6m/s | -53.6°C | 4.4% | 0hPa | 2.7V | 00:00:00 | 01:19:59 | 00:00:00 | |
| PETON7-10 | 2026-09-04 12:20:47 | 45.49562 | 16.36882 | 274° | 9km/h | 21250m | 5.0m/s | -53.5°C | 4.3% | 0hPa | 2.7V | 00:00:00 | 00:00:00 | 00:00:00 | |
| 9A1FER-15 | 2026-09-04 12:20:35 | 45.49561 | 16.36921 | 229° | 7km/h | 21183m | 5.3m/s | -53.7°C | 4.3% | 0hPa | 2.7V | 00:00:00 | 01:19:46 | 00:00:00 | |
| 9A1FER-10 | 2026-09-04 12:20:34 | 45.49563 | 16.36922 | 213° | 7km/h | 21178m | 5.1m/s | -53.8°C | 4.3% | 0hPa | 2.7V | 00:00:00 | 01:19:45 | 00:00:00 | |
| 9A1FER-3 | 2026-09-04 12:20:33 | 45.49564 | 16.36924 | 209° | 7km/h | 21172m | 6.5m/s | -53.7°C | 4.3% | 0hPa | 2.7V | 00:00:00 | 01:19:44 | 00:00:00 | |
| PETON7-10 | 2026-09-04 12:20:32 | 45.49566 | 16.36925 | 209° | 7km/h | 21166m | 5.3m/s | -53.6°C | 4.3% | 0hPa | 2.7V | 00:00:00 | 01:19:43 | 00:00:00 | |
| OE5DRO-10 | 2026-09-04 12:20:29 | 45.49571 | 16.36929 | 217° | 15km/h | 21149m | 4.8m/s | -53.6°C | 4.2% | 0hPa | 2.7V | 00:00:00 | 00:00:00 | 08:30:00 | |
| 9A1FER-15 | 2026-09-04 12:20:20 | 45.49583 | 16.36941 | 162° | 18km/h | 21102m | 5.7m/s | -53.8°C | 4.2% | 0hPa | 2.7V | 00:00:00 | 01:19:31 | 00:00:00 | |
| 9A1FER-10 | 2026-09-04 12:20:19 | 45.49586 | 16.36940 | 168° | 18km/h | 21096m | 5.4m/s | -53.9°C | 4.2% | 0hPa | 2.6V | 00:00:00 | 01:19:30 | 00:00:00 | |
| 9A1FER-3 | 2026-09-04 12:20:18 | 45.49590 | 16.36940 | 173° | 20km/h | 21091m | 4.7m/s | -54.0°C | 4.2% | 0hPa | 2.6V | 00:00:00 | 01:19:29 | 00:00:00 | |
| PETON7-10 | 2026-09-04 12:20:17 | 45.49593 | 16.36939 | 177° | 20km/h | 21085m | 6.8m/s | -54.1°C | 4.2% | 0hPa | 2.6V | 00:00:00 | 00:00:00 | 00:00:00 | |
| OE5DRO-10 | 2026-09-04 12:20:08 | 45.49630 | 16.36919 | 125° | 13km/h | 21034m | 4.9m/s | -54.5°C | 4.3% | 0hPa | 2.6V | 00:00:00 | 00:00:00 | 00:00:00 | |
| 9A1FER-15 | 2026-09-04 12:20:05 | 45.49638 | 16.36897 | 118° | 16km/h | 21017m | 4.5m/s | -54.6°C | 4.3% | 0hPa | 2.6V | 00:00:00 | 01:19:16 | 00:00:00 | |
| 9A1FER-10 | 2026-09-04 12:20:04 | 45.49640 | 16.36890 | 125° | 15km/h | 21012m | 6.3m/s | -54.7°C | 4.4% | 0hPa | 2.6V | 00:00:00 | 01:19:15 | 00:00:00 | |
| 9A1FER-3 | 2026-09-04 12:20:03 | 45.49644 | 16.36885 | 135° | 13km/h | 21007m | 4.3m/s | -54.7°C | 4.4% | 0hPa | 2.6V | 00:00:00 | 01:19:14 | 00:00:00 | |
| PETON7-10 | 2026-09-04 12:20:02 | 45.49648 | 16.36880 | 139° | 13km/h | 21002m | 4.9m/s | -54.8°C | 4.4% | 0hPa | 2.6V | 00:00:00 | 00:00:00 | 00:00:00 | |
| 9A1FER-15 | 2026-09-04 12:19:50 | 45.49668 | 16.36831 | 132° | 5km/h | 20940m | 6.0m/s | -55.9°C | 4.8% | 0hPa | 2.6V | 00:00:00 | 01:19:01 | 00:00:00 | |
| 9A1FER-10 | 2026-09-04 12:19:49 | 45.49669 | 16.36829 | 142° | 5km/h | 20934m | 6.1m/s | -55.9°C | 4.8% | 0hPa | 2.6V | 00:00:00 | 01:19:00 | 00:00:00 | |
| 9A1FER-3 | 2026-09-04 12:19:48 | 45.49670 | 16.36829 | 166° | 5km/h | 20928m | 4.8m/s | -55.9°C | 4.8% | 0hPa | 2.6V | 00:00:00 | 01:18:59 | 00:00:00 | |
| PETON7-10 | 2026-09-04 12:19:47 | 45.49671 | 16.36828 | 173° | 7km/h | 20923m | 6.2m/s | -55.8°C | 4.8% | 0hPa | 2.6V | 00:00:00 | 01:18:58 | 00:00:00 | |
| 9A1FER-15 | 2026-09-04 12:19:35 | 45.49675 | 16.36847 | 226° | 11km/h | 20856m | 5.8m/s | -55.8°C | 4.8% | 0hPa | 2.6V | 00:00:00 | 01:18:46 | 08:30:00 | |
| 9A1FER-10 | 2026-09-04 12:19:34 | 45.49677 | 16.36851 | 232° | 11km/h | 20851m | 5.3m/s | -55.6°C | 4.8% | 0hPa | 2.6V | 00:00:00 | 01:18:45 | 08:30:00 | |
| 9A1FER-3 | 2026-09-04 12:19:33 | 45.49679 | 16.36854 | 230° | 11km/h | 20846m | 4.2m/s | -55.6°C | 4.8% | 0hPa | 2.6V | 00:00:00 | 01:18:44 | 08:30:00 | |
| PETON7-10 | 2026-09-04 12:19:32 | 45.49682 | 16.36858 | 219° | 11km/h | 20840m | 6.6m/s | -55.6°C | 4.8% | 0hPa | 2.7V | 00:00:00 | 00:00:00 | 00:00:00 | |
| 9A1FER-15 | 2026-09-04 12:19:20 | 45.49709 | 16.36876 | 196° | 13km/h | 20771m | 5.4m/s | -55.6°C | 4.6% | 0hPa | 2.7V | 00:00:00 | 01:18:31 | 00:00:00 | |
| 9A1FER-10 | 2026-09-04 12:19:19 | 45.49712 | 16.36878 | 202° | 15km/h | 20765m | 5.9m/s | -55.7°C | 4.7% | 0hPa | 2.7V | 00:00:00 | 01:18:30 | 00:00:00 | |
| 9A1FER-3 | 2026-09-04 12:19:18 | 45.49716 | 16.36880 | 202° | 15km/h | 20761m | 3.7m/s | -55.7°C | 4.8% | 0hPa | 2.7V | 00:00:00 | 01:18:29 | 00:00:00 | |
| PETON7-10 | 2026-09-04 12:19:16 | 45.49723 | 16.36882 | 185° | 15km/h | 20750m | 5.5m/s | -55.5°C | 4.7% | 0hPa | 2.7V | 00:00:00 | 00:00:00 | 00:00:00 | |
| 9A1FER-15 | 2026-09-04 12:19:05 | 45.49756 | 16.36867 | 173° | 18km/h | 20690m | 4.9m/s | -55.5°C | 4.7% | 0hPa | 2.7V | 00:00:00 | 01:18:16 | 00:00:00 | |
| 9A1FER-10 | 2026-09-04 12:19:04 | 45.49760 | 16.36866 | 181° | 18km/h | 20684m | 6.3m/s | -55.6°C | 4.8% | 0hPa | 2.7V | 00:00:00 | 01:18:15 | 00:00:00 | |
| 9A1FER-3 | 2026-09-04 12:19:03 | 45.49765 | 16.36867 | 186° | 18km/h | 20679m | 4.8m/s | -55.6°C | 4.8% | 0hPa | 2.7V | 00:00:00 | 01:18:14 | 00:00:00 | |
| PETON7-10 | 2026-09-04 12:19:01 | 45.49774 | 16.36867 | 173° | 18km/h | 20669m | 6.2m/s | -55.6°C | 4.8% | 0hPa | 2.7V | 00:00:00 | 01:18:12 | 00:00:00 | |
| OE5DRO-10 | 2026-09-04 12:18:57 | 45.49791 | 16.36853 | 135° | 15km/h | 20648m | 5.2m/s | -55.5°C | 4.7% | 0hPa | 2.7V | 00:00:00 | 00:00:00 | 00:00:00 | |
| 9A1FER-15 | 2026-09-04 12:18:50 | 45.49813 | 16.36819 | 138° | 13km/h | 20610m | 5.4m/s | -55.6°C | 4.7% | 0hPa | 2.6V | 00:00:00 | 01:18:01 | 00:00:00 | |
| 9A1FER-10 | 2026-09-04 12:18:49 | 45.49817 | 16.36815 | 137° | 13km/h | 20606m | 3.9m/s | -55.5°C | 4.7% | 0hPa | 2.6V | 00:00:00 | 01:18:00 | 00:00:00 | |
| 9A1FER-3 | 2026-09-04 12:18:48 | 45.49819 | 16.36811 | 138° | 13km/h | 20601m | 5.4m/s | -55.5°C | 4.6% | 0hPa | 2.6V | 00:00:00 | 01:17:59 | 00:00:00 | |
| PETON7-10 | 2026-09-04 12:18:46 | 45.49824 | 16.36806 | 148° | 13km/h | 20590m | 4.0m/s | -55.4°C | 4.7% | 0hPa | 2.7V | 00:00:00 | 00:00:00 | 08:30:00 | |
| OE5DRO-10 | 2026-09-04 12:18:37 | 45.49839 | 16.36778 | 99° | 13km/h | 20542m | 5.6m/s | -55.5°C | 4.7% | 0hPa | 2.6V | 00:00:00 | 00:00:00 | 00:00:00 | |
| 9A1FER-15 | 2026-09-04 12:18:35 | 45.49840 | 16.36768 | 95° | 13km/h | 20530m | 4.3m/s | -55.6°C | 4.7% | 0hPa | 2.6V | 00:00:00 | 01:17:46 | 00:00:00 | |
| 9A1FER-10 | 2026-09-04 12:18:34 | 45.49840 | 16.36763 | 102° | 13km/h | 20525m | 6.2m/s | -55.6°C | 4.7% | 0hPa | 2.6V | 00:00:00 | 01:17:45 | 00:00:00 | |
| 9A1FER-3 | 2026-09-04 12:18:33 | 45.49841 | 16.36758 | 112° | 13km/h | 20519m | 4.9m/s | -55.6°C | 4.7% | 0hPa | 2.6V | 00:00:00 | 01:17:44 | 00:00:00 | |
| PETON7-10 | 2026-09-04 12:18:31 | 45.49845 | 16.36748 | 121° | 13km/h | 20509m | 6.2m/s | -55.6°C | 4.7% | 0hPa | 2.6V | 00:00:00 | 00:00:00 | 00:00:00 | |
| 9A1FER-15 | 2026-09-04 12:18:20 | 45.49844 | 16.36710 | 69° | 13km/h | 20447m | 5.0m/s | -55.5°C | 4.7% | 0hPa | 2.6V | 00:00:00 | 01:17:31 | 00:00:00 | |
| 9A1FER-10 | 2026-09-04 12:18:19 | 45.49843 | 16.36705 | 78° | 11km/h | 20442m | 5.9m/s | -55.5°C | 4.8% | 0hPa | 2.6V | 00:00:00 | 01:17:30 | 00:00:00 | |
| 9A1FER-3 | 2026-09-04 12:18:18 | 45.49842 | 16.36699 | 81° | 11km/h | 20437m | 3.8m/s | -55.5°C | 4.8% | 0hPa | 2.6V | 00:00:00 | 01:17:29 | 00:00:00 | |
| PETON7-10 | 2026-09-04 12:18:16 | 45.49841 | 16.36690 | 72° | 11km/h | 20426m | 5.5m/s | -55.5°C | 4.8% | 0hPa | 2.6V | 00:00:00 | 01:17:27 | 00:00:00 | |
| 9A1FER-15 | 2026-09-04 12:18:05 | 45.49817 | 16.36666 | 40° | 9km/h | 20366m | 5.1m/s | -55.2°C | 4.6% | 0hPa | 2.6V | 00:00:00 | 01:17:16 | 00:00:00 | |
| 9A1FER-10 | 2026-09-04 12:18:04 | 45.49815 | 16.36662 | 57° | 9km/h | 20360m | 6.1m/s | -55.3°C | 4.6% | 0hPa | 2.6V | 00:00:00 | 01:17:15 | 00:00:00 | |
| 9A1FER-3 | 2026-09-04 12:18:03 | 45.49814 | 16.36659 | 69° | 7km/h | 20355m | 4.8m/s | -55.3°C | 4.6% | 0hPa | 2.6V | 00:00:00 | 01:17:14 | 00:00:00 | |
| PETON7-10 | 2026-09-04 12:18:01 | 45.49812 | 16.36651 | 61° | 7km/h | 20343m | 4.9m/s | -55.3°C | 4.7% | 0hPa | 2.7V | 00:00:00 | 00:00:00 | 00:00:00 | |
| OE5DRO-10 | 2026-09-04 12:17:59 | 45.49810 | 16.36647 | 79° | 13km/h | 20332m | 6.0m/s | -55.3°C | 4.6% | 0hPa | 2.6V | 00:00:00 | 00:00:00 | 00:00:00 | |
| 9A1FER-15 | 2026-09-04 12:17:50 | 45.49797 | 16.36634 | 2° | 5km/h | 20284m | 5.1m/s | -55.3°C | 4.6% | 0hPa | 2.6V | 00:00:00 | 01:17:01 | 00:00:00 | |
| 9A1FER-10 | 2026-09-04 12:17:49 | 45.49796 | 16.36633 | 45° | 5km/h | 20278m | 5.8m/s | -55.4°C | 4.7% | 0hPa | 2.6V | 00:00:00 | 01:17:00 | 00:00:00 | |
| 9A1FER-3 | 2026-09-04 12:17:48 | 45.49796 | 16.36632 | 83° | 5km/h | 20273m | 4.4m/s | -55.3°C | 4.6% | 0hPa | 2.6V | 00:00:00 | 01:16:59 | 00:00:00 | |
| PETON7-10 | 2026-09-04 12:17:46 | 45.49795 | 16.36629 | 57° | 5km/h | 20263m | 5.7m/s | -55.4°C | 4.7% | 0hPa | 2.6V | 00:00:00 | 00:00:00 | 00:00:00 | |
| 9A1FER-15 | 2026-09-04 12:17:35 | 45.49782 | 16.36618 | 19° | 7km/h | 20206m | 6.1m/s | -55.5°C | 4.8% | 0hPa | 2.6V | 00:00:00 | 01:16:46 | 00:00:00 | |
| 9A1FER-10 | 2026-09-04 12:17:34 | 45.49781 | 16.36618 | 347° | 7km/h | 20200m | 5.6m/s | -55.4°C | 4.8% | 0hPa | 2.6V | 00:00:00 | 01:16:45 | 00:00:00 | |
| 9A1FER-3 | 2026-09-04 12:17:33 | 45.49780 | 16.36618 | 348° | 5km/h | 20194m | 5.4m/s | -55.4°C | 4.7% | 0hPa | 2.6V | 00:00:00 | 01:16:44 | 00:00:00 | |
| PETON7-10 | 2026-09-04 12:17:31 | 45.49778 | 16.36619 | 348° | 5km/h | 20183m | 5.4m/s | -55.3°C | 4.7% | 0hPa | 2.6V | 00:00:00 | 01:16:42 | 00:00:00 | |
| 9A1FER-15 | 2026-09-04 12:17:20 | 45.49759 | 16.36613 | 19° | 2km/h | 20123m | 5.3m/s | -55.3°C | 4.6% | 0hPa | 2.6V | 00:00:00 | 01:16:31 | 08:30:00 | |
| 9A1FER-10 | 2026-09-04 12:17:19 | 45.49758 | 16.36613 | 6° | 4km/h | 20117m | 4.8m/s | -55.2°C | 4.5% | 0hPa | 2.7V | 00:00:00 | 01:16:30 | 08:30:00 | |
| 9A1FER-3 | 2026-09-04 12:17:18 | 45.49758 | 16.36613 | 70° | 4km/h | 20112m | 6.2m/s | -55.4°C | 4.6% | 0hPa | 2.7V | 00:00:00 | 01:16:29 | 08:30:00 | |
| PETON7-10 | 2026-09-04 12:17:16 | 45.49757 | 16.36610 | 62° | 4km/h | 20101m | 4.9m/s | -55.5°C | 4.6% | 0hPa | 2.6V | 00:00:00 | 00:00:00 | 00:00:00 | |
| 9A1FER-15 | 2026-09-04 12:17:05 | 45.49754 | 16.36604 | 21° | 5km/h | 20042m | 4.5m/s | -55.5°C | 4.5% | 0hPa | 2.7V | 00:00:00 | 01:16:16 | 00:00:00 | |
| 9A1FER-10 | 2026-09-04 12:17:04 | 45.49752 | 16.36603 | 34° | 5km/h | 20037m | 6.3m/s | -55.5°C | 4.5% | 0hPa | 2.7V | 00:00:00 | 01:16:15 | 00:00:00 | |
| 9A1FER-3 | 2026-09-04 12:17:03 | 45.49751 | 16.36601 | 45° | 5km/h | 20031m | 4.9m/s | -55.6°C | 4.5% | 0hPa | 2.7V | 00:00:00 | 01:16:14 | 00:00:00 | |
| PETON7-10 | 2026-09-04 12:17:01 | 45.49748 | 16.36597 | 25° | 4km/h | 20021m | 5.8m/s | -55.9°C | 4.6% | 0hPa | 2.7V | 00:00:00 | 00:00:00 | 00:00:00 | |
| 9A1FER-15 | 2026-09-04 12:16:50 | 45.49749 | 16.36588 | 108° | 5km/h | 19961m | 5.0m/s | -56.7°C | 5.0% | 0hPa | 2.7V | 00:00:00 | 01:16:01 | 00:00:00 | |
| 9A1FER-10 | 2026-09-04 12:16:49 | 45.49749 | 16.36586 | 97° | 7km/h | 19955m | 6.2m/s | -56.7°C | 4.9% | 0hPa | 2.7V | 00:00:00 | 01:16:00 | 00:00:00 | |
| 9A1FER-3 | 2026-09-04 12:16:48 | 45.49749 | 16.36584 | 92° | 7km/h | 19949m | 5.0m/s | -56.7°C | 4.9% | 0hPa | 2.7V | 00:00:00 | 01:15:59 | 00:00:00 | |
| OE3JTB-15 | 2026-09-04 12:16:47 | 45.49749 | 16.36583 | 96° | 7km/h | 19944m | 5.6m/s | -56.7°C | 4.9% | 0hPa | 2.7V | 00:00:00 | 00:00:00 | 00:00:00 | |
| PETON7-10 | 2026-09-04 12:16:46 | 45.49750 | 16.36582 | 125° | 7km/h | 19938m | 5.5m/s | -56.7°C | 4.9% | 0hPa | 2.7V | 00:00:00 | 01:15:57 | 00:00:00 | |
| 9A1FER-15 | 2026-09-04 12:16:35 | 45.49756 | 16.36557 | 84° | 7km/h | 19879m | 6.4m/s | -56.9°C | 5.1% | 0hPa | 2.7V | 00:00:00 | 01:15:46 | 00:00:00 | |
| 9A1FER-10 | 2026-09-04 12:16:34 | 45.49755 | 16.36553 | 79° | 7km/h | 19873m | 4.6m/s | -56.7°C | 5.0% | 0hPa | 2.7V | 00:00:00 | 01:15:45 | 00:00:00 | |
| 9A1FER-3 | 2026-09-04 12:16:33 | 45.49755 | 16.36550 | 72° | 7km/h | 19868m | 5.3m/s | -56.7°C | 5.1% | 0hPa | 2.6V | 00:00:00 | 01:15:44 | 00:00:00 | |
| PETON7-10 | 2026-09-04 12:16:31 | 45.49754 | 16.36546 | 101° | 7km/h | 19857m | 4.6m/s | -56.6°C | 5.0% | 0hPa | 2.6V | 00:00:00 | 00:00:00 | 08:30:00 | |
| 9A1FER-15 | 2026-09-04 12:16:20 | 45.49772 | 16.36527 | 140° | 11km/h | 19797m | 5.8m/s | -56.4°C | 4.9% | 0hPa | 2.7V | 00:00:00 | 01:15:31 | 00:00:00 | |
| 9A1FER-10 | 2026-09-04 12:16:19 | 45.49773 | 16.36526 | 135° | 11km/h | 19792m | 4.4m/s | -56.4°C | 4.9% | 0hPa | 2.7V | 00:00:00 | 01:15:30 | 00:00:00 | |
| 9A1FER-3 | 2026-09-04 12:16:18 | 45.49774 | 16.36525 | 178° | 11km/h | 19787m | 6.5m/s | -56.5°C | 4.9% | 0hPa | 2.7V | 00:00:00 | 01:15:29 | 00:00:00 | |
| PETON7-10 | 2026-09-04 12:16:16 | 45.49775 | 16.36527 | 240° | 13km/h | 19776m | 5.8m/s | -56.5°C | 5.0% | 0hPa | 2.7V | 00:00:00 | 00:00:00 | 00:00:00 | |
| OE3JTB-15 | 2026-09-04 12:16:15 | 45.49776 | 16.36528 | 212° | 13km/h | 19770m | 5.1m/s | -56.5°C | 5.0% | 0hPa | 2.7V | 00:00:00 | 01:15:26 | 00:00:00 | |
| 9A1FER-15 | 2026-09-04 12:16:05 | 45.49810 | 16.36528 | 165° | 15km/h | 19716m | 5.0m/s | -56.3°C | 4.9% | 0hPa | 2.7V | 00:00:00 | 01:15:16 | 00:00:00 | |
| 9A1FER-10 | 2026-09-04 12:16:04 | 45.49814 | 16.36526 | 168° | 13km/h | 19711m | 5.3m/s | -56.3°C | 4.9% | 0hPa | 2.7V | 00:00:00 | 01:15:15 | 00:00:00 | |
| 9A1FER-3 | 2026-09-04 12:16:03 | 45.49817 | 16.36526 | 180° | 13km/h | 19705m | 5.6m/s | -56.3°C | 4.9% | 0hPa | 2.7V | 00:00:00 | 01:15:14 | 00:00:00 | |
| PETON7-10 | 2026-09-04 12:16:01 | 45.49823 | 16.36527 | 185° | 11km/h | 19696m | 5.7m/s | -56.3°C | 4.9% | 0hPa | 2.7V | 00:00:00 | 01:15:12 | 00:00:00 | |
| OE5DRO-10 | 2026-09-04 12:15:57 | 45.49837 | 16.36527 | 183° | 11km/h | 19675m | 4.4m/s | -56.1°C | 4.9% | 0hPa | 2.7V | 00:00:00 | 00:00:00 | 00:00:00 | |
| 9A1FER-15 | 2026-09-04 12:15:50 | 45.49861 | 16.36525 | 183° | 9km/h | 19638m | 5.6m/s | -55.9°C | 4.9% | 0hPa | 2.7V | 00:00:00 | 01:15:01 | 00:00:00 | |
| 9A1FER-10 | 2026-09-04 12:15:49 | 45.49862 | 16.36525 | 226° | 9km/h | 19633m | 4.6m/s | -55.9°C | 4.9% | 0hPa | 2.7V | 00:00:00 | 01:15:00 | 00:00:00 | |
| 9A1FER-3 | 2026-09-04 12:15:48 | 45.49862 | 16.36526 | 270° | 9km/h | 19627m | 6.8m/s | -55.8°C | 4.9% | 0hPa | 2.7V | 00:00:00 | 01:14:59 | 00:00:00 | |
| PETON7-10 | 2026-09-04 12:15:46 | 45.49863 | 16.36529 | 225° | 9km/h | 19617m | 4.7m/s | -55.8°C | 4.9% | 0hPa | 2.6V | 00:00:00 | 00:00:00 | 00:00:00 | |
| OE5DRO-10 | 2026-09-04 12:15:38 | 45.49886 | 16.36520 | 165° | 9km/h | 19573m | 5.9m/s | -55.6°C | 4.8% | 0hPa | 2.7V | 00:00:00 | 00:00:00 | 00:00:00 | |
| 9A1FER-15 | 2026-09-04 12:15:35 | 45.49891 | 16.36518 | 136° | 9km/h | 19557m | 5.7m/s | -55.5°C | 4.7% | 0hPa | 2.7V | 00:00:00 | 01:14:46 | 00:00:00 | |
| 9A1FER-10 | 2026-09-04 12:15:34 | 45.49891 | 16.36518 | 89° | 9km/h | 19552m | 3.9m/s | -55.5°C | 4.7% | 0hPa | 2.7V | 00:00:00 | 01:14:45 | 00:00:00 | |
| 9A1FER-3 | 2026-09-04 12:15:33 | 45.49891 | 16.36518 | 232° | 9km/h | 19547m | 6.0m/s | -55.5°C | 4.7% | 0hPa | 2.7V | 00:00:00 | 01:14:44 | 00:00:00 | |
| PETON7-10 | 2026-09-04 12:15:31 | 45.49892 | 16.36519 | 183° | 11km/h | 19536m | 5.0m/s | -55.4°C | 4.7% | 0hPa | 2.7V | 00:00:00 | 00:00:00 | 00:00:00 | |
| OE8JPQ-2 | 2026-09-04 12:15:24 | 45.49911 | 16.36503 | 143° | 11km/h | 19499m | 4.1m/s | 0°C | 0% | 0hPa | 2.7V | 00:00:00 | 00:00:00 | 00:00:00 | |
| 9A1FER-15 | 2026-09-04 12:15:20 | 45.49920 | 16.36498 | 169° | 9km/h | 19479m | 6.1m/s | -55.0°C | 4.7% | 0hPa | 2.7V | 00:00:00 | 01:14:31 | 00:00:00 | |
| 9A1FER-10 | 2026-09-04 12:15:19 | 45.49922 | 16.36497 | 159° | 9km/h | 19473m | 5.0m/s | -55.0°C | 4.7% | 0hPa | 2.7V | 00:00:00 | 01:14:30 | 00:00:00 | |
| 9A1FER-3 | 2026-09-04 12:15:18 | 45.49925 | 16.36496 | 161° | 11km/h | 19468m | 5.6m/s | -55.0°C | 4.7% | 0hPa | 2.7V | 00:00:00 | 01:14:29 | 00:00:00 | |
| OE3JTB-15 | 2026-09-04 12:15:17 | 45.49927 | 16.36495 | 157° | 13km/h | 19462m | 5.2m/s | -54.9°C | 4.6% | 0hPa | 2.7V | 00:00:00 | 00:00:00 | 00:00:00 | |
| PETON7-10 | 2026-09-04 12:15:16 | 45.49928 | 16.36493 | 135° | 11km/h | 19457m | 5.3m/s | -54.8°C | 4.6% | 0hPa | 2.7V | 00:00:00 | 01:14:27 | 00:00:00 | |
| 9A1FER-15 | 2026-09-04 12:15:05 | 45.49938 | 16.36456 | 134° | 15km/h | 19398m | 5.6m/s | -54.8°C | 4.5% | 0hPa | 2.7V | 00:00:00 | 01:14:16 | 08:30:00 | |
| 9A1FER-10 | 2026-09-04 12:15:04 | 45.49940 | 16.36453 | 134° | 15km/h | 19393m | 4.5m/s | -54.9°C | 4.6% | 0hPa | 2.7V | 00:00:00 | 01:14:15 | 08:30:00 | |
| PETON7-10 | 2026-09-04 12:15:01 | 45.49947 | 16.36444 | 133° | 15km/h | 19377m | 3.6m/s | -54.8°C | 4.5% | 0hPa | 2.6V | 00:00:00 | 00:00:00 | 00:00:00 | |
| OE5DRO-10 | 2026-09-04 12:15:00 | 45.49950 | 16.36440 | 128° | 16km/h | 19372m | 5.7m/s | -54.8°C | 4.5% | 0hPa | 2.7V | 00:00:00 | 00:00:00 | 00:00:00 | |
| 9A1FER-15 | 2026-09-04 12:14:50 | 45.49970 | 16.36393 | 118° | 16km/h | 19319m | 5.1m/s | -55.7°C | 4.6% | 0hPa | 2.7V | 00:00:00 | 01:14:01 | 00:00:00 | |
| 9A1FER-10 | 2026-09-04 12:14:49 | 45.49971 | 16.36390 | 120° | 18km/h | 19314m | 6.2m/s | -55.7°C | 4.6% | 0hPa | 2.7V | 00:00:00 | 01:14:00 | 00:00:00 | |
| 9A1FER-3 | 2026-09-04 12:14:48 | 45.49973 | 16.36386 | 130° | 20km/h | 19308m | 4.3m/s | -55.7°C | 4.6% | 0hPa | 2.7V | 00:00:00 | 01:13:59 | 00:00:00 | |
| OE3JTB-15 | 2026-09-04 12:14:47 | 45.49979 | 16.36378 | 146° | 29km/h | 19297m | 5.6m/s | -55.6°C | 4.5% | 0hPa | 2.7V | 00:00:00 | 01:13:57 | 00:00:00 | |
| PETON7-10 | 2026-09-04 12:14:46 | 45.49979 | 16.36378 | 146° | 22km/h | 19297m | 5.6m/s | -55.6°C | 4.5% | 0hPa | 2.7V | 00:00:00 | 00:00:00 | 00:00:00 | |
| OE8JPQ-2 | 2026-09-04 12:14:43 | 45.49992 | 16.36365 | 141° | 24km/h | 19283m | 4.7m/s | 0°C | 0% | 0hPa | 2.7V | 00:00:00 | 00:00:00 | 00:00:00 | |
| OE5DRO-10 | 2026-09-04 12:14:41 | 45.50000 | 16.36357 | 155° | 26km/h | 19271m | 4.7m/s | -55.4°C | 4.3% | 0hPa | 2.7V | 00:00:00 | 00:00:00 | 00:00:00 | |
| OE5DXL-15 | 2026-09-04 12:14:40 | 45.50003 | 16.36355 | 157° | 31km/h | 19266m | 5.0m/s | -55.5°C | 4.3% | 0hPa | 2.7V | 00:00:00 | 00:00:00 | 00:00:00 | |
| 9A1FER-15 | 2026-09-04 12:14:35 | 45.50024 | 16.36339 | 160° | 27km/h | 19241m | 4.0m/s | -56.1°C | 4.4% | 0hPa | 2.7V | 00:00:00 | 01:13:46 | 00:00:00 | |
| 9A1FER-10 | 2026-09-04 12:14:34 | 45.50030 | 16.36336 | 156° | 29km/h | 19236m | 6.2m/s | -56.4°C | 4.6% | 0hPa | 2.7V | 00:00:00 | 01:13:45 | 00:00:00 | |
| 9A1FER-3 | 2026-09-04 12:14:33 | 45.50036 | 16.36332 | 153° | 29km/h | 19230m | 5.6m/s | -56.8°C | 4.8% | 0hPa | 2.7V | 00:00:00 | 01:13:44 | 00:00:00 | |
| PETON7-10 | 2026-09-04 12:14:31 | 45.50050 | 16.36321 | 158° | 29km/h | 19219m | 5.8m/s | -57.1°C | 5.0% | 0hPa | 2.7V | 00:00:00 | 01:13:42 | 00:00:00 | |
| OE5DRO-10 | 2026-09-04 12:14:21 | 45.50114 | 16.36278 | 154° | 37km/h | 19167m | 4.9m/s | -57.7°C | 5.1% | 0hPa | 2.7V | 00:00:00 | 00:00:00 | 00:00:00 | |
| 9A1FER-15 | 2026-09-04 12:14:20 | 45.50121 | 16.36273 | 153° | 35km/h | 19162m | 4.5m/s | -57.6°C | 5.1% | 0hPa | 2.7V | 00:00:00 | 01:13:31 | 00:00:00 | |
| 9A1FER-10 | 2026-09-04 12:14:19 | 45.50128 | 16.36267 | 149° | 35km/h | 19157m | 5.9m/s | -57.7°C | 5.1% | 0hPa | 2.6V | 00:00:00 | 01:13:30 | 00:00:00 | |
| 9A1FER-3 | 2026-09-04 12:14:18 | 45.50135 | 16.36261 | 146° | 35km/h | 19151m | 4.6m/s | -57.7°C | 5.1% | 0hPa | 2.6V | 00:00:00 | 01:13:29 | 00:00:00 | |
| PETON7-10 | 2026-09-04 12:14:16 | 45.50148 | 16.36249 | 152° | 37km/h | 19141m | 5.2m/s | -57.5°C | 5.1% | 0hPa | 2.6V | 00:00:00 | 00:00:00 | 08:30:00 | |
| OE3JTB-15 | 2026-09-04 12:14:14 | 45.50163 | 16.36237 | 149° | 38km/h | 19130m | 5.2m/s | -57.6°C | 5.1% | 0hPa | 2.7V | 00:00:00 | 00:00:00 | 00:00:00 | |
| OE5DXL-15 | 2026-09-04 12:14:06 | 45.50226 | 16.36183 | 148° | 40km/h | 19090m | 4.4m/s | -57.6°C | 5.2% | 0hPa | 2.7V | 00:00:00 | 00:00:00 | 00:00:00 | |
| 9A1FER-15 | 2026-09-04 12:14:05 | 45.50233 | 16.36175 | 144° | 40km/h | 19085m | 5.5m/s | -57.7°C | 5.2% | 0hPa | 2.7V | 00:00:00 | 01:13:16 | 00:00:00 | |
| 9A1FER-10 | 2026-09-04 12:14:04 | 45.50240 | 16.36167 | 141° | 40km/h | 19079m | 5.3m/s | -57.7°C | 5.2% | 0hPa | 2.7V | 00:00:00 | 01:13:15 | 00:00:00 | |
| 9A1FER-3 | 2026-09-04 12:14:03 | 45.50248 | 16.36158 | 141° | 40km/h | 19074m | 4.4m/s | -57.7°C | 5.2% | 0hPa | 2.7V | 00:00:00 | 01:13:14 | 00:00:00 | |
| PETON7-10 | 2026-09-04 12:14:01 | 45.50264 | 16.36141 | 144° | 40km/h | 19064m | 4.1m/s | -57.7°C | 5.2% | 0hPa | 2.7V | 00:00:00 | 00:00:00 | 00:00:00 | |
| OE5DRO-10 | 2026-09-04 12:13:58 | 45.50291 | 16.36113 | 145° | 42km/h | 19049m | 5.8m/s | -57.7°C | 5.1% | 0hPa | 2.7V | 00:00:00 | 00:00:00 | 00:00:00 | |
| 9A1FER-15 | 2026-09-04 12:13:50 | 45.50347 | 16.36033 | 124° | 40km/h | 19007m | 4.6m/s | -57.7°C | 5.0% | 0hPa | 2.7V | 00:00:00 | 01:13:01 | 00:00:00 | |
| 9A1FER-10 | 2026-09-04 12:13:49 | 45.50353 | 16.36021 | 125° | 38km/h | 19002m | 4.3m/s | -57.7°C | 5.0% | 0hPa | 2.7V | 00:00:00 | 01:13:00 | 00:00:00 | |
| 9A1FER-3 | 2026-09-04 12:13:48 | 45.50359 | 16.36009 | 128° | 38km/h | 18997m | 6.0m/s | -57.6°C | 5.0% | 0hPa | 2.7V | 00:00:00 | 01:12:59 | 00:00:00 | |
| PETON7-10 | 2026-09-04 12:13:46 | 45.50372 | 16.35986 | 131° | 38km/h | 18987m | 5.1m/s | -57.7°C | 5.0% | 0hPa | 2.7V | 00:00:00 | 01:12:57 | 00:00:00 | |
| OE3JTB-15 | 2026-09-04 12:13:45 | 45.50379 | 16.35975 | 129° | 37km/h | 18981m | 5.9m/s | -57.8°C | 5.0% | 0hPa | 2.7V | 00:00:00 | 00:00:00 | 00:00:00 | |
| OE5DRO-10 | 2026-09-04 12:13:37 | 45.50422 | 16.35882 | 119° | 37km/h | 18941m | 5.9m/s | -58.0°C | 5.2% | 0hPa | 2.7V | 00:00:00 | 00:00:00 | 00:00:00 | |
| OE5DXL-15 | 2026-09-04 12:13:36 | 45.50426 | 16.35870 | 118° | 35km/h | 18936m | 4.1m/s | -58.1°C | 5.2% | 0hPa | 2.7V | 00:00:00 | 00:00:00 | 00:00:00 | |
| 9A1FER-15 | 2026-09-04 12:13:35 | 45.50430 | 16.35858 | 117° | 37km/h | 18932m | 4.7m/s | -58.2°C | 5.2% | 0hPa | 2.6V | 00:00:00 | 01:12:46 | 00:00:00 | |
| 9A1FER-10 | 2026-09-04 12:13:34 | 45.50434 | 16.35845 | 115° | 37km/h | 18927m | 5.3m/s | -58.2°C | 5.2% | 0hPa | 2.6V | 00:00:00 | 01:12:45 | 00:00:00 | |
| 9A1FER-3 | 2026-09-04 12:13:33 | 45.50439 | 16.35832 | 114° | 37km/h | 18922m | 4.6m/s | -58.2°C | 5.2% | 0hPa | 2.6V | 00:00:00 | 01:12:44 | 00:00:00 | |
| PETON7-10 | 2026-09-04 12:13:31 | 45.50446 | 16.35807 | 114° | 35km/h | 18911m | 4.9m/s | -58.2°C | 5.2% | 0hPa | 2.7V | 00:00:00 | 00:00:00 | 00:00:00 | |
| 9A1FER-15 | 2026-09-04 12:13:20 | 45.50463 | 16.35668 | 87° | 31km/h | 18854m | 5.9m/s | -59.0°C | 5.5% | 0hPa | 2.6V | 00:00:00 | 01:12:31 | 00:00:00 | |
| 9A1FER-3 | 2026-09-04 12:13:18 | 45.50461 | 16.35642 | 84° | 29km/h | 18845m | 6.0m/s | -59.2°C | 5.5% | 0hPa | 2.6V | 00:00:00 | 01:12:29 | 00:00:00 | |
| PETON7-10 | 2026-09-04 12:13:16 | 45.50459 | 16.35620 | 80° | 27km/h | 18834m | 6.3m/s | -59.2°C | 5.5% | 0hPa | 2.6V | 00:00:00 | 00:00:00 | 00:00:00 | |
| OE5DXL-15 | 2026-09-04 12:13:06 | 45.50460 | 16.35515 | 93° | 18km/h | 18782m | 5.8m/s | -59.3°C | 5.7% | 0hPa | 2.6V | 00:00:00 | 00:00:00 | 00:00:00 | |
| 9A1FER-15 | 2026-09-04 12:13:05 | 45.50460 | 16.35506 | 90° | 20km/h | 18777m | 4.1m/s | -59.3°C | 5.7% | 0hPa | 2.6V | 00:00:00 | 01:12:16 | 00:00:00 | |
| 9A1FER-10 | 2026-09-04 12:13:04 | 45.50460 | 16.35498 | 90° | 18km/h | 18772m | 6.1m/s | -59.3°C | 5.7% | 0hPa | 2.6V | 00:00:00 | 01:12:15 | 00:00:00 | |
| 9A1FER-3 | 2026-09-04 12:13:03 | 45.50460 | 16.35490 | 92° | 18km/h | 18767m | 4.8m/s | -59.3°C | 5.7% | 0hPa | 2.6V | 00:00:00 | 01:12:14 | 00:00:00 | |
| PETON7-10 | 2026-09-04 12:13:01 | 45.50460 | 16.35477 | 88° | 18km/h | 18756m | 6.0m/s | -59.3°C | 5.6% | 0hPa | 2.6V | 00:00:00 | 01:12:12 | 00:00:00 | |
| OE5DRO-10 | 2026-09-04 12:12:59 | 45.50460 | 16.35463 | 93° | 18km/h | 18746m | 4.6m/s | -59.2°C | 5.7% | 0hPa | 2.6V | 00:00:00 | 00:00:00 | 00:00:00 | |
| 9A1FER-15 | 2026-09-04 12:12:50 | 45.50471 | 16.35405 | 116° | 15km/h | 18700m | 5.1m/s | -59.0°C | 5.7% | 0hPa | 2.6V | 00:00:00 | 01:12:01 | 08:30:00 | |
| 9A1FER-10 | 2026-09-04 12:12:49 | 45.50473 | 16.35399 | 117° | 15km/h | 18696m | 4.6m/s | -59.0°C | 5.7% | 0hPa | 2.6V | 00:00:00 | 01:12:00 | 08:30:00 | |
| 9A1FER-3 | 2026-09-04 12:12:48 | 45.50474 | 16.35393 | 117° | 15km/h | 18690m | 5.7m/s | -59.0°C | 5.6% | 0hPa | 2.6V | 00:00:00 | 01:11:59 | 08:30:00 | |
| PETON7-10 | 2026-09-04 12:12:46 | 45.50477 | 16.35382 | 104° | 15km/h | 18680m | 5.9m/s | -58.8°C | 5.6% | 0hPa | 2.7V | 00:00:00 | 00:00:00 | 00:00:00 | |
| OE5DRO-10 | 2026-09-04 12:12:40 | 45.50482 | 16.35349 | 105° | 13km/h | 18650m | 4.2m/s | -58.6°C | 5.5% | 0hPa | 2.6V | 00:00:00 | 00:00:00 | 00:00:00 | |
| OE5DXL-15 | 2026-09-04 12:12:36 | 45.50485 | 16.35333 | 110° | 15km/h | 18629m | 4.8m/s | 0°C | 0% | 0hPa | 2.6V | 00:00:00 | 00:00:00 | 00:00:00 | |
| 9A1FER-15 | 2026-09-04 12:12:35 | 45.50486 | 16.35329 | 110° | 13km/h | 18623m | 6.1m/s | -58.5°C | 5.4% | 0hPa | 2.6V | 00:00:00 | 01:11:46 | 00:00:00 | |
| 9A1FER-10 | 2026-09-04 12:12:34 | 45.50487 | 16.35324 | 109° | 13km/h | 18618m | 4.8m/s | -58.4°C | 5.5% | 0hPa | 2.6V | 00:00:00 | 01:11:45 | 00:00:00 | |
| 9A1FER-3 | 2026-09-04 12:12:33 | 45.50488 | 16.35319 | 115° | 13km/h | 18613m | 5.7m/s | -58.4°C | 5.4% | 0hPa | 2.6V | 00:00:00 | 01:11:44 | 00:00:00 | |
| PETON7-10 | 2026-09-04 12:12:31 | 45.50492 | 16.35308 | 118° | 13km/h | 18602m | 4.8m/s | -58.4°C | 5.4% | 0hPa | 2.6V | 00:00:00 | 00:00:00 | 00:00:00 | |
| OE5DRO-10 | 2026-09-04 12:12:21 | 45.50504 | 16.35268 | 118° | 16km/h | 18550m | 6.3m/s | -58.4°C | 5.3% | 0hPa | 2.6V | 00:00:00 | 00:00:00 | 08:30:00 | |
| 9A1FER-15 | 2026-09-04 12:12:20 | 45.50506 | 16.35265 | 120° | 15km/h | 18545m | 4.6m/s | -58.4°C | 5.3% | 0hPa | 2.6V | 00:00:00 | 01:11:31 | 00:00:00 | |
| 9A1FER-10 | 2026-09-04 12:12:19 | 45.50507 | 16.35261 | 127° | 16km/h | 18539m | 6.5m/s | -58.4°C | 5.3% | 0hPa | 2.6V | 00:00:00 | 01:11:30 | 00:00:00 | |
| 9A1FER-3 | 2026-09-04 12:12:18 | 45.50510 | 16.35257 | 130° | 16km/h | 18534m | 4.5m/s | -58.5°C | 5.4% | 0hPa | 2.6V | 00:00:00 | 01:11:29 | 00:00:00 | |
| PETON7-10 | 2026-09-04 12:12:16 | 45.50514 | 16.35249 | 134° | 16km/h | 18523m | 4.9m/s | -58.7°C | 5.5% | 0hPa | 2.6V | 00:00:00 | 01:11:27 | 00:00:00 | |
| OE3JTB-15 | 2026-09-04 12:12:15 | 45.50522 | 16.35236 | 122° | 20km/h | 18507m | 3.9m/s | -58.7°C | 5.5% | 0hPa | 2.6V | 00:00:00 | 00:00:00 | 00:00:00 | |
| OE5DXL-15 | 2026-09-04 12:12:06 | 45.50528 | 16.35196 | 117° | 18km/h | 18471m | 3.6m/s | 0°C | 0% | 0hPa | 2.6V | 00:00:00 | 00:00:00 | 00:00:00 | |
| 9A1FER-15 | 2026-09-04 12:12:05 | 45.50530 | 16.35191 | 125° | 22km/h | 18467m | 5.9m/s | -58.8°C | 5.5% | 0hPa | 2.6V | 00:00:00 | 01:11:16 | 00:00:00 | |
| 9A1FER-10 | 2026-09-04 12:12:04 | 45.50533 | 16.35185 | 128° | 22km/h | 18461m | 5.1m/s | -58.9°C | 5.6% | 0hPa | 2.6V | 00:00:00 | 01:11:15 | 00:00:00 | |
| 9A1FER-3 | 2026-09-04 12:12:03 | 45.50536 | 16.35179 | 128° | 22km/h | 18456m | 5.2m/s | -58.9°C | 5.7% | 0hPa | 2.7V | 00:00:00 | 01:11:14 | 00:00:00 | |
| OE5DRO-10 | 2026-09-04 12:12:02 | 45.50540 | 16.35173 | 124° | 22km/h | 18451m | 5.2m/s | -58.9°C | 5.7% | 0hPa | 2.7V | 00:00:00 | 00:00:00 | 00:00:00 | |
| PETON7-10 | 2026-09-04 12:12:01 | 45.50542 | 16.35167 | 118° | 22km/h | 18446m | 5.5m/s | -58.9°C | 5.7% | 0hPa | 2.7V | 00:00:00 | 00:00:00 | 08:30:00 | |
| 9A1FER-15 | 2026-09-04 12:11:50 | 45.50556 | 16.35081 | 117° | 20km/h | 18387m | 4.7m/s | -58.5°C | 5.4% | 0hPa | 2.7V | 00:00:00 | 01:11:01 | 00:00:00 | |
| 9A1FER-10 | 2026-09-04 12:11:49 | 45.50559 | 16.35074 | 121° | 20km/h | 18382m | 5.2m/s | -58.5°C | 5.4% | 0hPa | 2.7V | 00:00:00 | 01:11:00 | 00:00:00 | |
| 9A1FER-3 | 2026-09-04 12:11:48 | 45.50562 | 16.35068 | 122° | 18km/h | 18376m | 5.3m/s | -58.5°C | 5.4% | 0hPa | 2.7V | 00:00:00 | 01:10:59 | 00:00:00 | |
| PETON7-10 | 2026-09-04 12:11:46 | 45.50567 | 16.35056 | 124° | 18km/h | 18366m | 6.4m/s | -58.6°C | 5.5% | 0hPa | 2.7V | 00:00:00 | 00:00:00 | 00:00:00 | |
| OE3JTB-15 | 2026-09-04 12:11:45 | 45.50570 | 16.35050 | 122° | 16km/h | 18360m | 4.6m/s | -58.6°C | 5.4% | 0hPa | 2.7V | 00:00:00 | 01:10:56 | 00:00:00 | |
| OE5DRO-10 | 2026-09-04 12:11:43 | 45.50573 | 16.35039 | 105° | 16km/h | 18349m | 4.7m/s | -58.5°C | 5.5% | 0hPa | 2.7V | 00:00:00 | 00:00:00 | 00:00:00 | |
| 9A1FER-15 | 2026-09-04 12:11:35 | 45.50577 | 16.34983 | 101° | 15km/h | 18307m | 6.0m/s | -58.2°C | 5.3% | 0hPa | 2.7V | 00:00:00 | 01:10:46 | 00:00:00 | |
| 9A1FER-10 | 2026-09-04 12:11:34 | 45.50577 | 16.34977 | 99° | 15km/h | 18301m | 5.0m/s | -58.2°C | 5.3% | 0hPa | 2.7V | 00:00:00 | 01:10:45 | 00:00:00 | |
| 9A1FER-3 | 2026-09-04 12:11:33 | 45.50578 | 16.34972 | 102° | 15km/h | 18296m | 4.8m/s | -58.2°C | 5.2% | 0hPa | 2.7V | 00:00:00 | 01:10:44 | 00:00:00 | |
| PETON7-10 | 2026-09-04 12:11:31 | 45.50580 | 16.34962 | 109° | 15km/h | 18286m | 5.0m/s | -58.3°C | 5.3% | 0hPa | 2.7V | 00:00:00 | 01:10:42 | 00:00:00 | |
| OE5DRO-10 | 2026-09-04 12:11:24 | 45.50589 | 16.34926 | 96° | 11km/h | 18248m | 5.9m/s | -59.0°C | 5.6% | 0hPa | 2.7V | 00:00:00 | 00:00:00 | 00:00:00 | |
| 9A1FER-15 | 2026-09-04 12:11:20 | 45.50588 | 16.34908 | 81° | 11km/h | 18226m | 4.8m/s | -59.0°C | 5.7% | 0hPa | 2.6V | 00:00:00 | 01:10:31 | 00:00:00 | |
| 9A1FER-10 | 2026-09-04 12:11:19 | 45.50588 | 16.34903 | 89° | 11km/h | 18221m | 5.3m/s | -58.9°C | 5.7% | 0hPa | 2.6V | 00:00:00 | 01:10:30 | 00:00:00 | |
| 9A1FER-3 | 2026-09-04 12:11:18 | 45.50588 | 16.34899 | 95° | 11km/h | 18217m | 3.8m/s | -59.0°C | 5.8% | 0hPa | 2.7V | 00:00:00 | 01:10:29 | 00:00:00 | |
| PETON7-10 | 2026-09-04 12:11:16 | 45.50590 | 16.34892 | 124° | 11km/h | 18207m | 5.0m/s | -58.8°C | 5.7% | 0hPa | 2.6V | 00:00:00 | 00:00:00 | 00:00:00 | |
| 9A1FER-15 | 2026-09-04 12:11:05 | 45.50602 | 16.34854 | 100° | 16km/h | 18149m | 6.1m/s | -58.6°C | 5.5% | 0hPa | 2.7V | 00:00:00 | 01:10:16 | 00:00:00 | |
| 9A1FER-10 | 2026-09-04 12:11:04 | 45.50603 | 16.34850 | 110° | 16km/h | 18144m | 4.0m/s | -58.5°C | 5.5% | 0hPa | 2.7V | 00:00:00 | 01:10:15 | 00:00:00 | |
| 9A1FER-3 | 2026-09-04 12:11:03 | 45.50604 | 16.34846 | 119° | 16km/h | 18139m | 6.4m/s | -58.5°C | 5.4% | 0hPa | 2.7V | 00:00:00 | 01:10:14 | 00:00:00 | |
| PETON7-10 | 2026-09-04 12:11:01 | 45.50609 | 16.34838 | 131° | 18km/h | 18128m | 6.4m/s | -58.5°C | 5.4% | 0hPa | 2.7V | 00:00:00 | 00:00:00 | 00:00:00 | |
| 9A1FER-15 | 2026-09-04 12:10:50 | 45.50636 | 16.34782 | 103° | 24km/h | 18072m | 5.7m/s | -58.8°C | 5.5% | 0hPa | 2.7V | 00:00:00 | 01:10:01 | 00:00:00 | |
| 9A1FER-10 | 2026-09-04 12:10:49 | 45.50638 | 16.34777 | 107° | 26km/h | 18066m | 4.9m/s | -58.8°C | 5.5% | 0hPa | 2.7V | 00:00:00 | 01:10:00 | 00:00:00 | |
| 9A1FER-3 | 2026-09-04 12:10:48 | 45.50639 | 16.34771 | 110° | 24km/h | 18062m | 5.1m/s | -58.9°C | 5.5% | 0hPa | 2.7V | 00:00:00 | 01:09:59 | 00:00:00 | |
| OE5DRO-10 | 2026-09-04 12:10:46 | 45.50643 | 16.34756 | 117° | 24km/h | 18051m | 4.2m/s | -59.0°C | 5.6% | 0hPa | 2.7V | 00:00:00 | 00:00:00 | 00:00:00 | |
| 9A1FER-15 | 2026-09-04 12:10:35 | 45.50671 | 16.34660 | 105° | 20km/h | 17997m | 6.1m/s | -58.9°C | 5.5% | 0hPa | 2.7V | 00:00:00 | 01:09:46 | 08:30:00 | |
| 9A1FER-10 | 2026-09-04 12:10:34 | 45.50672 | 16.34655 | 113° | 20km/h | 17992m | 4.1m/s | -58.9°C | 5.5% | 0hPa | 2.7V | 00:00:00 | 01:09:45 | 08:30:00 | |
| 9A1FER-3 | 2026-09-04 12:10:33 | 45.50674 | 16.34650 | 115° | 20km/h | 17987m | 6.1m/s | -59.0°C | 5.5% | 0hPa | 2.6V | 00:00:00 | 01:09:44 | 08:30:00 | |
| OE5DRO-10 | 2026-09-04 12:10:27 | 45.50689 | 16.34605 | 105° | 24km/h | 17955m | 3.6m/s | -59.0°C | 5.7% | 0hPa | 2.7V | 00:00:00 | 00:00:00 | 00:00:00 | |
| 9A1FER-15 | 2026-09-04 12:10:20 | 45.50691 | 16.34556 | 79° | 20km/h | 17919m | 4.3m/s | -58.8°C | 5.6% | 0hPa | 2.7V | 00:00:00 | 01:09:31 | 00:00:00 | |
| 9A1FER-10 | 2026-09-04 12:10:19 | 45.50690 | 16.34551 | 79° | 20km/h | 17914m | 5.5m/s | -58.9°C | 5.6% | 0hPa | 2.7V | 00:00:00 | 01:09:30 | 00:00:00 | |
| 9A1FER-3 | 2026-09-04 12:10:18 | 45.50690 | 16.34544 | 77° | 20km/h | 17909m | 5.0m/s | -59.0°C | 5.7% | 0hPa | 2.7V | 00:00:00 | 01:09:29 | 00:00:00 | |
| OE3JTB-15 | 2026-09-04 12:10:17 | 45.50685 | 16.34519 | 81° | 16km/h | 17894m | 5.3m/s | -59.1°C | 5.7% | 0hPa | 2.7V | 00:00:00 | 01:09:26 | 00:00:00 | |
| OE5DRO-10 | 2026-09-04 12:10:08 | 45.50689 | 16.34460 | 114° | 16km/h | 17856m | 6.3m/s | -58.9°C | 5.8% | 0hPa | 2.7V | 00:00:00 | 00:00:00 | 00:00:00 | |
| 9A1FER-15 | 2026-09-04 12:10:05 | 45.50692 | 16.34446 | 109° | 16km/h | 17841m | 5.8m/s | -58.8°C | 5.7% | 0hPa | 2.7V | 00:00:00 | 01:09:16 | 00:00:00 | |
| 9A1FER-10 | 2026-09-04 12:10:04 | 45.50692 | 16.34442 | 101° | 16km/h | 17836m | 4.4m/s | -58.8°C | 5.7% | 0hPa | 2.7V | 00:00:00 | 01:09:15 | 00:00:00 | |
| 9A1FER-3 | 2026-09-04 12:10:03 | 45.50693 | 16.34438 | 88° | 16km/h | 17831m | 5.6m/s | -58.7°C | 5.8% | 0hPa | 2.7V | 00:00:00 | 01:09:14 | 00:00:00 | |
| 9A1FER-15 | 2026-09-04 12:09:50 | 45.50693 | 16.34354 | 87° | 20km/h | 17764m | 6.2m/s | -58.3°C | 5.5% | 0hPa | 2.7V | 00:00:00 | 01:09:01 | 00:00:00 | |
| 9A1FER-10 | 2026-09-04 12:09:49 | 45.50692 | 16.34349 | 83° | 20km/h | 17758m | 4.7m/s | -58.3°C | 5.5% | 0hPa | 2.7V | 00:00:00 | 01:09:00 | 00:00:00 | |
| 9A1FER-3 | 2026-09-04 12:09:48 | 45.50692 | 16.34345 | 90° | 20km/h | 17753m | 5.7m/s | -58.3°C | 5.5% | 0hPa | 2.7V | 00:00:00 | 01:08:59 | 00:00:00 | |
| OE5DXL-15 | 2026-09-04 12:09:42 | 45.50692 | 16.34302 | 87° | 24km/h | 17721m | 4.5m/s | 0°C | 0% | 0hPa | 2.7V | 00:00:00 | 01:08:53 | 00:00:00 | |
| 9A1FER-15 | 2026-09-04 12:09:35 | 45.50687 | 16.34246 | 82° | 24km/h | 17687m | 5.0m/s | -57.9°C | 5.4% | 0hPa | 2.7V | 00:00:00 | 01:08:46 | 00:00:00 | |
| 9A1FER-10 | 2026-09-04 12:09:34 | 45.50686 | 16.34239 | 89° | 24km/h | 17682m | 5.5m/s | -57.9°C | 5.4% | 0hPa | 2.7V | 00:00:00 | 01:08:45 | 00:00:00 | |
| 9A1FER-3 | 2026-09-04 12:09:33 | 45.50686 | 16.34232 | 91° | 26km/h | 17677m | 3.8m/s | -57.9°C | 5.4% | 0hPa | 2.7V | 00:00:00 | 01:08:44 | 00:00:00 | |
| OE5DRO-10 | 2026-09-04 12:09:30 | 45.50685 | 16.34210 | 88° | 26km/h | 17661m | 5.1m/s | -57.8°C | 5.3% | 0hPa | 2.7V | 00:00:00 | 00:00:00 | 08:30:00 | |
| 9A1FER-15 | 2026-09-04 12:09:20 | 45.50693 | 16.34119 | 105° | 27km/h | 17609m | 5.4m/s | -57.9°C | 5.4% | 0hPa | 2.7V | 00:00:00 | 01:08:31 | 00:00:00 | |
| 9A1FER-10 | 2026-09-04 12:09:19 | 45.50695 | 16.34109 | 107° | 27km/h | 17604m | 4.4m/s | -57.9°C | 5.4% | 0hPa | 2.7V | 00:00:00 | 01:08:30 | 00:00:00 | |
| 9A1FER-3 | 2026-09-04 12:09:18 | 45.50697 | 16.34099 | 104° | 26km/h | 17599m | 5.7m/s | -57.9°C | 5.4% | 0hPa | 2.7V | 00:00:00 | 01:08:29 | 00:00:00 | |
| OE5DXL-15 | 2026-09-04 12:09:12 | 45.50710 | 16.34046 | 116° | 26km/h | 17569m | 3.5m/s | 0°C | 0% | 0hPa | 2.7V | 00:00:00 | 00:00:00 | 00:00:00 | |
| 9A1FER-15 | 2026-09-04 12:09:05 | 45.50730 | 16.33988 | 114° | 24km/h | 17534m | 4.7m/s | -57.6°C | 5.2% | 0hPa | 2.7V | 00:00:00 | 01:08:16 | 00:00:00 | |
| 9A1FER-10 | 2026-09-04 12:09:04 | 45.50733 | 16.33978 | 111° | 24km/h | 17529m | 4.5m/s | -57.7°C | 5.2% | 0hPa | 2.6V | 00:00:00 | 01:08:15 | 00:00:00 | |
| 9A1FER-3 | 2026-09-04 12:09:03 | 45.50735 | 16.33969 | 108° | 24km/h | 17524m | 5.1m/s | -57.8°C | 5.4% | 0hPa | 2.7V | 00:00:00 | 01:08:14 | 00:00:00 | |
| OE5DRO-10 | 2026-09-04 12:08:52 | 45.50764 | 16.33885 | 137° | 26km/h | 17469m | 4.1m/s | -58.3°C | 5.7% | 0hPa | 2.7V | 00:00:00 | 00:00:00 | 00:00:00 | |
| 9A1FER-15 | 2026-09-04 12:08:50 | 45.50772 | 16.33875 | 133° | 24km/h | 17458m | 4.7m/s | -58.1°C | 5.6% | 0hPa | 2.7V | 00:00:00 | 01:08:01 | 00:00:00 | |
| 9A1FER-10 | 2026-09-04 12:08:49 | 45.50775 | 16.33869 | 129° | 26km/h | 17453m | 6.2m/s | -58.2°C | 5.6% | 0hPa | 2.7V | 00:00:00 | 01:08:00 | 00:00:00 | |
| 9A1FER-3 | 2026-09-04 12:08:48 | 45.50778 | 16.33863 | 126° | 26km/h | 17447m | 4.1m/s | -58.1°C | 5.5% | 0hPa | 2.7V | 00:00:00 | 01:07:59 | 00:00:00 | |
| 9A1FER-15 | 2026-09-04 12:08:35 | 45.50824 | 16.33762 | 116° | 33km/h | 17381m | 3.8m/s | -57.6°C | 5.4% | 0hPa | 2.7V | 00:00:00 | 01:07:46 | 00:00:00 | |
| 9A1FER-10 | 2026-09-04 12:08:34 | 45.50827 | 16.33752 | 114° | 33km/h | 17375m | 6.1m/s | -57.6°C | 5.4% | 0hPa | 2.7V | 00:00:00 | 01:07:45 | 00:00:00 | |
| 9A1FER-3 | 2026-09-04 12:08:33 | 45.50830 | 16.33741 | 110° | 33km/h | 17370m | 4.7m/s | -57.6°C | 5.4% | 0hPa | 2.7V | 00:00:00 | 01:07:44 | 00:00:00 | |
| 9A1FER-15 | 2026-09-04 12:08:20 | 45.50871 | 16.33602 | 105° | 37km/h | 17301m | 6.5m/s | -57.8°C | 5.6% | 0hPa | 2.7V | 00:00:00 | 01:07:31 | 08:30:00 | |
| 9A1FER-10 | 2026-09-04 12:08:19 | 45.50873 | 16.33588 | 106° | 37km/h | 17296m | 4.4m/s | -57.7°C | 5.6% | 0hPa | 2.7V | 00:00:00 | 01:07:30 | 08:30:00 | |
| 9A1FER-3 | 2026-09-04 12:08:18 | 45.50876 | 16.33574 | 104° | 37km/h | 17291m | 4.5m/s | -57.7°C | 5.5% | 0hPa | 2.7V | 00:00:00 | 01:07:29 | 08:30:00 | |
| OE5DRO-10 | 2026-09-04 12:08:14 | 45.50884 | 16.33518 | 105° | 31km/h | 17269m | 4.4m/s | -57.9°C | 5.5% | 0hPa | 2.7V | 00:00:00 | 00:00:00 | 00:00:00 | |
| 9A1FER-15 | 2026-09-04 12:08:05 | 45.50902 | 16.33407 | 100° | 27km/h | 17224m | 4.1m/s | -57.7°C | 5.3% | 0hPa | 2.7V | 00:00:00 | 01:07:16 | 00:00:00 | |
| 9A1FER-10 | 2026-09-04 12:08:04 | 45.50903 | 16.33396 | 95° | 27km/h | 17219m | 5.5m/s | -57.8°C | 5.3% | 0hPa | 2.7V | 00:00:00 | 01:07:15 | 00:00:00 | |
| 9A1FER-3 | 2026-09-04 12:08:03 | 45.50903 | 16.33385 | 91° | 27km/h | 17215m | 3.7m/s | -57.7°C | 5.3% | 0hPa | 2.7V | 00:00:00 | 01:07:14 | 00:00:00 | |
| OE5DRO-10 | 2026-09-04 12:07:52 | 45.50922 | 16.33282 | 118° | 24km/h | 17157m | 5.0m/s | -58.3°C | 5.6% | 0hPa | 2.7V | 00:00:00 | 00:00:00 | 00:00:00 | |
| 9A1FER-15 | 2026-09-04 12:07:50 | 45.50927 | 16.33265 | 110° | 22km/h | 17146m | 5.2m/s | -58.6°C | 5.7% | 0hPa | 2.7V | 00:00:00 | 01:07:01 | 00:00:00 | |
| 9A1FER-10 | 2026-09-04 12:07:49 | 45.50930 | 16.33257 | 111° | 22km/h | 17141m | 4.1m/s | -58.7°C | 5.7% | 0hPa | 2.7V | 00:00:00 | 01:07:00 | 00:00:00 | |
| 9A1FER-3 | 2026-09-04 12:07:48 | 45.50932 | 16.33250 | 114° | 22km/h | 17136m | 5.4m/s | -58.7°C | 5.7% | 0hPa | 2.7V | 00:00:00 | 01:06:59 | 00:00:00 | |
| 9A1FER-15 | 2026-09-04 12:07:35 | 45.50972 | 16.33166 | 146° | 24km/h | 17069m | 6.5m/s | -58.5°C | 5.8% | 0hPa | 2.7V | 00:00:00 | 01:06:46 | 00:00:00 | |
| 9A1FER-10 | 2026-09-04 12:07:34 | 45.50977 | 16.33160 | 145° | 24km/h | 17064m | 4.9m/s | -58.4°C | 5.7% | 0hPa | 2.7V | 00:00:00 | 01:06:45 | 00:00:00 | |
| 9A1FER-3 | 2026-09-04 12:07:33 | 45.50982 | 16.33155 | 142° | 24km/h | 17058m | 5.5m/s | -58.5°C | 5.8% | 0hPa | 2.7V | 00:00:00 | 01:06:44 | 00:00:00 | |
| OE3JTB-15 | 2026-09-04 12:07:22 | 45.51050 | 16.33102 | 156° | 26km/h | 16992m | 5.7m/s | -58.4°C | 5.7% | 0hPa | 2.7V | 00:00:00 | 01:06:31 | 00:00:00 | |
| 9A1FER-15 | 2026-09-04 12:07:20 | 45.51050 | 16.33102 | 156° | 27km/h | 16992m | 5.7m/s | -58.4°C | 5.7% | 0hPa | 2.7V | 00:00:00 | 01:06:31 | 00:00:00 | |
| 9A1FER-10 | 2026-09-04 12:07:19 | 45.51056 | 16.33097 | 154° | 27km/h | 16987m | 5.0m/s | -58.3°C | 5.7% | 0hPa | 2.7V | 00:00:00 | 01:06:30 | 00:00:00 | |
| PETON7-10 | 2026-09-04 12:07:18 | 45.51063 | 16.33092 | 154° | 27km/h | 16981m | 6.1m/s | -58.3°C | 5.7% | 0hPa | 2.7V | 00:00:00 | 01:06:29 | 00:00:00 | |
| OE5DRO-10 | 2026-09-04 12:07:14 | 45.51090 | 16.33071 | 147° | 27km/h | 16960m | 5.5m/s | -58.2°C | 5.7% | 0hPa | 2.7V | 00:00:00 | 00:00:00 | 00:00:00 | |
| 9A1FER-15 | 2026-09-04 12:07:05 | 45.51140 | 16.33026 | 149° | 27km/h | 16912m | 4.7m/s | -58.2°C | 5.5% | 0hPa | 2.7V | 00:00:00 | 01:06:16 | 00:00:00 | |
| 9A1FER-10 | 2026-09-04 12:07:04 | 45.51147 | 16.33021 | 152° | 26km/h | 16907m | 5.0m/s | -58.3°C | 5.5% | 0hPa | 2.7V | 00:00:00 | 01:06:15 | 00:00:00 | |
| 9A1FER-3 | 2026-09-04 12:07:03 | 45.51153 | 16.33016 | 150° | 26km/h | 16903m | 4.0m/s | -58.3°C | 5.6% | 0hPa | 2.7V | 00:00:00 | 01:06:14 | 00:00:00 | |
| OE5DRO-10 | 2026-09-04 12:06:55 | 45.51192 | 16.32964 | 132° | 24km/h | 16861m | 4.3m/s | -58.5°C | 5.9% | 0hPa | 2.7V | 00:00:00 | 00:00:00 | 00:00:00 | |
| 9A1FER-15 | 2026-09-04 12:06:50 | 45.51210 | 16.32927 | 126° | 24km/h | 16835m | 4.8m/s | -58.4°C | 5.9% | 0hPa | 2.7V | 00:00:00 | 01:06:01 | 00:00:00 | |
| 9A1FER-10 | 2026-09-04 12:06:49 | 45.51214 | 16.32920 | 122° | 24km/h | 16830m | 5.7m/s | -58.3°C | 5.8% | 0hPa | 2.7V | 00:00:00 | 01:06:00 | 00:00:00 | |
| 9A1FER-3 | 2026-09-04 12:06:48 | 45.51217 | 16.32912 | 119° | 24km/h | 16825m | 4.0m/s | -58.3°C | 5.8% | 0hPa | 2.7V | 00:00:00 | 01:05:59 | 00:00:00 | |
| OE5DRO-10 | 2026-09-04 12:06:36 | 45.51249 | 16.32823 | 124° | 18km/h | 16763m | 5.4m/s | -58.2°C | 5.9% | 0hPa | 2.7V | 00:00:00 | 00:00:00 | 08:30:00 | |
| 9A1FER-15 | 2026-09-04 12:06:35 | 45.51252 | 16.32815 | 123° | 18km/h | 16758m | 4.5m/s | -58.1°C | 5.8% | 0hPa | 2.7V | 00:00:00 | 01:05:46 | 00:00:00 | |
| 9A1FER-10 | 2026-09-04 12:06:34 | 45.51255 | 16.32808 | 122° | 18km/h | 16753m | 5.0m/s | -58.1°C | 5.8% | 0hPa | 2.7V | 00:00:00 | 01:05:45 | 00:00:00 | |
| 9A1FER-3 | 2026-09-04 12:06:33 | 45.51258 | 16.32802 | 117° | 18km/h | 16748m | 4.8m/s | -58.0°C | 5.8% | 0hPa | 2.7V | 00:00:00 | 01:05:44 | 00:00:00 | |
| 9A1FER-15 | 2026-09-04 12:06:20 | 45.51285 | 16.32725 | 118° | 15km/h | 16683m | 5.6m/s | -57.7°C | 5.7% | 0hPa | 2.7V | 00:00:00 | 01:05:31 | 00:00:00 | |
| 9A1FER-10 | 2026-09-04 12:06:19 | 45.51286 | 16.32720 | 114° | 15km/h | 16677m | 4.7m/s | -57.7°C | 5.7% | 0hPa | 2.7V | 00:00:00 | 01:05:30 | 00:00:00 | |
| 9A1FER-3 | 2026-09-04 12:06:18 | 45.51288 | 16.32714 | 113° | 15km/h | 16673m | 4.0m/s | -57.7°C | 5.7% | 0hPa | 2.7V | 00:00:00 | 01:05:29 | 00:00:00 | |
| OE5DRO-10 | 2026-09-04 12:06:17 | 45.51290 | 16.32708 | 114° | 15km/h | 16668m | 5.2m/s | -57.6°C | 5.7% | 0hPa | 2.7V | 00:00:00 | 00:00:00 | 00:00:00 | |
| 9A1FER-15 | 2026-09-04 12:06:05 | 45.51308 | 16.32653 | 107° | 18km/h | 16610m | 4.2m/s | -57.5°C | 5.6% | 0hPa | 2.7V | 00:00:00 | 01:05:16 | 08:30:00 | |
| 9A1FER-10 | 2026-09-04 12:06:04 | 45.51309 | 16.32649 | 109° | 18km/h | 16605m | 5.6m/s | -57.6°C | 5.6% | 0hPa | 2.7V | 00:00:00 | 01:05:15 | 08:30:00 | |
| 9A1FER-3 | 2026-09-04 12:06:03 | 45.51310 | 16.32644 | 109° | 20km/h | 16600m | 3.6m/s | -57.8°C | 5.7% | 0hPa | 2.7V | 00:00:00 | 01:05:14 | 08:30:00 | |
| PETON7-10 | 2026-09-04 12:06:02 | 45.51312 | 16.32639 | 110° | 24km/h | 16595m | 5.7m/s | -58.0°C | 5.8% | 0hPa | 2.7V | 00:00:00 | 00:00:00 | 00:00:00 | |
| OE5DRO-10 | 2026-09-04 12:05:58 | 45.51319 | 16.32615 | 122° | 27km/h | 16575m | 4.8m/s | -58.3°C | 5.9% | 0hPa | 2.7V | 00:00:00 | 00:00:00 | 00:00:00 | |
| 9A1FER-15 | 2026-09-04 12:05:50 | 45.51351 | 16.32580 | 140° | 31km/h | 16533m | 5.2m/s | -58.6°C | 6.0% | 0hPa | 2.7V | 00:00:00 | 01:05:01 | 00:00:00 | |
| 9A1FER-10 | 2026-09-04 12:05:49 | 45.51357 | 16.32572 | 133° | 31km/h | 16528m | 5.7m/s | -58.6°C | 5.9% | 0hPa | 2.7V | 00:00:00 | 01:05:00 | 00:00:00 | |
| 9A1FER-3 | 2026-09-04 12:05:48 | 45.51362 | 16.32564 | 129° | 31km/h | 16522m | 4.9m/s | -58.6°C | 6.0% | 0hPa | 2.7V | 00:00:00 | 01:04:59 | 00:00:00 | |
| PETON7-10 | 2026-09-04 12:05:45 | 45.51378 | 16.32532 | 122° | 42km/h | 16507m | 5.5m/s | -58.7°C | 6.1% | 0hPa | 2.7V | 00:00:00 | 01:04:56 | 00:00:00 | |
| OE5DRO-10 | 2026-09-04 12:05:39 | 45.51404 | 16.32477 | 130° | 29km/h | 16477m | 4.8m/s | -59.0°C | 6.1% | 0hPa | 2.7V | 00:00:00 | 00:00:00 | 00:00:00 | |
| 9A1FER-15 | 2026-09-04 12:05:35 | 45.51422 | 16.32445 | 122° | 31km/h | 16458m | 4.6m/s | -59.3°C | 6.5% | 0hPa | 2.7V | 00:00:00 | 01:04:46 | 00:00:00 | |
| 9A1FER-10 | 2026-09-04 12:05:34 | 45.51426 | 16.32436 | 119° | 31km/h | 16453m | 5.0m/s | -59.3°C | 6.5% | 0hPa | 2.7V | 00:00:00 | 01:04:45 | 00:00:00 | |
| 9A1FER-3 | 2026-09-04 12:05:33 | 45.51429 | 16.32425 | 113° | 31km/h | 16448m | 5.0m/s | -59.4°C | 6.6% | 0hPa | 2.7V | 00:00:00 | 01:04:44 | 00:00:00 | |
| 9A1FER-15 | 2026-09-04 12:05:20 | 45.51464 | 16.32292 | 116° | 33km/h | 16385m | 5.9m/s | -59.0°C | 6.4% | 0hPa | 2.7V | 00:00:00 | 01:04:31 | 00:00:00 | |
| 9A1FER-10 | 2026-09-04 12:05:19 | 45.51468 | 16.32281 | 112° | 33km/h | 16380m | 4.6m/s | -58.9°C | 6.4% | 0hPa | 2.7V | 00:00:00 | 01:04:30 | 00:00:00 | |
| 9A1FER-3 | 2026-09-04 12:05:18 | 45.51471 | 16.32271 | 113° | 31km/h | 16376m | 3.8m/s | -58.9°C | 6.3% | 0hPa | 2.7V | 00:00:00 | 01:04:29 | 00:00:00 | |
| 9A1FER-15 | 2026-09-04 12:05:05 | 45.51521 | 16.32139 | 126° | 33km/h | 16310m | 6.2m/s | -58.8°C | 6.3% | 0hPa | 2.7V | 00:00:00 | 01:04:16 | 00:00:00 | |
| 9A1FER-10 | 2026-09-04 12:05:04 | 45.51525 | 16.32130 | 124° | 35km/h | 16305m | 3.8m/s | -58.8°C | 6.3% | 0hPa | 2.7V | 00:00:00 | 01:04:15 | 00:00:00 | |
| 9A1FER-3 | 2026-09-04 12:05:03 | 45.51530 | 16.32122 | 128° | 35km/h | 16300m | 5.7m/s | -58.8°C | 6.3% | 0hPa | 2.7V | 00:00:00 | 01:04:14 | 00:00:00 | |
| OE5DRO-10 | 2026-09-04 12:05:00 | 45.51543 | 16.32097 | 128° | 37km/h | 16285m | 4.5m/s | -58.8°C | 6.2% | 0hPa | 2.7V | 00:00:00 | 00:00:00 | 00:00:00 | |
| 9A1FER-15 | 2026-09-04 12:04:50 | 45.51607 | 16.32002 | 137° | 40km/h | 16235m | 5.0m/s | -58.6°C | 6.2% | 0hPa | 2.7V | 00:00:00 | 01:04:01 | 00:00:00 | |
| 9A1FER-10 | 2026-09-04 12:04:49 | 45.51614 | 16.31992 | 139° | 40km/h | 16230m | 5.2m/s | -58.6°C | 6.2% | 0hPa | 2.7V | 00:00:00 | 01:04:00 | 00:00:00 | |
| 9A1FER-3 | 2026-09-04 12:04:48 | 45.51622 | 16.31982 | 141° | 40km/h | 16226m | 3.2m/s | -58.6°C | 6.2% | 0hPa | 2.7V | 00:00:00 | 01:03:59 | 00:00:00 | |
| OE5DRO-10 | 2026-09-04 12:04:41 | 45.51673 | 16.31923 | 141° | 46km/h | 16193m | 5.5m/s | -58.7°C | 6.3% | 0hPa | 2.7V | 00:00:00 | 00:00:00 | 00:00:00 | |
| 9A1FER-15 | 2026-09-04 12:04:35 | 45.51722 | 16.31860 | 139° | 46km/h | 16165m | 5.7m/s | -58.7°C | 6.1% | 0hPa | 2.7V | 00:00:00 | 01:03:46 | 00:00:00 | |
| 9A1FER-10 | 2026-09-04 12:04:34 | 45.51731 | 16.31849 | 141° | 46km/h | 16160m | 3.8m/s | -58.6°C | 6.1% | 0hPa | 2.7V | 00:00:00 | 01:03:45 | 00:00:00 | |
| 9A1FER-3 | 2026-09-04 12:04:33 | 45.51741 | 16.31837 | 141° | 44km/h | 16155m | 5.3m/s | -58.6°C | 6.0% | 0hPa | 2.7V | 00:00:00 | 01:03:44 | 00:00:00 | |
| PETON7-10 | 2026-09-04 12:04:25 | 45.51817 | 16.31753 | 142° | 42km/h | 16117m | 4.2m/s | -59.0°C | 6.2% | 0hPa | 2.7V | 00:00:00 | 00:00:00 | 00:00:00 | |
| OE5DRO-10 | 2026-09-04 12:04:22 | 45.51841 | 16.31725 | 140° | 44km/h | 16103m | 5.1m/s | -59.1°C | 6.3% | 0hPa | 2.7V | 00:00:00 | 00:00:00 | 00:00:00 | |
| 9A1FER-15 | 2026-09-04 12:04:20 | 45.51856 | 16.31706 | 137° | 44km/h | 16093m | 5.9m/s | -59.1°C | 6.2% | 0hPa | 2.7V | 00:00:00 | 01:03:31 | 00:00:00 | |
| 9A1FER-10 | 2026-09-04 12:04:19 | 45.51863 | 16.31696 | 136° | 44km/h | 16088m | 3.7m/s | -59.2°C | 6.2% | 0hPa | 2.7V | 00:00:00 | 01:03:30 | 00:00:00 | |
| 9A1FER-3 | 2026-09-04 12:04:18 | 45.51870 | 16.31686 | 138° | 44km/h | 16083m | 5.6m/s | -59.3°C | 6.2% | 0hPa | 2.7V | 00:00:00 | 01:03:29 | 00:00:00 | |
| 9A1FER-15 | 2026-09-04 12:04:05 | 45.51981 | 16.31546 | 130° | 44km/h | 16022m | 3.5m/s | -60.0°C | 6.8% | 0hPa | 2.7V | 00:00:00 | 01:03:16 | 00:00:00 | |
| 9A1FER-10 | 2026-09-04 12:04:04 | 45.51988 | 16.31534 | 131° | 44km/h | 16018m | 5.6m/s | -60.0°C | 6.8% | 0hPa | 2.7V | 00:00:00 | 01:03:15 | 00:00:00 | |
| 9A1FER-3 | 2026-09-04 12:04:03 | 45.51995 | 16.31522 | 132° | 44km/h | 16013m | 3.4m/s | -60.0°C | 6.7% | 0hPa | 2.7V | 00:00:00 | 01:03:14 | 00:00:00 | |
| PETON7-10 | 2026-09-04 12:03:53 | 45.52079 | 16.31414 | 141° | 46km/h | 15966m | 4.1m/s | -59.6°C | 6.5% | 0hPa | 2.7V | 00:00:00 | 00:00:00 | 00:00:00 | |
| 9A1FER-10 | 2026-09-04 12:03:49 | 45.52111 | 16.31380 | 144° | 35km/h | 15948m | 5.5m/s | -59.6°C | 6.5% | 0hPa | 2.7V | 00:00:00 | 01:03:00 | 08:30:00 | |
| 9A1FER-3 | 2026-09-04 12:03:48 | 45.52118 | 16.31373 | 142° | 35km/h | 15943m | 4.6m/s | -59.6°C | 6.5% | 0hPa | 2.7V | 00:00:00 | 01:02:59 | 08:30:00 | |
| OE5DRO-10 | 2026-09-04 12:03:44 | 45.52147 | 16.31345 | 146° | 38km/h | 15924m | 4.6m/s | -59.7°C | 6.6% | 0hPa | 2.7V | 00:00:00 | 00:00:00 | 08:30:00 | |
| 9A1FER-15 | 2026-09-04 12:03:35 | 45.52215 | 16.31286 | 148° | 44km/h | 15881m | 3.5m/s | -59.7°C | 6.5% | 0hPa | 2.7V | 00:00:00 | 01:02:46 | 00:00:00 | |
| 9A1FER-10 | 2026-09-04 12:03:34 | 45.52223 | 16.31279 | 150° | 46km/h | 15877m | 5.2m/s | -59.8°C | 6.5% | 0hPa | 2.7V | 00:00:00 | 01:02:45 | 00:00:00 | |
| 9A1FER-3 | 2026-09-04 12:03:33 | 45.52232 | 16.31271 | 151° | 46km/h | 15872m | 4.4m/s | -59.9°C | 6.5% | 0hPa | 2.7V | 00:00:00 | 01:02:44 | 00:00:00 | |
| OE5DRO-10 | 2026-09-04 12:03:25 | 45.52306 | 16.31218 | 155° | 49km/h | 15832m | 4.4m/s | -59.9°C | 6.7% | 0hPa | 2.7V | 00:00:00 | 00:00:00 | 00:00:00 | |
| 9A1FER-10 | 2026-09-04 12:03:19 | 45.52374 | 16.31162 | 149° | 49km/h | 15805m | 5.8m/s | -59.7°C | 6.6% | 0hPa | 2.7V | 00:00:00 | 01:02:30 | 00:00:00 | |
| 9A1FER-3 | 2026-09-04 12:03:18 | 45.52384 | 16.31152 | 148° | 49km/h | 15800m | 4.4m/s | -59.7°C | 6.6% | 0hPa | 2.7V | 00:00:00 | 01:02:29 | 00:00:00 | |
| OE5DRO-10 | 2026-09-04 12:03:06 | 45.52509 | 16.31045 | 146° | 47km/h | 15742m | 3.7m/s | -59.2°C | 6.5% | 0hPa | 2.7V | 00:00:00 | 00:00:00 | 00:00:00 | |
| 9A1FER-15 | 2026-09-04 12:03:05 | 45.52519 | 16.31034 | 144° | 47km/h | 15737m | 5.7m/s | -59.3°C | 6.5% | 0hPa | 2.7V | 00:00:00 | 01:02:16 | 00:00:00 | |
| 9A1FER-10 | 2026-09-04 12:03:04 | 45.52529 | 16.31023 | 144° | 47km/h | 15732m | 4.4m/s | -59.3°C | 6.5% | 0hPa | 2.7V | 00:00:00 | 01:02:15 | 00:00:00 | |
| 9A1FER-3 | 2026-09-04 12:03:03 | 45.52540 | 16.31013 | 145° | 47km/h | 15727m | 5.6m/s | -59.3°C | 6.6% | 0hPa | 2.7V | 00:00:00 | 01:02:14 | 00:00:00 | |
| OE3JTB-15 | 2026-09-04 12:02:51 | 45.52658 | 16.30903 | 143° | 49km/h | 15670m | 3.7m/s | -59.0°C | 6.4% | 0hPa | 2.7V | 00:00:00 | 00:00:00 | 00:00:00 | |
| 9A1FER-15 | 2026-09-04 12:02:50 | 45.52668 | 16.30892 | 142° | 47km/h | 15665m | 5.3m/s | -59.1°C | 6.5% | 0hPa | 2.7V | 00:00:00 | 01:02:01 | 00:00:00 | |
| 9A1FER-10 | 2026-09-04 12:02:49 | 45.52677 | 16.30882 | 140° | 47km/h | 15661m | 4.2m/s | -59.1°C | 6.5% | 0hPa | 2.7V | 00:00:00 | 01:02:00 | 00:00:00 | |
| PETON7-10 | 2026-09-04 12:02:48 | 45.52686 | 16.30871 | 141° | 47km/h | 15655m | 5.7m/s | -59.0°C | 6.4% | 0hPa | 2.7V | 00:00:00 | 00:00:00 | 00:00:00 | |
| OE5DRO-10 | 2026-09-04 12:02:47 | 45.52696 | 16.30860 | 142° | 47km/h | 15651m | 3.8m/s | -58.9°C | 6.4% | 0hPa | 2.7V | 00:00:00 | 00:00:00 | 00:00:00 | |
| 9A1FER-15 | 2026-09-04 12:02:35 | 45.52805 | 16.30731 | 138° | 51km/h | 15594m | 4.9m/s | -59.3°C | 6.7% | 0hPa | 2.7V | 00:00:00 | 01:01:46 | 00:00:00 | |
| 9A1FER-10 | 2026-09-04 12:02:34 | 45.52815 | 16.30719 | 139° | 51km/h | 15589m | 4.7m/s | -59.2°C | 6.7% | 0hPa | 2.7V | 00:00:00 | 01:01:45 | 00:00:00 | |
| 9A1FER-3 | 2026-09-04 12:02:33 | 45.52824 | 16.30708 | 139° | 53km/h | 15584m | 5.6m/s | -59.2°C | 6.7% | 0hPa | 2.7V | 00:00:00 | 01:01:44 | 00:00:00 | |
| OE5DRO-10 | 2026-09-04 12:02:28 | 45.52871 | 16.30652 | 139° | 55km/h | 15558m | 3.7m/s | -59.2°C | 6.6% | 0hPa | 2.7V | 00:00:00 | 00:00:00 | 00:00:00 | |
| OE3JTB-15 | 2026-09-04 12:02:22 | 45.52931 | 16.30574 | 138° | 44km/h | 15528m | 4.7m/s | -59.3°C | 6.8% | 0hPa | 2.7V | 00:00:00 | 01:01:33 | 00:00:00 | |
| 9A1FER-15 | 2026-09-04 12:02:20 | 45.52952 | 16.30547 | 137° | 57km/h | 15518m | 5.4m/s | -59.3°C | 6.8% | 0hPa | 2.7V | 00:00:00 | 01:01:31 | 00:00:00 | |
| 9A1FER-10 | 2026-09-04 12:02:19 | 45.52962 | 16.30533 | 137° | 57km/h | 15513m | 3.9m/s | -59.4°C | 6.8% | 0hPa | 2.7V | 00:00:00 | 01:01:30 | 00:00:00 | |
| 9A1FER-3 | 2026-09-04 12:02:18 | 45.52973 | 16.30519 | 138° | 55km/h | 15508m | 5.6m/s | -59.3°C | 6.9% | 0hPa | 2.7V | 00:00:00 | 01:01:29 | 00:00:00 | |
| OE5DRO-10 | 2026-09-04 12:02:09 | 45.53068 | 16.30395 | 138° | 49km/h | 15463m | 6.0m/s | -58.9°C | 6.8% | 0hPa | 2.7V | 00:00:00 | 00:00:00 | 00:00:00 | |
| 9A1FER-15 | 2026-09-04 12:02:05 | 45.53108 | 16.30342 | 139° | 49km/h | 15442m | 4.8m/s | -58.8°C | 6.7% | 0hPa | 2.7V | 00:00:00 | 01:01:16 | 00:00:00 | |
| 9A1FER-10 | 2026-09-04 12:02:04 | 45.53118 | 16.30331 | 142° | 47km/h | 15437m | 5.5m/s | -58.8°C | 6.7% | 0hPa | 2.7V | 00:00:00 | 01:01:15 | 00:00:00 | |
| PETON7-10 | 2026-09-04 12:02:03 | 45.53128 | 16.30320 | 142° | 47km/h | 15432m | 4.1m/s | -58.8°C | 6.7% | 0hPa | 2.7V | 00:00:00 | 00:00:00 | 00:00:00 | |
| OE5DRO-10 | 2026-09-04 12:01:50 | 45.53245 | 16.30168 | 138° | 42km/h | 15368m | 4.6m/s | -59.1°C | 6.9% | 0hPa | 2.7V | 00:00:00 | 00:00:00 | 00:00:00 | |
| 9A1FER-10 | 2026-09-04 12:01:49 | 45.53253 | 16.30158 | 138° | 42km/h | 15363m | 4.9m/s | -59.1°C | 6.9% | 0hPa | 2.7V | 00:00:00 | 01:01:00 | 00:00:00 | |
| 9A1FER-3 | 2026-09-04 12:01:48 | 45.53260 | 16.30148 | 142° | 42km/h | 15359m | 3.9m/s | -59.1°C | 6.8% | 0hPa | 2.7V | 00:00:00 | 01:00:59 | 00:00:00 | |
| 9A1FER-15 | 2026-09-04 12:01:35 | 45.53371 | 16.30037 | 141° | 47km/h | 15293m | 4.7m/s | -59.8°C | 7.3% | 0hPa | 2.7V | 00:00:00 | 01:00:46 | 08:30:00 | |
| 9A1FER-10 | 2026-09-04 12:01:34 | 45.53381 | 16.30026 | 142° | 46km/h | 15288m | 5.1m/s | -59.8°C | 7.3% | 0hPa | 2.7V | 00:00:00 | 01:00:45 | 08:30:00 | |
| PETON7-10 | 2026-09-04 12:01:33 | 45.53391 | 16.30015 | 142° | 46km/h | 15283m | 4.7m/s | 0°C | 0% | 0hPa | 2.7V | 00:00:00 | 00:00:00 | 00:00:00 | |
| OE5DRO-10 | 2026-09-04 12:01:31 | 45.53410 | 16.29993 | 142° | 44km/h | 15274m | 4.2m/s | 0°C | 0% | 0hPa | 2.7V | 00:00:00 | 00:00:00 | 00:00:00 | |
| 9A1FER-15 | 2026-09-04 12:01:20 | 45.53511 | 16.29881 | 145° | 40km/h | 15223m | 3.9m/s | -60.3°C | 8.0% | 0hPa | 2.7V | 00:00:00 | 01:00:31 | 00:00:00 | |
| 9A1FER-10 | 2026-09-04 12:01:19 | 45.53519 | 16.29872 | 145° | 38km/h | 15218m | 5.6m/s | -60.5°C | 8.2% | 0hPa | 2.7V | 00:00:00 | 01:00:30 | 00:00:00 | |
| PETON7-10 | 2026-09-04 12:01:18 | 45.53527 | 16.29864 | 148° | 38km/h | 15213m | 4.5m/s | 0°C | 0% | 0hPa | 2.7V | 00:00:00 | 00:00:00 | 00:00:00 | |
| OE5DRO-10 | 2026-09-04 12:01:12 | 45.53579 | 16.29819 | 145° | 38km/h | 15184m | 4.2m/s | 0°C | 0% | 0hPa | 2.7V | 00:00:00 | 00:00:00 | 00:00:00 | |
| 9A1FER-15 | 2026-09-04 12:01:05 | 45.53636 | 16.29766 | 157° | 40km/h | 15149m | 4.0m/s | -60.4°C | 8.2% | 0hPa | 2.7V | 00:00:00 | 01:00:16 | 00:00:00 | |
| 9A1FER-10 | 2026-09-04 12:01:04 | 45.53645 | 16.29761 | 159° | 40km/h | 15145m | 5.6m/s | -60.4°C | 8.2% | 0hPa | 2.7V | 00:00:00 | 01:00:15 | 00:00:00 | |
| 9A1FER-3 | 2026-09-04 12:01:03 | 45.53654 | 16.29756 | 160° | 42km/h | 15140m | 4.2m/s | -60.4°C | 8.3% | 0hPa | 2.7V | 00:00:00 | 01:00:14 | 00:00:00 | |
| OE3JTB-15 | 2026-09-04 12:00:56 | 45.53715 | 16.29708 | 149° | 47km/h | 15106m | 5.0m/s | -60.6°C | 8.7% | 0hPa | 2.7V | 00:00:00 | 00:00:00 | 08:30:00 | |
| 9A1FER-15 | 2026-09-04 12:00:50 | 45.53775 | 16.29675 | 167° | 46km/h | 15077m | 4.7m/s | -60.8°C | 8.9% | 0hPa | 2.7V | 00:00:00 | 01:00:01 | 00:00:00 | |
| 9A1FER-10 | 2026-09-04 12:00:49 | 45.53786 | 16.29671 | 167° | 46km/h | 15072m | 5.4m/s | -60.9°C | 9.0% | 0hPa | 2.7V | 00:00:00 | 01:00:00 | 00:00:00 | |
| PETON7-10 | 2026-09-04 12:00:48 | 45.53796 | 16.29668 | 166° | 46km/h | 15067m | 4.2m/s | 0°C | 0% | 0hPa | 2.7V | 00:00:00 | 00:00:00 | 08:30:00 | |
| 9A1FER-15 | 2026-09-04 12:00:35 | 45.53936 | 16.29591 | 167° | 49km/h | 15005m | 4.3m/s | -61.1°C | 9.6% | 0hPa | 2.7V | 00:00:00 | 00:59:46 | 00:00:00 | |
| 9A1FER-10 | 2026-09-04 12:00:34 | 45.53948 | 16.29587 | 167° | 49km/h | 15000m | 4.8m/s | -61.1°C | 9.6% | 0hPa | 2.7V | 00:00:00 | 00:59:45 | 00:00:00 | |
| 9A1FER-3 | 2026-09-04 12:00:33 | 45.53960 | 16.29582 | 165° | 49km/h | 14996m | 4.5m/s | -61.2°C | 9.7% | 0hPa | 2.7V | 00:00:00 | 00:59:44 | 00:00:00 | |
| OE3JTB-15 | 2026-09-04 12:00:22 | 45.54086 | 16.29512 | 159° | 62km/h | 14943m | 5.2m/s | -61.7°C | 9.9% | 0hPa | 2.7V | 00:00:00 | 00:00:00 | 00:00:00 | |
| 9A1FER-15 | 2026-09-04 12:00:20 | 45.54110 | 16.29497 | 157° | 62km/h | 14932m | 3.9m/s | -61.7°C | 10.1% | 0hPa | 2.7V | 00:00:00 | 00:59:31 | 00:00:00 | |
| 9A1FER-10 | 2026-09-04 12:00:19 | 45.54123 | 16.29490 | 158° | 64km/h | 14928m | 5.0m/s | -61.9°C | 10.3% | 0hPa | 2.7V | 00:00:00 | 00:59:30 | 00:00:00 | |
| PETON7-10 | 2026-09-04 12:00:18 | 45.54136 | 16.29482 | 158° | 62km/h | 14923m | 5.1m/s | 0°C | 0% | 0hPa | 2.7V | 00:00:00 | 00:59:29 | 00:00:00 | |
| 9A1FER-15 | 2026-09-04 12:00:05 | 45.54330 | 16.29360 | 157° | 68km/h | 14861m | 5.1m/s | -62.1°C | 10.9% | 0hPa | 2.7V | 00:00:00 | 00:59:16 | 00:00:00 | |
| 9A1FER-10 | 2026-09-04 12:00:04 | 45.54346 | 16.29350 | 157° | 66km/h | 14856m | 4.1m/s | -62.1°C | 10.8% | 0hPa | 2.7V | 00:00:00 | 00:59:15 | 00:00:00 | |
| PETON7-10 | 2026-09-04 12:00:03 | 45.54362 | 16.29340 | 158° | 66km/h | 14851m | 4.9m/s | 0°C | 0% | 0hPa | 2.7V | 00:00:00 | 00:00:00 | 00:00:00 | |
| OE3JTB-15 | 2026-09-04 11:59:52 | 45.54516 | 16.29195 | 145° | 64km/h | 14801m | 3.6m/s | -62.5°C | 11.7% | 0hPa | 2.7V | 00:00:00 | 00:59:03 | 00:00:00 | |
| 9A1FER-15 | 2026-09-04 11:59:50 | 45.54542 | 16.29170 | 151° | 64km/h | 14792m | 4.0m/s | -62.4°C | 11.7% | 0hPa | 2.7V | 00:00:00 | 00:59:01 | 00:00:00 | |
| 9A1FER-10 | 2026-09-04 11:59:49 | 45.54557 | 16.29159 | 152° | 64km/h | 14788m | 4.6m/s | -62.4°C | 11.8% | 0hPa | 2.7V | 00:00:00 | 00:59:00 | 00:00:00 | |
| 9A1FER-3 | 2026-09-04 11:59:48 | 45.54571 | 16.29148 | 152° | 64km/h | 14783m | 3.3m/s | -62.4°C | 11.8% | 0hPa | 2.7V | 00:00:00 | 00:58:59 | 00:00:00 | |
| PETON7-10 | 2026-09-04 11:59:43 | 45.54639 | 16.29084 | 143° | 64km/h | 14760m | 5.6m/s | 0°C | 0% | 0hPa | 2.7V | 00:00:00 | 00:00:00 | 00:00:00 | |
| 9A1FER-15 | 2026-09-04 11:59:35 | 45.54745 | 16.28983 | 151° | 64km/h | 14724m | 3.4m/s | -62.5°C | 12.1% | 0hPa | 2.7V | 00:00:00 | 00:58:46 | 00:00:00 | |
| 9A1FER-10 | 2026-09-04 11:59:34 | 45.54760 | 16.28971 | 149° | 64km/h | 14720m | 5.9m/s | -62.4°C | 12.2% | 0hPa | 2.7V | 00:00:00 | 00:58:45 | 00:00:00 | |
| 9A1FER-3 | 2026-09-04 11:59:33 | 45.54773 | 16.28959 | 148° | 64km/h | 14715m | 4.1m/s | -62.4°C | 12.2% | 0hPa | 2.7V | 00:00:00 | 00:58:44 | 00:00:00 | |
| PETON7-10 | 2026-09-04 11:59:28 | 45.54842 | 16.28897 | 148° | 64km/h | 14692m | 5.5m/s | 0°C | 0% | 0hPa | 2.7V | 00:00:00 | 00:58:39 | 00:00:00 | |
| OE3JTB-15 | 2026-09-04 11:59:21 | 45.54943 | 16.28826 | 156° | 68km/h | 14658m | 4.2m/s | -62.6°C | 13.2% | 0hPa | 2.7V | 00:00:00 | 00:00:00 | 00:00:00 | |
| 9A1FER-15 | 2026-09-04 11:59:20 | 45.54958 | 16.28816 | 155° | 66km/h | 14653m | 5.2m/s | -62.5°C | 13.2% | 0hPa | 2.7V | 00:00:00 | 00:58:31 | 08:30:00 | |
| 9A1FER-10 | 2026-09-04 11:59:19 | 45.54973 | 16.28806 | 155° | 66km/h | 14648m | 3.9m/s | -62.5°C | 13.1% | 0hPa | 2.7V | 00:00:00 | 00:58:30 | 08:30:00 | |
| 9A1FER-3 | 2026-09-04 11:59:18 | 45.54987 | 16.28797 | 154° | 68km/h | 14644m | 4.0m/s | -62.5°C | 13.1% | 0hPa | 2.7V | 00:00:00 | 00:58:29 | 08:30:00 | |
| 9A1FER-15 | 2026-09-04 11:59:05 | 45.55182 | 16.28654 | 146° | 68km/h | 14584m | 5.3m/s | -62.3°C | 14.4% | 0hPa | 2.7V | 00:00:00 | 00:58:16 | 00:00:00 | |
| 9A1FER-10 | 2026-09-04 11:59:04 | 45.55196 | 16.28640 | 144° | 68km/h | 14580m | 3.9m/s | -62.3°C | 14.5% | 0hPa | 2.7V | 00:00:00 | 00:58:15 | 00:00:00 | |
| 9A1FER-3 | 2026-09-04 11:59:03 | 45.55209 | 16.28625 | 143° | 68km/h | 14575m | 5.3m/s | -62.3°C | 14.7% | 0hPa | 2.7V | 00:00:00 | 00:58:14 | 00:00:00 | |
| OE3JTB-15 | 2026-09-04 11:58:52 | 45.55366 | 16.28473 | 147° | 66km/h | 14525m | 4.6m/s | -62.0°C | 15.7% | 0hPa | 2.7V | 00:00:00 | 00:00:00 | 00:00:00 | |
| 9A1FER-15 | 2026-09-04 11:58:50 | 45.55395 | 16.28446 | 147° | 68km/h | 14515m | 5.7m/s | -61.9°C | 15.9% | 0hPa | 2.7V | 00:00:00 | 00:58:01 | 00:00:00 | |
| 9A1FER-10 | 2026-09-04 11:58:49 | 45.55410 | 16.28432 | 148° | 68km/h | 14510m | 4.1m/s | -61.9°C | 16.3% | 0hPa | 2.7V | 00:00:00 | 00:58:00 | 00:00:00 | |
| 9A1FER-3 | 2026-09-04 11:58:48 | 45.55424 | 16.28419 | 147° | 68km/h | 14506m | 4.5m/s | -61.9°C | 16.5% | 0hPa | 2.7V | 00:00:00 | 00:57:59 | 00:00:00 | |
| 9A1FER-15 | 2026-09-04 11:58:35 | 45.55605 | 16.28243 | 147° | 64km/h | 14448m | 3.4m/s | -62.4°C | 20.3% | 0hPa | 2.7V | 00:00:00 | 00:57:46 | 00:00:00 | |
| 9A1FER-10 | 2026-09-04 11:58:34 | 45.55619 | 16.28230 | 146° | 64km/h | 14443m | 5.3m/s | -62.4°C | 20.5% | 0hPa | 2.7V | 00:00:00 | 00:57:45 | 00:00:00 | |
| 9A1FER-3 | 2026-09-04 11:58:33 | 45.55633 | 16.28216 | 146° | 64km/h | 14439m | 3.9m/s | -62.4°C | 20.9% | 0hPa | 2.7V | 00:00:00 | 00:57:44 | 00:00:00 | |
| OE3JTB-15 | 2026-09-04 11:58:23 | 45.55764 | 16.28079 | 145° | 62km/h | 14392m | 4.8m/s | -62.7°C | 25.3% | 0hPa | 2.7V | 00:00:00 | 00:57:34 | 00:00:00 | |
| 9A1FER-15 | 2026-09-04 11:58:20 | 45.55802 | 16.28042 | 147° | 60km/h | 14378m | 3.5m/s | -63.0°C | 26.9% | 0hPa | 2.7V | 00:00:00 | 00:57:31 | 00:00:00 | |
| 9A1FER-10 | 2026-09-04 11:58:19 | 45.55816 | 16.28030 | 150° | 60km/h | 14373m | 5.8m/s | -63.1°C | 27.4% | 0hPa | 2.7V | 00:00:00 | 00:57:30 | 00:00:00 | |
| 9A1FER-3 | 2026-09-04 11:58:18 | 45.55829 | 16.28019 | 153° | 60km/h | 14368m | 4.8m/s | -63.1°C | 27.9% | 0hPa | 2.7V | 00:00:00 | 00:57:29 | 00:00:00 | |
| 9A1FER-15 | 2026-09-04 11:58:05 | 45.56003 | 16.27889 | 153° | 66km/h | 14306m | 4.8m/s | -64.1°C | 34.8% | 0hPa | 2.7V | 00:00:00 | 00:57:16 | 00:00:00 | |
| 9A1FER-10 | 2026-09-04 11:58:04 | 45.56017 | 16.27878 | 152° | 68km/h | 14302m | 3.4m/s | -64.2°C | 35.0% | 0hPa | 2.7V | 00:00:00 | 00:57:15 | 00:00:00 | |
| 9A1FER-3 | 2026-09-04 11:58:03 | 45.56031 | 16.27866 | 151° | 68km/h | 14298m | 5.3m/s | -64.4°C | 35.5% | 0hPa | 2.7V | 00:00:00 | 00:57:14 | 00:00:00 | |
| OE3JTB-15 | 2026-09-04 11:57:54 | 45.56160 | 16.27764 | 155° | 75km/h | 14256m | 6.0m/s | -65.7°C | 43.0% | 0hPa | 2.7V | 00:00:00 | 00:00:00 | 00:00:00 | |
| 9A1FER-15 | 2026-09-04 11:57:50 | 45.56225 | 16.27717 | 150° | 75km/h | 14237m | 4.5m/s | -66.5°C | 47.8% | 0hPa | 2.7V | 00:00:00 | 00:57:01 | 00:00:00 | |
| 9A1FER-10 | 2026-09-04 11:57:49 | 45.56242 | 16.27702 | 149° | 75km/h | 14232m | 5.0m/s | -66.6°C | 48.6% | 0hPa | 2.7V | 00:00:00 | 00:57:00 | 00:00:00 | |
| 9A1FER-3 | 2026-09-04 11:57:48 | 45.56260 | 16.27687 | 149° | 73km/h | 14227m | 4.1m/s | -66.8°C | 49.8% | 0hPa | 2.7V | 00:00:00 | 00:56:59 | 00:00:00 | |
| 9A1FER-15 | 2026-09-04 11:57:35 | 45.56464 | 16.27503 | 148° | 77km/h | 14163m | 5.7m/s | -66.9°C | 52.7% | 0hPa | 2.7V | 00:00:00 | 00:56:46 | 00:00:00 | |
| 9A1FER-10 | 2026-09-04 11:57:34 | 45.56480 | 16.27489 | 148° | 77km/h | 14158m | 4.4m/s | -66.9°C | 53.1% | 0hPa | 2.7V | 00:00:00 | 00:56:45 | 00:00:00 | |
| 9A1FER-3 | 2026-09-04 11:57:33 | 45.56496 | 16.27475 | 150° | 77km/h | 14153m | 6.1m/s | -66.9°C | 53.4% | 0hPa | 2.7V | 00:00:00 | 00:56:44 | 00:00:00 | |
| 9A1FER-15 | 2026-09-04 11:57:20 | 45.56720 | 16.27309 | 154° | 84km/h | 14089m | 6.0m/s | -67.3°C | 59.3% | 0hPa | 2.7V | 00:00:00 | 00:56:31 | 00:00:00 | |
| 9A1FER-10 | 2026-09-04 11:57:19 | 45.56738 | 16.27297 | 155° | 84km/h | 14084m | 3.7m/s | -67.4°C | 60.1% | 0hPa | 2.7V | 00:00:00 | 00:56:30 | 00:00:00 | |
| 9A1FER-3 | 2026-09-04 11:57:18 | 45.56757 | 16.27284 | 154° | 84km/h | 14078m | 6.8m/s | -67.4°C | 60.1% | 0hPa | 2.7V | 00:00:00 | 00:56:29 | 00:00:00 | |
| 9A1FER-15 | 2026-09-04 11:57:05 | 45.57003 | 16.27102 | 152° | 80km/h | 14011m | 3.4m/s | -67.0°C | 61.7% | 0hPa | 2.7V | 00:00:00 | 00:56:16 | 08:30:00 | |
| 9A1FER-10 | 2026-09-04 11:57:04 | 45.57021 | 16.27088 | 153° | 80km/h | 14006m | 5.9m/s | -67.0°C | 61.4% | 0hPa | 2.7V | 00:00:00 | 00:56:15 | 08:30:00 | |
| 9A1FER-3 | 2026-09-04 11:57:03 | 45.57039 | 16.27075 | 153° | 80km/h | 14001m | 3.6m/s | -67.0°C | 62.0% | 0hPa | 2.7V | 00:00:00 | 00:56:14 | 08:30:00 | |
| OE3JTB-15 | 2026-09-04 11:56:56 | 45.57167 | 16.26980 | 153° | 77km/h | 13967m | 5.0m/s | -66.9°C | 63.5% | 0hPa | 2.7V | 00:00:00 | 00:56:07 | 00:00:00 | |
| 9A1FER-15 | 2026-09-04 11:56:50 | 45.57271 | 16.26903 | 153° | 77km/h | 13937m | 6.0m/s | -66.7°C | 63.8% | 0hPa | 2.7V | 00:00:00 | 00:56:01 | 00:00:00 | |
| 9A1FER-10 | 2026-09-04 11:56:49 | 45.57289 | 16.26889 | 153° | 75km/h | 13932m | 3.6m/s | -66.7°C | 63.8% | 0hPa | 2.7V | 00:00:00 | 00:56:00 | 00:00:00 | |
| 9A1FER-3 | 2026-09-04 11:56:48 | 45.57307 | 16.26876 | 154° | 75km/h | 13928m | 5.3m/s | -66.7°C | 63.8% | 0hPa | 2.7V | 00:00:00 | 00:55:59 | 00:00:00 | |
| 9A1FER-15 | 2026-09-04 11:56:35 | 45.57528 | 16.26720 | 155° | 75km/h | 13864m | 5.1m/s | -66.7°C | 66.4% | 0hPa | 2.7V | 00:00:00 | 00:55:46 | 00:00:00 | |
| 9A1FER-10 | 2026-09-04 11:56:34 | 45.57545 | 16.26708 | 156° | 75km/h | 13859m | 3.7m/s | -66.7°C | 66.8% | 0hPa | 2.7V | 00:00:00 | 00:55:45 | 00:00:00 | |
| 9A1FER-3 | 2026-09-04 11:56:33 | 45.57563 | 16.26697 | 155° | 75km/h | 13854m | 5.2m/s | -66.7°C | 67.1% | 0hPa | 2.7V | 00:00:00 | 00:55:44 | 00:00:00 | |
| OE3JTB-15 | 2026-09-04 11:56:27 | 45.57665 | 16.26626 | 154° | 73km/h | 13826m | 3.8m/s | -67.1°C | 71.0% | 0hPa | 2.7V | 00:00:00 | 00:00:00 | 08:30:00 | |
| 9A1FER-15 | 2026-09-04 11:56:20 | 45.57783 | 16.26542 | 153° | 75km/h | 13792m | 5.5m/s | -66.9°C | 71.0% | 0hPa | 2.7V | 00:00:00 | 00:55:31 | 00:00:00 | |
| 9A1FER-10 | 2026-09-04 11:56:19 | 45.57801 | 16.26528 | 153° | 73km/h | 13788m | 3.3m/s | -66.8°C | 70.7% | 0hPa | 2.7V | 00:00:00 | 00:55:30 | 00:00:00 | |
| 9A1FER-3 | 2026-09-04 11:56:18 | 45.57819 | 16.26515 | 153° | 73km/h | 13783m | 5.2m/s | -66.8°C | 70.8% | 0hPa | 2.7V | 00:00:00 | 00:55:29 | 00:00:00 | |
| PETON7-10 | 2026-09-04 11:56:07 | 45.57996 | 16.26372 | 151° | 68km/h | 13727m | 4.5m/s | 0°C | 0% | 0hPa | 2.7V | 00:00:00 | 00:00:00 | 00:00:00 | |
| 9A1FER-15 | 2026-09-04 11:56:05 | 45.58027 | 16.26347 | 152° | 68km/h | 13716m | 4.4m/s | -66.4°C | 67.7% | 0hPa | 2.7V | 00:00:00 | 00:55:16 | 00:00:00 | |
| 9A1FER-10 | 2026-09-04 11:56:04 | 45.58043 | 16.26335 | 150° | 68km/h | 13711m | 5.1m/s | -66.2°C | 68.0% | 0hPa | 2.7V | 00:00:00 | 00:55:15 | 00:00:00 | |
| 9A1FER-3 | 2026-09-04 11:56:03 | 45.58058 | 16.26322 | 150° | 68km/h | 13707m | 3.4m/s | -66.2°C | 67.9% | 0hPa | 2.7V | 00:00:00 | 00:55:14 | 00:00:00 | |
| OE3JTB-15 | 2026-09-04 11:55:58 | 45.58132 | 16.26258 | 150° | 62km/h | 13682m | 4.9m/s | -66.1°C | 67.3% | 0hPa | 2.7V | 00:00:00 | 00:00:00 | 00:00:00 | |
| PETON7-10 | 2026-09-04 11:55:52 | 45.58220 | 16.26186 | 150° | 64km/h | 13652m | 5.8m/s | 0°C | 0% | 0hPa | 2.7V | 00:00:00 | 00:00:00 | 00:00:00 | |
| 9A1FER-15 | 2026-09-04 11:55:50 | 45.58249 | 16.26163 | 151° | 62km/h | 13641m | 6.0m/s | -66.0°C | 68.0% | 0hPa | 2.7V | 00:00:00 | 00:55:01 | 00:00:00 | |
| 9A1FER-10 | 2026-09-04 11:55:49 | 45.58263 | 16.26151 | 152° | 62km/h | 13636m | 3.7m/s | -66.0°C | 67.9% | 0hPa | 2.7V | 00:00:00 | 00:55:00 | 00:00:00 | |
| 9A1FER-3 | 2026-09-04 11:55:48 | 45.58277 | 16.26140 | 150° | 62km/h | 13631m | 6.3m/s | -66.0°C | 66.8% | 0hPa | 2.7V | 00:00:00 | 00:54:59 | 00:00:00 | |
| PETON7-10 | 2026-09-04 11:55:36 | 45.58447 | 16.26019 | 158° | 58km/h | 13570m | 6.0m/s | 0°C | 0% | 0hPa | 2.7V | 00:00:00 | 00:54:47 | 00:00:00 | |
| 9A1FER-15 | 2026-09-04 11:55:35 | 45.58460 | 16.26012 | 158° | 57km/h | 13565m | 4.0m/s | -65.6°C | 66.9% | 0hPa | 2.7V | 00:00:00 | 00:54:46 | 00:00:00 | |
| 9A1FER-10 | 2026-09-04 11:55:34 | 45.58473 | 16.26004 | 158° | 57km/h | 13560m | 6.3m/s | -65.5°C | 66.1% | 0hPa | 2.7V | 00:00:00 | 00:54:45 | 00:00:00 | |
| 9A1FER-3 | 2026-09-04 11:55:33 | 45.58486 | 16.25997 | 158° | 57km/h | 13554m | 4.2m/s | -65.5°C | 65.5% | 0hPa | 2.7V | 00:00:00 | 00:54:44 | 00:00:00 | |
| OE3JTB-15 | 2026-09-04 11:55:29 | 45.58534 | 16.25963 | 157° | 57km/h | 13534m | 4.5m/s | -65.5°C | 64.8% | 0hPa | 2.7V | 00:00:00 | 00:54:40 | 00:00:00 | |
| 9A1FER-15 | 2026-09-04 11:55:20 | 45.58659 | 16.25898 | 162° | 55km/h | 13487m | 6.0m/s | -65.2°C | 61.1% | 0hPa | 2.7V | 00:00:00 | 00:54:31 | 00:00:00 | |
| 9A1FER-10 | 2026-09-04 11:55:19 | 45.58671 | 16.25892 | 163° | 55km/h | 13481m | 5.5m/s | -65.2°C | 62.2% | 0hPa | 2.7V | 00:00:00 | 00:54:30 | 00:00:00 | |
| 9A1FER-3 | 2026-09-04 11:55:18 | 45.58683 | 16.25888 | 165° | 55km/h | 13475m | 6.2m/s | -65.1°C | 62.5% | 0hPa | 2.7V | 00:00:00 | 00:54:29 | 00:00:00 | |
| 9A1FER-15 | 2026-09-04 11:55:05 | 45.58861 | 16.25836 | 173° | 57km/h | 13408m | 3.2m/s | -64.6°C | 60.5% | 0hPa | 2.7V | 00:00:00 | 00:54:16 | 00:00:00 | |
| 9A1FER-10 | 2026-09-04 11:55:04 | 45.58875 | 16.25834 | 173° | 57km/h | 13404m | 5.5m/s | -64.7°C | 59.9% | 0hPa | 2.7V | 00:00:00 | 00:54:15 | 00:00:00 | |
| 9A1FER-3 | 2026-09-04 11:55:03 | 45.58889 | 16.25831 | 173° | 57km/h | 13398m | 5.1m/s | -64.6°C | 59.4% | 0hPa | 2.7V | 00:00:00 | 00:54:14 | 00:00:00 | |
| OE3JTB-15 | 2026-09-04 11:55:00 | 45.58932 | 16.25823 | 174° | 60km/h | 13383m | 4.8m/s | -64.5°C | 58.3% | 0hPa | 2.7V | 00:00:00 | 00:00:00 | 00:00:00 | |
| PETON7-10 | 2026-09-04 11:54:53 | 45.59033 | 16.25824 | 184° | 58km/h | 13346m | 4.8m/s | 0°C | 0% | 0hPa | 2.7V | 00:00:00 | 00:00:00 | 00:00:00 | |
| 9A1FER-15 | 2026-09-04 11:54:50 | 45.59077 | 16.25825 | 181° | 60km/h | 13332m | 4.4m/s | -64.2°C | 57.4% | 0hPa | 2.7V | 00:00:00 | 00:54:01 | 08:30:00 | |
| 9A1FER-10 | 2026-09-04 11:54:49 | 45.59092 | 16.25825 | 182° | 60km/h | 13326m | 6.6m/s | -64.2°C | 57.3% | 0hPa | 2.7V | 00:00:00 | 00:54:00 | 08:30:00 | |
| 9A1FER-3 | 2026-09-04 11:54:48 | 45.59107 | 16.25826 | 183° | 60km/h | 13321m | 3.5m/s | -64.2°C | 57.1% | 0hPa | 2.7V | 00:00:00 | 00:53:59 | 08:30:00 | |
| 9A1FER-15 | 2026-09-04 11:54:35 | 45.59305 | 16.25845 | 186° | 68km/h | 13250m | 5.2m/s | -64.5°C | 52.5% | 0hPa | 2.9V | 00:00:00 | 00:53:46 | 00:00:00 | |
| 9A1FER-10 | 2026-09-04 11:54:34 | 45.59321 | 16.25847 | 184° | 69km/h | 13245m | 5.8m/s | -64.6°C | 52.9% | 0hPa | 2.9V | 00:00:00 | 00:53:45 | 00:00:00 | |
| 9A1FER-3 | 2026-09-04 11:54:33 | 45.59337 | 16.25848 | 185° | 69km/h | 13239m | 4.7m/s | -65.0°C | 55.0% | 0hPa | 2.9V | 00:00:00 | 00:53:44 | 00:00:00 | |
| OE3JTB-15 | 2026-09-04 11:54:31 | 45.59370 | 16.25853 | 186° | 69km/h | 13230m | 3.4m/s | -65.0°C | 55.6% | 0hPa | 2.9V | 00:00:00 | 00:00:00 | 00:00:00 | |
| 9A1FER-15 | 2026-09-04 11:54:20 | 45.59564 | 16.25861 | 181° | 71km/h | 13177m | 4.4m/s | -64.8°C | 57.4% | 0hPa | 2.9V | 00:00:00 | 00:53:31 | 00:00:00 | |
| 9A1FER-10 | 2026-09-04 11:54:19 | 45.59582 | 16.25861 | 180° | 69km/h | 13172m | 4.9m/s | -64.7°C | 56.9% | 0hPa | 2.9V | 00:00:00 | 00:53:30 | 00:00:00 | |
| 9A1FER-3 | 2026-09-04 11:54:18 | 45.59601 | 16.25860 | 179° | 69km/h | 13167m | 5.0m/s | -64.7°C | 57.1% | 0hPa | 2.9V | 00:00:00 | 00:53:29 | 00:00:00 | |
| 9A1FER-15 | 2026-09-04 11:54:05 | 45.59831 | 16.25858 | 178° | 73km/h | 13107m | 4.1m/s | -64.6°C | 60.3% | 0hPa | 2.9V | 00:00:00 | 00:53:16 | 00:00:00 | |
| 9A1FER-10 | 2026-09-04 11:54:04 | 45.59849 | 16.25857 | 179° | 75km/h | 13102m | 5.8m/s | -64.5°C | 60.2% | 0hPa | 2.7V | 00:00:00 | 00:53:15 | 00:00:00 | |
| 9A1FER-3 | 2026-09-04 11:54:03 | 45.59866 | 16.25856 | 179° | 75km/h | 13097m | 3.7m/s | -64.5°C | 60.2% | 0hPa | 2.7V | 00:00:00 | 00:53:14 | 00:00:00 | |
| OE3JTB-15 | 2026-09-04 11:54:02 | 45.59884 | 16.25855 | 177° | 73km/h | 13092m | 5.5m/s | -64.5°C | 60.0% | 0hPa | 2.7V | 00:00:00 | 00:53:13 | 00:00:00 | |
| 9A1FER-15 | 2026-09-04 11:53:50 | 45.60111 | 16.25821 | 174° | 73km/h | 13032m | 4.5m/s | -64.2°C | 60.6% | 0hPa | 2.7V | 00:00:00 | 00:53:01 | 00:00:00 | |
| 9A1FER-10 | 2026-09-04 11:53:49 | 45.60130 | 16.25818 | 175° | 73km/h | 13027m | 5.7m/s | -64.1°C | 59.8% | 0hPa | 2.7V | 00:00:00 | 00:53:00 | 00:00:00 | |
| 9A1FER-3 | 2026-09-04 11:53:48 | 45.60149 | 16.25815 | 173° | 73km/h | 13021m | 6.0m/s | -64.1°C | 59.6% | 0hPa | 2.7V | 00:00:00 | 00:52:59 | 00:00:00 | |
| 9A1FER-15 | 2026-09-04 11:53:35 | 45.60384 | 16.25758 | 170° | 71km/h | 12949m | 6.3m/s | -63.4°C | 59.7% | 0hPa | 2.7V | 00:00:00 | 00:52:46 | 00:00:00 | |
| 9A1FER-10 | 2026-09-04 11:53:34 | 45.60403 | 16.25753 | 168° | 71km/h | 12943m | 5.8m/s | -63.4°C | 59.9% | 0hPa | 2.7V | 00:00:00 | 00:52:45 | 00:00:00 | |
| 9A1FER-3 | 2026-09-04 11:53:33 | 45.60421 | 16.25747 | 167° | 71km/h | 12938m | 4.7m/s | -63.3°C | 59.1% | 0hPa | 2.7V | 00:00:00 | 00:52:44 | 00:00:00 | |
| 9A1FER-15 | 2026-09-04 11:53:20 | 45.60649 | 16.25663 | 168° | 71km/h | 12875m | 5.7m/s | -62.7°C | 55.9% | 0hPa | 2.7V | 00:00:00 | 00:52:31 | 00:00:00 | |
| 9A1FER-10 | 2026-09-04 11:53:19 | 45.60666 | 16.25657 | 167° | 71km/h | 12870m | 3.3m/s | -62.7°C | 55.8% | 0hPa | 2.7V | 00:00:00 | 00:52:30 | 00:00:00 | |
| 9A1FER-3 | 2026-09-04 11:53:18 | 45.60683 | 16.25651 | 166° | 71km/h | 12866m | 4.9m/s | -62.6°C | 55.7% | 0hPa | 2.9V | 00:00:00 | 00:52:29 | 00:00:00 | |
| 9A1FER-15 | 2026-09-04 11:53:05 | 45.60909 | 16.25568 | 166° | 71km/h | 12806m | 4.8m/s | -62.1°C | 55.2% | 0hPa | 2.9V | 00:00:00 | 00:52:16 | 00:00:00 | |
| 9A1FER-10 | 2026-09-04 11:53:04 | 45.60925 | 16.25562 | 166° | 73km/h | 12801m | 4.0m/s | -62.1°C | 54.5% | 0hPa | 2.9V | 00:00:00 | 00:52:15 | 00:00:00 | |
| 9A1FER-3 | 2026-09-04 11:53:03 | 45.60942 | 16.25556 | 167° | 73km/h | 12796m | 5.3m/s | -62.0°C | 54.4% | 0hPa | 2.9V | 00:00:00 | 00:52:14 | 00:00:00 | |
| 9A1FER-15 | 2026-09-04 11:52:50 | 45.61173 | 16.25469 | 169° | 73km/h | 12737m | 4.4m/s | -61.7°C | 57.3% | 0hPa | 2.9V | 00:00:00 | 00:52:01 | 00:00:00 | |
| 9A1FER-10 | 2026-09-04 11:52:49 | 45.61192 | 16.25463 | 169° | 73km/h | 12733m | 3.7m/s | -61.7°C | 57.7% | 0hPa | 2.9V | 00:00:00 | 00:52:00 | 00:00:00 | |
| 9A1FER-3 | 2026-09-04 11:52:48 | 45.61210 | 16.25457 | 168° | 73km/h | 12729m | 4.6m/s | -61.7°C | 58.1% | 0hPa | 2.9V | 00:00:00 | 00:51:59 | 00:00:00 | |
| 9A1FER-15 | 2026-09-04 11:52:35 | 45.61444 | 16.25382 | 165° | 69km/h | 12670m | 4.4m/s | -61.2°C | 55.1% | 0hPa | 2.9V | 00:00:00 | 00:51:46 | 08:30:00 | |
| 9A1FER-10 | 2026-09-04 11:52:34 | 45.61461 | 16.25376 | 165° | 69km/h | 12666m | 4.7m/s | -61.2°C | 55.1% | 0hPa | 2.9V | 00:00:00 | 00:51:45 | 08:30:00 | |
| 9A1FER-3 | 2026-09-04 11:52:33 | 45.61477 | 16.25369 | 165° | 69km/h | 12661m | 4.8m/s | -61.1°C | 55.1% | 0hPa | 2.7V | 00:00:00 | 00:51:44 | 08:30:00 | |
| 9A1FER-15 | 2026-09-04 11:52:20 | 45.61701 | 16.25300 | 169° | 69km/h | 12601m | 3.8m/s | -60.6°C | 55.4% | 0hPa | 2.9V | 00:00:00 | 00:51:31 | 00:00:00 | |
| 9A1FER-10 | 2026-09-04 11:52:19 | 45.61717 | 16.25296 | 169° | 69km/h | 12596m | 5.7m/s | -60.6°C | 55.5% | 0hPa | 2.9V | 00:00:00 | 00:51:30 | 00:00:00 | |
| 9A1FER-3 | 2026-09-04 11:52:18 | 45.61732 | 16.25291 | 169° | 69km/h | 12591m | 3.7m/s | -60.5°C | 55.7% | 0hPa | 2.9V | 00:00:00 | 00:51:29 | 00:00:00 | |
| OE3JTB-15 | 2026-09-04 11:52:06 | 45.61946 | 16.25231 | 166° | 69km/h | 12539m | 4.4m/s | -60.2°C | 60.4% | 0hPa | 2.9V | 00:00:00 | 00:00:00 | 08:30:00 | |
| 9A1FER-15 | 2026-09-04 11:52:05 | 45.61962 | 16.25225 | 165° | 71km/h | 12534m | 4.8m/s | -60.1°C | 61.2% | 0hPa | 2.9V | 00:00:00 | 00:51:16 | 00:00:00 | |
| 9A1FER-10 | 2026-09-04 11:52:04 | 45.61977 | 16.25219 | 166° | 71km/h | 12529m | 4.2m/s | -60.1°C | 61.4% | 0hPa | 2.9V | 00:00:00 | 00:51:15 | 00:00:00 | |
| 9A1FER-3 | 2026-09-04 11:52:03 | 45.61992 | 16.25214 | 169° | 71km/h | 12525m | 4.8m/s | -60.0°C | 61.5% | 0hPa | 2.9V | 00:00:00 | 00:51:14 | 00:00:00 | |
| 9A1FER-15 | 2026-09-04 11:51:50 | 45.62225 | 16.25155 | 171° | 66km/h | 12448m | 7.5m/s | -59.4°C | 56.1% | 0hPa | 2.9V | 00:00:00 | 00:51:01 | 00:00:00 | |
| 9A1FER-10 | 2026-09-04 11:51:49 | 45.62240 | 16.25152 | 173° | 66km/h | 12441m | 6.7m/s | -59.3°C | 56.5% | 0hPa | 2.9V | 00:00:00 | 00:51:00 | 00:00:00 | |
| 9A1FER-3 | 2026-09-04 11:51:48 | 45.62254 | 16.25149 | 169° | 66km/h | 12435m | 6.0m/s | -59.3°C | 57.0% | 0hPa | 2.7V | 00:00:00 | 00:50:59 | 00:00:00 | |
| OE3JTB-15 | 2026-09-04 11:51:37 | 45.62434 | 16.25053 | 166° | 64km/h | 12363m | 7.3m/s | -58.7°C | 56.0% | 0hPa | 2.9V | 00:00:00 | 00:00:00 | 00:00:00 | |
| 9A1FER-15 | 2026-09-04 11:51:35 | 45.62463 | 16.25042 | 166° | 62km/h | 12349m | 6.5m/s | -58.5°C | 54.6% | 0hPa | 2.9V | 00:00:00 | 00:50:46 | 00:00:00 | |
| 9A1FER-10 | 2026-09-04 11:51:34 | 45.62477 | 16.25037 | 169° | 64km/h | 12341m | 8.3m/s | -58.5°C | 55.0% | 0hPa | 2.9V | 00:00:00 | 00:50:45 | 00:00:00 | |
| 9A1FER-3 | 2026-09-04 11:51:33 | 45.62493 | 16.25033 | 169° | 64km/h | 12334m | 5.0m/s | -58.4°C | 55.9% | 0hPa | 2.9V | 00:00:00 | 00:50:44 | 00:00:00 | |
| 9A1FER-15 | 2026-09-04 11:51:20 | 45.62681 | 16.24913 | 163° | 66km/h | 12250m | 6.5m/s | -57.7°C | 57.4% | 0hPa | 2.9V | 00:00:00 | 00:50:31 | 00:00:00 | |
| 9A1FER-10 | 2026-09-04 11:51:19 | 45.62697 | 16.24907 | 166° | 66km/h | 12244m | 5.0m/s | -57.7°C | 57.9% | 0hPa | 2.9V | 00:00:00 | 00:50:30 | 00:00:00 | |
| 9A1FER-3 | 2026-09-04 11:51:18 | 45.62712 | 16.24901 | 166° | 66km/h | 12240m | 3.5m/s | -57.6°C | 57.7% | 0hPa | 2.9V | 00:00:00 | 00:50:29 | 00:00:00 | |
| 9A1FER-15 | 2026-09-04 11:51:05 | 45.62909 | 16.24775 | 153° | 64km/h | 12170m | 5.5m/s | -57.1°C | 57.5% | 0hPa | 2.9V | 00:00:00 | 00:50:16 | 00:00:00 | |
| 9A1FER-10 | 2026-09-04 11:51:04 | 45.62923 | 16.24764 | 152° | 64km/h | 12165m | 3.8m/s | -57.0°C | 57.4% | 0hPa | 2.9V | 00:00:00 | 00:50:15 | 00:00:00 | |
| 9A1FER-3 | 2026-09-04 11:51:03 | 45.62938 | 16.24752 | 152° | 64km/h | 12161m | 5.9m/s | -57.0°C | 57.5% | 0hPa | 2.7V | 00:00:00 | 00:50:14 | 00:00:00 | |
| 9A1FER-15 | 2026-09-04 11:50:50 | 45.63124 | 16.24613 | 155° | 64km/h | 12104m | 5.4m/s | -56.6°C | 55.5% | 0hPa | 2.7V | 00:00:00 | 00:50:01 | 00:00:00 | |
| 9A1FER-10 | 2026-09-04 11:50:49 | 45.63138 | 16.24603 | 155° | 64km/h | 12100m | 3.7m/s | -56.5°C | 54.8% | 0hPa | 2.7V | 00:00:00 | 00:50:00 | 00:00:00 | |
| 9A1FER-3 | 2026-09-04 11:50:48 | 45.63152 | 16.24594 | 154° | 64km/h | 12095m | 5.3m/s | -56.5°C | 54.2% | 0hPa | 2.7V | 00:00:00 | 00:49:59 | 00:00:00 | |
| OE3JTB-15 | 2026-09-04 11:50:39 | 45.63278 | 16.24499 | 150° | 66km/h | 12052m | 3.2m/s | -56.2°C | 49.6% | 0hPa | 2.7V | 00:00:00 | 00:00:00 | 00:00:00 | |
| 9A1FER-15 | 2026-09-04 11:50:35 | 45.63337 | 16.24453 | 153° | 68km/h | 12034m | 3.5m/s | -56.0°C | 48.3% | 0hPa | 2.9V | 00:00:00 | 00:49:46 | 00:00:00 | |
| 9A1FER-10 | 2026-09-04 11:50:34 | 45.63353 | 16.24442 | 155° | 68km/h | 12030m | 5.5m/s | -56.0°C | 48.2% | 0hPa | 2.9V | 00:00:00 | 00:49:45 | 00:00:00 | |
| 9A1FER-3 | 2026-09-04 11:50:33 | 45.63368 | 16.24432 | 155° | 68km/h | 12025m | 3.2m/s | -56.0°C | 48.2% | 0hPa | 2.9V | 00:00:00 | 00:49:44 | 00:00:00 | |
| 9A1FER-15 | 2026-09-04 11:50:20 | 45.63564 | 16.24282 | 149° | 68km/h | 11964m | 6.1m/s | -55.4°C | 45.6% | 0hPa | 2.9V | 00:00:00 | 00:49:31 | 08:30:00 | |
| 9A1FER-10 | 2026-09-04 11:50:19 | 45.63579 | 16.24269 | 149° | 66km/h | 11960m | 2.9m/s | -55.4°C | 45.8% | 0hPa | 2.7V | 00:00:00 | 00:49:30 | 08:30:00 | |
| 9A1FER-3 | 2026-09-04 11:50:18 | 45.63593 | 16.24256 | 149° | 68km/h | 11955m | 5.5m/s | -55.4°C | 45.6% | 0hPa | 2.7V | 00:00:00 | 00:49:29 | 08:30:00 | |
| OE3JTB-15 | 2026-09-04 11:50:10 | 45.63705 | 16.24161 | 150° | 66km/h | 11917m | 4.5m/s | -55.1°C | 45.7% | 0hPa | 2.7V | 00:00:00 | 00:00:00 | 00:00:00 | |
| 9A1FER-15 | 2026-09-04 11:50:05 | 45.63781 | 16.24096 | 150° | 68km/h | 11893m | 4.6m/s | -54.8°C | 48.1% | 0hPa | 2.7V | 00:00:00 | 00:49:16 | 00:00:00 | |
| 9A1FER-10 | 2026-09-04 11:50:04 | 45.63796 | 16.24083 | 150° | 68km/h | 11889m | 4.0m/s | -54.9°C | 48.8% | 0hPa | 2.7V | 00:00:00 | 00:49:15 | 00:00:00 | |
| 9A1FER-3 | 2026-09-04 11:50:03 | 45.63811 | 16.24071 | 149° | 68km/h | 11885m | 4.6m/s | -54.8°C | 49.2% | 0hPa | 2.7V | 00:00:00 | 00:49:14 | 00:00:00 | |
| 9A1FER-15 | 2026-09-04 11:49:50 | 45.64001 | 16.23911 | 148° | 64km/h | 11823m | 4.6m/s | -54.2°C | 52.2% | 0hPa | 2.7V | 00:00:00 | 00:49:01 | 00:00:00 | |
| 9A1FER-10 | 2026-09-04 11:49:49 | 45.64014 | 16.23898 | 149° | 64km/h | 11819m | 4.7m/s | -54.2°C | 53.1% | 0hPa | 2.7V | 00:00:00 | 00:49:00 | 00:00:00 | |
| 9A1FER-3 | 2026-09-04 11:49:48 | 45.64028 | 16.23886 | 149° | 64km/h | 11814m | 3.7m/s | -54.2°C | 53.3% | 0hPa | 2.7V | 00:00:00 | 00:48:59 | 00:00:00 | |
| OE3JTB-15 | 2026-09-04 11:49:41 | 45.64125 | 16.23807 | 152° | 66km/h | 11784m | 5.1m/s | -53.9°C | 56.9% | 0hPa | 2.7V | 00:00:00 | 00:48:52 | 00:00:00 | |
| 9A1FER-15 | 2026-09-04 11:49:35 | 45.64211 | 16.23731 | 148° | 66km/h | 11757m | 5.3m/s | -53.7°C | 57.6% | 0hPa | 2.7V | 00:00:00 | 00:48:46 | 00:00:00 | |
| 9A1FER-10 | 2026-09-04 11:49:34 | 45.64225 | 16.23719 | 148° | 66km/h | 11752m | 3.6m/s | -53.7°C | 58.1% | 0hPa | 2.9V | 00:00:00 | 00:48:45 | 00:00:00 | |
| 9A1FER-3 | 2026-09-04 11:49:33 | 45.64239 | 16.23706 | 148° | 66km/h | 11748m | 5.0m/s | -53.7°C | 58.5% | 0hPa | 2.9V | 00:00:00 | 00:48:44 | 00:00:00 | |
| 9A1FER-15 | 2026-09-04 11:49:20 | 45.64420 | 16.23540 | 151° | 64km/h | 11692m | 4.8m/s | -53.2°C | 61.6% | 0hPa | 2.9V | 00:00:00 | 00:48:31 | 00:00:00 | |
| 9A1FER-10 | 2026-09-04 11:49:19 | 45.64434 | 16.23528 | 151° | 64km/h | 11688m | 3.9m/s | -53.2°C | 61.0% | 0hPa | 2.9V | 00:00:00 | 00:48:30 | 00:00:00 | |
| 9A1FER-3 | 2026-09-04 11:49:18 | 45.64449 | 16.23517 | 151° | 64km/h | 11683m | 5.5m/s | -53.3°C | 60.3% | 0hPa | 2.9V | 00:00:00 | 00:48:29 | 00:00:00 | |
| OE3JTB-15 | 2026-09-04 11:49:12 | 45.64528 | 16.23443 | 145° | 62km/h | 11654m | 5.5m/s | -53.0°C | 56.7% | 0hPa | 2.9V | 00:00:00 | 00:00:00 | 00:00:00 | |
| 9A1FER-15 | 2026-09-04 11:49:05 | 45.64624 | 16.23358 | 149° | 62km/h | 11623m | 4.0m/s | -52.7°C | 53.1% | 0hPa | 2.7V | 00:00:00 | 00:48:16 | 00:00:00 | |
| 9A1FER-10 | 2026-09-04 11:49:04 | 45.64637 | 16.23346 | 148° | 62km/h | 11618m | 5.6m/s | -52.7°C | 53.3% | 0hPa | 2.7V | 00:00:00 | 00:48:15 | 00:00:00 | |
| 9A1FER-3 | 2026-09-04 11:49:03 | 45.64650 | 16.23334 | 148° | 62km/h | 11613m | 3.5m/s | -52.7°C | 52.7% | 0hPa | 2.7V | 00:00:00 | 00:48:14 | 00:00:00 | |
| 9A1FER-15 | 2026-09-04 11:48:50 | 45.64824 | 16.23185 | 148° | 62km/h | 11553m | 4.8m/s | -52.3°C | 44.8% | 0hPa | 2.7V | 00:00:00 | 00:48:01 | 00:00:00 | |
| 9A1FER-10 | 2026-09-04 11:48:49 | 45.64837 | 16.23173 | 147° | 64km/h | 11549m | 4.3m/s | -52.2°C | 44.6% | 0hPa | 2.9V | 00:00:00 | 00:48:00 | 00:00:00 | |
| 9A1FER-3 | 2026-09-04 11:48:48 | 45.64850 | 16.23161 | 146° | 64km/h | 11544m | 4.5m/s | -52.2°C | 45.2% | 0hPa | 2.9V | 00:00:00 | 00:47:59 | 00:00:00 | |
| OE3JTB-15 | 2026-09-04 11:48:43 | 45.64914 | 16.23099 | 147° | 66km/h | 11524m | 3.5m/s | -52.0°C | 45.5% | 0hPa | 2.9V | 00:00:00 | 00:00:00 | 00:00:00 | |
| 9A1FER-15 | 2026-09-04 11:48:35 | 45.65025 | 16.23001 | 148° | 66km/h | 11488m | 3.2m/s | -51.6°C | 47.5% | 0hPa | 2.9V | 00:00:00 | 00:47:46 | 00:00:00 | |
| 9A1FER-10 | 2026-09-04 11:48:34 | 45.65039 | 16.22988 | 149° | 66km/h | 11484m | 4.8m/s | -51.6°C | 47.9% | 0hPa | 2.9V | 00:00:00 | 00:47:45 | 00:00:00 | |
| 9A1FER-3 | 2026-09-04 11:48:33 | 45.65053 | 16.22976 | 148° | 66km/h | 11480m | 3.7m/s | -51.6°C | 48.1% | 0hPa | 2.9V | 00:00:00 | 00:47:44 | 00:00:00 | |
| 9A1FER-15 | 2026-09-04 11:48:20 | 45.65235 | 16.22812 | 148° | 66km/h | 11419m | 5.6m/s | -51.1°C | 45.2% | 0hPa | 2.9V | 00:00:00 | 00:47:31 | 00:00:00 | |
| 9A1FER-10 | 2026-09-04 11:48:19 | 45.65248 | 16.22799 | 146° | 66km/h | 11414m | 4.4m/s | -51.0°C | 45.2% | 0hPa | 2.9V | 00:00:00 | 00:47:30 | 00:00:00 | |
| 9A1FER-3 | 2026-09-04 11:48:18 | 45.65262 | 16.22786 | 146° | 66km/h | 11410m | 3.4m/s | -51.0°C | 44.9% | 0hPa | 2.9V | 00:00:00 | 00:47:29 | 00:00:00 | |
| OE3JTB-15 | 2026-09-04 11:48:14 | 45.65317 | 16.22735 | 148° | 68km/h | 11391m | 3.1m/s | 0°C | 0% | 0hPa | 2.9V | 00:00:00 | 00:47:25 | 00:00:00 | |
| 9A1FER-15 | 2026-09-04 11:48:05 | 45.65439 | 16.22615 | 142° | 68km/h | 11353m | 5.0m/s | -50.5°C | 49.8% | 0hPa | 2.9V | 00:00:00 | 00:47:16 | 08:30:00 | |
| 9A1FER-10 | 2026-09-04 11:48:04 | 45.65452 | 16.22601 | 144° | 68km/h | 11348m | 3.9m/s | -50.5°C | 50.8% | 0hPa | 2.7V | 00:00:00 | 00:47:15 | 08:30:00 | |
| 9A1FER-3 | 2026-09-04 11:48:03 | 45.65465 | 16.22587 | 144° | 69km/h | 11344m | 4.7m/s | -50.4°C | 51.3% | 0hPa | 2.7V | 00:00:00 | 00:47:14 | 08:30:00 | |
| 9A1FER-15 | 2026-09-04 11:47:50 | 45.65651 | 16.22405 | 148° | 69km/h | 11285m | 5.6m/s | -50.0°C | 53.5% | 0hPa | 2.9V | 00:00:00 | 00:47:01 | 00:00:00 | |
| 9A1FER-10 | 2026-09-04 11:47:49 | 45.65666 | 16.22392 | 147° | 69km/h | 11280m | 4.8m/s | -50.0°C | 53.1% | 0hPa | 2.9V | 00:00:00 | 00:47:00 | 00:00:00 | |
| 9A1FER-3 | 2026-09-04 11:47:48 | 45.65680 | 16.22377 | 146° | 69km/h | 11275m | 5.0m/s | -49.9°C | 53.0% | 0hPa | 2.9V | 00:00:00 | 00:46:59 | 00:00:00 | |
| OE3JTB-15 | 2026-09-04 11:47:45 | 45.65724 | 16.22335 | 146° | 69km/h | 11261m | 3.9m/s | 0°C | 0% | 0hPa | 2.9V | 00:00:00 | 00:00:00 | 00:00:00 | |
| 9A1FER-15 | 2026-09-04 11:47:35 | 45.65870 | 16.22194 | 147° | 71km/h | 11217m | 4.8m/s | -49.4°C | 50.3% | 0hPa | 2.9V | 00:00:00 | 00:46:46 | 00:00:00 | |
| 9A1FER-10 | 2026-09-04 11:47:34 | 45.65885 | 16.22180 | 147° | 71km/h | 11212m | 4.2m/s | -49.4°C | 50.3% | 0hPa | 2.9V | 00:00:00 | 00:46:45 | 00:00:00 | |
| 9A1FER-3 | 2026-09-04 11:47:33 | 45.65899 | 16.22166 | 146° | 71km/h | 11208m | 5.1m/s | -49.3°C | 49.6% | 0hPa | 2.9V | 00:00:00 | 00:46:44 | 00:00:00 | |
| 9A1FER-15 | 2026-09-04 11:47:20 | 45.66090 | 16.21978 | 146° | 71km/h | 11147m | 3.4m/s | -48.7°C | 47.7% | 0hPa | 2.9V | 00:00:00 | 00:46:31 | 00:00:00 | |
| 9A1FER-10 | 2026-09-04 11:47:19 | 45.66105 | 16.21963 | 147° | 71km/h | 11142m | 5.3m/s | -48.7°C | 47.3% | 0hPa | 2.9V | 00:00:00 | 00:46:30 | 00:00:00 | |
| 9A1FER-3 | 2026-09-04 11:47:18 | 45.66121 | 16.21949 | 148° | 71km/h | 11138m | 3.7m/s | -48.7°C | 46.8% | 0hPa | 2.9V | 00:00:00 | 00:46:29 | 00:00:00 | |
| 9A1FER-15 | 2026-09-04 11:47:05 | 45.66321 | 16.21775 | 147° | 71km/h | 11079m | 2.8m/s | -48.2°C | 45.5% | 0hPa | 2.9V | 00:00:00 | 00:46:16 | 00:00:00 | |
| 9A1FER-10 | 2026-09-04 11:47:04 | 45.66336 | 16.21759 | 146° | 71km/h | 11074m | 6.7m/s | -48.2°C | 45.5% | 0hPa | 2.9V | 00:00:00 | 00:46:15 | 00:00:00 | |
| 9A1FER-3 | 2026-09-04 11:47:03 | 45.66351 | 16.21744 | 143° | 71km/h | 11068m | 6.2m/s | -48.2°C | 45.9% | 0hPa | 2.9V | 00:00:00 | 00:46:14 | 00:00:00 | |
| 9A1FER-15 | 2026-09-04 11:46:50 | 45.66538 | 16.21544 | 145° | 69km/h | 11007m | 5.0m/s | -47.6°C | 49.5% | 0hPa | 2.9V | 00:00:00 | 00:46:01 | 00:00:00 | |
| 9A1FER-10 | 2026-09-04 11:46:49 | 45.66552 | 16.21529 | 144° | 69km/h | 11002m | 3.6m/s | -47.6°C | 50.4% | 0hPa | 2.9V | 00:00:00 | 00:46:00 | 00:00:00 | |
| 9A1FER-3 | 2026-09-04 11:46:48 | 45.66567 | 16.21514 | 144° | 68km/h | 10998m | 5.2m/s | -47.5°C | 51.2% | 0hPa | 2.9V | 00:00:00 | 00:45:59 | 00:00:00 | |
| 9A1FER-15 | 2026-09-04 11:46:35 | 45.66744 | 16.21316 | 145° | 68km/h | 10940m | 3.8m/s | -47.1°C | 56.7% | 0hPa | 2.9V | 00:00:00 | 00:45:46 | 00:00:00 | |
| 9A1FER-10 | 2026-09-04 11:46:34 | 45.66758 | 16.21302 | 145° | 68km/h | 10935m | 5.5m/s | -47.0°C | 56.1% | 0hPa | 2.9V | 00:00:00 | 00:45:45 | 00:00:00 | |
| 9A1FER-15 | 2026-09-04 11:46:20 | 45.66949 | 16.21096 | 146° | 68km/h | 10871m | 5.1m/s | -46.5°C | 52.4% | 0hPa | 2.9V | 00:00:00 | 00:45:31 | 00:00:00 | |
| 9A1FER-10 | 2026-09-04 11:46:19 | 45.66963 | 16.21082 | 146° | 68km/h | 10867m | 4.3m/s | -46.4°C | 52.1% | 0hPa | 2.9V | 00:00:00 | 00:45:30 | 00:00:00 | |
| 9A1FER-3 | 2026-09-04 11:46:18 | 45.66977 | 16.21068 | 145° | 68km/h | 10862m | 5.0m/s | -46.4°C | 52.1% | 0hPa | 2.9V | 00:00:00 | 00:45:29 | 00:00:00 | |
| 9A1FER-15 | 2026-09-04 11:46:05 | 45.67157 | 16.20881 | 144° | 66km/h | 10802m | 3.8m/s | -45.8°C | 47.7% | 0hPa | 2.9V | 00:00:00 | 00:45:16 | 00:00:00 | |
| 9A1FER-10 | 2026-09-04 11:46:04 | 45.67171 | 16.20867 | 144° | 66km/h | 10798m | 4.1m/s | -45.8°C | 47.2% | 0hPa | 2.9V | 00:00:00 | 00:45:15 | 00:00:00 | |
| 9A1FER-3 | 2026-09-04 11:46:03 | 45.67184 | 16.20853 | 143° | 66km/h | 10792m | 6.3m/s | -45.8°C | 47.3% | 0hPa | 2.9V | 00:00:00 | 00:45:14 | 00:00:00 | |
| 9A1FER-15 | 2026-09-04 11:45:50 | 45.67353 | 16.20662 | 145° | 64km/h | 10730m | 5.8m/s | -45.2°C | 45.4% | 0hPa | 2.9V | 00:00:00 | 00:45:01 | 08:30:00 | |
| 9A1FER-10 | 2026-09-04 11:45:49 | 45.67367 | 16.20648 | 146° | 64km/h | 10725m | 4.3m/s | -45.1°C | 45.3% | 0hPa | 2.7V | 00:00:00 | 00:45:00 | 08:30:00 | |
| 9A1FER-3 | 2026-09-04 11:45:48 | 45.67381 | 16.20636 | 148° | 64km/h | 10721m | 4.6m/s | -45.1°C | 45.2% | 0hPa | 2.7V | 00:00:00 | 00:44:59 | 08:30:00 | |
| 9A1FER-15 | 2026-09-04 11:45:35 | 45.67542 | 16.20450 | 146° | 66km/h | 10658m | 1.0m/s | -44.4°C | 42.9% | 0hPa | 2.7V | 00:00:00 | 00:44:46 | 00:00:00 | |
| 9A1FER-10 | 2026-09-04 11:45:34 | 45.67555 | 16.20437 | 145° | 66km/h | 10653m | 8.0m/s | -44.4°C | 42.3% | 0hPa | 2.7V | 00:00:00 | 00:44:45 | 00:00:00 | |
| 9A1FER-3 | 2026-09-04 11:45:33 | 45.67568 | 16.20423 | 142° | 66km/h | 10645m | 8.2m/s | -44.4°C | 42.0% | 0hPa | 2.7V | 00:00:00 | 00:44:44 | 00:00:00 | |
| 9A1FER-15 | 2026-09-04 11:45:20 | 45.67734 | 16.20227 | 142° | 64km/h | 10557m | 4.2m/s | -43.6°C | 54.8% | 0hPa | 2.7V | 00:00:00 | 00:44:31 | 00:00:00 | |
| 9A1FER-10 | 2026-09-04 11:45:19 | 45.67747 | 16.20212 | 143° | 64km/h | 10551m | 7.3m/s | -43.6°C | 53.7% | 0hPa | 2.7V | 00:00:00 | 00:44:30 | 00:00:00 | |
| 9A1FER-3 | 2026-09-04 11:45:18 | 45.67760 | 16.20197 | 141° | 64km/h | 10543m | 9.3m/s | -43.5°C | 52.1% | 0hPa | 2.7V | 00:00:00 | 00:44:29 | 00:00:00 | |
| 9A1FER-15 | 2026-09-04 11:45:05 | 45.67927 | 16.20015 | 139° | 64km/h | 10464m | 3.4m/s | -42.7°C | 56.0% | 0hPa | 2.7V | 00:00:00 | 00:44:16 | 00:00:00 | |
| 9A1FER-10 | 2026-09-04 11:45:04 | 45.67938 | 16.20000 | 137° | 64km/h | 10457m | 10.3m/s | -42.7°C | 57.2% | 0hPa | 2.9V | 00:00:00 | 00:44:15 | 00:00:00 | |
| 9A1FER-15 | 2026-09-04 11:44:50 | 45.68121 | 16.19801 | 140° | 68km/h | 10367m | 6.8m/s | -42.0°C | 58.9% | 0hPa | 2.7V | 00:00:00 | 00:44:01 | 00:00:00 | |
| 9A1FER-10 | 2026-09-04 11:44:49 | 45.68134 | 16.19786 | 143° | 68km/h | 10362m | 3.9m/s | -41.9°C | 58.0% | 0hPa | 2.7V | 00:00:00 | 00:44:00 | 00:00:00 | |
| 9A1FER-15 | 2026-09-04 11:44:35 | 45.68323 | 16.19571 | 145° | 68km/h | 10274m | 7.1m/s | -41.1°C | 39.7% | 0hPa | 2.7V | 00:00:00 | 00:43:46 | 00:00:00 | |
| 9A1FER-10 | 2026-09-04 11:44:34 | 45.68338 | 16.19556 | 144° | 68km/h | 10267m | 6.6m/s | -41.0°C | 39.3% | 0hPa | 2.7V | 00:00:00 | 00:43:45 | 00:00:00 | |
| 9A1FER-3 | 2026-09-04 11:44:33 | 45.68352 | 16.19540 | 143° | 66km/h | 10262m | 3.7m/s | -40.9°C | 38.9% | 0hPa | 2.7V | 00:00:00 | 00:43:44 | 00:00:00 | |
| 9A1FER-15 | 2026-09-04 11:44:20 | 45.68528 | 16.19356 | 145° | 66km/h | 10187m | 4.3m/s | -40.2°C | 36.1% | 0hPa | 2.7V | 00:00:00 | 00:43:31 | 00:00:00 | |
| 9A1FER-10 | 2026-09-04 11:44:19 | 45.68541 | 16.19343 | 143° | 66km/h | 10181m | 10.3m/s | -40.1°C | 35.6% | 0hPa | 2.9V | 00:00:00 | 00:43:30 | 00:00:00 | |
| 9A1FER-3 | 2026-09-04 11:44:18 | 45.68553 | 16.19328 | 137° | 66km/h | 10173m | 6.1m/s | -40.0°C | 34.9% | 0hPa | 2.9V | 00:00:00 | 00:43:29 | 00:00:00 | |
| 9A1FER-15 | 2026-09-04 11:44:05 | 45.68723 | 16.19136 | 143° | 66km/h | 10089m | 8.5m/s | -39.4°C | 28.8% | 0hPa | 2.9V | 00:00:00 | 00:43:16 | 00:00:00 | |
| 9A1FER-10 | 2026-09-04 11:44:04 | 45.68736 | 16.19122 | 144° | 66km/h | 10082m | 4.9m/s | -39.3°C | 28.7% | 0hPa | 2.9V | 00:00:00 | 00:43:15 | 00:00:00 | |
| 9A1FER-3 | 2026-09-04 11:44:03 | 45.68749 | 16.19108 | 143° | 66km/h | 10076m | 5.9m/s | -39.3°C | 28.5% | 0hPa | 2.9V | 00:00:00 | 00:43:14 | 00:00:00 | |
| 9A1FER-15 | 2026-09-04 11:43:50 | 45.68923 | 16.18923 | 145° | 62km/h | 10000m | 3.4m/s | -38.6°C | 29.3% | 0hPa | 2.9V | 00:00:00 | 00:43:01 | 00:00:00 | |
| 9A1FER-10 | 2026-09-04 11:43:49 | 45.68936 | 16.18910 | 147° | 62km/h | 9993m | 9.5m/s | -38.6°C | 29.2% | 0hPa | 2.9V | 00:00:00 | 00:43:00 | 00:00:00 | |
| 9A1FER-3 | 2026-09-04 11:43:48 | 45.68950 | 16.18897 | 145° | 62km/h | 9986m | 6.7m/s | -38.5°C | 29.2% | 0hPa | 2.9V | 00:00:00 | 00:42:59 | 00:00:00 | |
| 9A1FER-15 | 2026-09-04 11:43:35 | 45.69116 | 16.18727 | 147° | 64km/h | 9901m | 5.6m/s | -37.8°C | 27.7% | 0hPa | 2.9V | 00:00:00 | 00:42:46 | 08:30:00 | |
| 9A1FER-10 | 2026-09-04 11:43:34 | 45.69129 | 16.18715 | 148° | 64km/h | 9896m | 4.2m/s | -37.7°C | 27.9% | 0hPa | 2.9V | 00:00:00 | 00:42:45 | 08:30:00 | |
| 9A1FER-3 | 2026-09-04 11:43:33 | 45.69142 | 16.18702 | 146° | 64km/h | 9892m | 2.5m/s | -37.7°C | 28.1% | 0hPa | 2.9V | 00:00:00 | 00:42:44 | 08:30:00 | |
| 9A1FER-15 | 2026-09-04 11:43:20 | 45.69321 | 16.18540 | 145° | 64km/h | 9815m | 4.3m/s | -37.0°C | 27.7% | 0hPa | 2.9V | 00:00:00 | 00:42:31 | 00:00:00 | |
| 9A1FER-10 | 2026-09-04 11:43:19 | 45.69335 | 16.18526 | 145° | 64km/h | 9810m | 6.9m/s | -36.9°C | 27.7% | 0hPa | 2.9V | 00:00:00 | 00:42:30 | 00:00:00 | |
| 9A1FER-3 | 2026-09-04 11:43:18 | 45.69349 | 16.18512 | 147° | 64km/h | 9802m | 8.8m/s | -36.8°C | 27.8% | 0hPa | 2.9V | 00:00:00 | 00:42:29 | 00:00:00 | |
| 9A1FER-15 | 2026-09-04 11:43:05 | 45.69514 | 16.18337 | 145° | 64km/h | 9724m | 3.0m/s | -36.2°C | 26.4% | 0hPa | 2.9V | 00:00:00 | 00:42:16 | 00:00:00 | |
| 9A1FER-10 | 2026-09-04 11:43:04 | 45.69528 | 16.18322 | 144° | 62km/h | 9716m | 13.4m/s | -36.1°C | 26.2% | 0hPa | 2.9V | 00:00:00 | 00:42:15 | 00:00:00 | |
| 9A1FER-3 | 2026-09-04 11:43:03 | 45.69542 | 16.18308 | 145° | 62km/h | 9706m | 5.6m/s | -36.1°C | 25.9% | 0hPa | 2.9V | 00:00:00 | 00:42:14 | 00:00:00 | |
| 9A1FER-15 | 2026-09-04 11:42:50 | 45.69702 | 16.18128 | 141° | 64km/h | 9625m | 5.3m/s | -35.3°C | 25.0% | 0hPa | 2.9V | 00:00:00 | 00:42:01 | 00:00:00 | |
| 9A1FER-10 | 2026-09-04 11:42:49 | 45.69714 | 16.18114 | 143° | 64km/h | 9619m | 5.3m/s | -35.3°C | 25.3% | 0hPa | 2.9V | 00:00:00 | 00:42:00 | 00:00:00 | |
| 9A1FER-3 | 2026-09-04 11:42:48 | 45.69727 | 16.18100 | 143° | 66km/h | 9615m | 2.9m/s | -35.2°C | 25.4% | 0hPa | 2.9V | 00:00:00 | 00:41:59 | 00:00:00 | |
| 9A1FER-15 | 2026-09-04 11:42:35 | 45.69893 | 16.17910 | 143° | 62km/h | 9543m | 7.3m/s | -34.5°C | 27.3% | 0hPa | 2.7V | 00:00:00 | 00:41:46 | 00:00:00 | |
| 9A1FER-10 | 2026-09-04 11:42:34 | 45.69906 | 16.17895 | 142° | 62km/h | 9536m | 6.2m/s | -34.5°C | 27.6% | 0hPa | 2.7V | 00:00:00 | 00:41:45 | 00:00:00 | |
| 9A1FER-3 | 2026-09-04 11:42:33 | 45.69920 | 16.17881 | 143° | 62km/h | 9531m | 4.8m/s | -34.5°C | 27.9% | 0hPa | 2.7V | 00:00:00 | 00:41:44 | 00:00:00 | |
| 9A1FER-15 | 2026-09-04 11:42:20 | 45.70077 | 16.17701 | 143° | 62km/h | 9454m | 7.7m/s | -33.7°C | 28.2% | 0hPa | 2.7V | 00:00:00 | 00:41:31 | 00:00:00 | |
| 9A1FER-10 | 2026-09-04 11:42:19 | 45.70091 | 16.17686 | 145° | 60km/h | 9447m | 6.6m/s | -33.7°C | 28.2% | 0hPa | 2.7V | 00:00:00 | 00:41:30 | 00:00:00 | |
| 9A1FER-3 | 2026-09-04 11:42:18 | 45.70105 | 16.17672 | 144° | 60km/h | 9442m | 4.9m/s | -33.6°C | 28.1% | 0hPa | 2.7V | 00:00:00 | 00:41:29 | 00:00:00 | |
| 9A1FER-15 | 2026-09-04 11:42:05 | 45.70265 | 16.17503 | 144° | 60km/h | 9369m | 7.5m/s | -32.9°C | 29.3% | 0hPa | 2.7V | 00:00:00 | 00:41:16 | 00:00:00 | |
| 9A1FER-10 | 2026-09-04 11:42:04 | 45.70277 | 16.17490 | 142° | 60km/h | 9362m | 9.0m/s | -32.9°C | 29.7% | 0hPa | 2.9V | 00:00:00 | 00:41:15 | 00:00:00 | |
| 9A1FER-3 | 2026-09-04 11:42:03 | 45.70288 | 16.17477 | 143° | 60km/h | 9354m | 7.3m/s | -32.8°C | 29.5% | 0hPa | 2.9V | 00:00:00 | 00:41:14 | 00:00:00 | |
| 9A1FER-15 | 2026-09-04 11:41:50 | 45.70447 | 16.17308 | 152° | 62km/h | 9265m | 6.1m/s | -32.2°C | 30.4% | 0hPa | 2.9V | 00:00:00 | 00:41:01 | 00:00:00 | |
| 9A1FER-10 | 2026-09-04 11:41:49 | 45.70460 | 16.17299 | 153° | 62km/h | 9258m | 7.2m/s | -32.2°C | 30.6% | 0hPa | 2.9V | 00:00:00 | 00:41:00 | 00:00:00 | |
| 9A1FER-3 | 2026-09-04 11:41:48 | 45.70473 | 16.17288 | 152° | 62km/h | 9253m | 3.8m/s | -32.1°C | 30.7% | 0hPa | 2.9V | 00:00:00 | 00:40:59 | 00:00:00 | |
| 9A1FER-15 | 2026-09-04 11:41:35 | 45.70655 | 16.17156 | 155° | 58km/h | 9179m | 6.2m/s | -31.4°C | 26.0% | 0hPa | 2.9V | 00:00:00 | 00:40:46 | 00:00:00 | |
| 9A1FER-10 | 2026-09-04 11:41:34 | 45.70668 | 16.17147 | 153° | 58km/h | 9174m | 4.3m/s | -31.4°C | 25.5% | 0hPa | 2.9V | 00:00:00 | 00:40:45 | 00:00:00 | |
| 9A1FER-3 | 2026-09-04 11:41:33 | 45.70681 | 16.17137 | 152° | 58km/h | 9169m | 4.5m/s | -31.3°C | 24.2% | 0hPa | 2.9V | 00:00:00 | 00:40:44 | 00:00:00 | |
| 9A1FER-15 | 2026-09-04 11:41:20 | 45.70855 | 16.17015 | 153° | 58km/h | 9095m | 7.8m/s | -30.7°C | 27.2% | 0hPa | 2.9V | 00:00:00 | 00:40:31 | 08:30:00 | |
| 9A1FER-10 | 2026-09-04 11:41:19 | 45.70869 | 16.17005 | 152° | 58km/h | 9088m | 6.7m/s | -30.6°C | 26.8% | 0hPa | 2.9V | 00:00:00 | 00:40:30 | 08:30:00 | |
| 9A1FER-3 | 2026-09-04 11:41:18 | 45.70882 | 16.16995 | 152° | 58km/h | 9082m | 5.2m/s | -30.5°C | 26.2% | 0hPa | 2.9V | 00:00:00 | 00:40:29 | 08:30:00 | |
| 9A1FER-15 | 2026-09-04 11:41:05 | 45.71051 | 16.16869 | 154° | 58km/h | 9005m | 2.7m/s | -29.8°C | 22.5% | 0hPa | 2.9V | 00:00:00 | 00:40:16 | 00:00:00 | |
| 9A1FER-10 | 2026-09-04 11:41:04 | 45.71064 | 16.16860 | 152° | 58km/h | 9001m | 5.4m/s | -29.8°C | 21.8% | 0hPa | 2.9V | 00:00:00 | 00:40:15 | 00:00:00 | |
| 9A1FER-3 | 2026-09-04 11:41:03 | 45.71076 | 16.16850 | 151° | 58km/h | 8993m | 9.6m/s | -29.7°C | 21.4% | 0hPa | 2.9V | 00:00:00 | 00:40:14 | 00:00:00 | |
| 9A1FER-15 | 2026-09-04 11:40:50 | 45.71243 | 16.16719 | 152° | 60km/h | 8914m | 4.5m/s | -29.2°C | 20.7% | 0hPa | 2.9V | 00:00:00 | 00:40:01 | 00:00:00 | |
| 9A1FER-10 | 2026-09-04 11:40:49 | 45.71257 | 16.16708 | 151° | 60km/h | 8910m | 2.8m/s | -29.1°C | 21.9% | 0hPa | 2.9V | 00:00:00 | 00:40:00 | 00:00:00 | |
| 9A1FER-3 | 2026-09-04 11:40:48 | 45.71270 | 16.16697 | 150° | 60km/h | 8906m | 5.5m/s | -29.1°C | 23.3% | 0hPa | 2.9V | 00:00:00 | 00:39:59 | 00:00:00 | |
| 9A1FER-15 | 2026-09-04 11:40:35 | 45.71442 | 16.16558 | 150° | 60km/h | 8829m | 5.5m/s | -28.5°C | 22.3% | 0hPa | 2.9V | 00:00:00 | 00:39:46 | 00:00:00 | |
| 9A1FER-10 | 2026-09-04 11:40:34 | 45.71455 | 16.16547 | 149° | 60km/h | 8825m | 3.6m/s | -28.4°C | 22.4% | 0hPa | 2.9V | 00:00:00 | 00:39:45 | 00:00:00 | |
| 9A1FER-3 | 2026-09-04 11:40:33 | 45.71468 | 16.16536 | 148° | 60km/h | 8818m | 10.4m/s | -28.4°C | 22.7% | 0hPa | 2.9V | 00:00:00 | 00:39:44 | 00:00:00 | |
| 9A1FER-15 | 2026-09-04 11:40:20 | 45.71631 | 16.16375 | 143° | 58km/h | 8742m | 9.6m/s | -27.7°C | 20.6% | 0hPa | 2.9V | 00:00:00 | 00:39:31 | 00:00:00 | |
| 9A1FER-10 | 2026-09-04 11:40:19 | 45.71644 | 16.16360 | 143° | 58km/h | 8733m | 6.9m/s | -27.7°C | 20.8% | 0hPa | 2.9V | 00:00:00 | 00:39:30 | 00:00:00 | |
| 9A1FER-3 | 2026-09-04 11:40:18 | 45.71657 | 16.16346 | 141° | 58km/h | 8727m | 5.8m/s | -27.6°C | 20.9% | 0hPa | 2.9V | 00:00:00 | 00:39:29 | 00:00:00 | |
| 9A1FER-15 | 2026-09-04 11:40:05 | 45.71811 | 16.16189 | 151° | 60km/h | 8660m | 5.2m/s | -27.0°C | 22.6% | 0hPa | 2.9V | 00:00:00 | 00:39:16 | 00:00:00 | |
| 9A1FER-10 | 2026-09-04 11:40:04 | 45.71824 | 16.16179 | 153° | 60km/h | 8654m | 7.9m/s | -27.0°C | 23.3% | 0hPa | 2.9V | 00:00:00 | 00:39:15 | 00:00:00 | |
| 9A1FER-3 | 2026-09-04 11:40:03 | 45.71837 | 16.16169 | 150° | 60km/h | 8647m | 7.0m/s | -26.9°C | 24.2% | 0hPa | 2.9V | 00:00:00 | 00:39:14 | 00:00:00 | |
| 9A1FER-15 | 2026-09-04 11:39:50 | 45.71998 | 16.16004 | 147° | 55km/h | 8566m | 4.2m/s | -26.3°C | 27.4% | 0hPa | 2.9V | 00:00:00 | 00:39:01 | 00:00:00 | |
| 9A1FER-10 | 2026-09-04 11:39:49 | 45.72010 | 16.15992 | 147° | 55km/h | 8562m | 5.7m/s | -26.2°C | 28.5% | 0hPa | 2.9V | 00:00:00 | 00:39:00 | 00:00:00 | |
| 9A1FER-3 | 2026-09-04 11:39:48 | 45.72023 | 16.15980 | 147° | 55km/h | 8556m | 8.1m/s | -26.2°C | 29.7% | 0hPa | 2.9V | 00:00:00 | 00:38:59 | 00:00:00 | |
| 9A1FER-15 | 2026-09-04 11:39:35 | 45.72173 | 16.15842 | 143° | 57km/h | 8471m | 9.5m/s | -25.8°C | 27.1% | 0hPa | 3.0V | 00:00:00 | 00:38:46 | 00:00:00 | |
| 9A1FER-10 | 2026-09-04 11:39:34 | 45.72184 | 16.15830 | 142° | 57km/h | 8462m | 7.9m/s | -25.7°C | 22.2% | 0hPa | 3.0V | 00:00:00 | 00:38:45 | 00:00:00 | |
| 9A1FER-3 | 2026-09-04 11:39:33 | 45.72196 | 16.15817 | 143° | 57km/h | 8456m | 6.2m/s | -25.6°C | 19.8% | 0hPa | 3.0V | 00:00:00 | 00:38:44 | 00:00:00 | |
| 9A1FER-15 | 2026-09-04 11:39:20 | 45.72342 | 16.15647 | 140° | 55km/h | 8383m | 6.5m/s | -25.1°C | 20.5% | 0hPa | 3.0V | 00:00:00 | 00:38:31 | 00:00:00 | |
| 9A1FER-10 | 2026-09-04 11:39:19 | 45.72352 | 16.15634 | 138° | 55km/h | 8377m | 6.2m/s | -25.0°C | 20.7% | 0hPa | 3.0V | 00:00:00 | 00:38:30 | 00:00:00 | |
| 9A1FER-15 | 2026-09-04 11:39:05 | 45.72494 | 16.15444 | 139° | 51km/h | 8313m | 4.4m/s | -24.4°C | 20.3% | 0hPa | 3.0V | 00:00:00 | 00:38:16 | 08:30:00 | |
| 9A1FER-10 | 2026-09-04 11:39:04 | 45.72503 | 16.15432 | 142° | 51km/h | 8308m | 5.9m/s | -24.4°C | 20.2% | 0hPa | 2.9V | 00:00:00 | 00:38:15 | 08:30:00 | |
| 9A1FER-3 | 2026-09-04 11:39:03 | 45.72514 | 16.15421 | 145° | 51km/h | 8304m | 3.0m/s | -24.3°C | 20.4% | 0hPa | 2.9V | 00:00:00 | 00:38:14 | 08:30:00 | |
| 9A1FER-15 | 2026-09-04 11:38:50 | 45.72641 | 16.15259 | 141° | 51km/h | 8226m | 6.4m/s | -23.8°C | 19.4% | 0hPa | 2.9V | 00:00:00 | 00:38:01 | 00:00:00 | |
| 9A1FER-10 | 2026-09-04 11:38:49 | 45.72652 | 16.15247 | 140° | 51km/h | 8220m | 6.5m/s | -23.7°C | 19.2% | 0hPa | 2.9V | 00:00:00 | 00:38:00 | 00:00:00 | |
| 9A1FER-3 | 2026-09-04 11:38:48 | 45.72662 | 16.15234 | 140° | 51km/h | 8212m | 7.4m/s | -23.7°C | 19.1% | 0hPa | 2.9V | 00:00:00 | 00:37:59 | 00:00:00 | |
| 9A1FER-15 | 2026-09-04 11:38:35 | 45.72790 | 16.15084 | 145° | 51km/h | 8134m | 8.2m/s | -23.1°C | 19.0% | 0hPa | 2.9V | 00:00:00 | 00:37:46 | 00:00:00 | |
| 9A1FER-10 | 2026-09-04 11:38:34 | 45.72800 | 16.15073 | 144° | 51km/h | 8125m | 7.2m/s | -23.0°C | 19.4% | 0hPa | 2.9V | 00:00:00 | 00:37:45 | 00:00:00 | |
| 9A1FER-3 | 2026-09-04 11:38:33 | 45.72811 | 16.15062 | 142° | 51km/h | 8118m | 6.7m/s | -23.0°C | 19.7% | 0hPa | 2.9V | 00:00:00 | 00:37:44 | 00:00:00 | |
| 9A1FER-15 | 2026-09-04 11:38:20 | 45.72935 | 16.14897 | 137° | 51km/h | 8051m | 2.9m/s | -22.3°C | 20.0% | 0hPa | 2.9V | 00:00:00 | 00:37:31 | 00:00:00 | |
| 9A1FER-10 | 2026-09-04 11:38:19 | 45.72945 | 16.14885 | 138° | 51km/h | 8044m | 10.5m/s | -22.3°C | 19.4% | 0hPa | 3.0V | 00:00:00 | 00:37:30 | 00:00:00 | |
| 9A1FER-3 | 2026-09-04 11:38:18 | 45.72954 | 16.14873 | 139° | 51km/h | 8035m | 7.6m/s | -22.2°C | 18.6% | 0hPa | 3.0V | 00:00:00 | 00:37:29 | 00:00:00 | |
| 9A1FER-15 | 2026-09-04 11:38:05 | 45.73084 | 16.14719 | 144° | 53km/h | 7967m | 3.6m/s | -21.6°C | 16.9% | 0hPa | 2.9V | 00:00:00 | 00:37:16 | 00:00:00 | |
| 9A1FER-10 | 2026-09-04 11:38:04 | 45.73095 | 16.14708 | 146° | 53km/h | 7962m | 8.0m/s | -21.5°C | 16.2% | 0hPa | 2.9V | 00:00:00 | 00:37:15 | 00:00:00 | |
| 9A1FER-3 | 2026-09-04 11:38:03 | 45.73106 | 16.14697 | 143° | 53km/h | 7954m | 8.5m/s | -21.5°C | 16.2% | 0hPa | 2.9V | 00:00:00 | 00:37:14 | 00:00:00 | |
| 9A1FER-15 | 2026-09-04 11:37:50 | 45.73236 | 16.14533 | 141° | 57km/h | 7871m | 8.7m/s | -20.9°C | 12.9% | 0hPa | 2.9V | 00:00:00 | 00:37:01 | 00:00:00 | |
| 9A1FER-10 | 2026-09-04 11:37:49 | 45.73247 | 16.14521 | 142° | 57km/h | 7864m | 4.6m/s | -20.9°C | 12.7% | 0hPa | 2.9V | 00:00:00 | 00:37:00 | 00:00:00 | |
| 9A1FER-3 | 2026-09-04 11:37:48 | 45.73258 | 16.14508 | 141° | 57km/h | 7858m | 9.4m/s | -20.9°C | 12.5% | 0hPa | 2.9V | 00:00:00 | 00:36:59 | 00:00:00 | |
| 9A1FER-15 | 2026-09-04 11:37:35 | 45.73392 | 16.14329 | 135° | 55km/h | 7775m | 4.2m/s | -20.3°C | 13.0% | 0hPa | 2.9V | 00:00:00 | 00:36:46 | 00:00:00 | |
| 9A1FER-10 | 2026-09-04 11:37:34 | 45.73402 | 16.14315 | 133° | 53km/h | 7770m | 5.2m/s | -20.3°C | 12.6% | 0hPa | 2.9V | 00:00:00 | 00:36:45 | 00:00:00 | |
| 9A1FER-3 | 2026-09-04 11:37:33 | 45.73411 | 16.14301 | 134° | 55km/h | 7765m | 4.9m/s | -20.2°C | 12.4% | 0hPa | 3.0V | 00:00:00 | 00:36:44 | 00:00:00 | |
| 9A1FER-15 | 2026-09-04 11:37:20 | 45.73542 | 16.14130 | 138° | 53km/h | 7687m | 4.7m/s | -19.8°C | 11.7% | 0hPa | 3.0V | 00:00:00 | 00:36:31 | 00:00:00 | |
| 9A1FER-10 | 2026-09-04 11:37:19 | 45.73552 | 16.14117 | 137° | 53km/h | 7682m | 4.5m/s | -19.8°C | 11.6% | 0hPa | 3.0V | 00:00:00 | 00:36:30 | 00:00:00 | |
| 9A1FER-3 | 2026-09-04 11:37:18 | 45.73562 | 16.14104 | 138° | 53km/h | 7676m | 6.8m/s | -19.7°C | 11.6% | 0hPa | 3.0V | 00:00:00 | 00:36:29 | 00:00:00 | |
| 9A1FER-15 | 2026-09-04 11:37:05 | 45.73695 | 16.13950 | 143° | 53km/h | 7596m | 8.3m/s | -19.3°C | 12.7% | 0hPa | 3.0V | 00:00:00 | 00:36:16 | 00:00:00 | |
| 9A1FER-10 | 2026-09-04 11:37:04 | 45.73707 | 16.13938 | 143° | 53km/h | 7589m | 6.8m/s | -19.3°C | 12.7% | 0hPa | 3.0V | 00:00:00 | 00:36:15 | 00:00:00 | |
| 9A1FER-3 | 2026-09-04 11:37:03 | 45.73718 | 16.13926 | 146° | 51km/h | 7582m | 6.4m/s | -19.3°C | 12.7% | 0hPa | 3.0V | 00:00:00 | 00:36:14 | 00:00:00 | |
| 9A1FER-15 | 2026-09-04 11:36:50 | 45.73844 | 16.13764 | 137° | 53km/h | 7498m | 6.2m/s | -18.8°C | 13.8% | 0hPa | 3.0V | 00:00:00 | 00:36:01 | 08:30:00 | |
| 9A1FER-10 | 2026-09-04 11:36:49 | 45.73853 | 16.13750 | 132° | 53km/h | 7492m | 5.2m/s | -18.8°C | 13.9% | 0hPa | 2.9V | 00:00:00 | 00:36:00 | 08:30:00 | |
| 9A1FER-3 | 2026-09-04 11:36:48 | 45.73862 | 16.13736 | 131° | 53km/h | 7487m | 3.8m/s | -18.7°C | 13.9% | 0hPa | 3.0V | 00:00:00 | 00:35:59 | 08:30:00 | |
| 9A1FER-15 | 2026-09-04 11:36:35 | 45.73995 | 16.13577 | 144° | 57km/h | 7412m | 5.9m/s | -18.1°C | 12.5% | 0hPa | 3.0V | 00:00:00 | 00:35:46 | 00:00:00 | |
| 9A1FER-10 | 2026-09-04 11:36:34 | 45.74006 | 16.13565 | 145° | 57km/h | 7405m | 8.8m/s | -18.1°C | 12.2% | 0hPa | 3.0V | 00:00:00 | 00:35:45 | 00:00:00 | |
| 9A1FER-3 | 2026-09-04 11:36:33 | 45.74018 | 16.13554 | 147° | 57km/h | 7398m | 5.4m/s | -18.0°C | 11.8% | 0hPa | 3.0V | 00:00:00 | 00:35:44 | 00:00:00 | |
| 9A1FER-15 | 2026-09-04 11:36:20 | 45.74162 | 16.13381 | 138° | 53km/h | 7328m | 8.6m/s | -17.4°C | 11.4% | 0hPa | 3.0V | 00:00:00 | 00:35:31 | 00:00:00 | |
| 9A1FER-10 | 2026-09-04 11:36:19 | 45.74173 | 16.13368 | 141° | 53km/h | 7321m | 5.8m/s | -17.3°C | 11.3% | 0hPa | 3.0V | 00:00:00 | 00:35:30 | 00:00:00 | |
| 9A1FER-3 | 2026-09-04 11:36:18 | 45.74184 | 16.13356 | 144° | 53km/h | 7315m | 6.2m/s | -17.3°C | 11.3% | 0hPa | 3.0V | 00:00:00 | 00:35:29 | 00:00:00 | |
| 9A1FER-15 | 2026-09-04 11:36:05 | 45.74315 | 16.13193 | 135° | 53km/h | 7226m | 7.3m/s | -16.6°C | 12.0% | 0hPa | 3.0V | 00:00:00 | 00:35:16 | 00:00:00 | |
| 9A1FER-10 | 2026-09-04 11:36:04 | 45.74324 | 16.13179 | 136° | 53km/h | 7219m | 6.8m/s | -16.5°C | 12.0% | 0hPa | 3.0V | 00:00:00 | 00:35:15 | 00:00:00 | |
| 9A1FER-3 | 2026-09-04 11:36:03 | 45.74334 | 16.13166 | 137° | 55km/h | 7212m | 5.8m/s | -16.5°C | 12.0% | 0hPa | 3.0V | 00:00:00 | 00:35:14 | 00:00:00 | |
| 9A1FER-10 | 2026-09-04 11:35:51 | 45.74480 | 16.12990 | 134° | 58km/h | 7138m | 6.0m/s | -15.7°C | 11.6% | 0hPa | 3.0V | 00:00:00 | 00:35:00 | 00:00:00 | |
| 9A1FER-3 | 2026-09-04 11:35:50 | 45.74491 | 16.12975 | 134° | 58km/h | 7132m | 5.2m/s | -15.7°C | 11.6% | 0hPa | 3.0V | 00:00:00 | 00:34:59 | 00:00:00 | |
| 9A1FER-15 | 2026-09-04 11:35:35 | 45.74640 | 16.12807 | 139° | 60km/h | 7064m | 3.3m/s | -15.2°C | 10.9% | 0hPa | 3.0V | 00:00:00 | 00:34:46 | 00:00:00 | |
| 9A1FER-10 | 2026-09-04 11:35:34 | 45.74651 | 16.12793 | 140° | 60km/h | 7060m | 5.0m/s | -15.1°C | 10.3% | 0hPa | 3.0V | 00:00:00 | 00:34:45 | 00:00:00 | |
| 9A1FER-3 | 2026-09-04 11:35:33 | 45.74662 | 16.12780 | 143° | 60km/h | 7054m | 7.8m/s | -15.1°C | 9.4% | 0hPa | 3.0V | 00:00:00 | 00:34:44 | 00:00:00 | |
| OM5KV | 2026-09-04 11:35:31 | 45.74675 | 16.12768 | 147° | 60km/h | 7047m | 8.2m/s | -15.1°C | 8.7% | 0hPa | 3.0V | 00:00:00 | 00:00:00 | 00:00:00 | |
| OM5KV | 2026-09-04 11:35:30 | 45.74688 | 16.12756 | 150° | 64km/h | 7039m | 6.1m/s | -15.0°C | 9.1% | 0hPa | 3.0V | 00:00:00 | 00:00:00 | 00:00:00 | |
| OM5KV | 2026-09-04 11:35:25 | 45.74760 | 16.12689 | 142° | 62km/h | 7017m | 4.0m/s | -14.8°C | 8.3% | 0hPa | 3.0V | 00:00:00 | 00:00:00 | 00:00:00 | |
| OM5KV | 2026-09-04 11:35:20 | 45.74812 | 16.12618 | 136° | 55km/h | 6991m | 8.0m/s | -14.6°C | 8.3% | 0hPa | 3.0V | 00:00:00 | 00:00:00 | 00:00:00 | |
| 9A1FER-10 | 2026-09-04 11:35:19 | 45.74832 | 16.12591 | 138° | 60km/h | 6977m | 6.2m/s | -14.5°C | 8.8% | 0hPa | 3.0V | 00:00:00 | 00:34:30 | 00:00:00 | |
| 9A1FER-3 | 2026-09-04 11:35:18 | 45.74842 | 16.12577 | 138° | 60km/h | 6971m | 5.1m/s | -14.4°C | 8.8% | 0hPa | 3.0V | 00:00:00 | 00:34:29 | 00:00:00 | |
| OM5KV | 2026-09-04 11:35:17 | 45.74842 | 16.12577 | 138° | 58km/h | 6971m | 5.2m/s | -14.5°C | 8.1% | 0hPa | 3.0V | 00:00:00 | 00:00:00 | 00:00:00 | |
| OM5KV | 2026-09-04 11:35:12 | 45.74901 | 16.12502 | 139° | 60km/h | 6942m | 5.8m/s | -14.2°C | 6.7% | 0hPa | 3.0V | 00:00:00 | 00:00:00 | 00:00:00 | |
| OM5KV | 2026-09-04 11:35:09 | 45.74935 | 16.12459 | 141° | 62km/h | 6927m | 5.6m/s | -14.0°C | 6.6% | 0hPa | 3.0V | 00:00:00 | 00:00:00 | 00:00:00 | |
| OM5KV | 2026-09-04 11:35:06 | 45.74970 | 16.12416 | 139° | 62km/h | 6906m | 7.6m/s | -13.9°C | 6.4% | 0hPa | 3.0V | 00:00:00 | 00:00:00 | 00:00:00 | |
| 9A1FER-15 | 2026-09-04 11:35:05 | 45.74993 | 16.12388 | 141° | 58km/h | 6892m | 6.5m/s | -13.7°C | 6.8% | 0hPa | 3.0V | 00:00:00 | 00:34:16 | 00:00:00 | |
| 9A1FER-10 | 2026-09-04 11:35:04 | 45.75004 | 16.12375 | 140° | 58km/h | 6886m | 5.8m/s | -13.7°C | 6.8% | 0hPa | 3.0V | 00:00:00 | 00:34:15 | 00:00:00 | |
| 9A1FER-3 | 2026-09-04 11:35:03 | 45.75014 | 16.12361 | 139° | 60km/h | 6880m | 7.1m/s | -13.6°C | 6.9% | 0hPa | 3.0V | 00:00:00 | 00:34:14 | 00:00:00 | |
| OM5KV | 2026-09-04 11:35:00 | 45.75036 | 16.12333 | 139° | 58km/h | 6871m | 4.2m/s | -13.6°C | 6.2% | 0hPa | 3.0V | 00:00:00 | 00:00:00 | 00:00:00 | |
| OM5KV | 2026-09-04 11:34:53 | 45.75130 | 16.12225 | 141° | 60km/h | 6827m | 8.6m/s | -13.3°C | 6.2% | 0hPa | 3.0V | 00:00:00 | 00:00:00 | 00:00:00 | |
| 9A1FER-15 | 2026-09-04 11:34:50 | 45.75163 | 16.12180 | 137° | 62km/h | 6810m | 4.2m/s | -13.1°C | 6.2% | 0hPa | 3.0V | 00:00:00 | 00:34:01 | 00:00:00 | |
| 9A1FER-10 | 2026-09-04 11:34:49 | 45.75175 | 16.12165 | 138° | 62km/h | 6805m | 4.5m/s | -13.1°C | 6.1% | 0hPa | 3.0V | 00:00:00 | 00:34:00 | 00:00:00 | |
| 9A1FER-3 | 2026-09-04 11:34:48 | 45.75186 | 16.12150 | 137° | 62km/h | 6799m | 5.7m/s | -13.0°C | 5.9% | 0hPa | 3.0V | 00:00:00 | 00:33:59 | 00:00:00 | |
| OM5KV | 2026-09-04 11:34:47 | 45.75186 | 16.12150 | 138° | 60km/h | 6799m | 5.7m/s | -13.1°C | 5.4% | 0hPa | 3.0V | 00:00:00 | 00:00:00 | 00:00:00 | |
| OM5KV | 2026-09-04 11:34:46 | 45.75197 | 16.12135 | 137° | 60km/h | 6795m | 3.2m/s | -13.0°C | 5.5% | 0hPa | 3.0V | 00:00:00 | 00:00:00 | 00:00:00 | |
| OM5KV | 2026-09-04 11:34:40 | 45.75267 | 16.12049 | 141° | 66km/h | 6762m | 4.8m/s | -12.8°C | 5.7% | 0hPa | 3.0V | 00:00:00 | 00:00:00 | 00:00:00 | |
| OM5KV | 2026-09-04 11:34:37 | 45.75319 | 16.11988 | 142° | 64km/h | 6742m | 5.4m/s | -12.6°C | 5.6% | 0hPa | 3.0V | 00:00:00 | 00:00:00 | 00:00:00 | |
| 9A1FER-15 | 2026-09-04 11:34:35 | 45.75343 | 16.11959 | 139° | 58km/h | 6730m | 7.9m/s | -12.5°C | 6.1% | 0hPa | 3.0V | 00:00:00 | 00:33:46 | 08:30:00 | |
| 9A1FER-10 | 2026-09-04 11:34:34 | 45.75355 | 16.11944 | 140° | 57km/h | 6722m | 7.1m/s | -12.4°C | 6.2% | 0hPa | 3.0V | 00:00:00 | 00:33:45 | 08:30:00 | |
| 9A1FER-3 | 2026-09-04 11:34:33 | 45.75367 | 16.11930 | 138° | 57km/h | 6715m | 6.8m/s | -12.3°C | 6.1% | 0hPa | 3.0V | 00:00:00 | 00:33:44 | 08:30:00 | |
| OM5KV | 2026-09-04 11:34:31 | 45.75377 | 16.11916 | 138° | 57km/h | 6709m | 5.6m/s | -12.4°C | 0% | 0hPa | 3.0V | 00:00:00 | 00:00:00 | 00:00:00 | |
| OM5KV | 2026-09-04 11:34:30 | 45.75388 | 16.11901 | 137° | 58km/h | 6703m | 5.2m/s | -12.3°C | 5.5% | 0hPa | 3.0V | 00:00:00 | 00:00:00 | 00:00:00 | |
| OM5KV | 2026-09-04 11:34:25 | 45.75439 | 16.11831 | 138° | 57km/h | 6684m | 3.3m/s | -12.1°C | 5.5% | 0hPa | 3.0V | 00:00:00 | 00:00:00 | 00:00:00 | |
| OM5KV | 2026-09-04 11:34:24 | 45.75450 | 16.11817 | 137° | 55km/h | 6678m | 8.1m/s | -12.1°C | 5.3% | 0hPa | 3.0V | 00:00:00 | 00:00:00 | 00:00:00 | |
| 9A1FER-15 | 2026-09-04 11:34:20 | 45.75504 | 16.11746 | 142° | 60km/h | 6646m | 6.4m/s | -11.8°C | 5.4% | 0hPa | 3.0V | 00:00:00 | 00:33:31 | 00:00:00 | |
| 9A1FER-10 | 2026-09-04 11:34:19 | 45.75516 | 16.11734 | 145° | 60km/h | 6641m | 4.8m/s | -11.7°C | 5.3% | 0hPa | 3.0V | 00:00:00 | 00:33:30 | 00:00:00 | |
| 9A1FER-3 | 2026-09-04 11:34:18 | 45.75528 | 16.11722 | 146° | 60km/h | 6637m | 2.8m/s | -11.7°C | 5.3% | 0hPa | 3.0V | 00:00:00 | 00:33:29 | 00:00:00 | |
| OM5KV | 2026-09-04 11:34:13 | 45.75577 | 16.11667 | 140° | 62km/h | 6610m | 5.6m/s | -11.6°C | 0% | 0hPa | 3.0V | 00:00:00 | 00:00:00 | 00:00:00 | |
| OM5KV | 2026-09-04 11:34:08 | 45.75636 | 16.11592 | 140° | 60km/h | 6592m | 4.0m/s | -11.5°C | 0% | 0hPa | 3.0V | 00:00:00 | 00:00:00 | 00:00:00 | |
| OM5KV | 2026-09-04 11:34:06 | 45.75670 | 16.11551 | 143° | 57km/h | 6573m | 4.7m/s | -11.5°C | 4.9% | 0hPa | 3.0V | 00:00:00 | 00:00:00 | 00:00:00 | |
| 9A1FER-10 | 2026-09-04 11:34:04 | 45.75693 | 16.11525 | 143° | 55km/h | 6562m | 5.0m/s | -11.5°C | 5.5% | 0hPa | 3.0V | 00:00:00 | 00:33:15 | 00:00:00 | |
| 9A1FER-3 | 2026-09-04 11:34:03 | 45.75704 | 16.11513 | 144° | 55km/h | 6557m | 4.2m/s | -11.5°C | 5.7% | 0hPa | 3.0V | 00:00:00 | 00:33:14 | 00:00:00 | |
| OM5KV | 2026-09-04 11:33:57 | 45.75763 | 16.11452 | 142° | 62km/h | 6525m | 6.3m/s | -11.4°C | 5.5% | 0hPa | 3.0V | 00:00:00 | 00:00:00 | 00:00:00 | |
| OM5KV | 2026-09-04 11:33:52 | 45.75817 | 16.11386 | 139° | 51km/h | 6504m | 5.3m/s | -11.3°C | 5.9% | 0hPa | 3.0V | 00:00:00 | 00:00:00 | 00:00:00 | |
| 9A1FER-15 | 2026-09-04 11:33:50 | 45.75846 | 16.11352 | 143° | 53km/h | 6492m | 6.2m/s | -11.2°C | 6.2% | 0hPa | 3.0V | 00:00:00 | 00:33:01 | 00:00:00 | |
| 9A1FER-10 | 2026-09-04 11:33:49 | 45.75856 | 16.11342 | 147° | 53km/h | 6486m | 7.5m/s | -11.2°C | 6.2% | 0hPa | 3.0V | 00:00:00 | 00:33:00 | 00:00:00 | |
| 9A1FER-3 | 2026-09-04 11:33:48 | 45.75867 | 16.11331 | 144° | 53km/h | 6480m | 5.5m/s | -11.1°C | 6.2% | 0hPa | 3.0V | 00:00:00 | 00:32:59 | 00:00:00 | |
| OM5KV | 2026-09-04 11:33:46 | 45.75877 | 16.11321 | 146° | 47km/h | 6475m | 3.7m/s | -11.1°C | 5.8% | 0hPa | 3.0V | 00:00:00 | 00:00:00 | 00:00:00 | |
| OM5KV | 2026-09-04 11:33:45 | 45.75887 | 16.11311 | 147° | 51km/h | 6472m | 2.9m/s | -11.1°C | 0% | 0hPa | 3.0V | 00:00:00 | 00:00:00 | 00:00:00 | |
| OM5KV | 2026-09-04 11:33:44 | 45.75898 | 16.11300 | 147° | 53km/h | 6468m | 4.0m/s | -11.1°C | 5.8% | 0hPa | 3.0V | 00:00:00 | 00:00:00 | 00:00:00 | |
| OM5KV | 2026-09-04 11:33:42 | 45.75930 | 16.11267 | 140° | 51km/h | 6452m | 6.3m/s | -11.1°C | 5.8% | 0hPa | 3.0V | 00:00:00 | 00:00:00 | 00:00:00 | |
| OM5KV | 2026-09-04 11:33:39 | 45.75951 | 16.11241 | 141° | 57km/h | 6440m | 5.2m/s | -11.0°C | 0% | 0hPa | 3.0V | 00:00:00 | 00:00:00 | 00:00:00 | |
| OM5KV | 2026-09-04 11:33:35 | 45.76007 | 16.11183 | 149° | 53km/h | 6418m | 5.8m/s | -10.9°C | 5.8% | 0hPa | 3.0V | 00:00:00 | 00:00:00 | 00:00:00 | |
| 9A1FER-10 | 2026-09-04 11:33:34 | 45.76018 | 16.11173 | 146° | 57km/h | 6412m | 4.9m/s | -10.8°C | 6.3% | 0hPa | 3.0V | 00:00:00 | 00:32:45 | 00:00:00 | |
| 9A1FER-3 | 2026-09-04 11:33:33 | 45.76028 | 16.11162 | 142° | 57km/h | 6408m | 5.1m/s | -10.8°C | 6.4% | 0hPa | 3.0V | 00:00:00 | 00:32:44 | 00:00:00 | |
| OM5KV | 2026-09-04 11:33:28 | 45.76067 | 16.11117 | 141° | 49km/h | 6390m | 7.2m/s | -10.8°C | 6.0% | 0hPa | 3.0V | 00:00:00 | 00:00:00 | 00:00:00 | |
| OM5KV | 2026-09-04 11:33:23 | 45.76118 | 16.11053 | 139° | 62km/h | 6361m | 5.9m/s | -10.7°C | 6.2% | 0hPa | 3.0V | 00:00:00 | 00:00:00 | 00:00:00 | |
| 9A1FER-15 | 2026-09-04 11:33:20 | 45.76166 | 16.10987 | 138° | 60km/h | 6338m | 2.4m/s | -10.5°C | 7.0% | 0hPa | 3.0V | 00:00:00 | 00:32:31 | 00:00:00 | |
| 9A1FER-10 | 2026-09-04 11:33:19 | 45.76179 | 16.10971 | 138° | 60km/h | 6334m | 7.0m/s | -10.5°C | 7.0% | 0hPa | 3.0V | 00:00:00 | 00:32:30 | 00:00:00 | |
| 9A1FER-3 | 2026-09-04 11:33:18 | 45.76191 | 16.10956 | 141° | 60km/h | 6327m | 8.2m/s | -10.5°C | 7.2% | 0hPa | 3.0V | 00:00:00 | 00:32:29 | 00:00:00 | |
| OM5KV | 2026-09-04 11:33:10 | 45.76266 | 16.10857 | 139° | 55km/h | 6285m | 2.6m/s | -10.5°C | 0% | 0hPa | 3.0V | 00:00:00 | 00:00:00 | 00:00:00 | |
| OM5KV | 2026-09-04 11:33:07 | 45.76300 | 16.10812 | 137° | 62km/h | 6272m | 9.6m/s | -10.5°C | 0% | 0hPa | 3.0V | 00:00:00 | 00:00:00 | 00:00:00 | |
| OM5KV | 2026-09-04 11:33:05 | 45.76333 | 16.10766 | 136° | 58km/h | 6251m | 5.2m/s | -10.4°C | 0% | 0hPa | 3.0V | 00:00:00 | 00:00:00 | 00:00:00 | |
| 9A1FER-10 | 2026-09-04 11:33:04 | 45.76344 | 16.10751 | 137° | 62km/h | 6246m | 6.0m/s | -10.3°C | 7.5% | 0hPa | 3.0V | 00:00:00 | 00:32:15 | 00:00:00 | |
| 9A1FER-3 | 2026-09-04 11:33:03 | 45.76355 | 16.10736 | 138° | 62km/h | 6241m | 3.1m/s | -10.3°C | 7.5% | 0hPa | 3.0V | 00:00:00 | 00:32:14 | 00:00:00 | |
| OM5KV | 2026-09-04 11:32:57 | 45.76416 | 16.10662 | 140° | 66km/h | 6214m | 5.5m/s | -10.2°C | 0% | 0hPa | 3.0V | 00:00:00 | 00:00:00 | 00:00:00 | |
| OM5KV | 2026-09-04 11:32:52 | 45.76472 | 16.10588 | 137° | 58km/h | 6188m | 3.7m/s | 0°C | 0% | 0hPa | 3.0V | 00:00:00 | 00:00:00 | 00:00:00 | |
| 9A1FER-15 | 2026-09-04 11:32:50 | 45.76506 | 16.10545 | 143° | 57km/h | 6171m | 3.6m/s | -10.2°C | 9.4% | 0hPa | 3.0V | 00:00:00 | 00:32:01 | 00:00:00 | |
| 9A1FER-10 | 2026-09-04 11:32:49 | 45.76519 | 16.10531 | 143° | 57km/h | 6167m | 4.5m/s | -10.2°C | 9.6% | 0hPa | 3.0V | 00:00:00 | 00:32:00 | 00:00:00 | |
| 9A1FER-3 | 2026-09-04 11:32:48 | 45.76531 | 16.10518 | 144° | 57km/h | 6162m | 6.9m/s | -10.2°C | 9.8% | 0hPa | 3.0V | 00:00:00 | 00:31:59 | 00:00:00 | |
| OM5KV | 2026-09-04 11:32:45 | 45.76554 | 16.10494 | 143° | 53km/h | 6148m | 6.7m/s | -10.3°C | 0% | 0hPa | 3.0V | 00:00:00 | 00:00:00 | 00:00:00 | |
| OM5KV | 2026-09-04 11:32:44 | 45.76565 | 16.10482 | 140° | 51km/h | 6141m | 6.7m/s | -10.3°C | 0% | 0hPa | 3.0V | 00:00:00 | 00:00:00 | 00:00:00 | |
| OM5KV | 2026-09-04 11:32:41 | 45.76594 | 16.10445 | 140° | 53km/h | 6125m | 3.2m/s | 0°C | 0% | 0hPa | 3.0V | 00:00:00 | 00:00:00 | 00:00:00 | |
| OM5KV | 2026-09-04 11:32:39 | 45.76616 | 16.10419 | 141° | 55km/h | 6119m | 3.5m/s | -10.3°C | 0% | 0hPa | 3.0V | 00:00:00 | 00:00:00 | 00:00:00 | |
| OM5KV | 2026-09-04 11:32:35 | 45.76672 | 16.10348 | 140° | 64km/h | 6094m | 3.5m/s | -10.2°C | 0% | 0hPa | 3.0V | 00:00:00 | 00:00:00 | 00:00:00 | |
| 9A1FER-10 | 2026-09-04 11:32:34 | 45.76684 | 16.10334 | 140° | 60km/h | 6089m | 5.9m/s | -10.1°C | 12.2% | 0hPa | 3.0V | 00:00:00 | 00:31:45 | 00:00:00 | |
| 9A1FER-3 | 2026-09-04 11:32:33 | 45.76696 | 16.10319 | 141° | 60km/h | 6084m | 5.1m/s | -10.0°C | 12.2% | 0hPa | 3.0V | 00:00:00 | 00:31:44 | 00:00:00 | |
| 9A1FER-15 | 2026-09-04 11:32:20 | 45.76853 | 16.10143 | 148° | 58km/h | 6016m | 7.7m/s | -9.9°C | 12.8% | 0hPa | 3.0V | 00:00:00 | 00:31:31 | 08:30:00 | |
| 9A1FER-10 | 2026-09-04 11:32:19 | 45.76865 | 16.10132 | 149° | 60km/h | 6009m | 5.6m/s | -9.8°C | 12.7% | 0hPa | 3.0V | 00:00:00 | 00:31:30 | 08:30:00 | |
| OM5KV | 2026-09-04 11:32:14 | 45.76917 | 16.10086 | 148° | 60km/h | 5991m | 3.5m/s | 0°C | 0% | 0hPa | 3.0V | 00:00:00 | 00:00:00 | 00:00:00 | |
| 9A1FER-15 | 2026-09-04 11:32:05 | 45.77049 | 16.09985 | 143° | 55km/h | 5937m | 5.2m/s | -9.7°C | 14.2% | 0hPa | 3.0V | 00:00:00 | 00:31:16 | 00:00:00 | |
| 9A1FER-10 | 2026-09-04 11:32:04 | 45.77061 | 16.09971 | 141° | 55km/h | 5931m | 6.4m/s | -9.8°C | 15.4% | 0hPa | 3.0V | 00:00:00 | 00:31:15 | 00:00:00 | |
| 9A1FER-3 | 2026-09-04 11:32:03 | 45.77073 | 16.09958 | 142° | 55km/h | 5925m | 5.6m/s | -9.8°C | 15.6% | 0hPa | 3.0V | 00:00:00 | 00:31:14 | 00:00:00 | |
| OM5KV | 2026-09-04 11:31:58 | 45.77118 | 16.09916 | 152° | 51km/h | 5906m | 4.8m/s | 0°C | 0% | 0hPa | 3.0V | 00:00:00 | 00:00:00 | 00:00:00 | |
| OM5KV | 2026-09-04 11:31:52 | 45.77188 | 16.09865 | 153° | 58km/h | 5870m | 6.6m/s | 0°C | 0% | 0hPa | 3.0V | 00:00:00 | 00:00:00 | 00:00:00 | |
| 9A1FER-15 | 2026-09-04 11:31:50 | 45.77227 | 16.09833 | 149° | 53km/h | 5853m | 8.3m/s | -10.1°C | 23.0% | 0hPa | 3.0V | 00:00:00 | 00:31:01 | 00:00:00 | |
| 9A1FER-10 | 2026-09-04 11:31:49 | 45.77241 | 16.09822 | 150° | 53km/h | 5845m | 9.4m/s | -10.2°C | 25.6% | 0hPa | 3.0V | 00:00:00 | 00:31:00 | 00:00:00 | |
| 9A1FER-3 | 2026-09-04 11:31:48 | 45.77255 | 16.09810 | 151° | 53km/h | 5837m | 6.5m/s | -10.3°C | 27.5% | 0hPa | 3.0V | 00:00:00 | 00:30:59 | 00:00:00 | |
| OM5KV | 2026-09-04 11:31:45 | 45.77280 | 16.09791 | 154° | 55km/h | 5827m | 4.4m/s | 0°C | 0% | 0hPa | 3.0V | 00:00:00 | 00:00:00 | 00:00:00 | |
| 9A1FER-15 | 2026-09-04 11:31:35 | 45.77402 | 16.09690 | 147° | 55km/h | 5767m | 5.9m/s | -10.9°C | 59.3% | 0hPa | 3.0V | 00:00:00 | 00:30:46 | 00:00:00 | |
| 9A1FER-10 | 2026-09-04 11:31:34 | 45.77414 | 16.09679 | 151° | 53km/h | 5762m | 4.5m/s | -10.9°C | 59.9% | 0hPa | 3.0V | 00:00:00 | 00:30:45 | 00:00:00 | |
| 9A1FER-3 | 2026-09-04 11:31:33 | 45.77426 | 16.09669 | 151° | 53km/h | 5757m | 4.2m/s | -10.8°C | 60.2% | 0hPa | 3.0V | 00:00:00 | 00:30:44 | 00:00:00 | |
| 9A1FER-15 | 2026-09-04 11:31:20 | 45.77577 | 16.09542 | 148° | 49km/h | 5684m | 5.1m/s | -10.4°C | 68.7% | 0hPa | 3.0V | 00:00:00 | 00:30:31 | 00:00:00 | |
| 9A1FER-10 | 2026-09-04 11:31:19 | 45.77587 | 16.09532 | 144° | 49km/h | 5678m | 6.0m/s | -10.3°C | 68.5% | 0hPa | 3.0V | 00:00:00 | 00:30:30 | 00:00:00 | |
| 9A1FER-3 | 2026-09-04 11:31:18 | 45.77596 | 16.09522 | 144° | 49km/h | 5674m | 3.1m/s | -10.2°C | 68.5% | 0hPa | 3.0V | 00:00:00 | 00:30:29 | 00:00:00 | |
| 9A1FER-15 | 2026-09-04 11:31:05 | 45.77739 | 16.09407 | 151° | 51km/h | 5603m | 9.8m/s | -9.6°C | 66.3% | 0hPa | 3.0V | 00:00:00 | 00:30:16 | 00:00:00 | |
| 9A1FER-10 | 2026-09-04 11:31:04 | 45.77749 | 16.09398 | 149° | 51km/h | 5595m | 5.8m/s | -9.5°C | 66.1% | 0hPa | 3.0V | 00:00:00 | 00:30:15 | 00:00:00 | |
| 9A1FER-3 | 2026-09-04 11:31:03 | 45.77761 | 16.09388 | 148° | 49km/h | 5591m | 3.3m/s | -9.5°C | 66.1% | 0hPa | 3.0V | 00:00:00 | 00:30:14 | 00:00:00 | |
| 9A1FER-15 | 2026-09-04 11:30:50 | 45.77902 | 16.09267 | 145° | 51km/h | 5521m | 10.4m/s | -8.8°C | 63.7% | 0hPa | 3.0V | 00:00:00 | 00:30:01 | 00:00:00 | |
| 9A1FER-10 | 2026-09-04 11:30:49 | 45.77911 | 16.09257 | 146° | 51km/h | 5513m | 5.5m/s | -8.7°C | 63.5% | 0hPa | 3.0V | 00:00:00 | 00:30:00 | 00:00:00 | |
| 9A1FER-3 | 2026-09-04 11:30:48 | 45.77922 | 16.09247 | 146° | 51km/h | 5508m | 2.8m/s | -8.7°C | 63.7% | 0hPa | 3.0V | 00:00:00 | 00:29:59 | 00:00:00 | |
| 9A1FER-15 | 2026-09-04 11:30:35 | 45.78067 | 16.09116 | 150° | 46km/h | 5431m | 6.6m/s | -8.0°C | 58.9% | 0hPa | 3.0V | 00:00:00 | 00:29:46 | 00:00:00 | |
| 9A1FER-10 | 2026-09-04 11:30:34 | 45.78077 | 16.09108 | 148° | 46km/h | 5426m | 4.7m/s | -8.0°C | 58.9% | 0hPa | 3.0V | 00:00:00 | 00:29:45 | 00:00:00 | |
| 9A1FER-3 | 2026-09-04 11:30:33 | 45.78086 | 16.09098 | 144° | 46km/h | 5420m | 7.4m/s | -7.9°C | 58.5% | 0hPa | 3.0V | 00:00:00 | 00:29:44 | 00:00:00 | |
| 9A1FER-15 | 2026-09-04 11:30:20 | 45.78211 | 16.08977 | 154° | 47km/h | 5350m | 9.4m/s | -7.3°C | 55.9% | 0hPa | 3.0V | 00:00:00 | 00:29:31 | 00:00:00 | |
| 9A1FER-10 | 2026-09-04 11:30:19 | 45.78221 | 16.08970 | 152° | 47km/h | 5343m | 7.0m/s | -7.2°C | 55.8% | 0hPa | 3.0V | 00:00:00 | 00:29:30 | 00:00:00 | |
| 9A1FER-3 | 2026-09-04 11:30:18 | 45.78231 | 16.08962 | 152° | 47km/h | 5335m | 7.2m/s | -7.1°C | 55.5% | 0hPa | 3.0V | 00:00:00 | 00:29:29 | 00:00:00 | |
| 9A1FER-15 | 2026-09-04 11:30:05 | 45.78362 | 16.08844 | 156° | 46km/h | 5271m | 5.8m/s | -6.5°C | 49.2% | 0hPa | 3.0V | 00:00:00 | 00:29:16 | 08:30:00 | |
| 9A1FER-10 | 2026-09-04 11:30:04 | 45.78373 | 16.08836 | 154° | 46km/h | 5265m | 7.9m/s | -6.4°C | 49.3% | 0hPa | 3.0V | 00:00:00 | 00:29:15 | 08:30:00 | |
| 9A1FER-15 | 2026-09-04 11:29:50 | 45.78511 | 16.08708 | 137° | 49km/h | 5182m | 6.7m/s | -5.7°C | 47.0% | 0hPa | 3.0V | 00:00:00 | 00:29:01 | 00:00:00 | |
| 9A1FER-10 | 2026-09-04 11:29:49 | 45.78519 | 16.08697 | 138° | 49km/h | 5176m | 4.4m/s | -5.7°C | 47.2% | 0hPa | 3.0V | 00:00:00 | 00:29:00 | 00:00:00 | |
| 9A1FER-3 | 2026-09-04 11:29:48 | 45.78529 | 16.08685 | 140° | 49km/h | 5173m | 1.5m/s | -5.6°C | 47.9% | 0hPa | 3.0V | 00:00:00 | 00:28:59 | 00:00:00 | |
| 9A1FER-15 | 2026-09-04 11:29:35 | 45.78662 | 16.08545 | 137° | 51km/h | 5104m | 6.3m/s | -5.0°C | 47.3% | 0hPa | 3.0V | 00:00:00 | 00:28:46 | 00:00:00 | |
| 9A1FER-10 | 2026-09-04 11:29:34 | 45.78671 | 16.08533 | 141° | 51km/h | 5098m | 6.4m/s | -5.0°C | 47.3% | 0hPa | 3.0V | 00:00:00 | 00:28:45 | 00:00:00 | |
| 9A1FER-3 | 2026-09-04 11:29:33 | 45.78681 | 16.08523 | 146° | 53km/h | 5092m | 6.7m/s | -4.9°C | 47.2% | 0hPa | 3.0V | 00:00:00 | 00:28:44 | 00:00:00 | |
| 9A1FER-15 | 2026-09-04 11:29:20 | 45.78825 | 16.08389 | 149° | 51km/h | 5007m | 7.4m/s | -4.5°C | 58.1% | 0hPa | 3.0V | 00:00:00 | 00:28:31 | 00:00:00 | |
| 9A1FER-10 | 2026-09-04 11:29:19 | 45.78837 | 16.08379 | 152° | 51km/h | 4999m | 7.2m/s | -4.4°C | 57.6% | 0hPa | 3.0V | 00:00:00 | 00:28:30 | 00:00:00 | |
| 9A1FER-3 | 2026-09-04 11:29:18 | 45.78849 | 16.08370 | 152° | 49km/h | 4992m | 5.4m/s | -4.4°C | 57.5% | 0hPa | 3.0V | 00:00:00 | 00:28:29 | 00:00:00 | |
| 9A1FER-15 | 2026-09-04 11:29:05 | 45.78993 | 16.08258 | 151° | 51km/h | 4915m | 4.4m/s | -3.8°C | 56.2% | 0hPa | 3.0V | 00:00:00 | 00:28:16 | 00:00:00 | |
| 9A1FER-10 | 2026-09-04 11:29:04 | 45.79004 | 16.08249 | 150° | 51km/h | 4910m | 4.7m/s | -3.7°C | 56.4% | 0hPa | 3.0V | 00:00:00 | 00:28:15 | 00:00:00 | |
| 9A1FER-3 | 2026-09-04 11:29:03 | 45.79015 | 16.08240 | 151° | 51km/h | 4905m | 6.7m/s | -3.7°C | 57.2% | 0hPa | 3.0V | 00:00:00 | 00:28:14 | 00:00:00 | |
| 9A1FER-15 | 2026-09-04 11:28:50 | 45.79160 | 16.08114 | 148° | 53km/h | 4831m | 4.1m/s | -3.4°C | 65.9% | 0hPa | 3.0V | 00:00:00 | 00:28:01 | 00:00:00 | |
| 9A1FER-10 | 2026-09-04 11:28:49 | 45.79172 | 16.08104 | 150° | 53km/h | 4826m | 5.4m/s | -3.4°C | 63.7% | 0hPa | 3.0V | 00:00:00 | 00:28:00 | 00:00:00 | |
| 9A1FER-3 | 2026-09-04 11:28:48 | 45.79183 | 16.08095 | 151° | 53km/h | 4821m | 4.7m/s | -3.4°C | 64.3% | 0hPa | 3.0V | 00:00:00 | 00:27:59 | 00:00:00 | |
| 9A1FER-15 | 2026-09-04 11:28:35 | 45.79340 | 16.07985 | 158° | 51km/h | 4754m | 4.9m/s | -3.0°C | 63.6% | 0hPa | 3.0V | 00:00:00 | 00:27:46 | 00:00:00 | |
| 9A1FER-10 | 2026-09-04 11:28:34 | 45.79352 | 16.07978 | 156° | 51km/h | 4749m | 4.9m/s | -3.0°C | 63.7% | 0hPa | 3.0V | 00:00:00 | 00:27:45 | 00:00:00 | |
| 9A1FER-3 | 2026-09-04 11:28:33 | 45.79364 | 16.07969 | 152° | 49km/h | 4744m | 7.0m/s | -2.9°C | 63.3% | 0hPa | 3.0V | 00:00:00 | 00:27:44 | 00:00:00 | |
| 9A1FER-15 | 2026-09-04 11:28:20 | 45.79516 | 16.07869 | 148° | 49km/h | 4672m | 5.8m/s | -2.5°C | 62.1% | 0hPa | 3.0V | 00:00:00 | 00:27:31 | 00:00:00 | |
| 9A1FER-10 | 2026-09-04 11:28:19 | 45.79525 | 16.07860 | 149° | 49km/h | 4666m | 7.0m/s | -2.5°C | 62.2% | 0hPa | 3.0V | 00:00:00 | 00:27:30 | 00:00:00 | |
| 9A1FER-3 | 2026-09-04 11:28:18 | 45.79536 | 16.07851 | 150° | 51km/h | 4659m | 6.0m/s | -2.4°C | 62.2% | 0hPa | 3.0V | 00:00:00 | 00:27:29 | 00:00:00 | |
| 9A1FER-15 | 2026-09-04 11:28:05 | 45.79686 | 16.07752 | 159° | 49km/h | 4575m | 5.5m/s | -1.7°C | 62.5% | 0hPa | 3.0V | 00:00:00 | 00:27:16 | 00:00:00 | |
| 9A1FER-10 | 2026-09-04 11:28:04 | 45.79698 | 16.07745 | 156° | 49km/h | 4569m | 6.6m/s | -1.6°C | 62.9% | 0hPa | 3.0V | 00:00:00 | 00:27:15 | 00:00:00 | |
| 9A1FER-3 | 2026-09-04 11:28:03 | 45.79710 | 16.07738 | 156° | 49km/h | 4565m | 3.0m/s | -1.6°C | 63.6% | 0hPa | 3.0V | 00:00:00 | 00:27:14 | 00:00:00 | |
| 9A1FER-15 | 2026-09-04 11:27:50 | 45.79856 | 16.07640 | 157° | 47km/h | 4482m | 5.6m/s | -0.9°C | 64.7% | 0hPa | 3.0V | 00:00:00 | 00:27:01 | 08:30:00 | |
| 9A1FER-10 | 2026-09-04 11:27:49 | 45.79867 | 16.07632 | 155° | 47km/h | 4477m | 3.9m/s | -0.9°C | 65.4% | 0hPa | 3.0V | 00:00:00 | 00:27:00 | 08:30:00 | |
| 9A1FER-3 | 2026-09-04 11:27:48 | 45.79879 | 16.07624 | 156° | 47km/h | 4473m | 4.5m/s | -0.9°C | 66.0% | 0hPa | 3.0V | 00:00:00 | 00:26:59 | 08:30:00 | |
| 9A1FER-15 | 2026-09-04 11:27:35 | 45.80016 | 16.07528 | 152° | 47km/h | 4389m | 3.7m/s | -0.4°C | 66.0% | 0hPa | 3.0V | 00:00:00 | 00:26:46 | 00:00:00 | |
| 9A1FER-10 | 2026-09-04 11:27:34 | 45.80027 | 16.07520 | 153° | 47km/h | 4385m | 3.5m/s | -0.3°C | 65.9% | 0hPa | 3.0V | 00:00:00 | 00:26:45 | 00:00:00 | |
| 9A1FER-3 | 2026-09-04 11:27:33 | 45.80038 | 16.07512 | 154° | 47km/h | 4380m | 5.0m/s | -0.3°C | 65.7% | 0hPa | 3.0V | 00:00:00 | 00:26:44 | 00:00:00 | |
| 9A1FER-15 | 2026-09-04 11:27:20 | 45.80182 | 16.07425 | 160° | 46km/h | 4304m | 5.1m/s | 0.3°C | 62.2% | 0hPa | 3.0V | 00:00:00 | 00:26:31 | 00:00:00 | |
| 9A1FER-10 | 2026-09-04 11:27:19 | 45.80193 | 16.07419 | 159° | 46km/h | 4297m | 8.2m/s | 0.3°C | 61.5% | 0hPa | 3.0V | 00:00:00 | 00:26:30 | 00:00:00 | |
| 9A1FER-3 | 2026-09-04 11:27:18 | 45.80204 | 16.07412 | 155° | 46km/h | 4292m | 0.6m/s | 0.4°C | 61.0% | 0hPa | 3.0V | 00:00:00 | 00:26:29 | 00:00:00 | |
| 9A1FER-15 | 2026-09-04 11:27:05 | 45.80343 | 16.07326 | 150° | 47km/h | 4224m | 7.2m/s | 0.8°C | 45.6% | 0hPa | 3.0V | 00:00:00 | 00:26:16 | 00:00:00 | |
| 9A1FER-10 | 2026-09-04 11:27:04 | 45.80351 | 16.07318 | 144° | 47km/h | 4218m | 5.2m/s | 0.9°C | 44.5% | 0hPa | 3.0V | 00:00:00 | 00:26:15 | 00:00:00 | |
| 9A1FER-3 | 2026-09-04 11:27:03 | 45.80360 | 16.07309 | 144° | 47km/h | 4212m | 5.6m/s | 0.9°C | 45.8% | 0hPa | 3.0V | 00:00:00 | 00:26:14 | 00:00:00 | |
| 9A1FER-15 | 2026-09-04 11:26:50 | 45.80498 | 16.07202 | 155° | 42km/h | 4139m | 5.1m/s | 1.3°C | 39.6% | 0hPa | 3.0V | 00:00:00 | 00:26:01 | 00:00:00 | |
| 9A1FER-10 | 2026-09-04 11:26:49 | 45.80510 | 16.07195 | 157° | 42km/h | 4134m | 4.6m/s | 1.2°C | 34.2% | 0hPa | 3.0V | 00:00:00 | 00:26:00 | 00:00:00 | |
| 9A1FER-3 | 2026-09-04 11:26:48 | 45.80521 | 16.07187 | 153° | 40km/h | 4128m | 7.7m/s | 1.1°C | 34.7% | 0hPa | 3.0V | 00:00:00 | 00:25:59 | 00:00:00 | |
| 9A1FER-15 | 2026-09-04 11:26:35 | 45.80638 | 16.07092 | 163° | 42km/h | 4054m | 5.5m/s | 1.3°C | 56.1% | 0hPa | 3.0V | 00:00:00 | 00:25:46 | 00:00:00 | |
| 9A1FER-3 | 2026-09-04 11:26:33 | 45.80656 | 16.07084 | 162° | 44km/h | 4041m | 4.9m/s | 1.4°C | 58.0% | 0hPa | 3.0V | 00:00:00 | 00:25:44 | 00:00:00 | |
| 9A1FER-15 | 2026-09-04 11:26:20 | 45.80788 | 16.07002 | 155° | 42km/h | 3968m | 8.6m/s | 2.0°C | 58.2% | 0hPa | 3.0V | 00:00:00 | 00:25:31 | 00:00:00 | |
| 9A1FER-10 | 2026-09-04 11:26:19 | 45.80797 | 16.06995 | 155° | 42km/h | 3961m | 5.6m/s | 2.0°C | 57.4% | 0hPa | 3.0V | 00:00:00 | 00:25:30 | 00:00:00 | |
| 9A1FER-15 | 2026-09-04 11:26:05 | 45.80929 | 16.06901 | 154° | 42km/h | 3882m | 4.7m/s | 2.7°C | 55.1% | 0hPa | 3.0V | 00:00:00 | 00:25:16 | 00:00:00 | |
| 9A1FER-10 | 2026-09-04 11:26:04 | 45.80939 | 16.06894 | 155° | 42km/h | 3877m | 3.3m/s | 2.8°C | 54.6% | 0hPa | 3.0V | 00:00:00 | 00:25:15 | 00:00:00 | |
| 9A1FER-3 | 2026-09-04 11:26:03 | 45.80949 | 16.06887 | 153° | 42km/h | 3872m | 5.9m/s | 2.8°C | 53.8% | 0hPa | 3.0V | 00:00:00 | 00:25:14 | 00:00:00 | |
| 9A1FER-15 | 2026-09-04 11:25:50 | 45.81073 | 16.06806 | 158° | 38km/h | 3799m | 3.3m/s | 3.6°C | 40.8% | 0hPa | 3.0V | 00:00:00 | 00:25:01 | 00:00:00 | |
| 9A1FER-10 | 2026-09-04 11:25:49 | 45.81083 | 16.06800 | 160° | 38km/h | 3794m | 7.7m/s | 3.6°C | 40.7% | 0hPa | 3.0V | 00:00:00 | 00:25:00 | 00:00:00 | |
| 9A1FER-3 | 2026-09-04 11:25:48 | 45.81093 | 16.06795 | 160° | 38km/h | 3786m | 6.5m/s | 3.6°C | 41.9% | 0hPa | 3.0V | 00:00:00 | 00:24:59 | 00:00:00 | |
| 9A1FER-15 | 2026-09-04 11:25:35 | 45.81202 | 16.06711 | 148° | 38km/h | 3718m | 4.7m/s | 4.2°C | 31.9% | 0hPa | 3.0V | 00:00:00 | 00:24:46 | 08:30:00 | |
| 9A1FER-10 | 2026-09-04 11:25:34 | 45.81211 | 16.06703 | 151° | 37km/h | 3712m | 5.6m/s | 4.2°C | 31.1% | 0hPa | 3.0V | 00:00:00 | 00:24:45 | 08:30:00 | |
| 9A1FER-3 | 2026-09-04 11:25:33 | 45.81220 | 16.06697 | 158° | 37km/h | 3707m | 3.9m/s | 4.3°C | 30.7% | 0hPa | 3.0V | 00:00:00 | 00:24:44 | 08:30:00 | |
| 9A1FER-15 | 2026-09-04 11:25:20 | 45.81334 | 16.06639 | 151° | 37km/h | 3637m | 6.5m/s | 4.8°C | 8.3% | 0hPa | 3.0V | 00:00:00 | 00:24:31 | 00:00:00 | |
| 9A1FER-10 | 2026-09-04 11:25:19 | 45.81342 | 16.06632 | 150° | 37km/h | 3631m | 5.9m/s | 4.9°C | 8.2% | 0hPa | 3.0V | 00:00:00 | 00:24:30 | 00:00:00 | |
| 9A1FER-3 | 2026-09-04 11:25:18 | 45.81350 | 16.06626 | 154° | 37km/h | 3626m | 4.3m/s | 4.9°C | 8.3% | 0hPa | 3.0V | 00:00:00 | 00:24:29 | 00:00:00 | |
| 9A1FER-15 | 2026-09-04 11:25:05 | 45.81464 | 16.06570 | 163° | 33km/h | 3556m | 5.5m/s | 5.4°C | 8.7% | 0hPa | 3.0V | 00:00:00 | 00:24:16 | 00:00:00 | |
| 9A1FER-10 | 2026-09-04 11:25:04 | 45.81471 | 16.06566 | 158° | 35km/h | 3551m | 4.8m/s | 5.5°C | 9.0% | 0hPa | 3.0V | 00:00:00 | 00:24:15 | 00:00:00 | |
| 9A1FER-3 | 2026-09-04 11:25:03 | 45.81478 | 16.06562 | 157° | 35km/h | 3546m | 3.9m/s | 5.5°C | 8.9% | 0hPa | 3.0V | 00:00:00 | 00:24:14 | 00:00:00 | |
| 9A1FER-15 | 2026-09-04 11:24:50 | 45.81583 | 16.06506 | 153° | 38km/h | 3470m | 8.5m/s | 6.1°C | 8.0% | 0hPa | 3.0V | 00:00:00 | 00:24:01 | 00:00:00 | |
| 9A1FER-10 | 2026-09-04 11:24:49 | 45.81592 | 16.06500 | 164° | 38km/h | 3461m | 8.8m/s | 6.1°C | 8.0% | 0hPa | 3.0V | 00:00:00 | 00:24:00 | 00:00:00 | |
| 9A1FER-3 | 2026-09-04 11:24:48 | 45.81600 | 16.06498 | 172° | 38km/h | 3455m | 3.4m/s | 6.1°C | 7.9% | 0hPa | 3.0V | 00:00:00 | 00:23:59 | 00:00:00 | |
| 9A1FER-15 | 2026-09-04 11:24:35 | 45.81718 | 16.06443 | 164° | 40km/h | 3384m | 3.8m/s | 6.2°C | 8.3% | 0hPa | 3.0V | 00:00:00 | 00:23:46 | 00:00:00 | |
| 9A1FER-10 | 2026-09-04 11:24:34 | 45.81729 | 16.06438 | 163° | 38km/h | 3380m | 4.7m/s | 6.1°C | 8.9% | 0hPa | 3.0V | 00:00:00 | 00:23:45 | 00:00:00 | |
| 9A1FER-3 | 2026-09-04 11:24:33 | 45.81740 | 16.06434 | 165° | 38km/h | 3374m | 7.2m/s | 6.0°C | 11.5% | 0hPa | 3.0V | 00:00:00 | 00:23:44 | 00:00:00 | |
| 9A1FER-15 | 2026-09-04 11:24:20 | 45.81852 | 16.06350 | 155° | 37km/h | 3314m | 3.9m/s | 5.2°C | 49.9% | 0hPa | 3.0V | 00:00:00 | 00:23:31 | 00:00:00 | |
| 9A1FER-10 | 2026-09-04 11:24:19 | 45.81860 | 16.06345 | 158° | 35km/h | 3309m | 5.4m/s | 5.2°C | 50.0% | 0hPa | 3.0V | 00:00:00 | 00:23:30 | 00:00:00 | |
| 9A1FER-3 | 2026-09-04 11:24:18 | 45.81868 | 16.06340 | 157° | 35km/h | 3305m | 2.6m/s | 5.2°C | 51.7% | 0hPa | 3.0V | 00:00:00 | 00:23:29 | 00:00:00 | |
| 9A1FER-15 | 2026-09-04 11:24:05 | 45.81973 | 16.06258 | 152° | 35km/h | 3241m | 7.2m/s | 5.0°C | 66.7% | 0hPa | 3.0V | 00:00:00 | 00:23:16 | 00:00:00 | |
| 9A1FER-10 | 2026-09-04 11:24:04 | 45.81979 | 16.06254 | 155° | 35km/h | 3234m | 5.1m/s | 5.0°C | 66.6% | 0hPa | 3.0V | 00:00:00 | 00:23:15 | 00:00:00 | |
| 9A1FER-3 | 2026-09-04 11:24:03 | 45.81986 | 16.06249 | 155° | 35km/h | 3229m | 5.9m/s | 5.0°C | 65.6% | 0hPa | 3.0V | 00:00:00 | 00:23:14 | 00:00:00 | |
| 9A1FER-15 | 2026-09-04 11:23:50 | 45.82084 | 16.06164 | 148° | 31km/h | 3164m | 5.9m/s | 5.6°C | 62.0% | 0hPa | 3.0V | 00:00:00 | 00:23:01 | 00:00:00 | |
| 9A1FER-10 | 2026-09-04 11:23:49 | 45.82092 | 16.06158 | 152° | 31km/h | 3158m | 6.1m/s | 5.7°C | 61.8% | 0hPa | 3.0V | 00:00:00 | 00:23:00 | 00:00:00 | |
| 9A1FER-3 | 2026-09-04 11:23:48 | 45.82100 | 16.06152 | 155° | 31km/h | 3153m | 4.3m/s | 5.7°C | 61.6% | 0hPa | 3.0V | 00:00:00 | 00:22:59 | 00:00:00 | |
| 9A1FER-15 | 2026-09-04 11:23:35 | 45.82176 | 16.06054 | 127° | 29km/h | 3090m | 6.1m/s | 6.2°C | 56.6% | 0hPa | 3.0V | 00:00:00 | 00:22:46 | 00:00:00 | |
| 9A1FER-10 | 2026-09-04 11:23:34 | 45.82180 | 16.06046 | 130° | 29km/h | 3083m | 7.6m/s | 6.3°C | 56.2% | 0hPa | 3.0V | 00:00:00 | 00:22:45 | 00:00:00 | |
| 9A1FER-3 | 2026-09-04 11:23:33 | 45.82184 | 16.06038 | 126° | 27km/h | 3078m | 4.6m/s | 6.3°C | 55.9% | 0hPa | 3.0V | 00:00:00 | 00:22:44 | 00:00:00 | |
| 9A1FER-15 | 2026-09-04 11:23:20 | 45.82239 | 16.05928 | 122° | 24km/h | 3009m | 7.3m/s | 6.6°C | 58.1% | 0hPa | 3.0V | 00:00:00 | 00:22:31 | 08:30:00 | |
| 9A1FER-3 | 2026-09-04 11:23:18 | 45.82245 | 16.05914 | 124° | 24km/h | 3001m | 4.3m/s | 6.6°C | 58.2% | 0hPa | 3.0V | 00:00:00 | 00:22:29 | 08:30:00 | |
| 9A1FER-15 | 2026-09-04 11:23:05 | 45.82280 | 16.05817 | 100° | 26km/h | 2925m | 4.9m/s | 6.9°C | 60.4% | 0hPa | 3.0V | 00:00:00 | 00:22:16 | 00:00:00 | |
| 9A1FER-10 | 2026-09-04 11:23:04 | 45.82282 | 16.05810 | 102° | 26km/h | 2920m | 4.8m/s | 6.9°C | 60.5% | 0hPa | 3.0V | 00:00:00 | 00:22:15 | 00:00:00 | |
| 9A1FER-3 | 2026-09-04 11:23:03 | 45.82283 | 16.05801 | 102° | 26km/h | 2914m | 6.5m/s | 6.9°C | 60.5% | 0hPa | 3.0V | 00:00:00 | 00:22:14 | 00:00:00 | |
| 9A1FER-15 | 2026-09-04 11:22:50 | 45.82312 | 16.05688 | 120° | 24km/h | 2840m | 3.3m/s | 7.4°C | 61.1% | 0hPa | 3.0V | 00:00:00 | 00:22:01 | 00:00:00 | |
| 9A1FER-10 | 2026-09-04 11:22:49 | 45.82315 | 16.05681 | 119° | 24km/h | 2836m | 5.7m/s | 7.5°C | 60.9% | 0hPa | 3.0V | 00:00:00 | 00:22:00 | 00:00:00 | |
| 9A1FER-3 | 2026-09-04 11:22:48 | 45.82318 | 16.05673 | 113° | 24km/h | 2830m | 5.5m/s | 7.5°C | 60.9% | 0hPa | 3.0V | 00:00:00 | 00:21:59 | 00:00:00 | |
| 9A1FER-15 | 2026-09-04 11:22:35 | 45.82352 | 16.05578 | 117° | 24km/h | 2761m | 2.9m/s | 8.1°C | 60.1% | 0hPa | 3.0V | 00:00:00 | 00:21:46 | 00:00:00 | |
| 9A1FER-10 | 2026-09-04 11:22:34 | 45.82355 | 16.05571 | 124° | 24km/h | 2757m | 3.8m/s | 8.1°C | 60.2% | 0hPa | 3.0V | 00:00:00 | 00:21:45 | 00:00:00 | |
| 9A1FER-3 | 2026-09-04 11:22:33 | 45.82358 | 16.05565 | 132° | 22km/h | 2753m | 5.2m/s | 8.1°C | 60.3% | 0hPa | 3.0V | 00:00:00 | 00:21:44 | 00:00:00 | |
| 9A1FER-10 | 2026-09-04 11:22:19 | 45.82408 | 16.05477 | 119° | 20km/h | 2674m | 3.7m/s | 8.7°C | 60.0% | 0hPa | 3.0V | 00:00:00 | 00:21:30 | 00:00:00 | |
| 9A1FER-15 | 2026-09-04 11:22:05 | 45.82451 | 16.05390 | 142° | 22km/h | 2598m | 9.4m/s | 9.3°C | 58.9% | 0hPa | 3.0V | 00:00:00 | 00:21:16 | 00:00:00 | |
| 9A1FER-10 | 2026-09-04 11:22:04 | 45.82455 | 16.05385 | 144° | 22km/h | 2591m | 3.9m/s | 9.4°C | 59.0% | 0hPa | 3.0V | 00:00:00 | 00:21:15 | 00:00:00 | |
| 9A1FER-3 | 2026-09-04 11:22:03 | 45.82459 | 16.05380 | 140° | 22km/h | 2586m | 5.8m/s | 9.4°C | 58.8% | 0hPa | 3.0V | 00:00:00 | 00:21:14 | 00:00:00 | |
| 9A1FER-15 | 2026-09-04 11:21:50 | 45.82501 | 16.05292 | 126° | 20km/h | 2519m | 7.3m/s | 10.0°C | 58.8% | 0hPa | 3.0V | 00:00:00 | 00:21:01 | 00:00:00 | |
| 9A1FER-10 | 2026-09-04 11:21:49 | 45.82505 | 16.05284 | 123° | 20km/h | 2512m | 5.2m/s | 10.0°C | 58.6% | 0hPa | 3.0V | 00:00:00 | 00:21:00 | 00:00:00 | |
| 9A1FER-3 | 2026-09-04 11:21:48 | 45.82509 | 16.05277 | 131° | 18km/h | 2507m | 5.5m/s | 10.1°C | 58.5% | 0hPa | 3.0V | 00:00:00 | 00:20:59 | 00:00:00 | |
| 9A1FER-15 | 2026-09-04 11:21:35 | 45.82543 | 16.05206 | 126° | 22km/h | 2437m | 5.4m/s | 10.7°C | 56.9% | 0hPa | 3.0V | 00:00:00 | 00:20:46 | 00:00:00 | |
| 9A1FER-10 | 2026-09-04 11:21:34 | 45.82547 | 16.05200 | 132° | 22km/h | 2432m | 3.6m/s | 10.8°C | 57.0% | 0hPa | 3.0V | 00:00:00 | 00:20:45 | 00:00:00 | |
| 9A1FER-3 | 2026-09-04 11:21:33 | 45.82550 | 16.05194 | 135° | 20km/h | 2427m | 7.1m/s | 10.8°C | 56.7% | 0hPa | 3.0V | 00:00:00 | 00:20:44 | 00:00:00 | |
| 9A1FER-15 | 2026-09-04 11:21:20 | 45.82590 | 16.05110 | 118° | 20km/h | 2361m | 5.3m/s | 11.5°C | 55.3% | 0hPa | 3.0V | 00:00:00 | 00:20:31 | 00:00:00 | |
| 9A1FER-10 | 2026-09-04 11:21:19 | 45.82591 | 16.05106 | 106° | 20km/h | 2356m | 5.3m/s | 11.5°C | 55.0% | 0hPa | 3.0V | 00:00:00 | 00:20:30 | 00:00:00 | |
| 9A1FER-3 | 2026-09-04 11:21:18 | 45.82592 | 16.05102 | 110° | 20km/h | 2350m | 6.6m/s | 11.6°C | 54.9% | 0hPa | 3.0V | 00:00:00 | 00:20:29 | 00:00:00 | |
| 9A1FER-15 | 2026-09-04 11:21:05 | 45.82624 | 16.05017 | 137° | 20km/h | 2280m | 3.3m/s | 12.1°C | 53.4% | 0hPa | 3.0V | 00:00:00 | 00:20:16 | 08:30:00 | |
| 9A1FER-10 | 2026-09-04 11:21:04 | 45.82628 | 16.05013 | 142° | 20km/h | 2276m | 4.2m/s | 12.2°C | 53.1% | 0hPa | 3.0V | 00:00:00 | 00:20:15 | 08:30:00 | |
| 9A1FER-3 | 2026-09-04 11:21:03 | 45.82632 | 16.05008 | 137° | 22km/h | 2272m | 3.1m/s | 12.2°C | 53.2% | 0hPa | 3.0V | 00:00:00 | 00:20:14 | 08:30:00 | |
| 9A1FER-15 | 2026-09-04 11:20:50 | 45.82668 | 16.04927 | 126° | 22km/h | 2201m | 8.0m/s | 12.8°C | 52.2% | 0hPa | 3.0V | 00:00:00 | 00:20:01 | 00:00:00 | |
| 9A1FER-10 | 2026-09-04 11:20:49 | 45.82672 | 16.04918 | 134° | 22km/h | 2195m | 5.5m/s | 12.9°C | 52.3% | 0hPa | 3.0V | 00:00:00 | 00:20:00 | 00:00:00 | |
| 9A1FER-3 | 2026-09-04 11:20:48 | 45.82677 | 16.04911 | 134° | 20km/h | 2188m | 6.4m/s | 12.9°C | 52.4% | 0hPa | 3.0V | 00:00:00 | 00:19:59 | 00:00:00 | |
| 9A1FER-15 | 2026-09-04 11:20:35 | 45.82722 | 16.04839 | 133° | 22km/h | 2124m | 4.2m/s | 13.4°C | 53.3% | 0hPa | 3.0V | 00:00:00 | 00:19:46 | 00:00:00 | |
| 9A1FER-10 | 2026-09-04 11:20:34 | 45.82725 | 16.04834 | 141° | 22km/h | 2119m | 5.9m/s | 13.4°C | 54.2% | 0hPa | 3.0V | 00:00:00 | 00:19:45 | 00:00:00 | |
| 9A1FER-3 | 2026-09-04 11:20:33 | 45.82728 | 16.04830 | 140° | 22km/h | 2114m | 4.3m/s | 13.4°C | 54.1% | 0hPa | 3.0V | 00:00:00 | 00:19:44 | 00:00:00 | |
| 9A1FER-15 | 2026-09-04 11:20:20 | 45.82764 | 16.04740 | 116° | 18km/h | 2043m | 3.4m/s | 13.9°C | 55.8% | 0hPa | 3.0V | 00:00:00 | 00:19:31 | 00:00:00 | |
| 9A1FER-10 | 2026-09-04 11:20:19 | 45.82766 | 16.04733 | 112° | 18km/h | 2038m | 5.7m/s | 13.9°C | 55.9% | 0hPa | 3.0V | 00:00:00 | 00:19:30 | 00:00:00 | |
| 9A1FER-3 | 2026-09-04 11:20:18 | 45.82768 | 16.04727 | 113° | 18km/h | 2033m | 4.9m/s | 13.9°C | 55.8% | 0hPa | 3.0V | 00:00:00 | 00:19:29 | 00:00:00 | |
| 9A1FER-15 | 2026-09-04 11:20:05 | 45.82779 | 16.04644 | 104° | 16km/h | 1971m | 5.2m/s | 14.3°C | 55.9% | 0hPa | 3.0V | 00:00:00 | 00:19:16 | 00:00:00 | |
| 9A1FER-3 | 2026-09-04 11:20:03 | 45.82782 | 16.04632 | 116° | 18km/h | 1961m | 4.0m/s | 14.3°C | 56.4% | 0hPa | 3.0V | 00:00:00 | 00:19:14 | 00:00:00 | |
| 9A1FER-15 | 2026-09-04 11:19:50 | 45.82789 | 16.04551 | 105° | 26km/h | 1894m | 6.9m/s | 14.5°C | 56.3% | 0hPa | 3.0V | 00:00:00 | 00:19:01 | 00:00:00 | |
| 9A1FER-10 | 2026-09-04 11:19:49 | 45.82791 | 16.04542 | 103° | 26km/h | 1888m | 5.7m/s | 14.5°C | 56.1% | 0hPa | 3.0V | 00:00:00 | 00:19:00 | 00:00:00 | |
| 9A1FER-3 | 2026-09-04 11:19:48 | 45.82792 | 16.04535 | 99° | 26km/h | 1882m | 6.0m/s | 14.5°C | 55.7% | 0hPa | 3.0V | 00:00:00 | 00:18:59 | 00:00:00 | |
| 9A1FER-15 | 2026-09-04 11:19:35 | 45.82771 | 16.04420 | 82° | 22km/h | 1821m | 5.6m/s | 14.7°C | 54.3% | 0hPa | 3.0V | 00:00:00 | 00:18:46 | 00:00:00 | |
| 9A1FER-10 | 2026-09-04 11:19:34 | 45.82770 | 16.04410 | 86° | 22km/h | 1816m | 4.6m/s | 14.8°C | 54.3% | 0hPa | 3.0V | 00:00:00 | 00:18:45 | 00:00:00 | |
| 9A1FER-3 | 2026-09-04 11:19:33 | 45.82770 | 16.04401 | 79° | 22km/h | 1813m | 1.7m/s | 14.8°C | 54.2% | 0hPa | 3.0V | 00:00:00 | 00:18:44 | 00:00:00 | |
| 9A1FER-15 | 2026-09-04 11:19:20 | 45.82757 | 16.04304 | 82° | 24km/h | 1746m | 8.0m/s | 15.3°C | 52.7% | 0hPa | 3.0V | 00:00:00 | 00:18:31 | 00:00:00 | |
| 9A1FER-10 | 2026-09-04 11:19:19 | 45.82756 | 16.04295 | 90° | 22km/h | 1739m | 4.9m/s | 15.4°C | 52.6% | 0hPa | 3.0V | 00:00:00 | 00:18:30 | 00:00:00 | |
| 9A1FER-3 | 2026-09-04 11:19:18 | 45.82756 | 16.04285 | 82° | 22km/h | 1735m | 4.0m/s | 15.4°C | 52.6% | 0hPa | 3.0V | 00:00:00 | 00:18:29 | 00:00:00 | |
| 9A1FER-15 | 2026-09-04 11:19:05 | 45.82748 | 16.04181 | 79° | 13km/h | 1674m | 8.6m/s | 15.3°C | 55.9% | 0hPa | 3.0V | 00:00:00 | 00:18:16 | 00:00:00 | |
| 9A1FER-10 | 2026-09-04 11:19:04 | 45.82747 | 16.04177 | 65° | 13km/h | 1666m | 7.8m/s | 15.0°C | 60.4% | 0hPa | 3.0V | 00:00:00 | 00:18:15 | 00:00:00 | |
| 9A1FER-3 | 2026-09-04 11:19:03 | 45.82746 | 16.04174 | 52° | 13km/h | 1659m | 6.1m/s | 14.9°C | 64.2% | 0hPa | 3.0V | 00:00:00 | 00:18:14 | 00:00:00 | |
| 9A1FER-15 | 2026-09-04 11:18:50 | 45.82716 | 16.04134 | 26° | 16km/h | 1599m | 2.8m/s | 15.6°C | 61.6% | 0hPa | 3.0V | 00:00:00 | 00:18:01 | 08:30:00 | |
| 9A1FER-10 | 2026-09-04 11:18:49 | 45.82713 | 16.04132 | 41° | 18km/h | 1594m | 7.3m/s | 15.6°C | 62.0% | 0hPa | 3.0V | 00:00:00 | 00:18:00 | 08:30:00 | |
| 9A1FER-3 | 2026-09-04 11:18:48 | 45.82711 | 16.04129 | 30° | 18km/h | 1590m | 2.2m/s | 15.6°C | 61.6% | 0hPa | 3.0V | 00:00:00 | 00:17:59 | 08:30:00 | |
| 9A1FER-15 | 2026-09-04 11:18:35 | 45.82654 | 16.04103 | 23° | 18km/h | 1520m | 6.6m/s | 16.2°C | 60.8% | 0hPa | 3.0V | 00:00:00 | 00:17:46 | 00:00:00 | |
| 9A1FER-10 | 2026-09-04 11:18:34 | 45.82649 | 16.04100 | 23° | 18km/h | 1514m | 6.0m/s | 16.3°C | 60.7% | 0hPa | 3.0V | 00:00:00 | 00:17:45 | 00:00:00 | |
| 9A1FER-3 | 2026-09-04 11:18:33 | 45.82644 | 16.04098 | 13° | 16km/h | 1508m | 5.8m/s | 16.3°C | 60.5% | 0hPa | 3.0V | 00:00:00 | 00:17:44 | 00:00:00 | |
| 9A1FER-15 | 2026-09-04 11:18:20 | 45.82595 | 16.04058 | 358° | 13km/h | 1431m | 6.4m/s | 17.0°C | 58.3% | 0hPa | 3.0V | 00:00:00 | 00:17:31 | 00:00:00 | |
| 9A1FER-10 | 2026-09-04 11:18:19 | 45.82592 | 16.04058 | 354° | 15km/h | 1426m | 4.7m/s | 17.1°C | 58.2% | 0hPa | 3.0V | 00:00:00 | 00:17:30 | 00:00:00 | |
| 9A1FER-3 | 2026-09-04 11:18:18 | 45.82588 | 16.04058 | 8° | 15km/h | 1419m | 7.6m/s | 17.2°C | 57.6% | 0hPa | 3.0V | 00:00:00 | 00:17:29 | 00:00:00 | |
| 9A1FER-15 | 2026-09-04 11:18:05 | 45.82545 | 16.04039 | 6° | 13km/h | 1338m | 7.0m/s | 17.9°C | 55.2% | 0hPa | 3.0V | 00:00:00 | 00:17:16 | 00:00:00 | |
| 9A1FER-10 | 2026-09-04 11:18:04 | 45.82541 | 16.04040 | 349° | 13km/h | 1331m | 6.8m/s | 18.0°C | 55.6% | 0hPa | 3.0V | 00:00:00 | 00:17:15 | 00:00:00 | |
| 9A1FER-3 | 2026-09-04 11:18:03 | 45.82537 | 16.04041 | 352° | 13km/h | 1324m | 7.1m/s | 18.0°C | 55.4% | 0hPa | 3.0V | 00:00:00 | 00:17:14 | 00:00:00 | |
| 9A1FER-15 | 2026-09-04 11:17:50 | 45.82494 | 16.04043 | 349° | 9km/h | 1241m | 5.8m/s | 18.8°C | 53.1% | 0hPa | 3.0V | 00:00:00 | 00:17:01 | 00:00:00 | |
| 9A1FER-10 | 2026-09-04 11:17:49 | 45.82492 | 16.04044 | 351° | 9km/h | 1236m | 5.2m/s | 18.9°C | 52.6% | 0hPa | 3.0V | 00:00:00 | 00:17:00 | 00:00:00 | |
| 9A1FER-3 | 2026-09-04 11:17:48 | 45.82489 | 16.04044 | 356° | 9km/h | 1231m | 4.5m/s | 18.9°C | 52.7% | 0hPa | 3.0V | 00:00:00 | 00:16:59 | 00:00:00 | |
| 9A1FER-15 | 2026-09-04 11:17:35 | 45.82459 | 16.04050 | 2° | 9km/h | 1171m | 3.6m/s | 19.5°C | 51.1% | 0hPa | 3.0V | 00:00:00 | 00:16:46 | 00:00:00 | |
| 9A1FER-10 | 2026-09-04 11:17:34 | 45.82456 | 16.04049 | 11° | 9km/h | 1168m | 2.7m/s | 19.6°C | 51.1% | 0hPa | 3.0V | 00:00:00 | 00:16:45 | 00:00:00 | |
| 9A1FER-3 | 2026-09-04 11:17:33 | 45.82454 | 16.04049 | 353° | 7km/h | 1164m | 6.5m/s | 19.6°C | 50.8% | 0hPa | 3.0V | 00:00:00 | 00:16:44 | 00:00:00 | |
| 9A1FER-15 | 2026-09-04 11:17:20 | 45.82428 | 16.04040 | 27° | 4km/h | 1107m | 3.9m/s | 20.0°C | 49.6% | 0hPa | 3.0V | 00:00:00 | 00:16:31 | 00:00:00 | |
| 9A1FER-10 | 2026-09-04 11:17:19 | 45.82427 | 16.04040 | 6° | 4km/h | 1102m | 5.3m/s | 20.0°C | 49.3% | 0hPa | 3.0V | 00:00:00 | 00:16:30 | 00:00:00 | |
| 9A1FER-3 | 2026-09-04 11:17:18 | 45.82426 | 16.04040 | 2° | 4km/h | 1098m | 3.6m/s | 20.1°C | 49.2% | 0hPa | 3.0V | 00:00:00 | 00:16:29 | 00:00:00 | |
| 9A1FER-15 | 2026-09-04 11:17:05 | 45.82418 | 16.04032 | 75° | 5km/h | 1040m | 4.0m/s | 20.7°C | 47.9% | 0hPa | 3.0V | 00:00:00 | 00:16:16 | 00:00:00 | |
| 9A1FER-10 | 2026-09-04 11:17:04 | 45.82418 | 16.04031 | 108° | 7km/h | 1035m | 4.5m/s | 20.7°C | 47.7% | 0hPa | 3.0V | 00:00:00 | 00:16:15 | 00:00:00 | |
| 9A1FER-3 | 2026-09-04 11:17:03 | 45.82418 | 16.04030 | 56° | 7km/h | 1031m | 4.9m/s | 20.7°C | 47.6% | 0hPa | 3.0V | 00:00:00 | 00:16:14 | 00:00:00 | |
| 9A1FER-15 | 2026-09-04 11:16:50 | 45.82402 | 16.04009 | 53° | 7km/h | 977m | 2.9m/s | 21.2°C | 45.9% | 0hPa | 3.0V | 00:00:00 | 00:16:01 | 00:00:00 | |
| 9A1FER-10 | 2026-09-04 11:16:49 | 45.82401 | 16.04006 | 72° | 7km/h | 974m | 3.7m/s | 21.3°C | 45.8% | 0hPa | 3.0V | 00:00:00 | 00:16:00 | 00:00:00 | |
| 9A1FER-3 | 2026-09-04 11:16:48 | 45.82400 | 16.04003 | 60° | 7km/h | 970m | 3.8m/s | 21.3°C | 45.6% | 0hPa | 3.0V | 00:00:00 | 00:15:59 | 00:00:00 | |
| 9A1FER-15 | 2026-09-04 11:16:35 | 45.82382 | 16.03992 | 39° | 7km/h | 910m | 5.6m/s | 21.9°C | 44.5% | 0hPa | 3.0V | 00:00:00 | 00:15:46 | 08:30:00 | |
| 9A1FER-10 | 2026-09-04 11:16:34 | 45.82380 | 16.03990 | 49° | 7km/h | 905m | 4.9m/s | 21.9°C | 44.6% | 0hPa | 3.0V | 00:00:00 | 00:15:45 | 08:30:00 | |
| 9A1FER-3 | 2026-09-04 11:16:33 | 45.82379 | 16.03987 | 45° | 7km/h | 900m | 5.2m/s | 22.0°C | 44.4% | 0hPa | 3.0V | 00:00:00 | 00:15:44 | 08:30:00 | |
| 9A1FER-15 | 2026-09-04 11:16:20 | 45.82361 | 16.03968 | 48° | 16km/h | 835m | 4.4m/s | 22.6°C | 42.6% | 0hPa | 3.0V | 00:00:00 | 00:15:31 | 00:00:00 | |
| 9A1FER-10 | 2026-09-04 11:16:19 | 45.82359 | 16.03964 | 49° | 16km/h | 831m | 3.4m/s | 22.7°C | 42.5% | 0hPa | 3.0V | 00:00:00 | 00:15:30 | 00:00:00 | |
| 9A1FER-3 | 2026-09-04 11:16:18 | 45.82356 | 16.03959 | 41° | 16km/h | 827m | 4.2m/s | 22.7°C | 42.4% | 0hPa | 3.0V | 00:00:00 | 00:15:29 | 00:00:00 | |
| 9A1FER-15 | 2026-09-04 11:16:05 | 45.82329 | 16.03890 | 90° | 13km/h | 765m | 3.2m/s | 23.4°C | 41.0% | 0hPa | 3.0V | 00:00:00 | 00:15:16 | 00:00:00 | |
| 9A1FER-10 | 2026-09-04 11:16:04 | 45.82328 | 16.03884 | 85° | 13km/h | 760m | 7.0m/s | 23.4°C | 40.9% | 0hPa | 3.0V | 00:00:00 | 00:15:15 | 00:00:00 | |
| 9A1FER-3 | 2026-09-04 11:16:03 | 45.82327 | 16.03879 | 69° | 13km/h | 753m | 6.0m/s | 23.4°C | 40.8% | 0hPa | 3.0V | 00:00:00 | 00:15:14 | 00:00:00 | |
| 9A1FER-15 | 2026-09-04 11:15:50 | 45.82306 | 16.03827 | 33° | 13km/h | 688m | 4.7m/s | 24.1°C | 39.4% | 0hPa | 3.0V | 00:00:00 | 00:15:01 | 00:00:00 | |
| 9A1FER-10 | 2026-09-04 11:15:49 | 45.82303 | 16.03824 | 48° | 13km/h | 683m | 4.9m/s | 24.2°C | 39.3% | 0hPa | 3.0V | 00:00:00 | 00:15:00 | 00:00:00 | |
| 9A1FER-3 | 2026-09-04 11:15:48 | 45.82302 | 16.03820 | 65° | 13km/h | 677m | 5.7m/s | 24.2°C | 39.2% | 0hPa | 3.0V | 00:00:00 | 00:14:59 | 00:00:00 | |
| 9A1FER-15 | 2026-09-04 11:15:35 | 45.82277 | 16.03774 | 70° | 15km/h | 614m | 5.3m/s | 24.9°C | 38.1% | 0hPa | 0V | 00:00:00 | 00:14:46 | 00:00:00 | |
| 9A1FER-10 | 2026-09-04 11:15:34 | 45.82276 | 16.03771 | 60° | 15km/h | 609m | 5.1m/s | 24.9°C | 38.0% | 0hPa | 0V | 00:00:00 | 00:14:45 | 00:00:00 | |
| 9A1FER-3 | 2026-09-04 11:15:33 | 45.82274 | 16.03768 | 37° | 15km/h | 604m | 4.0m/s | 25.0°C | 37.9% | 0hPa | 0V | 00:00:00 | 00:14:44 | 00:00:00 | |
| 9A1FER-15 | 2026-09-04 11:15:20 | 45.82245 | 16.03713 | 56° | 15km/h | 533m | 6.4m/s | 0°C | 0% | 0hPa | 0V | 00:00:00 | 00:14:31 | 00:00:00 | |
| 9A1FER-10 | 2026-09-04 11:15:19 | 45.82244 | 16.03708 | 73° | 13km/h | 527m | 6.6m/s | 0°C | 0% | 0hPa | 0V | 00:00:00 | 00:14:30 | 00:00:00 | |
| 9A1FER-3 | 2026-09-04 11:15:18 | 45.82242 | 16.03704 | 56° | 15km/h | 521m | 5.4m/s | 25.6°C | 36.8% | 0hPa | 0V | 00:00:00 | 00:14:29 | 00:00:00 | |
| 9A1FER-15 | 2026-09-04 11:15:05 | 45.82230 | 16.03644 | 32° | 16km/h | 454m | 4.0m/s | 0°C | 0% | 0hPa | 0V | 00:00:00 | 00:14:16 | 00:00:00 | |
| 9A1FER-10 | 2026-09-04 11:15:04 | 45.82226 | 16.03640 | 43° | 16km/h | 448m | 6.0m/s | 0°C | 0% | 0hPa | 0V | 00:00:00 | 00:14:15 | 00:00:00 | |
| 9A1FER-15 | 2026-09-04 11:14:50 | 45.82188 | 16.03575 | 66° | 20km/h | 377m | 3.2m/s | 0°C | 0% | 0hPa | 0V | 00:00:00 | 00:14:01 | 00:00:00 | |
| 9A1FER-10 | 2026-09-04 11:14:49 | 45.82187 | 16.03572 | 38° | 20km/h | 372m | 5.8m/s | 0°C | 0% | 0hPa | 0V | 00:00:00 | 00:14:00 | 00:00:00 | |
| 9A1FER-3 | 2026-09-04 11:14:48 | 45.82185 | 16.03569 | 68° | 20km/h | 366m | 6.4m/s | 0°C | 0% | 0hPa | 0V | 00:00:00 | 00:13:59 | 00:00:00 | |
| 9A1FER-15 | 2026-09-04 11:14:35 | 45.82145 | 16.03493 | 76° | 16km/h | 304m | 4.2m/s | 0°C | 0% | 0hPa | 0V | 00:00:00 | 00:13:46 | 00:00:00 | |
| 9A1FER-10 | 2026-09-04 11:14:34 | 45.82143 | 16.03488 | 41° | 13km/h | 300m | 3.9m/s | 0°C | 0% | 0hPa | 0V | 00:00:00 | 00:13:45 | 00:00:00 | |
| 9A1FER-3 | 2026-09-04 11:14:33 | 45.82140 | 16.03486 | 36° | 16km/h | 295m | 7.0m/s | 0°C | 0% | 0hPa | 0V | 00:00:00 | 00:13:44 | 00:00:00 | |
| 9A1FER-15 | 2026-09-04 11:14:20 | 45.82114 | 16.03424 | 14° | 16km/h | 241m | 4.5m/s | 0°C | 0% | 0hPa | 0V | 00:00:00 | 00:13:31 | 00:00:00 | |
| 9A1FER-10 | 2026-09-04 11:14:19 | 45.82112 | 16.03426 | 300° | 24km/h | 237m | 5.0m/s | 0°C | 0% | 0hPa | 0V | 00:00:00 | 00:13:30 | 00:00:00 | |
| 9A1FER-3 | 2026-09-04 11:14:18 | 45.82110 | 16.03430 | 324° | 18km/h | 233m | 1.9m/s | 0°C | 0% | 0hPa | 0V | 00:00:00 | 00:13:29 | 00:00:00 |